<?xml version="1.0" encoding="UTF-8" standalone="no" ?>
<gpx xmlns="http://www.topografix.com/GPX/1/1" xmlns:xsi="http://www.w3.org/2001/XMLSchema-instance" xsi:schemaLocation="http://www.topografix.com/GPX/1/1 http://www.topografix.com/GPX/1/1/gpx.xsd" version="1.1" creator="VisuGPX - https://www.visugpx.com">
  <metadata>
    <name>Plats Pays 3: Rees -&gt; Arnhem</name>
  </metadata>
  <trk>
    <name><![CDATA[Plats Pays 3: Rees -> Arnhem]]></name>
    <extensions>
      <line xmlns="http://www.topografix.com/GPX/gpx_style/0/2">
        <color>0000FF</color>
        <width>4</width>
      </line>
    </extensions>
    <trkseg>
      <trkpt lat="51.75762" lon="6.39265">
        <ele>74.989088</ele>
        <time>2026-05-07T07:49:58.759Z</time>
      </trkpt>
      <trkpt lat="51.75785" lon="6.39277">
        <ele>74.989088</ele>
        <time>2026-05-07T07:52:42.992Z</time>
      </trkpt>
      <trkpt lat="51.75793" lon="6.39268">
        <ele>74.989088</ele>
        <time>2026-05-07T07:52:47.990Z</time>
      </trkpt>
      <trkpt lat="51.758" lon="6.39256">
        <ele>74.989088</ele>
        <time>2026-05-07T07:52:52.988Z</time>
      </trkpt>
      <trkpt lat="51.75805" lon="6.39239">
        <ele>74.989088</ele>
        <time>2026-05-07T07:52:57.998Z</time>
      </trkpt>
      <trkpt lat="51.75811" lon="6.39227">
        <ele>74.989088</ele>
        <time>2026-05-07T07:53:01.977Z</time>
      </trkpt>
      <trkpt lat="51.75813" lon="6.39211">
        <ele>74.989088</ele>
        <time>2026-05-07T07:53:05.999Z</time>
      </trkpt>
      <trkpt lat="51.75815" lon="6.39196">
        <ele>74.989088</ele>
        <time>2026-05-07T07:53:09.979Z</time>
      </trkpt>
      <trkpt lat="51.75816" lon="6.39181">
        <ele>74.96419</ele>
        <time>2026-05-07T07:53:13.987Z</time>
      </trkpt>
      <trkpt lat="51.75817" lon="6.39162">
        <ele>74.897533</ele>
        <time>2026-05-07T07:53:17.991Z</time>
      </trkpt>
      <trkpt lat="51.75818" lon="6.39146">
        <ele>74.839616</ele>
        <time>2026-05-07T07:53:20.984Z</time>
      </trkpt>
      <trkpt lat="51.75821" lon="6.3913">
        <ele>74.781865</ele>
        <time>2026-05-07T07:53:23.986Z</time>
      </trkpt>
      <trkpt lat="51.75826" lon="6.39117">
        <ele>74.726667</ele>
        <time>2026-05-07T07:53:26.976Z</time>
      </trkpt>
      <trkpt lat="51.75835" lon="6.39106">
        <ele>74.662278</ele>
        <time>2026-05-07T07:53:30.993Z</time>
      </trkpt>
      <trkpt lat="51.75845" lon="6.39106">
        <ele>74.60205</ele>
        <time>2026-05-07T07:53:35.991Z</time>
      </trkpt>
      <trkpt lat="51.75855" lon="6.39114">
        <ele>74.540087</ele>
        <time>2026-05-07T07:53:39.992Z</time>
      </trkpt>
      <trkpt lat="51.75865" lon="6.39123">
        <ele>74.474189</ele>
        <time>2026-05-07T07:53:43.999Z</time>
      </trkpt>
      <trkpt lat="51.75873" lon="6.3913">
        <ele>74.422244</ele>
        <time>2026-05-07T07:53:46.978Z</time>
      </trkpt>
      <trkpt lat="51.75882" lon="6.39137">
        <ele>74.365926</ele>
        <time>2026-05-07T07:53:49.984Z</time>
      </trkpt>
      <trkpt lat="51.75891" lon="6.39144">
        <ele>74.310787</ele>
        <time>2026-05-07T07:53:52.983Z</time>
      </trkpt>
      <trkpt lat="51.75899" lon="6.39152">
        <ele>74.255647</ele>
        <time>2026-05-07T07:53:55.978Z</time>
      </trkpt>
      <trkpt lat="51.75908" lon="6.39159">
        <ele>74.198491</ele>
        <time>2026-05-07T07:53:58.990Z</time>
      </trkpt>
      <trkpt lat="51.75919" lon="6.39168">
        <ele>74.129229</ele>
        <time>2026-05-07T07:54:01.995Z</time>
      </trkpt>
      <trkpt lat="51.7593" lon="6.39178">
        <ele>74.057112</ele>
        <time>2026-05-07T07:54:04.984Z</time>
      </trkpt>
      <trkpt lat="51.7594" lon="6.39188">
        <ele>73.986307</ele>
        <time>2026-05-07T07:54:07.995Z</time>
      </trkpt>
      <trkpt lat="51.75952" lon="6.39197">
        <ele>73.739592</ele>
        <time>2026-05-07T07:54:10.985Z</time>
      </trkpt>
      <trkpt lat="51.75964" lon="6.39207">
        <ele>73.41249</ele>
        <time>2026-05-07T07:54:13.981Z</time>
      </trkpt>
      <trkpt lat="51.75972" lon="6.39212">
        <ele>73.181388</ele>
        <time>2026-05-07T07:54:15.989Z</time>
      </trkpt>
      <trkpt lat="51.7598" lon="6.39219">
        <ele>72.945605</ele>
        <time>2026-05-07T07:54:17.972Z</time>
      </trkpt>
      <trkpt lat="51.75992" lon="6.39229">
        <ele>72.608711</ele>
        <time>2026-05-07T07:54:20.986Z</time>
      </trkpt>
      <trkpt lat="51.76" lon="6.39237">
        <ele>72.375277</ele>
        <time>2026-05-07T07:54:22.987Z</time>
      </trkpt>
      <trkpt lat="51.76008" lon="6.39243">
        <ele>72.139662</ele>
        <time>2026-05-07T07:54:24.991Z</time>
      </trkpt>
      <trkpt lat="51.76019" lon="6.39255">
        <ele>71.801277</ele>
        <time>2026-05-07T07:54:27.978Z</time>
      </trkpt>
      <trkpt lat="51.76027" lon="6.39263">
        <ele>71.557223</ele>
        <time>2026-05-07T07:54:29.986Z</time>
      </trkpt>
      <trkpt lat="51.76036" lon="6.39271">
        <ele>71.291312</ele>
        <time>2026-05-07T07:54:31.982Z</time>
      </trkpt>
      <trkpt lat="51.76044" lon="6.3928">
        <ele>71.042116</ele>
        <time>2026-05-07T07:54:33.975Z</time>
      </trkpt>
      <trkpt lat="51.76052" lon="6.3929">
        <ele>70.787576</ele>
        <time>2026-05-07T07:54:35.986Z</time>
      </trkpt>
      <trkpt lat="51.76059" lon="6.39301">
        <ele>70.546031</ele>
        <time>2026-05-07T07:54:37.990Z</time>
      </trkpt>
      <trkpt lat="51.76066" lon="6.39312">
        <ele>70.296004</ele>
        <time>2026-05-07T07:54:39.993Z</time>
      </trkpt>
      <trkpt lat="51.76073" lon="6.39322">
        <ele>70.055393</ele>
        <time>2026-05-07T07:54:41.991Z</time>
      </trkpt>
      <trkpt lat="51.76081" lon="6.39332">
        <ele>69.808782</ele>
        <time>2026-05-07T07:54:43.998Z</time>
      </trkpt>
      <trkpt lat="51.76088" lon="6.39341">
        <ele>69.571152</ele>
        <time>2026-05-07T07:54:45.990Z</time>
      </trkpt>
      <trkpt lat="51.76095" lon="6.3935">
        <ele>69.341059</ele>
        <time>2026-05-07T07:54:47.986Z</time>
      </trkpt>
      <trkpt lat="51.76103" lon="6.39358">
        <ele>69.103458</ele>
        <time>2026-05-07T07:54:49.975Z</time>
      </trkpt>
      <trkpt lat="51.76113" lon="6.39369">
        <ele>68.773238</ele>
        <time>2026-05-07T07:54:52.984Z</time>
      </trkpt>
      <trkpt lat="51.76124" lon="6.3938">
        <ele>68.449977</ele>
        <time>2026-05-07T07:54:55.985Z</time>
      </trkpt>
      <trkpt lat="51.76134" lon="6.39391">
        <ele>68.147166</ele>
        <time>2026-05-07T07:54:58.984Z</time>
      </trkpt>
      <trkpt lat="51.76144" lon="6.394">
        <ele>67.834746</ele>
        <time>2026-05-07T07:55:01.983Z</time>
      </trkpt>
      <trkpt lat="51.76155" lon="6.39409">
        <ele>67.517764</ele>
        <time>2026-05-07T07:55:04.985Z</time>
      </trkpt>
      <trkpt lat="51.76164" lon="6.39418">
        <ele>67.2378</ele>
        <time>2026-05-07T07:55:07.984Z</time>
      </trkpt>
      <trkpt lat="51.76174" lon="6.39426">
        <ele>66.959579</ele>
        <time>2026-05-07T07:55:10.978Z</time>
      </trkpt>
      <trkpt lat="51.76184" lon="6.39434">
        <ele>66.674295</ele>
        <time>2026-05-07T07:55:13.983Z</time>
      </trkpt>
      <trkpt lat="51.76195" lon="6.3944">
        <ele>66.368154</ele>
        <time>2026-05-07T07:55:16.996Z</time>
      </trkpt>
      <trkpt lat="51.76204" lon="6.39434">
        <ele>66.11058</ele>
        <time>2026-05-07T07:55:20.982Z</time>
      </trkpt>
      <trkpt lat="51.76205" lon="6.39419">
        <ele>65.874698</ele>
        <time>2026-05-07T07:55:23.990Z</time>
      </trkpt>
      <trkpt lat="51.76207" lon="6.39403">
        <ele>65.612335</ele>
        <time>2026-05-07T07:55:26.990Z</time>
      </trkpt>
      <trkpt lat="51.76211" lon="6.39386">
        <ele>65.31891</ele>
        <time>2026-05-07T07:55:29.988Z</time>
      </trkpt>
      <trkpt lat="51.76215" lon="6.39368">
        <ele>65.023752</ele>
        <time>2026-05-07T07:55:32.998Z</time>
      </trkpt>
      <trkpt lat="51.76219" lon="6.3935">
        <ele>64.716871</ele>
        <time>2026-05-07T07:55:35.990Z</time>
      </trkpt>
      <trkpt lat="51.76223" lon="6.39332">
        <ele>64.480855</ele>
        <time>2026-05-07T07:55:38.989Z</time>
      </trkpt>
      <trkpt lat="51.76228" lon="6.39313">
        <ele>64.24118</ele>
        <time>2026-05-07T07:55:41.976Z</time>
      </trkpt>
      <trkpt lat="51.76233" lon="6.39294">
        <ele>64.005984</ele>
        <time>2026-05-07T07:55:44.992Z</time>
      </trkpt>
      <trkpt lat="51.76238" lon="6.39275">
        <ele>63.756412</ele>
        <time>2026-05-07T07:55:47.980Z</time>
      </trkpt>
      <trkpt lat="51.76242" lon="6.39261">
        <ele>63.586184</ele>
        <time>2026-05-07T07:55:49.994Z</time>
      </trkpt>
      <trkpt lat="51.76247" lon="6.39242">
        <ele>63.33627</ele>
        <time>2026-05-07T07:55:52.980Z</time>
      </trkpt>
      <trkpt lat="51.76253" lon="6.39222">
        <ele>63.089173</ele>
        <time>2026-05-07T07:55:55.996Z</time>
      </trkpt>
      <trkpt lat="51.76259" lon="6.39204">
        <ele>62.846654</ele>
        <time>2026-05-07T07:55:58.988Z</time>
      </trkpt>
      <trkpt lat="51.76265" lon="6.39185">
        <ele>62.597645</ele>
        <time>2026-05-07T07:56:01.984Z</time>
      </trkpt>
      <trkpt lat="51.76271" lon="6.39166">
        <ele>62.35286</ele>
        <time>2026-05-07T07:56:04.976Z</time>
      </trkpt>
      <trkpt lat="51.76277" lon="6.39147">
        <ele>62.105987</ele>
        <time>2026-05-07T07:56:07.987Z</time>
      </trkpt>
      <trkpt lat="51.76282" lon="6.39128">
        <ele>61.862351</ele>
        <time>2026-05-07T07:56:10.993Z</time>
      </trkpt>
      <trkpt lat="51.76286" lon="6.39115">
        <ele>61.689235</ele>
        <time>2026-05-07T07:56:12.980Z</time>
      </trkpt>
      <trkpt lat="51.7629" lon="6.39101">
        <ele>61.516682</ele>
        <time>2026-05-07T07:56:14.992Z</time>
      </trkpt>
      <trkpt lat="51.76294" lon="6.39088">
        <ele>61.346461</ele>
        <time>2026-05-07T07:56:16.981Z</time>
      </trkpt>
      <trkpt lat="51.76299" lon="6.39069">
        <ele>61.227105</ele>
        <time>2026-05-07T07:56:19.991Z</time>
      </trkpt>
      <trkpt lat="51.76305" lon="6.39049">
        <ele>61.128536</ele>
        <time>2026-05-07T07:56:22.978Z</time>
      </trkpt>
      <trkpt lat="51.76311" lon="6.3903">
        <ele>61.02858</ele>
        <time>2026-05-07T07:56:25.986Z</time>
      </trkpt>
      <trkpt lat="51.76315" lon="6.39017">
        <ele>60.959947</ele>
        <time>2026-05-07T07:56:27.987Z</time>
      </trkpt>
      <trkpt lat="51.76321" lon="6.38997">
        <ele>60.859902</ele>
        <time>2026-05-07T07:56:30.980Z</time>
      </trkpt>
      <trkpt lat="51.76325" lon="6.38984">
        <ele>60.79205</ele>
        <time>2026-05-07T07:56:32.985Z</time>
      </trkpt>
      <trkpt lat="51.7633" lon="6.38964">
        <ele>60.691171</ele>
        <time>2026-05-07T07:56:36.002Z</time>
      </trkpt>
      <trkpt lat="51.76336" lon="6.38945">
        <ele>60.592045</ele>
        <time>2026-05-07T07:56:38.985Z</time>
      </trkpt>
      <trkpt lat="51.76342" lon="6.38927">
        <ele>60.49731</ele>
        <time>2026-05-07T07:56:41.990Z</time>
      </trkpt>
      <trkpt lat="51.76348" lon="6.38908">
        <ele>60.398332</ele>
        <time>2026-05-07T07:56:44.990Z</time>
      </trkpt>
      <trkpt lat="51.76354" lon="6.38888">
        <ele>60.298705</ele>
        <time>2026-05-07T07:56:47.974Z</time>
      </trkpt>
      <trkpt lat="51.7636" lon="6.3887">
        <ele>60.201467</ele>
        <time>2026-05-07T07:56:50.981Z</time>
      </trkpt>
      <trkpt lat="51.76366" lon="6.38853">
        <ele>60.112973</ele>
        <time>2026-05-07T07:56:53.987Z</time>
      </trkpt>
      <trkpt lat="51.7637" lon="6.38839">
        <ele>60.039257</ele>
        <time>2026-05-07T07:56:56.984Z</time>
      </trkpt>
      <trkpt lat="51.76374" lon="6.38823">
        <ele>60.008122</ele>
        <time>2026-05-07T07:56:59.981Z</time>
      </trkpt>
      <trkpt lat="51.76379" lon="6.38806">
        <ele>60.268946</ele>
        <time>2026-05-07T07:57:02.993Z</time>
      </trkpt>
      <trkpt lat="51.76386" lon="6.38788">
        <ele>60.547639</ele>
        <time>2026-05-07T07:57:05.978Z</time>
      </trkpt>
      <trkpt lat="51.76391" lon="6.3877">
        <ele>60.820141</ele>
        <time>2026-05-07T07:57:08.984Z</time>
      </trkpt>
      <trkpt lat="51.76397" lon="6.38752">
        <ele>61.09606</ele>
        <time>2026-05-07T07:57:11.981Z</time>
      </trkpt>
      <trkpt lat="51.76402" lon="6.38733">
        <ele>61.372206</ele>
        <time>2026-05-07T07:57:14.984Z</time>
      </trkpt>
      <trkpt lat="51.7641" lon="6.38719">
        <ele>61.625218</ele>
        <time>2026-05-07T07:57:17.982Z</time>
      </trkpt>
      <trkpt lat="51.76417" lon="6.38705">
        <ele>61.873473</ele>
        <time>2026-05-07T07:57:20.987Z</time>
      </trkpt>
      <trkpt lat="51.76422" lon="6.3869">
        <ele>62.105117</ele>
        <time>2026-05-07T07:57:23.979Z</time>
      </trkpt>
      <trkpt lat="51.76427" lon="6.38671">
        <ele>62.382735</ele>
        <time>2026-05-07T07:57:26.986Z</time>
      </trkpt>
      <trkpt lat="51.76433" lon="6.38653">
        <ele>62.656689</ele>
        <time>2026-05-07T07:57:29.984Z</time>
      </trkpt>
      <trkpt lat="51.76437" lon="6.38635">
        <ele>62.925957</ele>
        <time>2026-05-07T07:57:32.991Z</time>
      </trkpt>
      <trkpt lat="51.7644" lon="6.38615">
        <ele>63.205874</ele>
        <time>2026-05-07T07:57:35.980Z</time>
      </trkpt>
      <trkpt lat="51.76446" lon="6.38596">
        <ele>63.49347</ele>
        <time>2026-05-07T07:57:38.994Z</time>
      </trkpt>
      <trkpt lat="51.76451" lon="6.38578">
        <ele>63.766463</ele>
        <time>2026-05-07T07:57:41.983Z</time>
      </trkpt>
      <trkpt lat="51.76457" lon="6.38559">
        <ele>63.781813</ele>
        <time>2026-05-07T07:57:44.994Z</time>
      </trkpt>
      <trkpt lat="51.76462" lon="6.38541">
        <ele>63.47566</ele>
        <time>2026-05-07T07:57:47.984Z</time>
      </trkpt>
      <trkpt lat="51.76468" lon="6.38522">
        <ele>63.160536</ele>
        <time>2026-05-07T07:57:50.979Z</time>
      </trkpt>
      <trkpt lat="51.76474" lon="6.38503">
        <ele>62.834279</ele>
        <time>2026-05-07T07:57:53.973Z</time>
      </trkpt>
      <trkpt lat="51.7648" lon="6.38484">
        <ele>62.513826</ele>
        <time>2026-05-07T07:57:56.966Z</time>
      </trkpt>
      <trkpt lat="51.76486" lon="6.38466">
        <ele>62.187035</ele>
        <time>2026-05-07T07:57:59.987Z</time>
      </trkpt>
      <trkpt lat="51.76493" lon="6.38447">
        <ele>61.868376</ele>
        <time>2026-05-07T07:58:02.985Z</time>
      </trkpt>
      <trkpt lat="51.765" lon="6.38431">
        <ele>61.556829</ele>
        <time>2026-05-07T07:58:05.994Z</time>
      </trkpt>
      <trkpt lat="51.76506" lon="6.38412">
        <ele>61.229463</ele>
        <time>2026-05-07T07:58:08.992Z</time>
      </trkpt>
      <trkpt lat="51.76511" lon="6.38399">
        <ele>61.007214</ele>
        <time>2026-05-07T07:58:10.988Z</time>
      </trkpt>
      <trkpt lat="51.76517" lon="6.3838">
        <ele>60.685427</ele>
        <time>2026-05-07T07:58:13.982Z</time>
      </trkpt>
      <trkpt lat="51.76521" lon="6.38367">
        <ele>60.461641</ele>
        <time>2026-05-07T07:58:15.990Z</time>
      </trkpt>
      <trkpt lat="51.76526" lon="6.38354">
        <ele>60.239744</ele>
        <time>2026-05-07T07:58:17.976Z</time>
      </trkpt>
      <trkpt lat="51.76532" lon="6.38336">
        <ele>59.926252</ele>
        <time>2026-05-07T07:58:20.991Z</time>
      </trkpt>
      <trkpt lat="51.76539" lon="6.3832">
        <ele>59.621764</ele>
        <time>2026-05-07T07:58:23.987Z</time>
      </trkpt>
      <trkpt lat="51.76546" lon="6.38303">
        <ele>59.51222</ele>
        <time>2026-05-07T07:58:26.982Z</time>
      </trkpt>
      <trkpt lat="51.76554" lon="6.3829">
        <ele>59.512373</ele>
        <time>2026-05-07T07:58:29.978Z</time>
      </trkpt>
      <trkpt lat="51.76561" lon="6.3828">
        <ele>59.512498</ele>
        <time>2026-05-07T07:58:32.985Z</time>
      </trkpt>
      <trkpt lat="51.76569" lon="6.38273">
        <ele>59.51262</ele>
        <time>2026-05-07T07:58:43.982Z</time>
      </trkpt>
      <trkpt lat="51.76575" lon="6.38261">
        <ele>59.512748</ele>
        <time>2026-05-07T07:58:57.994Z</time>
      </trkpt>
      <trkpt lat="51.76583" lon="6.38252">
        <ele>59.512873</ele>
        <time>2026-05-07T07:59:01.997Z</time>
      </trkpt>
      <trkpt lat="51.76591" lon="6.38244">
        <ele>59.513002</ele>
        <time>2026-05-07T07:59:05.980Z</time>
      </trkpt>
      <trkpt lat="51.76595" lon="6.38228">
        <ele>59.513147</ele>
        <time>2026-05-07T07:59:09.982Z</time>
      </trkpt>
      <trkpt lat="51.76599" lon="6.38214">
        <ele>59.513272</ele>
        <time>2026-05-07T07:59:12.985Z</time>
      </trkpt>
      <trkpt lat="51.76605" lon="6.38201">
        <ele>59.513409</ele>
        <time>2026-05-07T07:59:15.985Z</time>
      </trkpt>
      <trkpt lat="51.76612" lon="6.38187">
        <ele>59.51355</ele>
        <time>2026-05-07T07:59:18.971Z</time>
      </trkpt>
      <trkpt lat="51.76619" lon="6.38173">
        <ele>59.513698</ele>
        <time>2026-05-07T07:59:21.987Z</time>
      </trkpt>
      <trkpt lat="51.76625" lon="6.38158">
        <ele>59.513854</ele>
        <time>2026-05-07T07:59:24.983Z</time>
      </trkpt>
      <trkpt lat="51.76633" lon="6.38142">
        <ele>59.51402</ele>
        <time>2026-05-07T07:59:27.990Z</time>
      </trkpt>
      <trkpt lat="51.76639" lon="6.38129">
        <ele>59.514152</ele>
        <time>2026-05-07T07:59:30.976Z</time>
      </trkpt>
      <trkpt lat="51.76645" lon="6.38117">
        <ele>59.514283</ele>
        <time>2026-05-07T07:59:33.984Z</time>
      </trkpt>
      <trkpt lat="51.76652" lon="6.38101">
        <ele>59.514446</ele>
        <time>2026-05-07T07:59:36.975Z</time>
      </trkpt>
      <trkpt lat="51.76659" lon="6.38086">
        <ele>59.6255</ele>
        <time>2026-05-07T07:59:39.987Z</time>
      </trkpt>
      <trkpt lat="51.76666" lon="6.38072">
        <ele>59.797894</ele>
        <time>2026-05-07T07:59:42.991Z</time>
      </trkpt>
      <trkpt lat="51.76673" lon="6.38058">
        <ele>59.992936</ele>
        <time>2026-05-07T07:59:45.988Z</time>
      </trkpt>
      <trkpt lat="51.7668" lon="6.38043">
        <ele>60.181839</ele>
        <time>2026-05-07T07:59:48.986Z</time>
      </trkpt>
      <trkpt lat="51.76686" lon="6.38029">
        <ele>60.360342</ele>
        <time>2026-05-07T07:59:51.982Z</time>
      </trkpt>
      <trkpt lat="51.76694" lon="6.38015">
        <ele>60.547203</ele>
        <time>2026-05-07T07:59:54.985Z</time>
      </trkpt>
      <trkpt lat="51.76701" lon="6.37999">
        <ele>60.762382</ele>
        <time>2026-05-07T07:59:57.982Z</time>
      </trkpt>
      <trkpt lat="51.76707" lon="6.37986">
        <ele>60.920384</ele>
        <time>2026-05-07T07:59:59.982Z</time>
      </trkpt>
      <trkpt lat="51.76714" lon="6.37971">
        <ele>61.115832</ele>
        <time>2026-05-07T08:00:02.985Z</time>
      </trkpt>
      <trkpt lat="51.7672" lon="6.37955">
        <ele>61.309592</ele>
        <time>2026-05-07T08:00:05.994Z</time>
      </trkpt>
      <trkpt lat="51.76725" lon="6.3794">
        <ele>61.487557</ele>
        <time>2026-05-07T08:00:08.990Z</time>
      </trkpt>
      <trkpt lat="51.76731" lon="6.37923">
        <ele>61.683768</ele>
        <time>2026-05-07T08:00:11.997Z</time>
      </trkpt>
      <trkpt lat="51.76736" lon="6.37908">
        <ele>61.860173</ele>
        <time>2026-05-07T08:00:14.991Z</time>
      </trkpt>
      <trkpt lat="51.76744" lon="6.37894">
        <ele>62.057823</ele>
        <time>2026-05-07T08:00:17.988Z</time>
      </trkpt>
      <trkpt lat="51.76753" lon="6.37881">
        <ele>62.24967</ele>
        <time>2026-05-07T08:00:20.994Z</time>
      </trkpt>
      <trkpt lat="51.76761" lon="6.37868">
        <ele>62.449804</ele>
        <time>2026-05-07T08:00:23.984Z</time>
      </trkpt>
      <trkpt lat="51.76769" lon="6.37857">
        <ele>62.454467</ele>
        <time>2026-05-07T08:00:26.992Z</time>
      </trkpt>
      <trkpt lat="51.76778" lon="6.37848">
        <ele>62.372785</ele>
        <time>2026-05-07T08:00:29.991Z</time>
      </trkpt>
      <trkpt lat="51.76788" lon="6.37836">
        <ele>62.283052</ele>
        <time>2026-05-07T08:00:32.979Z</time>
      </trkpt>
      <trkpt lat="51.76797" lon="6.37826">
        <ele>62.196417</ele>
        <time>2026-05-07T08:00:35.998Z</time>
      </trkpt>
      <trkpt lat="51.76808" lon="6.37814">
        <ele>62.102292</ele>
        <time>2026-05-07T08:00:38.996Z</time>
      </trkpt>
      <trkpt lat="51.76819" lon="6.37804">
        <ele>62.008058</ele>
        <time>2026-05-07T08:00:41.980Z</time>
      </trkpt>
      <trkpt lat="51.76829" lon="6.37795">
        <ele>61.919356</ele>
        <time>2026-05-07T08:00:44.984Z</time>
      </trkpt>
      <trkpt lat="51.7684" lon="6.37787">
        <ele>61.834451</ele>
        <time>2026-05-07T08:00:47.993Z</time>
      </trkpt>
      <trkpt lat="51.7685" lon="6.3778">
        <ele>61.746323</ele>
        <time>2026-05-07T08:00:50.988Z</time>
      </trkpt>
      <trkpt lat="51.76862" lon="6.37773">
        <ele>61.655949</ele>
        <time>2026-05-07T08:00:53.990Z</time>
      </trkpt>
      <trkpt lat="51.76873" lon="6.37766">
        <ele>61.565037</ele>
        <time>2026-05-07T08:00:56.991Z</time>
      </trkpt>
      <trkpt lat="51.76886" lon="6.37759">
        <ele>61.463791</ele>
        <time>2026-05-07T08:00:59.991Z</time>
      </trkpt>
      <trkpt lat="51.76898" lon="6.37752">
        <ele>61.367</ele>
        <time>2026-05-07T08:01:02.983Z</time>
      </trkpt>
      <trkpt lat="51.76909" lon="6.37744">
        <ele>61.275071</ele>
        <time>2026-05-07T08:01:05.993Z</time>
      </trkpt>
      <trkpt lat="51.76921" lon="6.37738">
        <ele>61.186085</ele>
        <time>2026-05-07T08:01:08.987Z</time>
      </trkpt>
      <trkpt lat="51.76932" lon="6.37731">
        <ele>61.289659</ele>
        <time>2026-05-07T08:01:11.979Z</time>
      </trkpt>
      <trkpt lat="51.76944" lon="6.37727">
        <ele>61.471467</ele>
        <time>2026-05-07T08:01:14.995Z</time>
      </trkpt>
      <trkpt lat="51.76956" lon="6.3772">
        <ele>61.654886</ele>
        <time>2026-05-07T08:01:17.978Z</time>
      </trkpt>
      <trkpt lat="51.76966" lon="6.37713">
        <ele>61.820025</ele>
        <time>2026-05-07T08:01:20.983Z</time>
      </trkpt>
      <trkpt lat="51.76977" lon="6.37706">
        <ele>61.988584</ele>
        <time>2026-05-07T08:01:23.983Z</time>
      </trkpt>
      <trkpt lat="51.76988" lon="6.377">
        <ele>62.1548</ele>
        <time>2026-05-07T08:01:26.980Z</time>
      </trkpt>
      <trkpt lat="51.76998" lon="6.37695">
        <ele>62.312182</ele>
        <time>2026-05-07T08:01:29.988Z</time>
      </trkpt>
      <trkpt lat="51.77008" lon="6.37687">
        <ele>62.477169</ele>
        <time>2026-05-07T08:01:32.992Z</time>
      </trkpt>
      <trkpt lat="51.77018" lon="6.3768">
        <ele>62.639322</ele>
        <time>2026-05-07T08:01:35.986Z</time>
      </trkpt>
      <trkpt lat="51.77027" lon="6.37674">
        <ele>62.785741</ele>
        <time>2026-05-07T08:01:38.985Z</time>
      </trkpt>
      <trkpt lat="51.77036" lon="6.37663">
        <ele>62.947413</ele>
        <time>2026-05-07T08:01:42.986Z</time>
      </trkpt>
      <trkpt lat="51.7705" lon="6.37696">
        <ele>63.313351</ele>
        <time>2026-05-07T08:02:35.985Z</time>
      </trkpt>
      <trkpt lat="51.77053" lon="6.37714">
        <ele>63.481541</ele>
        <time>2026-05-07T08:02:38.986Z</time>
      </trkpt>
      <trkpt lat="51.77056" lon="6.37731">
        <ele>63.642187</ele>
        <time>2026-05-07T08:02:41.991Z</time>
      </trkpt>
      <trkpt lat="51.77059" lon="6.37747">
        <ele>63.794626</ele>
        <time>2026-05-07T08:02:44.983Z</time>
      </trkpt>
      <trkpt lat="51.77063" lon="6.37764">
        <ele>63.509033</ele>
        <time>2026-05-07T08:02:47.984Z</time>
      </trkpt>
      <trkpt lat="51.77067" lon="6.37782">
        <ele>63.210122</ele>
        <time>2026-05-07T08:02:50.985Z</time>
      </trkpt>
      <trkpt lat="51.7707" lon="6.37798">
        <ele>62.92625</ele>
        <time>2026-05-07T08:02:53.972Z</time>
      </trkpt>
      <trkpt lat="51.77074" lon="6.37816">
        <ele>62.616289</ele>
        <time>2026-05-07T08:02:57.985Z</time>
      </trkpt>
      <trkpt lat="51.77078" lon="6.37832">
        <ele>62.324803</ele>
        <time>2026-05-07T08:03:00.990Z</time>
      </trkpt>
      <trkpt lat="51.77089" lon="6.3784">
        <ele>62.014467</ele>
        <time>2026-05-07T08:03:03.991Z</time>
      </trkpt>
      <trkpt lat="51.77102" lon="6.37836">
        <ele>61.658858</ele>
        <time>2026-05-07T08:03:06.990Z</time>
      </trkpt>
      <trkpt lat="51.7711" lon="6.37831">
        <ele>61.417506</ele>
        <time>2026-05-07T08:03:08.976Z</time>
      </trkpt>
      <trkpt lat="51.77119" lon="6.37826">
        <ele>61.16855</ele>
        <time>2026-05-07T08:03:10.991Z</time>
      </trkpt>
      <trkpt lat="51.77128" lon="6.37822">
        <ele>60.92926</ele>
        <time>2026-05-07T08:03:12.989Z</time>
      </trkpt>
      <trkpt lat="51.77141" lon="6.37815">
        <ele>60.56629</ele>
        <time>2026-05-07T08:03:15.982Z</time>
      </trkpt>
      <trkpt lat="51.7715" lon="6.3781">
        <ele>60.320793</ele>
        <time>2026-05-07T08:03:17.997Z</time>
      </trkpt>
      <trkpt lat="51.77162" lon="6.37802">
        <ele>59.960395</ele>
        <time>2026-05-07T08:03:20.995Z</time>
      </trkpt>
      <trkpt lat="51.77175" lon="6.37795">
        <ele>59.612809</ele>
        <time>2026-05-07T08:03:23.983Z</time>
      </trkpt>
      <trkpt lat="51.77187" lon="6.37788">
        <ele>59.276314</ele>
        <time>2026-05-07T08:03:26.984Z</time>
      </trkpt>
      <trkpt lat="51.77199" lon="6.37781">
        <ele>58.957105</ele>
        <time>2026-05-07T08:03:29.990Z</time>
      </trkpt>
      <trkpt lat="51.77211" lon="6.37773">
        <ele>58.692312</ele>
        <time>2026-05-07T08:03:32.976Z</time>
      </trkpt>
      <trkpt lat="51.77222" lon="6.37766">
        <ele>58.434227</ele>
        <time>2026-05-07T08:03:35.996Z</time>
      </trkpt>
      <trkpt lat="51.77234" lon="6.3776">
        <ele>58.168089</ele>
        <time>2026-05-07T08:03:38.995Z</time>
      </trkpt>
      <trkpt lat="51.77246" lon="6.37753">
        <ele>57.915208</ele>
        <time>2026-05-07T08:03:41.982Z</time>
      </trkpt>
      <trkpt lat="51.77257" lon="6.37745">
        <ele>57.661023</ele>
        <time>2026-05-07T08:03:44.990Z</time>
      </trkpt>
      <trkpt lat="51.77269" lon="6.37738">
        <ele>57.396797</ele>
        <time>2026-05-07T08:03:47.983Z</time>
      </trkpt>
      <trkpt lat="51.77282" lon="6.37731">
        <ele>57.126329</ele>
        <time>2026-05-07T08:03:50.989Z</time>
      </trkpt>
      <trkpt lat="51.77294" lon="6.37723">
        <ele>56.858286</ele>
        <time>2026-05-07T08:03:53.985Z</time>
      </trkpt>
      <trkpt lat="51.77305" lon="6.37717">
        <ele>56.602354</ele>
        <time>2026-05-07T08:03:56.990Z</time>
      </trkpt>
      <trkpt lat="51.77317" lon="6.3771">
        <ele>56.341348</ele>
        <time>2026-05-07T08:03:59.976Z</time>
      </trkpt>
      <trkpt lat="51.77328" lon="6.37704">
        <ele>56.095175</ele>
        <time>2026-05-07T08:04:02.990Z</time>
      </trkpt>
      <trkpt lat="51.7734" lon="6.37697">
        <ele>55.850063</ele>
        <time>2026-05-07T08:04:05.984Z</time>
      </trkpt>
      <trkpt lat="51.77351" lon="6.37691">
        <ele>55.605161</ele>
        <time>2026-05-07T08:04:08.981Z</time>
      </trkpt>
      <trkpt lat="51.77362" lon="6.37685">
        <ele>55.357886</ele>
        <time>2026-05-07T08:04:11.979Z</time>
      </trkpt>
      <trkpt lat="51.77373" lon="6.37677">
        <ele>55.356792</ele>
        <time>2026-05-07T08:04:14.983Z</time>
      </trkpt>
      <trkpt lat="51.77385" lon="6.3767">
        <ele>55.415741</ele>
        <time>2026-05-07T08:04:17.991Z</time>
      </trkpt>
      <trkpt lat="51.77397" lon="6.37664">
        <ele>55.47439</ele>
        <time>2026-05-07T08:04:20.983Z</time>
      </trkpt>
      <trkpt lat="51.77408" lon="6.37657">
        <ele>55.532895</ele>
        <time>2026-05-07T08:04:23.988Z</time>
      </trkpt>
      <trkpt lat="51.7742" lon="6.3765">
        <ele>55.5914</ele>
        <time>2026-05-07T08:04:26.989Z</time>
      </trkpt>
      <trkpt lat="51.77431" lon="6.37643">
        <ele>55.649315</ele>
        <time>2026-05-07T08:04:30.006Z</time>
      </trkpt>
      <trkpt lat="51.77443" lon="6.37637">
        <ele>55.705988</ele>
        <time>2026-05-07T08:04:32.986Z</time>
      </trkpt>
      <trkpt lat="51.77454" lon="6.3763">
        <ele>55.763998</ele>
        <time>2026-05-07T08:04:35.984Z</time>
      </trkpt>
      <trkpt lat="51.77465" lon="6.37622">
        <ele>55.820076</ele>
        <time>2026-05-07T08:04:38.987Z</time>
      </trkpt>
      <trkpt lat="51.77476" lon="6.37622">
        <ele>55.873969</ele>
        <time>2026-05-07T08:04:41.981Z</time>
      </trkpt>
      <trkpt lat="51.77486" lon="6.37636">
        <ele>55.932615</ele>
        <time>2026-05-07T08:04:44.990Z</time>
      </trkpt>
      <trkpt lat="51.77495" lon="6.37651">
        <ele>55.995616</ele>
        <time>2026-05-07T08:04:47.986Z</time>
      </trkpt>
      <trkpt lat="51.77504" lon="6.37667">
        <ele>56.057571</ele>
        <time>2026-05-07T08:04:50.986Z</time>
      </trkpt>
      <trkpt lat="51.77513" lon="6.37681">
        <ele>56.117042</ele>
        <time>2026-05-07T08:04:53.986Z</time>
      </trkpt>
      <trkpt lat="51.77522" lon="6.37696">
        <ele>56.184049</ele>
        <time>2026-05-07T08:04:56.991Z</time>
      </trkpt>
      <trkpt lat="51.77531" lon="6.37712">
        <ele>56.267964</ele>
        <time>2026-05-07T08:04:59.985Z</time>
      </trkpt>
      <trkpt lat="51.7754" lon="6.37727">
        <ele>56.350592</ele>
        <time>2026-05-07T08:05:02.993Z</time>
      </trkpt>
      <trkpt lat="51.77549" lon="6.37742">
        <ele>56.43379</ele>
        <time>2026-05-07T08:05:05.991Z</time>
      </trkpt>
      <trkpt lat="51.77558" lon="6.37757">
        <ele>56.515638</ele>
        <time>2026-05-07T08:05:08.995Z</time>
      </trkpt>
      <trkpt lat="51.77567" lon="6.37771">
        <ele>56.599136</ele>
        <time>2026-05-07T08:05:11.980Z</time>
      </trkpt>
      <trkpt lat="51.77577" lon="6.37787">
        <ele>56.683943</ele>
        <time>2026-05-07T08:05:14.977Z</time>
      </trkpt>
      <trkpt lat="51.77586" lon="6.37801">
        <ele>56.766523</ele>
        <time>2026-05-07T08:05:17.988Z</time>
      </trkpt>
      <trkpt lat="51.77596" lon="6.37816">
        <ele>56.849945</ele>
        <time>2026-05-07T08:05:20.986Z</time>
      </trkpt>
      <trkpt lat="51.77605" lon="6.37831">
        <ele>56.933988</ele>
        <time>2026-05-07T08:05:23.981Z</time>
      </trkpt>
      <trkpt lat="51.77615" lon="6.37845">
        <ele>57.019224</ele>
        <time>2026-05-07T08:05:27.000Z</time>
      </trkpt>
      <trkpt lat="51.77624" lon="6.3786">
        <ele>57.10218</ele>
        <time>2026-05-07T08:05:29.987Z</time>
      </trkpt>
      <trkpt lat="51.77633" lon="6.37875">
        <ele>57.182671</ele>
        <time>2026-05-07T08:05:32.980Z</time>
      </trkpt>
      <trkpt lat="51.77642" lon="6.3789">
        <ele>57.264451</ele>
        <time>2026-05-07T08:05:35.984Z</time>
      </trkpt>
      <trkpt lat="51.77651" lon="6.37904">
        <ele>57.335514</ele>
        <time>2026-05-07T08:05:38.988Z</time>
      </trkpt>
      <trkpt lat="51.7766" lon="6.37917">
        <ele>57.392657</ele>
        <time>2026-05-07T08:05:41.973Z</time>
      </trkpt>
      <trkpt lat="51.77668" lon="6.37931">
        <ele>57.451968</ele>
        <time>2026-05-07T08:05:44.988Z</time>
      </trkpt>
      <trkpt lat="51.77676" lon="6.37945">
        <ele>57.509324</ele>
        <time>2026-05-07T08:05:47.987Z</time>
      </trkpt>
      <trkpt lat="51.77685" lon="6.37954">
        <ele>57.561413</ele>
        <time>2026-05-07T08:05:50.994Z</time>
      </trkpt>
      <trkpt lat="51.77695" lon="6.37949">
        <ele>57.609805</ele>
        <time>2026-05-07T08:05:53.980Z</time>
      </trkpt>
      <trkpt lat="51.77704" lon="6.3794">
        <ele>57.663758</ele>
        <time>2026-05-07T08:05:56.988Z</time>
      </trkpt>
      <trkpt lat="51.77714" lon="6.3793">
        <ele>57.722583</ele>
        <time>2026-05-07T08:05:59.988Z</time>
      </trkpt>
      <trkpt lat="51.77725" lon="6.3792">
        <ele>57.780446</ele>
        <time>2026-05-07T08:06:02.977Z</time>
      </trkpt>
      <trkpt lat="51.77735" lon="6.37908">
        <ele>57.84173</ele>
        <time>2026-05-07T08:06:05.986Z</time>
      </trkpt>
      <trkpt lat="51.77742" lon="6.3789">
        <ele>57.906721</ele>
        <time>2026-05-07T08:06:08.993Z</time>
      </trkpt>
      <trkpt lat="51.77747" lon="6.37877">
        <ele>57.950307</ele>
        <time>2026-05-07T08:06:10.990Z</time>
      </trkpt>
      <trkpt lat="51.77754" lon="6.3786">
        <ele>58.01309</ele>
        <time>2026-05-07T08:06:13.983Z</time>
      </trkpt>
      <trkpt lat="51.77763" lon="6.37846">
        <ele>58.074038</ele>
        <time>2026-05-07T08:06:16.978Z</time>
      </trkpt>
      <trkpt lat="51.77774" lon="6.37836">
        <ele>58.134731</ele>
        <time>2026-05-07T08:06:19.991Z</time>
      </trkpt>
      <trkpt lat="51.77785" lon="6.37824">
        <ele>58.231483</ele>
        <time>2026-05-07T08:06:22.991Z</time>
      </trkpt>
      <trkpt lat="51.77795" lon="6.37813">
        <ele>58.394982</ele>
        <time>2026-05-07T08:06:25.981Z</time>
      </trkpt>
      <trkpt lat="51.77807" lon="6.37802">
        <ele>58.572141</ele>
        <time>2026-05-07T08:06:28.992Z</time>
      </trkpt>
      <trkpt lat="51.77815" lon="6.37794">
        <ele>58.693767</ele>
        <time>2026-05-07T08:06:30.991Z</time>
      </trkpt>
      <trkpt lat="51.77827" lon="6.37785">
        <ele>58.869624</ele>
        <time>2026-05-07T08:06:33.983Z</time>
      </trkpt>
      <trkpt lat="51.77835" lon="6.3778">
        <ele>58.989733</ele>
        <time>2026-05-07T08:06:35.979Z</time>
      </trkpt>
      <trkpt lat="51.77844" lon="6.37776">
        <ele>59.111003</ele>
        <time>2026-05-07T08:06:37.976Z</time>
      </trkpt>
      <trkpt lat="51.77853" lon="6.37773">
        <ele>59.234119</ele>
        <time>2026-05-07T08:06:39.979Z</time>
      </trkpt>
      <trkpt lat="51.77866" lon="6.37766">
        <ele>59.408308</ele>
        <time>2026-05-07T08:06:42.989Z</time>
      </trkpt>
      <trkpt lat="51.77874" lon="6.37759">
        <ele>59.532189</ele>
        <time>2026-05-07T08:06:44.992Z</time>
      </trkpt>
      <trkpt lat="51.77882" lon="6.37752">
        <ele>59.651462</ele>
        <time>2026-05-07T08:06:46.993Z</time>
      </trkpt>
      <trkpt lat="51.7789" lon="6.37745">
        <ele>59.771881</ele>
        <time>2026-05-07T08:06:48.994Z</time>
      </trkpt>
      <trkpt lat="51.77898" lon="6.37738">
        <ele>59.891635</ele>
        <time>2026-05-07T08:06:51.000Z</time>
      </trkpt>
      <trkpt lat="51.7791" lon="6.3773">
        <ele>60.063612</ele>
        <time>2026-05-07T08:06:53.982Z</time>
      </trkpt>
      <trkpt lat="51.77919" lon="6.37723">
        <ele>60.185261</ele>
        <time>2026-05-07T08:06:55.999Z</time>
      </trkpt>
      <trkpt lat="51.77927" lon="6.37718">
        <ele>60.304147</ele>
        <time>2026-05-07T08:06:57.986Z</time>
      </trkpt>
      <trkpt lat="51.77939" lon="6.37711">
        <ele>60.468626</ele>
        <time>2026-05-07T08:07:00.994Z</time>
      </trkpt>
      <trkpt lat="51.77951" lon="6.37705">
        <ele>60.622366</ele>
        <time>2026-05-07T08:07:03.993Z</time>
      </trkpt>
      <trkpt lat="51.77964" lon="6.37698">
        <ele>60.769</ele>
        <time>2026-05-07T08:07:06.989Z</time>
      </trkpt>
      <trkpt lat="51.77976" lon="6.37692">
        <ele>60.909722</ele>
        <time>2026-05-07T08:07:09.990Z</time>
      </trkpt>
      <trkpt lat="51.77987" lon="6.37688">
        <ele>61.036639</ele>
        <time>2026-05-07T08:07:12.995Z</time>
      </trkpt>
      <trkpt lat="51.77999" lon="6.37685">
        <ele>61.17202</ele>
        <time>2026-05-07T08:07:15.986Z</time>
      </trkpt>
      <trkpt lat="51.78012" lon="6.37682">
        <ele>61.31582</ele>
        <time>2026-05-07T08:07:18.985Z</time>
      </trkpt>
      <trkpt lat="51.78025" lon="6.37677">
        <ele>61.466273</ele>
        <time>2026-05-07T08:07:21.992Z</time>
      </trkpt>
      <trkpt lat="51.78034" lon="6.37674">
        <ele>61.570452</ele>
        <time>2026-05-07T08:07:23.982Z</time>
      </trkpt>
      <trkpt lat="51.78043" lon="6.3767">
        <ele>61.67283</ele>
        <time>2026-05-07T08:07:25.979Z</time>
      </trkpt>
      <trkpt lat="51.78052" lon="6.37667">
        <ele>61.776406</ele>
        <time>2026-05-07T08:07:27.988Z</time>
      </trkpt>
      <trkpt lat="51.78065" lon="6.37665">
        <ele>61.91633</ele>
        <time>2026-05-07T08:07:30.993Z</time>
      </trkpt>
      <trkpt lat="51.78078" lon="6.37662">
        <ele>62.061847</ele>
        <time>2026-05-07T08:07:33.978Z</time>
      </trkpt>
      <trkpt lat="51.78087" lon="6.37659">
        <ele>62.16539</ele>
        <time>2026-05-07T08:07:35.977Z</time>
      </trkpt>
      <trkpt lat="51.78096" lon="6.37656">
        <ele>62.268747</ele>
        <time>2026-05-07T08:07:37.986Z</time>
      </trkpt>
      <trkpt lat="51.78105" lon="6.37654">
        <ele>62.373651</ele>
        <time>2026-05-07T08:07:39.996Z</time>
      </trkpt>
      <trkpt lat="51.78115" lon="6.3765">
        <ele>62.484791</ele>
        <time>2026-05-07T08:07:41.981Z</time>
      </trkpt>
      <trkpt lat="51.78125" lon="6.37647">
        <ele>62.57558</ele>
        <time>2026-05-07T08:07:43.993Z</time>
      </trkpt>
      <trkpt lat="51.78134" lon="6.37644">
        <ele>62.649042</ele>
        <time>2026-05-07T08:07:45.978Z</time>
      </trkpt>
      <trkpt lat="51.78147" lon="6.37639">
        <ele>62.749458</ele>
        <time>2026-05-07T08:07:48.984Z</time>
      </trkpt>
      <trkpt lat="51.78159" lon="6.37635">
        <ele>62.850086</ele>
        <time>2026-05-07T08:07:51.988Z</time>
      </trkpt>
      <trkpt lat="51.78172" lon="6.37629">
        <ele>62.949683</ele>
        <time>2026-05-07T08:07:54.985Z</time>
      </trkpt>
      <trkpt lat="51.78184" lon="6.37623">
        <ele>63.049279</ele>
        <time>2026-05-07T08:07:57.984Z</time>
      </trkpt>
      <trkpt lat="51.78193" lon="6.37618">
        <ele>63.122701</ele>
        <time>2026-05-07T08:07:59.986Z</time>
      </trkpt>
      <trkpt lat="51.78202" lon="6.37614">
        <ele>63.196124</ele>
        <time>2026-05-07T08:08:01.986Z</time>
      </trkpt>
      <trkpt lat="51.78211" lon="6.37609">
        <ele>63.265283</ele>
        <time>2026-05-07T08:08:03.988Z</time>
      </trkpt>
      <trkpt lat="51.78223" lon="6.37603">
        <ele>63.368504</ele>
        <time>2026-05-07T08:08:06.984Z</time>
      </trkpt>
      <trkpt lat="51.78232" lon="6.37598">
        <ele>63.437405</ele>
        <time>2026-05-07T08:08:08.990Z</time>
      </trkpt>
      <trkpt lat="51.78241" lon="6.37592">
        <ele>63.511984</ele>
        <time>2026-05-07T08:08:10.988Z</time>
      </trkpt>
      <trkpt lat="51.7825" lon="6.37586">
        <ele>63.585306</ele>
        <time>2026-05-07T08:08:12.982Z</time>
      </trkpt>
      <trkpt lat="51.78259" lon="6.37581">
        <ele>63.661231</ele>
        <time>2026-05-07T08:08:14.987Z</time>
      </trkpt>
      <trkpt lat="51.78269" lon="6.37576">
        <ele>63.73993</ele>
        <time>2026-05-07T08:08:16.981Z</time>
      </trkpt>
      <trkpt lat="51.78279" lon="6.3757">
        <ele>63.821175</ele>
        <time>2026-05-07T08:08:18.984Z</time>
      </trkpt>
      <trkpt lat="51.78288" lon="6.37564">
        <ele>63.90275</ele>
        <time>2026-05-07T08:08:20.988Z</time>
      </trkpt>
      <trkpt lat="51.78298" lon="6.37558">
        <ele>63.782387</ele>
        <time>2026-05-07T08:08:22.984Z</time>
      </trkpt>
      <trkpt lat="51.78307" lon="6.37553">
        <ele>63.598649</ele>
        <time>2026-05-07T08:08:24.972Z</time>
      </trkpt>
      <trkpt lat="51.78316" lon="6.37548">
        <ele>63.417796</ele>
        <time>2026-05-07T08:08:26.981Z</time>
      </trkpt>
      <trkpt lat="51.78324" lon="6.37543">
        <ele>63.236553</ele>
        <time>2026-05-07T08:08:28.985Z</time>
      </trkpt>
      <trkpt lat="51.78337" lon="6.37536">
        <ele>62.97325</ele>
        <time>2026-05-07T08:08:31.979Z</time>
      </trkpt>
      <trkpt lat="51.78345" lon="6.37531">
        <ele>62.79363</ele>
        <time>2026-05-07T08:08:33.991Z</time>
      </trkpt>
      <trkpt lat="51.78354" lon="6.37525">
        <ele>62.604889</ele>
        <time>2026-05-07T08:08:35.986Z</time>
      </trkpt>
      <trkpt lat="51.78363" lon="6.3752">
        <ele>62.424036</ele>
        <time>2026-05-07T08:08:37.974Z</time>
      </trkpt>
      <trkpt lat="51.78372" lon="6.37515">
        <ele>62.240732</ele>
        <time>2026-05-07T08:08:39.978Z</time>
      </trkpt>
      <trkpt lat="51.7838" lon="6.3751">
        <ele>62.061354</ele>
        <time>2026-05-07T08:08:41.988Z</time>
      </trkpt>
      <trkpt lat="51.78393" lon="6.37503">
        <ele>61.793839</ele>
        <time>2026-05-07T08:08:44.981Z</time>
      </trkpt>
      <trkpt lat="51.78406" lon="6.37496">
        <ele>61.533235</ele>
        <time>2026-05-07T08:08:47.991Z</time>
      </trkpt>
      <trkpt lat="51.78418" lon="6.3749">
        <ele>61.284481</ele>
        <time>2026-05-07T08:08:50.984Z</time>
      </trkpt>
      <trkpt lat="51.7843" lon="6.37482">
        <ele>61.022444</ele>
        <time>2026-05-07T08:08:53.977Z</time>
      </trkpt>
      <trkpt lat="51.78439" lon="6.37477">
        <ele>60.841201</ele>
        <time>2026-05-07T08:08:55.988Z</time>
      </trkpt>
      <trkpt lat="51.78448" lon="6.37472">
        <ele>60.655191</ele>
        <time>2026-05-07T08:08:57.982Z</time>
      </trkpt>
      <trkpt lat="51.7846" lon="6.37466">
        <ele>60.398453</ele>
        <time>2026-05-07T08:09:00.984Z</time>
      </trkpt>
      <trkpt lat="51.78473" lon="6.37459">
        <ele>60.25836</ele>
        <time>2026-05-07T08:09:03.987Z</time>
      </trkpt>
      <trkpt lat="51.78485" lon="6.37454">
        <ele>60.137303</ele>
        <time>2026-05-07T08:09:06.964Z</time>
      </trkpt>
      <trkpt lat="51.78497" lon="6.37449">
        <ele>60.020201</ele>
        <time>2026-05-07T08:09:09.991Z</time>
      </trkpt>
      <trkpt lat="51.78506" lon="6.37444">
        <ele>59.928379</ele>
        <time>2026-05-07T08:09:11.975Z</time>
      </trkpt>
      <trkpt lat="51.78515" lon="6.37439">
        <ele>59.834687</ele>
        <time>2026-05-07T08:09:13.978Z</time>
      </trkpt>
      <trkpt lat="51.78524" lon="6.37435">
        <ele>59.744825</ele>
        <time>2026-05-07T08:09:15.972Z</time>
      </trkpt>
      <trkpt lat="51.78533" lon="6.37431">
        <ele>59.649955</ele>
        <time>2026-05-07T08:09:17.987Z</time>
      </trkpt>
      <trkpt lat="51.78542" lon="6.37426">
        <ele>59.556838</ele>
        <time>2026-05-07T08:09:19.980Z</time>
      </trkpt>
      <trkpt lat="51.78551" lon="6.37423">
        <ele>59.468681</ele>
        <time>2026-05-07T08:09:21.979Z</time>
      </trkpt>
      <trkpt lat="51.7856" lon="6.3742">
        <ele>59.381193</ele>
        <time>2026-05-07T08:09:23.978Z</time>
      </trkpt>
      <trkpt lat="51.78569" lon="6.37417">
        <ele>59.28894</ele>
        <time>2026-05-07T08:09:25.983Z</time>
      </trkpt>
      <trkpt lat="51.78578" lon="6.37414">
        <ele>59.201575</ele>
        <time>2026-05-07T08:09:27.989Z</time>
      </trkpt>
      <trkpt lat="51.78587" lon="6.37411">
        <ele>59.112741</ele>
        <time>2026-05-07T08:09:29.977Z</time>
      </trkpt>
      <trkpt lat="51.78596" lon="6.37409">
        <ele>59.016993</ele>
        <time>2026-05-07T08:09:31.974Z</time>
      </trkpt>
      <trkpt lat="51.78606" lon="6.37406">
        <ele>58.922203</ele>
        <time>2026-05-07T08:09:33.991Z</time>
      </trkpt>
      <trkpt lat="51.78616" lon="6.37403">
        <ele>58.825898</ele>
        <time>2026-05-07T08:09:35.979Z</time>
      </trkpt>
      <trkpt lat="51.78625" lon="6.37399">
        <ele>58.732196</ele>
        <time>2026-05-07T08:09:37.978Z</time>
      </trkpt>
      <trkpt lat="51.78634" lon="6.37396">
        <ele>58.641014</ele>
        <time>2026-05-07T08:09:39.986Z</time>
      </trkpt>
      <trkpt lat="51.78644" lon="6.37393">
        <ele>58.591101</ele>
        <time>2026-05-07T08:09:41.986Z</time>
      </trkpt>
      <trkpt lat="51.78653" lon="6.37391">
        <ele>58.545112</ele>
        <time>2026-05-07T08:09:43.990Z</time>
      </trkpt>
      <trkpt lat="51.78662" lon="6.37389">
        <ele>58.50027</ele>
        <time>2026-05-07T08:09:45.991Z</time>
      </trkpt>
      <trkpt lat="51.78672" lon="6.37388">
        <ele>58.454692</ele>
        <time>2026-05-07T08:09:47.987Z</time>
      </trkpt>
      <trkpt lat="51.78681" lon="6.37387">
        <ele>58.410584</ele>
        <time>2026-05-07T08:09:49.981Z</time>
      </trkpt>
      <trkpt lat="51.78694" lon="6.37387">
        <ele>58.346899</ele>
        <time>2026-05-07T08:09:52.986Z</time>
      </trkpt>
      <trkpt lat="51.78708" lon="6.37387">
        <ele>58.283219</ele>
        <time>2026-05-07T08:09:55.987Z</time>
      </trkpt>
      <trkpt lat="51.78721" lon="6.37387">
        <ele>58.220501</ele>
        <time>2026-05-07T08:09:58.974Z</time>
      </trkpt>
      <trkpt lat="51.78734" lon="6.37389">
        <ele>58.158876</ele>
        <time>2026-05-07T08:10:01.982Z</time>
      </trkpt>
      <trkpt lat="51.78747" lon="6.37391">
        <ele>58.093548</ele>
        <time>2026-05-07T08:10:04.971Z</time>
      </trkpt>
      <trkpt lat="51.78757" lon="6.37391">
        <ele>58.04851</ele>
        <time>2026-05-07T08:10:06.975Z</time>
      </trkpt>
      <trkpt lat="51.78766" lon="6.37392">
        <ele>58.001584</ele>
        <time>2026-05-07T08:10:08.987Z</time>
      </trkpt>
      <trkpt lat="51.78776" lon="6.37392">
        <ele>57.956079</ele>
        <time>2026-05-07T08:10:10.995Z</time>
      </trkpt>
      <trkpt lat="51.78785" lon="6.37392">
        <ele>57.911554</ele>
        <time>2026-05-07T08:10:12.994Z</time>
      </trkpt>
      <trkpt lat="51.78795" lon="6.37393">
        <ele>57.866064</ele>
        <time>2026-05-07T08:10:14.984Z</time>
      </trkpt>
      <trkpt lat="51.78804" lon="6.37393">
        <ele>57.819624</ele>
        <time>2026-05-07T08:10:16.985Z</time>
      </trkpt>
      <trkpt lat="51.78814" lon="6.37393">
        <ele>57.773177</ele>
        <time>2026-05-07T08:10:18.977Z</time>
      </trkpt>
      <trkpt lat="51.78823" lon="6.37393">
        <ele>57.827064</ele>
        <time>2026-05-07T08:10:20.984Z</time>
      </trkpt>
      <trkpt lat="51.78833" lon="6.37393">
        <ele>57.88727</ele>
        <time>2026-05-07T08:10:22.992Z</time>
      </trkpt>
      <trkpt lat="51.78842" lon="6.37393">
        <ele>57.947477</ele>
        <time>2026-05-07T08:10:24.985Z</time>
      </trkpt>
      <trkpt lat="51.78851" lon="6.37393">
        <ele>58.00833</ele>
        <time>2026-05-07T08:10:26.987Z</time>
      </trkpt>
      <trkpt lat="51.7886" lon="6.37392">
        <ele>58.066604</ele>
        <time>2026-05-07T08:10:28.976Z</time>
      </trkpt>
      <trkpt lat="51.7887" lon="6.37391">
        <ele>58.126378</ele>
        <time>2026-05-07T08:10:30.981Z</time>
      </trkpt>
      <trkpt lat="51.78883" lon="6.37391">
        <ele>58.213125</ele>
        <time>2026-05-07T08:10:33.982Z</time>
      </trkpt>
      <trkpt lat="51.78897" lon="6.37389">
        <ele>58.300635</ele>
        <time>2026-05-07T08:10:36.980Z</time>
      </trkpt>
      <trkpt lat="51.78906" lon="6.37388">
        <ele>58.361054</ele>
        <time>2026-05-07T08:10:38.994Z</time>
      </trkpt>
      <trkpt lat="51.78915" lon="6.37387">
        <ele>58.422002</ele>
        <time>2026-05-07T08:10:40.978Z</time>
      </trkpt>
      <trkpt lat="51.78925" lon="6.37387">
        <ele>58.482244</ele>
        <time>2026-05-07T08:10:42.980Z</time>
      </trkpt>
      <trkpt lat="51.78934" lon="6.37386">
        <ele>58.541926</ele>
        <time>2026-05-07T08:10:44.974Z</time>
      </trkpt>
      <trkpt lat="51.78947" lon="6.37383">
        <ele>58.629233</ele>
        <time>2026-05-07T08:10:47.980Z</time>
      </trkpt>
      <trkpt lat="51.78956" lon="6.37382">
        <ele>58.687683</ele>
        <time>2026-05-07T08:10:49.989Z</time>
      </trkpt>
      <trkpt lat="51.78965" lon="6.3738">
        <ele>58.74718</ele>
        <time>2026-05-07T08:10:51.985Z</time>
      </trkpt>
      <trkpt lat="51.78974" lon="6.37378">
        <ele>58.805927</ele>
        <time>2026-05-07T08:10:53.984Z</time>
      </trkpt>
      <trkpt lat="51.78983" lon="6.37376">
        <ele>58.864576</ele>
        <time>2026-05-07T08:10:55.988Z</time>
      </trkpt>
      <trkpt lat="51.78992" lon="6.37374">
        <ele>58.923432</ele>
        <time>2026-05-07T08:10:57.975Z</time>
      </trkpt>
      <trkpt lat="51.79006" lon="6.3737">
        <ele>58.943839</ele>
        <time>2026-05-07T08:11:00.980Z</time>
      </trkpt>
      <trkpt lat="51.79018" lon="6.37367">
        <ele>58.954116</ele>
        <time>2026-05-07T08:11:03.982Z</time>
      </trkpt>
      <trkpt lat="51.79031" lon="6.37363">
        <ele>58.964343</ele>
        <time>2026-05-07T08:11:06.985Z</time>
      </trkpt>
      <trkpt lat="51.7904" lon="6.37361">
        <ele>58.971777</ele>
        <time>2026-05-07T08:11:08.985Z</time>
      </trkpt>
      <trkpt lat="51.79049" lon="6.37358">
        <ele>58.978977</ele>
        <time>2026-05-07T08:11:10.991Z</time>
      </trkpt>
      <trkpt lat="51.79058" lon="6.37355">
        <ele>58.986186</ele>
        <time>2026-05-07T08:11:12.995Z</time>
      </trkpt>
      <trkpt lat="51.79072" lon="6.37352">
        <ele>58.997301</ele>
        <time>2026-05-07T08:11:15.973Z</time>
      </trkpt>
      <trkpt lat="51.79081" lon="6.37348">
        <ele>59.005016</ele>
        <time>2026-05-07T08:11:17.978Z</time>
      </trkpt>
      <trkpt lat="51.79091" lon="6.37345">
        <ele>59.012675</ele>
        <time>2026-05-07T08:11:19.987Z</time>
      </trkpt>
      <trkpt lat="51.791" lon="6.37341">
        <ele>59.020083</ele>
        <time>2026-05-07T08:11:21.981Z</time>
      </trkpt>
      <trkpt lat="51.79109" lon="6.37338">
        <ele>59.027266</ele>
        <time>2026-05-07T08:11:23.978Z</time>
      </trkpt>
      <trkpt lat="51.79118" lon="6.37335">
        <ele>59.034572</ele>
        <time>2026-05-07T08:11:25.983Z</time>
      </trkpt>
      <trkpt lat="51.79127" lon="6.37332">
        <ele>59.041977</ele>
        <time>2026-05-07T08:11:27.992Z</time>
      </trkpt>
      <trkpt lat="51.7914" lon="6.37327">
        <ele>59.052537</ele>
        <time>2026-05-07T08:11:30.994Z</time>
      </trkpt>
      <trkpt lat="51.79152" lon="6.37322">
        <ele>59.062996</ele>
        <time>2026-05-07T08:11:33.980Z</time>
      </trkpt>
      <trkpt lat="51.79161" lon="6.37319">
        <ele>59.07029</ele>
        <time>2026-05-07T08:11:35.992Z</time>
      </trkpt>
      <trkpt lat="51.7917" lon="6.37316">
        <ele>59.075001</ele>
        <time>2026-05-07T08:11:37.975Z</time>
      </trkpt>
      <trkpt lat="51.79179" lon="6.37312">
        <ele>58.991318</ele>
        <time>2026-05-07T08:11:39.984Z</time>
      </trkpt>
      <trkpt lat="51.79188" lon="6.37309">
        <ele>58.907635</ele>
        <time>2026-05-07T08:11:41.978Z</time>
      </trkpt>
      <trkpt lat="51.79201" lon="6.37303">
        <ele>58.783008</ele>
        <time>2026-05-07T08:11:44.984Z</time>
      </trkpt>
      <trkpt lat="51.79214" lon="6.37298">
        <ele>58.660749</ele>
        <time>2026-05-07T08:11:47.976Z</time>
      </trkpt>
      <trkpt lat="51.79227" lon="6.37293">
        <ele>58.537996</ele>
        <time>2026-05-07T08:11:50.987Z</time>
      </trkpt>
      <trkpt lat="51.79239" lon="6.37289">
        <ele>58.418138</ele>
        <time>2026-05-07T08:11:53.980Z</time>
      </trkpt>
      <trkpt lat="51.79252" lon="6.37285">
        <ele>58.302026</ele>
        <time>2026-05-07T08:11:56.985Z</time>
      </trkpt>
      <trkpt lat="51.79265" lon="6.3728">
        <ele>58.176932</ele>
        <time>2026-05-07T08:11:59.993Z</time>
      </trkpt>
      <trkpt lat="51.79274" lon="6.37276">
        <ele>58.090157</ele>
        <time>2026-05-07T08:12:01.994Z</time>
      </trkpt>
      <trkpt lat="51.79283" lon="6.37272">
        <ele>58.005308</ele>
        <time>2026-05-07T08:12:03.974Z</time>
      </trkpt>
      <trkpt lat="51.79291" lon="6.37268">
        <ele>57.92152</ele>
        <time>2026-05-07T08:12:05.973Z</time>
      </trkpt>
      <trkpt lat="51.79304" lon="6.37264">
        <ele>57.797865</ele>
        <time>2026-05-07T08:12:08.971Z</time>
      </trkpt>
      <trkpt lat="51.79317" lon="6.37258">
        <ele>57.676662</ele>
        <time>2026-05-07T08:12:11.978Z</time>
      </trkpt>
      <trkpt lat="51.79326" lon="6.37254">
        <ele>57.593328</ele>
        <time>2026-05-07T08:12:13.984Z</time>
      </trkpt>
      <trkpt lat="51.79335" lon="6.3725">
        <ele>57.506405</ele>
        <time>2026-05-07T08:12:15.990Z</time>
      </trkpt>
      <trkpt lat="51.79344" lon="6.37246">
        <ele>57.418895</ele>
        <time>2026-05-07T08:12:18.002Z</time>
      </trkpt>
      <trkpt lat="51.79353" lon="6.37243">
        <ele>57.408369</ele>
        <time>2026-05-07T08:12:19.988Z</time>
      </trkpt>
      <trkpt lat="51.79365" lon="6.3724">
        <ele>57.40394</ele>
        <time>2026-05-07T08:12:22.989Z</time>
      </trkpt>
      <trkpt lat="51.79378" lon="6.37234">
        <ele>57.399443</ele>
        <time>2026-05-07T08:12:25.974Z</time>
      </trkpt>
      <trkpt lat="51.79387" lon="6.37229">
        <ele>57.396322</ele>
        <time>2026-05-07T08:12:27.980Z</time>
      </trkpt>
      <trkpt lat="51.794" lon="6.37224">
        <ele>57.391757</ele>
        <time>2026-05-07T08:12:30.979Z</time>
      </trkpt>
      <trkpt lat="51.79412" lon="6.3722">
        <ele>57.387254</ele>
        <time>2026-05-07T08:12:33.976Z</time>
      </trkpt>
      <trkpt lat="51.79425" lon="6.37214">
        <ele>57.382745</ele>
        <time>2026-05-07T08:12:36.983Z</time>
      </trkpt>
      <trkpt lat="51.79438" lon="6.37209">
        <ele>57.378175</ele>
        <time>2026-05-07T08:12:39.976Z</time>
      </trkpt>
      <trkpt lat="51.79451" lon="6.37203">
        <ele>57.373548</ele>
        <time>2026-05-07T08:12:42.992Z</time>
      </trkpt>
      <trkpt lat="51.79463" lon="6.37197">
        <ele>57.369062</ele>
        <time>2026-05-07T08:12:45.974Z</time>
      </trkpt>
      <trkpt lat="51.79472" lon="6.37194">
        <ele>57.365897</ele>
        <time>2026-05-07T08:12:47.994Z</time>
      </trkpt>
      <trkpt lat="51.79481" lon="6.37189">
        <ele>57.362653</ele>
        <time>2026-05-07T08:12:49.981Z</time>
      </trkpt>
      <trkpt lat="51.7949" lon="6.37185">
        <ele>57.359552</ele>
        <time>2026-05-07T08:12:51.977Z</time>
      </trkpt>
      <trkpt lat="51.79499" lon="6.37181">
        <ele>57.356393</ele>
        <time>2026-05-07T08:12:53.987Z</time>
      </trkpt>
      <trkpt lat="51.79508" lon="6.37176">
        <ele>57.353259</ele>
        <time>2026-05-07T08:12:55.985Z</time>
      </trkpt>
      <trkpt lat="51.7952" lon="6.37171">
        <ele>57.344442</ele>
        <time>2026-05-07T08:12:58.978Z</time>
      </trkpt>
      <trkpt lat="51.79532" lon="6.37166">
        <ele>57.302787</ele>
        <time>2026-05-07T08:13:01.979Z</time>
      </trkpt>
      <trkpt lat="51.79545" lon="6.3716">
        <ele>57.259669</ele>
        <time>2026-05-07T08:13:04.978Z</time>
      </trkpt>
      <trkpt lat="51.79554" lon="6.37156">
        <ele>57.230133</ele>
        <time>2026-05-07T08:13:06.975Z</time>
      </trkpt>
      <trkpt lat="51.79567" lon="6.3715">
        <ele>57.186662</ele>
        <time>2026-05-07T08:13:09.982Z</time>
      </trkpt>
      <trkpt lat="51.79576" lon="6.37146">
        <ele>57.157634</ele>
        <time>2026-05-07T08:13:11.976Z</time>
      </trkpt>
      <trkpt lat="51.79588" lon="6.3714">
        <ele>57.117075</ele>
        <time>2026-05-07T08:13:14.977Z</time>
      </trkpt>
      <trkpt lat="51.796" lon="6.37135">
        <ele>57.074904</ele>
        <time>2026-05-07T08:13:17.991Z</time>
      </trkpt>
      <trkpt lat="51.79613" lon="6.37129">
        <ele>57.032152</ele>
        <time>2026-05-07T08:13:20.977Z</time>
      </trkpt>
      <trkpt lat="51.79626" lon="6.37122">
        <ele>56.988972</ele>
        <time>2026-05-07T08:13:23.986Z</time>
      </trkpt>
      <trkpt lat="51.79638" lon="6.37114">
        <ele>56.946028</ele>
        <time>2026-05-07T08:13:26.988Z</time>
      </trkpt>
      <trkpt lat="51.79647" lon="6.3711">
        <ele>56.917001</ele>
        <time>2026-05-07T08:13:28.977Z</time>
      </trkpt>
      <trkpt lat="51.79655" lon="6.37105">
        <ele>56.887843</ele>
        <time>2026-05-07T08:13:30.979Z</time>
      </trkpt>
      <trkpt lat="51.79664" lon="6.371">
        <ele>56.858697</ele>
        <time>2026-05-07T08:13:32.981Z</time>
      </trkpt>
      <trkpt lat="51.79676" lon="6.37094">
        <ele>56.816391</ele>
        <time>2026-05-07T08:13:35.989Z</time>
      </trkpt>
      <trkpt lat="51.79689" lon="6.37088">
        <ele>56.773716</ele>
        <time>2026-05-07T08:13:38.984Z</time>
      </trkpt>
      <trkpt lat="51.79701" lon="6.37082">
        <ele>56.799757</ele>
        <time>2026-05-07T08:13:41.981Z</time>
      </trkpt>
      <trkpt lat="51.79714" lon="6.37076">
        <ele>56.835521</ele>
        <time>2026-05-07T08:13:44.983Z</time>
      </trkpt>
      <trkpt lat="51.79727" lon="6.37069">
        <ele>56.872542</ele>
        <time>2026-05-07T08:13:47.980Z</time>
      </trkpt>
      <trkpt lat="51.79739" lon="6.37063">
        <ele>56.908108</ele>
        <time>2026-05-07T08:13:50.983Z</time>
      </trkpt>
      <trkpt lat="51.79749" lon="6.37058">
        <ele>56.938012</ele>
        <time>2026-05-07T08:13:53.975Z</time>
      </trkpt>
      <trkpt lat="51.79758" lon="6.37052">
        <ele>56.963906</ele>
        <time>2026-05-07T08:13:56.974Z</time>
      </trkpt>
      <trkpt lat="51.79768" lon="6.37048">
        <ele>56.991293</ele>
        <time>2026-05-07T08:13:59.984Z</time>
      </trkpt>
      <trkpt lat="51.79779" lon="6.37046">
        <ele>57.021442</ele>
        <time>2026-05-07T08:14:02.995Z</time>
      </trkpt>
      <trkpt lat="51.7979" lon="6.37042">
        <ele>57.052466</ele>
        <time>2026-05-07T08:14:05.974Z</time>
      </trkpt>
      <trkpt lat="51.79801" lon="6.37037">
        <ele>57.084529</ele>
        <time>2026-05-07T08:14:08.984Z</time>
      </trkpt>
      <trkpt lat="51.79812" lon="6.37031">
        <ele>57.11748</ele>
        <time>2026-05-07T08:14:12.004Z</time>
      </trkpt>
      <trkpt lat="51.79823" lon="6.37026">
        <ele>57.149327</ele>
        <time>2026-05-07T08:14:14.978Z</time>
      </trkpt>
      <trkpt lat="51.79834" lon="6.37021">
        <ele>57.18091</ele>
        <time>2026-05-07T08:14:17.976Z</time>
      </trkpt>
      <trkpt lat="51.79846" lon="6.37015">
        <ele>57.213021</ele>
        <time>2026-05-07T08:14:20.975Z</time>
      </trkpt>
      <trkpt lat="51.79858" lon="6.3701">
        <ele>57.247036</ele>
        <time>2026-05-07T08:14:23.986Z</time>
      </trkpt>
      <trkpt lat="51.7987" lon="6.37006">
        <ele>57.357075</ele>
        <time>2026-05-07T08:14:26.983Z</time>
      </trkpt>
      <trkpt lat="51.79883" lon="6.37001">
        <ele>57.536367</ele>
        <time>2026-05-07T08:14:29.975Z</time>
      </trkpt>
      <trkpt lat="51.79892" lon="6.36998">
        <ele>57.660964</ele>
        <time>2026-05-07T08:14:31.984Z</time>
      </trkpt>
      <trkpt lat="51.79904" lon="6.36993">
        <ele>57.835966</ele>
        <time>2026-05-07T08:14:34.987Z</time>
      </trkpt>
      <trkpt lat="51.79917" lon="6.36986">
        <ele>58.013743</ele>
        <time>2026-05-07T08:14:37.982Z</time>
      </trkpt>
      <trkpt lat="51.79925" lon="6.3698">
        <ele>58.136008</ele>
        <time>2026-05-07T08:14:39.986Z</time>
      </trkpt>
      <trkpt lat="51.79937" lon="6.36971">
        <ele>58.31906</ele>
        <time>2026-05-07T08:14:42.989Z</time>
      </trkpt>
      <trkpt lat="51.79949" lon="6.36964">
        <ele>58.492603</ele>
        <time>2026-05-07T08:14:45.983Z</time>
      </trkpt>
      <trkpt lat="51.79962" lon="6.36959">
        <ele>58.665678</ele>
        <time>2026-05-07T08:14:48.987Z</time>
      </trkpt>
      <trkpt lat="51.79975" lon="6.36959">
        <ele>58.844724</ele>
        <time>2026-05-07T08:14:51.984Z</time>
      </trkpt>
      <trkpt lat="51.79984" lon="6.36956">
        <ele>58.97269</ele>
        <time>2026-05-07T08:14:53.984Z</time>
      </trkpt>
      <trkpt lat="51.79993" lon="6.36953">
        <ele>59.096684</ele>
        <time>2026-05-07T08:14:55.982Z</time>
      </trkpt>
      <trkpt lat="51.80006" lon="6.36948">
        <ele>59.270881</ele>
        <time>2026-05-07T08:14:58.987Z</time>
      </trkpt>
      <trkpt lat="51.80018" lon="6.36943">
        <ele>59.443259</ele>
        <time>2026-05-07T08:15:01.973Z</time>
      </trkpt>
      <trkpt lat="51.8003" lon="6.36937">
        <ele>59.609765</ele>
        <time>2026-05-07T08:15:04.991Z</time>
      </trkpt>
      <trkpt lat="51.80042" lon="6.36932">
        <ele>59.669668</ele>
        <time>2026-05-07T08:15:07.979Z</time>
      </trkpt>
      <trkpt lat="51.80055" lon="6.36926">
        <ele>59.602495</ele>
        <time>2026-05-07T08:15:10.978Z</time>
      </trkpt>
      <trkpt lat="51.80064" lon="6.36921">
        <ele>59.553906</ele>
        <time>2026-05-07T08:15:12.988Z</time>
      </trkpt>
      <trkpt lat="51.80073" lon="6.36917">
        <ele>59.503038</ele>
        <time>2026-05-07T08:15:14.983Z</time>
      </trkpt>
      <trkpt lat="51.80082" lon="6.36912">
        <ele>59.45172</ele>
        <time>2026-05-07T08:15:16.976Z</time>
      </trkpt>
      <trkpt lat="51.80095" lon="6.36906">
        <ele>59.383186</ele>
        <time>2026-05-07T08:15:19.984Z</time>
      </trkpt>
      <trkpt lat="51.80108" lon="6.36901">
        <ele>59.311887</ele>
        <time>2026-05-07T08:15:22.979Z</time>
      </trkpt>
      <trkpt lat="51.80117" lon="6.36897">
        <ele>59.263166</ele>
        <time>2026-05-07T08:15:24.986Z</time>
      </trkpt>
      <trkpt lat="51.80126" lon="6.36893">
        <ele>59.214577</ele>
        <time>2026-05-07T08:15:26.980Z</time>
      </trkpt>
      <trkpt lat="51.80135" lon="6.36888">
        <ele>59.167358</ele>
        <time>2026-05-07T08:15:28.977Z</time>
      </trkpt>
      <trkpt lat="51.80144" lon="6.36885">
        <ele>59.11889</ele>
        <time>2026-05-07T08:15:30.987Z</time>
      </trkpt>
      <trkpt lat="51.80157" lon="6.36879">
        <ele>59.049857</ele>
        <time>2026-05-07T08:15:33.979Z</time>
      </trkpt>
      <trkpt lat="51.80165" lon="6.36875">
        <ele>59.002727</ele>
        <time>2026-05-07T08:15:35.978Z</time>
      </trkpt>
      <trkpt lat="51.80178" lon="6.36868">
        <ele>58.932322</ele>
        <time>2026-05-07T08:15:38.985Z</time>
      </trkpt>
      <trkpt lat="51.80187" lon="6.36863">
        <ele>58.882642</ele>
        <time>2026-05-07T08:15:40.980Z</time>
      </trkpt>
      <trkpt lat="51.80197" lon="6.36859">
        <ele>58.832151</ele>
        <time>2026-05-07T08:15:42.987Z</time>
      </trkpt>
      <trkpt lat="51.80206" lon="6.36854">
        <ele>58.782471</ele>
        <time>2026-05-07T08:15:44.984Z</time>
      </trkpt>
      <trkpt lat="51.80218" lon="6.36848">
        <ele>58.734646</ele>
        <time>2026-05-07T08:15:47.982Z</time>
      </trkpt>
      <trkpt lat="51.80227" lon="6.36844">
        <ele>58.707442</ele>
        <time>2026-05-07T08:15:49.978Z</time>
      </trkpt>
      <trkpt lat="51.8024" lon="6.36838">
        <ele>58.667073</ele>
        <time>2026-05-07T08:15:52.992Z</time>
      </trkpt>
      <trkpt lat="51.80249" lon="6.36835">
        <ele>58.639332</ele>
        <time>2026-05-07T08:15:54.992Z</time>
      </trkpt>
      <trkpt lat="51.80258" lon="6.3683">
        <ele>58.611869</ele>
        <time>2026-05-07T08:15:56.982Z</time>
      </trkpt>
      <trkpt lat="51.8027" lon="6.36823">
        <ele>58.57091</ele>
        <time>2026-05-07T08:15:59.989Z</time>
      </trkpt>
      <trkpt lat="51.80279" lon="6.3682">
        <ele>58.543388</ele>
        <time>2026-05-07T08:16:01.994Z</time>
      </trkpt>
      <trkpt lat="51.80288" lon="6.36817">
        <ele>58.51561</ele>
        <time>2026-05-07T08:16:03.972Z</time>
      </trkpt>
      <trkpt lat="51.80298" lon="6.36812">
        <ele>58.486648</ele>
        <time>2026-05-07T08:16:05.990Z</time>
      </trkpt>
      <trkpt lat="51.80307" lon="6.36808">
        <ele>58.456817</ele>
        <time>2026-05-07T08:16:07.978Z</time>
      </trkpt>
      <trkpt lat="51.80317" lon="6.36803">
        <ele>58.426882</ele>
        <time>2026-05-07T08:16:09.985Z</time>
      </trkpt>
      <trkpt lat="51.80326" lon="6.36799">
        <ele>58.397783</ele>
        <time>2026-05-07T08:16:11.972Z</time>
      </trkpt>
      <trkpt lat="51.80335" lon="6.36795">
        <ele>58.369072</ele>
        <time>2026-05-07T08:16:13.990Z</time>
      </trkpt>
      <trkpt lat="51.80344" lon="6.36791">
        <ele>58.340795</ele>
        <time>2026-05-07T08:16:15.984Z</time>
      </trkpt>
      <trkpt lat="51.80357" lon="6.36787">
        <ele>58.301772</ele>
        <time>2026-05-07T08:16:18.987Z</time>
      </trkpt>
      <trkpt lat="51.80368" lon="6.3678">
        <ele>58.266007</ele>
        <time>2026-05-07T08:16:21.983Z</time>
      </trkpt>
      <trkpt lat="51.8038" lon="6.36773">
        <ele>58.228014</ele>
        <time>2026-05-07T08:16:24.982Z</time>
      </trkpt>
      <trkpt lat="51.80392" lon="6.36767">
        <ele>58.191488</ele>
        <time>2026-05-07T08:16:27.995Z</time>
      </trkpt>
      <trkpt lat="51.80401" lon="6.36763">
        <ele>58.166946</ele>
        <time>2026-05-07T08:16:29.976Z</time>
      </trkpt>
      <trkpt lat="51.8041" lon="6.36759">
        <ele>58.142273</ele>
        <time>2026-05-07T08:16:31.986Z</time>
      </trkpt>
      <trkpt lat="51.80419" lon="6.36755">
        <ele>58.117772</ele>
        <time>2026-05-07T08:16:33.970Z</time>
      </trkpt>
      <trkpt lat="51.80432" lon="6.36749">
        <ele>58.081302</ele>
        <time>2026-05-07T08:16:36.977Z</time>
      </trkpt>
      <trkpt lat="51.8044" lon="6.36745">
        <ele>58.056674</ele>
        <time>2026-05-07T08:16:38.977Z</time>
      </trkpt>
      <trkpt lat="51.80453" lon="6.36739">
        <ele>58.021314</ele>
        <time>2026-05-07T08:16:41.987Z</time>
      </trkpt>
      <trkpt lat="51.80466" lon="6.36733">
        <ele>57.985739</ele>
        <time>2026-05-07T08:16:44.985Z</time>
      </trkpt>
      <trkpt lat="51.80478" lon="6.36728">
        <ele>57.951981</ele>
        <time>2026-05-07T08:16:47.973Z</time>
      </trkpt>
      <trkpt lat="51.8049" lon="6.36722">
        <ele>57.918315</ele>
        <time>2026-05-07T08:16:50.975Z</time>
      </trkpt>
      <trkpt lat="51.80499" lon="6.36718">
        <ele>57.891902</ele>
        <time>2026-05-07T08:16:52.983Z</time>
      </trkpt>
      <trkpt lat="51.80509" lon="6.36713">
        <ele>57.865135</ele>
        <time>2026-05-07T08:16:54.984Z</time>
      </trkpt>
      <trkpt lat="51.80518" lon="6.36709">
        <ele>57.838836</ele>
        <time>2026-05-07T08:16:56.989Z</time>
      </trkpt>
      <trkpt lat="51.80527" lon="6.36704">
        <ele>57.814281</ele>
        <time>2026-05-07T08:16:58.983Z</time>
      </trkpt>
      <trkpt lat="51.80539" lon="6.36699">
        <ele>57.778707</ele>
        <time>2026-05-07T08:17:01.977Z</time>
      </trkpt>
      <trkpt lat="51.80552" lon="6.36693">
        <ele>57.743566</ele>
        <time>2026-05-07T08:17:04.988Z</time>
      </trkpt>
      <trkpt lat="51.80561" lon="6.36689">
        <ele>57.725844</ele>
        <time>2026-05-07T08:17:06.975Z</time>
      </trkpt>
      <trkpt lat="51.80573" lon="6.36684">
        <ele>57.704126</ele>
        <time>2026-05-07T08:17:09.992Z</time>
      </trkpt>
      <trkpt lat="51.80586" lon="6.36678">
        <ele>57.682215</ele>
        <time>2026-05-07T08:17:12.986Z</time>
      </trkpt>
      <trkpt lat="51.80599" lon="6.36672">
        <ele>57.660179</ele>
        <time>2026-05-07T08:17:15.976Z</time>
      </trkpt>
      <trkpt lat="51.80608" lon="6.36668">
        <ele>57.645269</ele>
        <time>2026-05-07T08:17:17.974Z</time>
      </trkpt>
      <trkpt lat="51.80617" lon="6.36664">
        <ele>57.630194</ele>
        <time>2026-05-07T08:17:19.983Z</time>
      </trkpt>
      <trkpt lat="51.80626" lon="6.36659">
        <ele>57.614872</ele>
        <time>2026-05-07T08:17:21.989Z</time>
      </trkpt>
      <trkpt lat="51.80635" lon="6.36655">
        <ele>57.599483</ele>
        <time>2026-05-07T08:17:23.984Z</time>
      </trkpt>
      <trkpt lat="51.80644" lon="6.36651">
        <ele>57.584255</ele>
        <time>2026-05-07T08:17:25.981Z</time>
      </trkpt>
      <trkpt lat="51.80652" lon="6.36648">
        <ele>57.569478</ele>
        <time>2026-05-07T08:17:27.976Z</time>
      </trkpt>
      <trkpt lat="51.80665" lon="6.36642">
        <ele>57.547232</ele>
        <time>2026-05-07T08:17:30.985Z</time>
      </trkpt>
      <trkpt lat="51.80678" lon="6.36636">
        <ele>57.52522</ele>
        <time>2026-05-07T08:17:33.981Z</time>
      </trkpt>
      <trkpt lat="51.80691" lon="6.36629">
        <ele>57.503804</ele>
        <time>2026-05-07T08:17:36.978Z</time>
      </trkpt>
      <trkpt lat="51.80703" lon="6.36622">
        <ele>57.482319</ele>
        <time>2026-05-07T08:17:39.983Z</time>
      </trkpt>
      <trkpt lat="51.80712" lon="6.36617">
        <ele>57.467184</ele>
        <time>2026-05-07T08:17:41.984Z</time>
      </trkpt>
      <trkpt lat="51.80721" lon="6.36613">
        <ele>57.451772</ele>
        <time>2026-05-07T08:17:43.981Z</time>
      </trkpt>
      <trkpt lat="51.8073" lon="6.36609">
        <ele>57.535329</ele>
        <time>2026-05-07T08:17:45.972Z</time>
      </trkpt>
      <trkpt lat="51.80739" lon="6.36605">
        <ele>57.796276</ele>
        <time>2026-05-07T08:17:47.985Z</time>
      </trkpt>
      <trkpt lat="51.80748" lon="6.366">
        <ele>58.049806</ele>
        <time>2026-05-07T08:17:49.971Z</time>
      </trkpt>
      <trkpt lat="51.80757" lon="6.36597">
        <ele>58.303609</ele>
        <time>2026-05-07T08:17:51.991Z</time>
      </trkpt>
      <trkpt lat="51.8077" lon="6.36592">
        <ele>58.658035</ele>
        <time>2026-05-07T08:17:54.983Z</time>
      </trkpt>
      <trkpt lat="51.80781" lon="6.36587">
        <ele>58.973012</ele>
        <time>2026-05-07T08:17:57.990Z</time>
      </trkpt>
      <trkpt lat="51.80791" lon="6.36582">
        <ele>59.282044</ele>
        <time>2026-05-07T08:18:01.978Z</time>
      </trkpt>
      <trkpt lat="51.80799" lon="6.36573">
        <ele>59.54274</ele>
        <time>2026-05-07T08:18:07.991Z</time>
      </trkpt>
      <trkpt lat="51.80795" lon="6.3656">
        <ele>59.798163</ele>
        <time>2026-05-07T08:18:11.996Z</time>
      </trkpt>
      <trkpt lat="51.80798" lon="6.36546">
        <ele>60.048569</ele>
        <time>2026-05-07T08:18:15.974Z</time>
      </trkpt>
      <trkpt lat="51.80804" lon="6.36535">
        <ele>60.296895</ele>
        <time>2026-05-07T08:18:19.976Z</time>
      </trkpt>
      <trkpt lat="51.80812" lon="6.36528">
        <ele>60.549312</ele>
        <time>2026-05-07T08:18:23.987Z</time>
      </trkpt>
      <trkpt lat="51.8082" lon="6.36522">
        <ele>60.801381</ele>
        <time>2026-05-07T08:18:27.981Z</time>
      </trkpt>
      <trkpt lat="51.80829" lon="6.36513">
        <ele>61.089395</ele>
        <time>2026-05-07T08:18:32.986Z</time>
      </trkpt>
      <trkpt lat="51.80837" lon="6.36504">
        <ele>61.345042</ele>
        <time>2026-05-07T08:18:36.977Z</time>
      </trkpt>
      <trkpt lat="51.80846" lon="6.36498">
        <ele>61.625143</ele>
        <time>2026-05-07T08:18:40.988Z</time>
      </trkpt>
      <trkpt lat="51.80856" lon="6.36494">
        <ele>61.910846</ele>
        <time>2026-05-07T08:18:44.987Z</time>
      </trkpt>
      <trkpt lat="51.80867" lon="6.36489">
        <ele>62.217884</ele>
        <time>2026-05-07T08:18:48.970Z</time>
      </trkpt>
      <trkpt lat="51.80878" lon="6.36484">
        <ele>62.404742</ele>
        <time>2026-05-07T08:18:52.980Z</time>
      </trkpt>
      <trkpt lat="51.80889" lon="6.3648">
        <ele>62.43144</ele>
        <time>2026-05-07T08:18:56.984Z</time>
      </trkpt>
      <trkpt lat="51.80898" lon="6.36476">
        <ele>62.45513</ele>
        <time>2026-05-07T08:19:00.989Z</time>
      </trkpt>
      <trkpt lat="51.80908" lon="6.36472">
        <ele>62.480376</ele>
        <time>2026-05-07T08:19:05.984Z</time>
      </trkpt>
      <trkpt lat="51.80917" lon="6.36467">
        <ele>62.504713</ele>
        <time>2026-05-07T08:19:09.991Z</time>
      </trkpt>
      <trkpt lat="51.80927" lon="6.36462">
        <ele>62.531972</ele>
        <time>2026-05-07T08:19:13.977Z</time>
      </trkpt>
      <trkpt lat="51.80939" lon="6.36456">
        <ele>62.561172</ele>
        <time>2026-05-07T08:19:17.974Z</time>
      </trkpt>
      <trkpt lat="51.80948" lon="6.36451">
        <ele>62.584892</ele>
        <time>2026-05-07T08:19:20.978Z</time>
      </trkpt>
      <trkpt lat="51.80957" lon="6.36447">
        <ele>62.607911</ele>
        <time>2026-05-07T08:19:23.982Z</time>
      </trkpt>
      <trkpt lat="51.80966" lon="6.36442">
        <ele>62.631821</ele>
        <time>2026-05-07T08:19:26.978Z</time>
      </trkpt>
      <trkpt lat="51.80975" lon="6.36439">
        <ele>62.655725</ele>
        <time>2026-05-07T08:19:29.981Z</time>
      </trkpt>
      <trkpt lat="51.80985" lon="6.36434">
        <ele>62.680256</ele>
        <time>2026-05-07T08:19:32.970Z</time>
      </trkpt>
      <trkpt lat="51.80995" lon="6.3643">
        <ele>62.705461</ele>
        <time>2026-05-07T08:19:35.986Z</time>
      </trkpt>
      <trkpt lat="51.81005" lon="6.36426">
        <ele>62.731435</ele>
        <time>2026-05-07T08:19:38.984Z</time>
      </trkpt>
      <trkpt lat="51.81015" lon="6.36421">
        <ele>62.758798</ele>
        <time>2026-05-07T08:19:41.993Z</time>
      </trkpt>
      <trkpt lat="51.81026" lon="6.36416">
        <ele>62.785584</ele>
        <time>2026-05-07T08:19:44.980Z</time>
      </trkpt>
      <trkpt lat="51.81036" lon="6.36411">
        <ele>62.813079</ele>
        <time>2026-05-07T08:19:47.986Z</time>
      </trkpt>
      <trkpt lat="51.81047" lon="6.36405">
        <ele>62.835804</ele>
        <time>2026-05-07T08:19:50.984Z</time>
      </trkpt>
      <trkpt lat="51.81058" lon="6.364">
        <ele>62.823212</ele>
        <time>2026-05-07T08:19:53.981Z</time>
      </trkpt>
      <trkpt lat="51.81069" lon="6.36396">
        <ele>62.810491</ele>
        <time>2026-05-07T08:19:56.985Z</time>
      </trkpt>
      <trkpt lat="51.81081" lon="6.3639">
        <ele>62.797284</ele>
        <time>2026-05-07T08:19:59.993Z</time>
      </trkpt>
      <trkpt lat="51.81092" lon="6.36386">
        <ele>62.783909</ele>
        <time>2026-05-07T08:20:02.985Z</time>
      </trkpt>
      <trkpt lat="51.81104" lon="6.36381">
        <ele>62.770432</ele>
        <time>2026-05-07T08:20:05.982Z</time>
      </trkpt>
      <trkpt lat="51.81115" lon="6.36376">
        <ele>62.757136</ele>
        <time>2026-05-07T08:20:08.979Z</time>
      </trkpt>
      <trkpt lat="51.81127" lon="6.36371">
        <ele>62.743929</ele>
        <time>2026-05-07T08:20:11.977Z</time>
      </trkpt>
      <trkpt lat="51.81138" lon="6.36365">
        <ele>62.730447</ele>
        <time>2026-05-07T08:20:14.988Z</time>
      </trkpt>
      <trkpt lat="51.8115" lon="6.3636">
        <ele>62.716945</ele>
        <time>2026-05-07T08:20:17.988Z</time>
      </trkpt>
      <trkpt lat="51.81161" lon="6.36354">
        <ele>62.703933</ele>
        <time>2026-05-07T08:20:20.990Z</time>
      </trkpt>
      <trkpt lat="51.81172" lon="6.36349">
        <ele>62.691016</ele>
        <time>2026-05-07T08:20:23.996Z</time>
      </trkpt>
      <trkpt lat="51.81183" lon="6.36343">
        <ele>62.677537</ele>
        <time>2026-05-07T08:20:26.981Z</time>
      </trkpt>
      <trkpt lat="51.81194" lon="6.36337">
        <ele>62.664634</ele>
        <time>2026-05-07T08:20:29.990Z</time>
      </trkpt>
      <trkpt lat="51.81205" lon="6.36331">
        <ele>62.652038</ele>
        <time>2026-05-07T08:20:32.979Z</time>
      </trkpt>
      <trkpt lat="51.81215" lon="6.36322">
        <ele>62.638957</ele>
        <time>2026-05-07T08:20:35.986Z</time>
      </trkpt>
      <trkpt lat="51.81225" lon="6.36313">
        <ele>62.658411</ele>
        <time>2026-05-07T08:20:38.983Z</time>
      </trkpt>
      <trkpt lat="51.81235" lon="6.36303">
        <ele>62.68888</ele>
        <time>2026-05-07T08:20:41.982Z</time>
      </trkpt>
      <trkpt lat="51.81245" lon="6.36292">
        <ele>62.720876</ele>
        <time>2026-05-07T08:20:44.991Z</time>
      </trkpt>
      <trkpt lat="51.81255" lon="6.36281">
        <ele>62.751977</ele>
        <time>2026-05-07T08:20:47.978Z</time>
      </trkpt>
      <trkpt lat="51.81264" lon="6.36269">
        <ele>62.782902</ele>
        <time>2026-05-07T08:20:50.985Z</time>
      </trkpt>
      <trkpt lat="51.81273" lon="6.36256">
        <ele>62.814101</ele>
        <time>2026-05-07T08:20:53.986Z</time>
      </trkpt>
      <trkpt lat="51.81281" lon="6.36243">
        <ele>62.843642</ele>
        <time>2026-05-07T08:20:56.990Z</time>
      </trkpt>
      <trkpt lat="51.81289" lon="6.3623">
        <ele>62.873695</ele>
        <time>2026-05-07T08:20:59.986Z</time>
      </trkpt>
      <trkpt lat="51.81297" lon="6.36216">
        <ele>62.903832</ele>
        <time>2026-05-07T08:21:02.984Z</time>
      </trkpt>
      <trkpt lat="51.81304" lon="6.362">
        <ele>62.934528</ele>
        <time>2026-05-07T08:21:05.984Z</time>
      </trkpt>
      <trkpt lat="51.81311" lon="6.36184">
        <ele>62.96612</ele>
        <time>2026-05-07T08:21:08.986Z</time>
      </trkpt>
      <trkpt lat="51.81317" lon="6.36168">
        <ele>62.996343</ele>
        <time>2026-05-07T08:21:11.978Z</time>
      </trkpt>
      <trkpt lat="51.81323" lon="6.36152">
        <ele>63.026012</ele>
        <time>2026-05-07T08:21:14.979Z</time>
      </trkpt>
      <trkpt lat="51.81328" lon="6.36136">
        <ele>63.055855</ele>
        <time>2026-05-07T08:21:17.991Z</time>
      </trkpt>
      <trkpt lat="51.81334" lon="6.3612">
        <ele>63.085558</ele>
        <time>2026-05-07T08:21:20.978Z</time>
      </trkpt>
      <trkpt lat="51.81339" lon="6.36103">
        <ele>63.112099</ele>
        <time>2026-05-07T08:21:23.984Z</time>
      </trkpt>
      <trkpt lat="51.81344" lon="6.36087">
        <ele>63.131976</ele>
        <time>2026-05-07T08:21:26.984Z</time>
      </trkpt>
      <trkpt lat="51.81348" lon="6.36074">
        <ele>63.148918</ele>
        <time>2026-05-07T08:21:29.991Z</time>
      </trkpt>
      <trkpt lat="51.81355" lon="6.36057">
        <ele>63.171148</ele>
        <time>2026-05-07T08:21:33.974Z</time>
      </trkpt>
      <trkpt lat="51.8136" lon="6.36043">
        <ele>63.189625</ele>
        <time>2026-05-07T08:21:36.990Z</time>
      </trkpt>
      <trkpt lat="51.81364" lon="6.36028">
        <ele>63.208634</ele>
        <time>2026-05-07T08:21:39.984Z</time>
      </trkpt>
      <trkpt lat="51.8137" lon="6.36012">
        <ele>63.228585</ele>
        <time>2026-05-07T08:21:42.976Z</time>
      </trkpt>
      <trkpt lat="51.81375" lon="6.35997">
        <ele>63.248429</ele>
        <time>2026-05-07T08:21:45.978Z</time>
      </trkpt>
      <trkpt lat="51.81381" lon="6.35982">
        <ele>63.267687</ele>
        <time>2026-05-07T08:21:48.975Z</time>
      </trkpt>
      <trkpt lat="51.81386" lon="6.35967">
        <ele>63.287615</ele>
        <time>2026-05-07T08:21:51.970Z</time>
      </trkpt>
      <trkpt lat="51.81392" lon="6.35951">
        <ele>63.307862</ele>
        <time>2026-05-07T08:21:54.981Z</time>
      </trkpt>
      <trkpt lat="51.81397" lon="6.35937">
        <ele>63.327316</ele>
        <time>2026-05-07T08:21:57.984Z</time>
      </trkpt>
      <trkpt lat="51.81403" lon="6.35922">
        <ele>63.346959</ele>
        <time>2026-05-07T08:22:00.984Z</time>
      </trkpt>
      <trkpt lat="51.81408" lon="6.35905">
        <ele>63.367678</ele>
        <time>2026-05-07T08:22:03.989Z</time>
      </trkpt>
      <trkpt lat="51.81413" lon="6.3589">
        <ele>63.387531</ele>
        <time>2026-05-07T08:22:06.990Z</time>
      </trkpt>
      <trkpt lat="51.81418" lon="6.35874">
        <ele>63.408026</ele>
        <time>2026-05-07T08:22:09.983Z</time>
      </trkpt>
      <trkpt lat="51.81424" lon="6.35859">
        <ele>63.427396</ele>
        <time>2026-05-07T08:22:12.978Z</time>
      </trkpt>
      <trkpt lat="51.81429" lon="6.35843">
        <ele>63.394907</ele>
        <time>2026-05-07T08:22:15.975Z</time>
      </trkpt>
      <trkpt lat="51.81434" lon="6.35828">
        <ele>63.353015</ele>
        <time>2026-05-07T08:22:18.984Z</time>
      </trkpt>
      <trkpt lat="51.8144" lon="6.35813">
        <ele>63.309924</ele>
        <time>2026-05-07T08:22:21.980Z</time>
      </trkpt>
      <trkpt lat="51.81446" lon="6.35797">
        <ele>63.264309</ele>
        <time>2026-05-07T08:22:24.980Z</time>
      </trkpt>
      <trkpt lat="51.81451" lon="6.3578">
        <ele>63.216337</ele>
        <time>2026-05-07T08:22:27.975Z</time>
      </trkpt>
      <trkpt lat="51.81457" lon="6.35763">
        <ele>63.169249</ele>
        <time>2026-05-07T08:22:30.980Z</time>
      </trkpt>
      <trkpt lat="51.81462" lon="6.35746">
        <ele>63.122041</ele>
        <time>2026-05-07T08:22:33.983Z</time>
      </trkpt>
      <trkpt lat="51.81468" lon="6.35729">
        <ele>63.075145</ele>
        <time>2026-05-07T08:22:36.991Z</time>
      </trkpt>
      <trkpt lat="51.81474" lon="6.35713">
        <ele>63.030167</ele>
        <time>2026-05-07T08:22:39.982Z</time>
      </trkpt>
      <trkpt lat="51.8148" lon="6.35697">
        <ele>62.984582</ele>
        <time>2026-05-07T08:22:42.972Z</time>
      </trkpt>
      <trkpt lat="51.81485" lon="6.35682">
        <ele>62.941681</ele>
        <time>2026-05-07T08:22:45.969Z</time>
      </trkpt>
      <trkpt lat="51.81491" lon="6.35667">
        <ele>62.900257</ele>
        <time>2026-05-07T08:22:48.978Z</time>
      </trkpt>
      <trkpt lat="51.81497" lon="6.35652">
        <ele>62.855921</ele>
        <time>2026-05-07T08:22:51.979Z</time>
      </trkpt>
      <trkpt lat="51.81502" lon="6.35636">
        <ele>62.812361</ele>
        <time>2026-05-07T08:22:54.979Z</time>
      </trkpt>
      <trkpt lat="51.81507" lon="6.35622">
        <ele>62.770718</ele>
        <time>2026-05-07T08:22:57.974Z</time>
      </trkpt>
      <trkpt lat="51.81513" lon="6.35605">
        <ele>62.725118</ele>
        <time>2026-05-07T08:23:00.977Z</time>
      </trkpt>
      <trkpt lat="51.81519" lon="6.35589">
        <ele>62.713987</ele>
        <time>2026-05-07T08:23:03.998Z</time>
      </trkpt>
      <trkpt lat="51.81525" lon="6.35572">
        <ele>62.707959</ele>
        <time>2026-05-07T08:23:06.986Z</time>
      </trkpt>
      <trkpt lat="51.8153" lon="6.35556">
        <ele>62.702193</ele>
        <time>2026-05-07T08:23:09.980Z</time>
      </trkpt>
      <trkpt lat="51.81536" lon="6.35538">
        <ele>62.695977</ele>
        <time>2026-05-07T08:23:12.974Z</time>
      </trkpt>
      <trkpt lat="51.81542" lon="6.35522">
        <ele>62.690158</ele>
        <time>2026-05-07T08:23:15.978Z</time>
      </trkpt>
      <trkpt lat="51.81548" lon="6.35505">
        <ele>62.684235</ele>
        <time>2026-05-07T08:23:18.975Z</time>
      </trkpt>
      <trkpt lat="51.81554" lon="6.35489">
        <ele>62.678368</ele>
        <time>2026-05-07T08:23:21.981Z</time>
      </trkpt>
      <trkpt lat="51.81559" lon="6.35472">
        <ele>62.672361</ele>
        <time>2026-05-07T08:23:24.984Z</time>
      </trkpt>
      <trkpt lat="51.81565" lon="6.35455">
        <ele>62.666386</ele>
        <time>2026-05-07T08:23:27.979Z</time>
      </trkpt>
      <trkpt lat="51.81571" lon="6.35439">
        <ele>62.660515</ele>
        <time>2026-05-07T08:23:30.978Z</time>
      </trkpt>
      <trkpt lat="51.81576" lon="6.35423">
        <ele>62.654723</ele>
        <time>2026-05-07T08:23:33.985Z</time>
      </trkpt>
      <trkpt lat="51.81582" lon="6.35406">
        <ele>62.648982</ele>
        <time>2026-05-07T08:23:36.984Z</time>
      </trkpt>
      <trkpt lat="51.81588" lon="6.3539">
        <ele>62.643216</ele>
        <time>2026-05-07T08:23:39.982Z</time>
      </trkpt>
      <trkpt lat="51.81594" lon="6.35374">
        <ele>62.637404</ele>
        <time>2026-05-07T08:23:42.976Z</time>
      </trkpt>
      <trkpt lat="51.81599" lon="6.35358">
        <ele>62.631451</ele>
        <time>2026-05-07T08:23:45.970Z</time>
      </trkpt>
      <trkpt lat="51.81605" lon="6.35341">
        <ele>62.636816</ele>
        <time>2026-05-07T08:23:48.981Z</time>
      </trkpt>
      <trkpt lat="51.81611" lon="6.35325">
        <ele>62.651816</ele>
        <time>2026-05-07T08:23:51.981Z</time>
      </trkpt>
      <trkpt lat="51.81617" lon="6.35308">
        <ele>62.667148</ele>
        <time>2026-05-07T08:23:54.976Z</time>
      </trkpt>
      <trkpt lat="51.81622" lon="6.35291">
        <ele>62.682246</ele>
        <time>2026-05-07T08:23:57.983Z</time>
      </trkpt>
      <trkpt lat="51.81628" lon="6.35274">
        <ele>62.697115</ele>
        <time>2026-05-07T08:24:00.977Z</time>
      </trkpt>
      <trkpt lat="51.81634" lon="6.35258">
        <ele>62.712035</ele>
        <time>2026-05-07T08:24:03.988Z</time>
      </trkpt>
      <trkpt lat="51.8164" lon="6.35241">
        <ele>62.727098</ele>
        <time>2026-05-07T08:24:06.983Z</time>
      </trkpt>
      <trkpt lat="51.81646" lon="6.35225">
        <ele>62.742082</ele>
        <time>2026-05-07T08:24:09.991Z</time>
      </trkpt>
      <trkpt lat="51.81652" lon="6.35209">
        <ele>62.756665</ele>
        <time>2026-05-07T08:24:12.998Z</time>
      </trkpt>
      <trkpt lat="51.81657" lon="6.35193">
        <ele>62.771314</ele>
        <time>2026-05-07T08:24:16.002Z</time>
      </trkpt>
      <trkpt lat="51.81663" lon="6.35177">
        <ele>62.786314</ele>
        <time>2026-05-07T08:24:18.983Z</time>
      </trkpt>
      <trkpt lat="51.81669" lon="6.3516">
        <ele>62.801383</ele>
        <time>2026-05-07T08:24:21.990Z</time>
      </trkpt>
      <trkpt lat="51.81675" lon="6.35144">
        <ele>62.816176</ele>
        <time>2026-05-07T08:24:24.973Z</time>
      </trkpt>
      <trkpt lat="51.81681" lon="6.35127">
        <ele>62.831768</ele>
        <time>2026-05-07T08:24:27.981Z</time>
      </trkpt>
      <trkpt lat="51.81687" lon="6.3511">
        <ele>62.846757</ele>
        <time>2026-05-07T08:24:30.980Z</time>
      </trkpt>
      <trkpt lat="51.81692" lon="6.35093">
        <ele>62.844922</ele>
        <time>2026-05-07T08:24:33.976Z</time>
      </trkpt>
      <trkpt lat="51.81698" lon="6.35077">
        <ele>62.785604</ele>
        <time>2026-05-07T08:24:36.983Z</time>
      </trkpt>
      <trkpt lat="51.81704" lon="6.35061">
        <ele>62.725687</ele>
        <time>2026-05-07T08:24:39.987Z</time>
      </trkpt>
      <trkpt lat="51.81709" lon="6.35045">
        <ele>62.666074</ele>
        <time>2026-05-07T08:24:42.982Z</time>
      </trkpt>
      <trkpt lat="51.81715" lon="6.35028">
        <ele>62.604248</ele>
        <time>2026-05-07T08:24:45.987Z</time>
      </trkpt>
      <trkpt lat="51.8172" lon="6.35012">
        <ele>62.545073</ele>
        <time>2026-05-07T08:24:48.971Z</time>
      </trkpt>
      <trkpt lat="51.81725" lon="6.34995">
        <ele>62.485968</ele>
        <time>2026-05-07T08:24:51.982Z</time>
      </trkpt>
      <trkpt lat="51.8173" lon="6.34978">
        <ele>62.426133</ele>
        <time>2026-05-07T08:24:54.980Z</time>
      </trkpt>
      <trkpt lat="51.81735" lon="6.34961">
        <ele>62.365624</ele>
        <time>2026-05-07T08:24:57.997Z</time>
      </trkpt>
      <trkpt lat="51.81739" lon="6.34944">
        <ele>62.306458</ele>
        <time>2026-05-07T08:25:00.992Z</time>
      </trkpt>
      <trkpt lat="51.81742" lon="6.34927">
        <ele>62.248248</ele>
        <time>2026-05-07T08:25:03.990Z</time>
      </trkpt>
      <trkpt lat="51.81745" lon="6.34908">
        <ele>62.18786</ele>
        <time>2026-05-07T08:25:06.988Z</time>
      </trkpt>
      <trkpt lat="51.81748" lon="6.3489">
        <ele>62.127682</ele>
        <time>2026-05-07T08:25:09.978Z</time>
      </trkpt>
      <trkpt lat="51.81752" lon="6.34872">
        <ele>62.065958</ele>
        <time>2026-05-07T08:25:12.975Z</time>
      </trkpt>
      <trkpt lat="51.81754" lon="6.34853">
        <ele>62.00428</ele>
        <time>2026-05-07T08:25:15.976Z</time>
      </trkpt>
      <trkpt lat="51.81756" lon="6.34834">
        <ele>61.942038</ele>
        <time>2026-05-07T08:25:18.983Z</time>
      </trkpt>
      <trkpt lat="51.81758" lon="6.34815">
        <ele>61.974174</ele>
        <time>2026-05-07T08:25:21.978Z</time>
      </trkpt>
      <trkpt lat="51.81759" lon="6.34796">
        <ele>62.047862</ele>
        <time>2026-05-07T08:25:24.983Z</time>
      </trkpt>
      <trkpt lat="51.8176" lon="6.34778">
        <ele>62.11798</ele>
        <time>2026-05-07T08:25:27.984Z</time>
      </trkpt>
      <trkpt lat="51.81762" lon="6.3476">
        <ele>62.189655</ele>
        <time>2026-05-07T08:25:30.987Z</time>
      </trkpt>
      <trkpt lat="51.81765" lon="6.34741">
        <ele>62.263125</ele>
        <time>2026-05-07T08:25:33.989Z</time>
      </trkpt>
      <trkpt lat="51.81767" lon="6.34722">
        <ele>62.337366</ele>
        <time>2026-05-07T08:25:36.988Z</time>
      </trkpt>
      <trkpt lat="51.81771" lon="6.34703">
        <ele>62.412333</ele>
        <time>2026-05-07T08:25:39.983Z</time>
      </trkpt>
      <trkpt lat="51.81775" lon="6.34685">
        <ele>62.487976</ele>
        <time>2026-05-07T08:25:42.980Z</time>
      </trkpt>
      <trkpt lat="51.8178" lon="6.34667">
        <ele>62.561599</ele>
        <time>2026-05-07T08:25:45.976Z</time>
      </trkpt>
      <trkpt lat="51.81786" lon="6.34651">
        <ele>62.634274</ele>
        <time>2026-05-07T08:25:48.982Z</time>
      </trkpt>
      <trkpt lat="51.81792" lon="6.34634">
        <ele>62.708555</ele>
        <time>2026-05-07T08:25:51.988Z</time>
      </trkpt>
      <trkpt lat="51.81797" lon="6.34617">
        <ele>62.780346</ele>
        <time>2026-05-07T08:25:54.989Z</time>
      </trkpt>
      <trkpt lat="51.81803" lon="6.346">
        <ele>62.85466</ele>
        <time>2026-05-07T08:25:57.978Z</time>
      </trkpt>
      <trkpt lat="51.81808" lon="6.34583">
        <ele>62.926566</ele>
        <time>2026-05-07T08:26:00.987Z</time>
      </trkpt>
      <trkpt lat="51.81813" lon="6.34567">
        <ele>62.997927</ele>
        <time>2026-05-07T08:26:03.976Z</time>
      </trkpt>
      <trkpt lat="51.81818" lon="6.3455">
        <ele>63.072411</ele>
        <time>2026-05-07T08:26:06.982Z</time>
      </trkpt>
      <trkpt lat="51.81824" lon="6.34534">
        <ele>63.154143</ele>
        <time>2026-05-07T08:26:09.987Z</time>
      </trkpt>
      <trkpt lat="51.81829" lon="6.34518">
        <ele>63.233492</ele>
        <time>2026-05-07T08:26:12.971Z</time>
      </trkpt>
      <trkpt lat="51.81835" lon="6.34502">
        <ele>63.312615</ele>
        <time>2026-05-07T08:26:15.989Z</time>
      </trkpt>
      <trkpt lat="51.8184" lon="6.34485">
        <ele>63.395336</ele>
        <time>2026-05-07T08:26:18.981Z</time>
      </trkpt>
      <trkpt lat="51.81846" lon="6.34468">
        <ele>63.481476</ele>
        <time>2026-05-07T08:26:21.970Z</time>
      </trkpt>
      <trkpt lat="51.81851" lon="6.34451">
        <ele>63.569928</ele>
        <time>2026-05-07T08:26:24.988Z</time>
      </trkpt>
      <trkpt lat="51.81857" lon="6.34434">
        <ele>63.652892</ele>
        <time>2026-05-07T08:26:27.996Z</time>
      </trkpt>
      <trkpt lat="51.81862" lon="6.34417">
        <ele>63.73801</ele>
        <time>2026-05-07T08:26:30.989Z</time>
      </trkpt>
      <trkpt lat="51.81868" lon="6.344">
        <ele>63.824116</ele>
        <time>2026-05-07T08:26:33.970Z</time>
      </trkpt>
      <trkpt lat="51.81873" lon="6.34384">
        <ele>63.902518</ele>
        <time>2026-05-07T08:26:36.980Z</time>
      </trkpt>
      <trkpt lat="51.81879" lon="6.34367">
        <ele>63.987636</ele>
        <time>2026-05-07T08:26:39.984Z</time>
      </trkpt>
      <trkpt lat="51.81885" lon="6.3435">
        <ele>64.073317</ele>
        <time>2026-05-07T08:26:42.979Z</time>
      </trkpt>
      <trkpt lat="51.81892" lon="6.34334">
        <ele>64.158291</ele>
        <time>2026-05-07T08:26:45.988Z</time>
      </trkpt>
      <trkpt lat="51.81898" lon="6.34318">
        <ele>64.242848</ele>
        <time>2026-05-07T08:26:48.992Z</time>
      </trkpt>
      <trkpt lat="51.81905" lon="6.34302">
        <ele>64.315266</ele>
        <time>2026-05-07T08:26:51.979Z</time>
      </trkpt>
      <trkpt lat="51.81911" lon="6.34285">
        <ele>64.301487</ele>
        <time>2026-05-07T08:26:54.988Z</time>
      </trkpt>
      <trkpt lat="51.81918" lon="6.34269">
        <ele>64.287089</ele>
        <time>2026-05-07T08:26:57.978Z</time>
      </trkpt>
      <trkpt lat="51.81925" lon="6.34252">
        <ele>64.272827</ele>
        <time>2026-05-07T08:27:00.977Z</time>
      </trkpt>
      <trkpt lat="51.81931" lon="6.34235">
        <ele>64.258808</ele>
        <time>2026-05-07T08:27:03.987Z</time>
      </trkpt>
      <trkpt lat="51.81938" lon="6.34219">
        <ele>64.244973</ele>
        <time>2026-05-07T08:27:06.987Z</time>
      </trkpt>
      <trkpt lat="51.81944" lon="6.34202">
        <ele>64.230772</ele>
        <time>2026-05-07T08:27:09.984Z</time>
      </trkpt>
      <trkpt lat="51.81951" lon="6.34185">
        <ele>64.216265</ele>
        <time>2026-05-07T08:27:12.983Z</time>
      </trkpt>
      <trkpt lat="51.81957" lon="6.34168">
        <ele>64.201817</ele>
        <time>2026-05-07T08:27:15.981Z</time>
      </trkpt>
      <trkpt lat="51.81964" lon="6.34152">
        <ele>64.188281</ele>
        <time>2026-05-07T08:27:18.972Z</time>
      </trkpt>
      <trkpt lat="51.8197" lon="6.34136">
        <ele>64.174443</ele>
        <time>2026-05-07T08:27:21.979Z</time>
      </trkpt>
      <trkpt lat="51.81977" lon="6.3412">
        <ele>64.160971</ele>
        <time>2026-05-07T08:27:24.986Z</time>
      </trkpt>
      <trkpt lat="51.81983" lon="6.34105">
        <ele>64.147426</ele>
        <time>2026-05-07T08:27:27.978Z</time>
      </trkpt>
      <trkpt lat="51.8199" lon="6.34089">
        <ele>64.133833</ele>
        <time>2026-05-07T08:27:30.989Z</time>
      </trkpt>
      <trkpt lat="51.81996" lon="6.34073">
        <ele>64.12018</ele>
        <time>2026-05-07T08:27:34.003Z</time>
      </trkpt>
      <trkpt lat="51.82001" lon="6.34057">
        <ele>64.112452</ele>
        <time>2026-05-07T08:27:36.978Z</time>
      </trkpt>
      <trkpt lat="51.82007" lon="6.34043">
        <ele>64.153965</ele>
        <time>2026-05-07T08:27:39.979Z</time>
      </trkpt>
      <trkpt lat="51.82013" lon="6.34028">
        <ele>64.198222</ele>
        <time>2026-05-07T08:27:42.979Z</time>
      </trkpt>
      <trkpt lat="51.82019" lon="6.34013">
        <ele>64.239119</ele>
        <time>2026-05-07T08:27:45.983Z</time>
      </trkpt>
      <trkpt lat="51.82025" lon="6.33998">
        <ele>64.284757</ele>
        <time>2026-05-07T08:27:49.985Z</time>
      </trkpt>
      <trkpt lat="51.8203" lon="6.33983">
        <ele>64.325504</ele>
        <time>2026-05-07T08:27:53.980Z</time>
      </trkpt>
      <trkpt lat="51.82039" lon="6.33973">
        <ele>64.366394</ele>
        <time>2026-05-07T08:27:58.984Z</time>
      </trkpt>
      <trkpt lat="51.82047" lon="6.33961">
        <ele>64.411045</ele>
        <time>2026-05-07T08:28:02.984Z</time>
      </trkpt>
      <trkpt lat="51.82055" lon="6.33948">
        <ele>64.454815</ele>
        <time>2026-05-07T08:28:05.982Z</time>
      </trkpt>
      <trkpt lat="51.82063" lon="6.33934">
        <ele>64.500612</ele>
        <time>2026-05-07T08:28:08.980Z</time>
      </trkpt>
      <trkpt lat="51.82071" lon="6.3392">
        <ele>64.546408</ele>
        <time>2026-05-07T08:28:11.978Z</time>
      </trkpt>
      <trkpt lat="51.8208" lon="6.33911">
        <ele>64.586113</ele>
        <time>2026-05-07T08:28:15.992Z</time>
      </trkpt>
      <trkpt lat="51.82077" lon="6.33926">
        <ele>64.623546</ele>
        <time>2026-05-07T08:28:19.994Z</time>
      </trkpt>
      <trkpt lat="51.82072" lon="6.33939">
        <ele>64.662182</ele>
        <time>2026-05-07T08:28:22.983Z</time>
      </trkpt>
      <trkpt lat="51.82072" lon="6.33957">
        <ele>64.704468</ele>
        <time>2026-05-07T08:28:26.986Z</time>
      </trkpt>
      <trkpt lat="51.8208" lon="6.33968">
        <ele>64.744938</ele>
        <time>2026-05-07T08:28:29.988Z</time>
      </trkpt>
      <trkpt lat="51.82089" lon="6.33982">
        <ele>64.793737</ele>
        <time>2026-05-07T08:28:32.998Z</time>
      </trkpt>
      <trkpt lat="51.82098" lon="6.33997">
        <ele>64.765036</ele>
        <time>2026-05-07T08:28:35.979Z</time>
      </trkpt>
      <trkpt lat="51.82107" lon="6.34007">
        <ele>64.706822</ele>
        <time>2026-05-07T08:28:38.988Z</time>
      </trkpt>
      <trkpt lat="51.82116" lon="6.34003">
        <ele>64.657299</ele>
        <time>2026-05-07T08:28:41.986Z</time>
      </trkpt>
      <trkpt lat="51.82124" lon="6.3399">
        <ele>64.596866</ele>
        <time>2026-05-07T08:28:44.986Z</time>
      </trkpt>
      <trkpt lat="51.82132" lon="6.33978">
        <ele>64.537453</ele>
        <time>2026-05-07T08:28:47.998Z</time>
      </trkpt>
      <trkpt lat="51.82139" lon="6.33965">
        <ele>64.478362</ele>
        <time>2026-05-07T08:28:50.974Z</time>
      </trkpt>
      <trkpt lat="51.82147" lon="6.33951">
        <ele>64.414818</ele>
        <time>2026-05-07T08:28:53.970Z</time>
      </trkpt>
      <trkpt lat="51.82155" lon="6.33937">
        <ele>64.347685</ele>
        <time>2026-05-07T08:28:56.980Z</time>
      </trkpt>
      <trkpt lat="51.82163" lon="6.33921">
        <ele>64.280184</ele>
        <time>2026-05-07T08:28:59.986Z</time>
      </trkpt>
      <trkpt lat="51.8217" lon="6.33904">
        <ele>64.210394</ele>
        <time>2026-05-07T08:29:02.988Z</time>
      </trkpt>
      <trkpt lat="51.82177" lon="6.33888">
        <ele>64.144649</ele>
        <time>2026-05-07T08:29:05.986Z</time>
      </trkpt>
      <trkpt lat="51.82185" lon="6.33873">
        <ele>64.076567</ele>
        <time>2026-05-07T08:29:08.978Z</time>
      </trkpt>
      <trkpt lat="51.82193" lon="6.33857">
        <ele>64.00873</ele>
        <time>2026-05-07T08:29:11.972Z</time>
      </trkpt>
      <trkpt lat="51.822" lon="6.3384">
        <ele>63.939998</ele>
        <time>2026-05-07T08:29:14.973Z</time>
      </trkpt>
      <trkpt lat="51.82208" lon="6.33823">
        <ele>63.867693</ele>
        <time>2026-05-07T08:29:17.986Z</time>
      </trkpt>
      <trkpt lat="51.82216" lon="6.33806">
        <ele>63.772256</ele>
        <time>2026-05-07T08:29:20.984Z</time>
      </trkpt>
      <trkpt lat="51.82224" lon="6.33789">
        <ele>63.646263</ele>
        <time>2026-05-07T08:29:23.979Z</time>
      </trkpt>
      <trkpt lat="51.82229" lon="6.33777">
        <ele>63.561719</ele>
        <time>2026-05-07T08:29:25.978Z</time>
      </trkpt>
      <trkpt lat="51.82237" lon="6.33759">
        <ele>63.437016</ele>
        <time>2026-05-07T08:29:28.995Z</time>
      </trkpt>
      <trkpt lat="51.82242" lon="6.33747">
        <ele>63.350772</ele>
        <time>2026-05-07T08:29:30.986Z</time>
      </trkpt>
      <trkpt lat="51.82247" lon="6.33734">
        <ele>63.266435</ele>
        <time>2026-05-07T08:29:32.986Z</time>
      </trkpt>
      <trkpt lat="51.82251" lon="6.33721">
        <ele>63.179179</ele>
        <time>2026-05-07T08:29:34.979Z</time>
      </trkpt>
      <trkpt lat="51.82256" lon="6.33708">
        <ele>63.091488</ele>
        <time>2026-05-07T08:29:36.989Z</time>
      </trkpt>
      <trkpt lat="51.82261" lon="6.33694">
        <ele>63.003169</ele>
        <time>2026-05-07T08:29:38.979Z</time>
      </trkpt>
      <trkpt lat="51.82265" lon="6.33681">
        <ele>62.918404</ele>
        <time>2026-05-07T08:29:40.988Z</time>
      </trkpt>
      <trkpt lat="51.8227" lon="6.33661">
        <ele>62.793102</ele>
        <time>2026-05-07T08:29:43.983Z</time>
      </trkpt>
      <trkpt lat="51.82275" lon="6.33641">
        <ele>62.669896</ele>
        <time>2026-05-07T08:29:46.971Z</time>
      </trkpt>
      <trkpt lat="51.82277" lon="6.33627">
        <ele>62.583782</ele>
        <time>2026-05-07T08:29:48.982Z</time>
      </trkpt>
      <trkpt lat="51.8228" lon="6.33612">
        <ele>62.499014</ele>
        <time>2026-05-07T08:29:50.984Z</time>
      </trkpt>
      <trkpt lat="51.82282" lon="6.33598">
        <ele>62.414802</ele>
        <time>2026-05-07T08:29:52.987Z</time>
      </trkpt>
      <trkpt lat="51.82285" lon="6.33584">
        <ele>62.330275</ele>
        <time>2026-05-07T08:29:54.991Z</time>
      </trkpt>
      <trkpt lat="51.82287" lon="6.3357">
        <ele>62.244303</ele>
        <time>2026-05-07T08:29:56.989Z</time>
      </trkpt>
      <trkpt lat="51.82289" lon="6.33556">
        <ele>62.160646</ele>
        <time>2026-05-07T08:29:58.997Z</time>
      </trkpt>
      <trkpt lat="51.82293" lon="6.33535">
        <ele>62.258184</ele>
        <time>2026-05-07T08:30:01.987Z</time>
      </trkpt>
      <trkpt lat="51.82297" lon="6.33514">
        <ele>62.367604</ele>
        <time>2026-05-07T08:30:04.984Z</time>
      </trkpt>
      <trkpt lat="51.82299" lon="6.335">
        <ele>62.441671</ele>
        <time>2026-05-07T08:30:06.986Z</time>
      </trkpt>
      <trkpt lat="51.82302" lon="6.33486">
        <ele>62.51455</ele>
        <time>2026-05-07T08:30:08.974Z</time>
      </trkpt>
      <trkpt lat="51.82306" lon="6.33465">
        <ele>62.623503</ele>
        <time>2026-05-07T08:30:11.978Z</time>
      </trkpt>
      <trkpt lat="51.8231" lon="6.33444">
        <ele>62.731017</ele>
        <time>2026-05-07T08:30:14.982Z</time>
      </trkpt>
      <trkpt lat="51.82312" lon="6.3343">
        <ele>62.804362</ele>
        <time>2026-05-07T08:30:16.986Z</time>
      </trkpt>
      <trkpt lat="51.82316" lon="6.3341">
        <ele>62.911643</ele>
        <time>2026-05-07T08:30:19.974Z</time>
      </trkpt>
      <trkpt lat="51.82319" lon="6.33396">
        <ele>62.984758</ele>
        <time>2026-05-07T08:30:21.982Z</time>
      </trkpt>
      <trkpt lat="51.82323" lon="6.33375">
        <ele>63.094445</ele>
        <time>2026-05-07T08:30:24.975Z</time>
      </trkpt>
      <trkpt lat="51.82325" lon="6.33361">
        <ele>63.16792</ele>
        <time>2026-05-07T08:30:26.980Z</time>
      </trkpt>
      <trkpt lat="51.82328" lon="6.3334">
        <ele>63.273662</ele>
        <time>2026-05-07T08:30:29.982Z</time>
      </trkpt>
      <trkpt lat="51.82331" lon="6.33326">
        <ele>63.347031</ele>
        <time>2026-05-07T08:30:31.973Z</time>
      </trkpt>
      <trkpt lat="51.82336" lon="6.33313">
        <ele>63.423357</ele>
        <time>2026-05-07T08:30:33.976Z</time>
      </trkpt>
      <trkpt lat="51.8234" lon="6.33299">
        <ele>63.500452</ele>
        <time>2026-05-07T08:30:35.984Z</time>
      </trkpt>
      <trkpt lat="51.82344" lon="6.33285">
        <ele>63.57614</ele>
        <time>2026-05-07T08:30:37.984Z</time>
      </trkpt>
      <trkpt lat="51.82348" lon="6.33271">
        <ele>63.557289</ele>
        <time>2026-05-07T08:30:39.980Z</time>
      </trkpt>
      <trkpt lat="51.82351" lon="6.33258">
        <ele>63.464405</ele>
        <time>2026-05-07T08:30:41.980Z</time>
      </trkpt>
      <trkpt lat="51.82354" lon="6.33244">
        <ele>63.370768</ele>
        <time>2026-05-07T08:30:43.989Z</time>
      </trkpt>
      <trkpt lat="51.82358" lon="6.3323">
        <ele>63.275189</ele>
        <time>2026-05-07T08:30:45.991Z</time>
      </trkpt>
      <trkpt lat="51.82362" lon="6.33215">
        <ele>63.177478</ele>
        <time>2026-05-07T08:30:47.977Z</time>
      </trkpt>
      <trkpt lat="51.82366" lon="6.33201">
        <ele>63.078788</ele>
        <time>2026-05-07T08:30:49.985Z</time>
      </trkpt>
      <trkpt lat="51.8237" lon="6.33186">
        <ele>62.976979</ele>
        <time>2026-05-07T08:30:51.979Z</time>
      </trkpt>
      <trkpt lat="51.82374" lon="6.33172">
        <ele>62.880298</ele>
        <time>2026-05-07T08:30:53.976Z</time>
      </trkpt>
      <trkpt lat="51.82378" lon="6.33159">
        <ele>62.786849</ele>
        <time>2026-05-07T08:30:55.986Z</time>
      </trkpt>
      <trkpt lat="51.82381" lon="6.33144">
        <ele>62.690671</ele>
        <time>2026-05-07T08:30:57.976Z</time>
      </trkpt>
      <trkpt lat="51.82384" lon="6.3313">
        <ele>62.597561</ele>
        <time>2026-05-07T08:30:59.989Z</time>
      </trkpt>
      <trkpt lat="51.82389" lon="6.3311">
        <ele>62.462184</ele>
        <time>2026-05-07T08:31:02.988Z</time>
      </trkpt>
      <trkpt lat="51.82392" lon="6.33096">
        <ele>62.369424</ele>
        <time>2026-05-07T08:31:04.984Z</time>
      </trkpt>
      <trkpt lat="51.82394" lon="6.33082">
        <ele>62.277661</ele>
        <time>2026-05-07T08:31:06.992Z</time>
      </trkpt>
      <trkpt lat="51.82398" lon="6.33062">
        <ele>62.142713</ele>
        <time>2026-05-07T08:31:09.988Z</time>
      </trkpt>
      <trkpt lat="51.82401" lon="6.33041">
        <ele>62.008271</ele>
        <time>2026-05-07T08:31:12.990Z</time>
      </trkpt>
      <trkpt lat="51.82403" lon="6.33019">
        <ele>61.871635</ele>
        <time>2026-05-07T08:31:15.991Z</time>
      </trkpt>
      <trkpt lat="51.82405" lon="6.32997">
        <ele>61.779563</ele>
        <time>2026-05-07T08:31:18.976Z</time>
      </trkpt>
      <trkpt lat="51.82406" lon="6.32983">
        <ele>61.772189</ele>
        <time>2026-05-07T08:31:20.972Z</time>
      </trkpt>
      <trkpt lat="51.82408" lon="6.32961">
        <ele>61.761283</ele>
        <time>2026-05-07T08:31:23.986Z</time>
      </trkpt>
      <trkpt lat="51.8241" lon="6.3294">
        <ele>61.750389</ele>
        <time>2026-05-07T08:31:26.986Z</time>
      </trkpt>
      <trkpt lat="51.82411" lon="6.32919">
        <ele>61.739703</ele>
        <time>2026-05-07T08:31:29.997Z</time>
      </trkpt>
      <trkpt lat="51.82412" lon="6.32898">
        <ele>61.729094</ele>
        <time>2026-05-07T08:31:32.974Z</time>
      </trkpt>
      <trkpt lat="51.82413" lon="6.32876">
        <ele>61.718366</ele>
        <time>2026-05-07T08:31:35.981Z</time>
      </trkpt>
      <trkpt lat="51.82414" lon="6.32855">
        <ele>61.707695</ele>
        <time>2026-05-07T08:31:38.980Z</time>
      </trkpt>
      <trkpt lat="51.82416" lon="6.32835">
        <ele>61.69754</ele>
        <time>2026-05-07T08:31:41.979Z</time>
      </trkpt>
      <trkpt lat="51.82417" lon="6.32815">
        <ele>61.687335</ele>
        <time>2026-05-07T08:31:44.974Z</time>
      </trkpt>
      <trkpt lat="51.82419" lon="6.32794">
        <ele>61.676971</ele>
        <time>2026-05-07T08:31:47.979Z</time>
      </trkpt>
      <trkpt lat="51.82421" lon="6.32775">
        <ele>61.666993</ele>
        <time>2026-05-07T08:31:50.977Z</time>
      </trkpt>
      <trkpt lat="51.82424" lon="6.32756">
        <ele>61.657147</ele>
        <time>2026-05-07T08:31:53.982Z</time>
      </trkpt>
      <trkpt lat="51.82427" lon="6.32737">
        <ele>61.647179</ele>
        <time>2026-05-07T08:31:56.994Z</time>
      </trkpt>
      <trkpt lat="51.82432" lon="6.32719">
        <ele>61.637744</ele>
        <time>2026-05-07T08:31:59.986Z</time>
      </trkpt>
      <trkpt lat="51.82436" lon="6.327">
        <ele>61.666557</ele>
        <time>2026-05-07T08:32:02.991Z</time>
      </trkpt>
      <trkpt lat="51.82441" lon="6.32683">
        <ele>61.695067</ele>
        <time>2026-05-07T08:32:05.982Z</time>
      </trkpt>
      <trkpt lat="51.82446" lon="6.32666">
        <ele>61.723208</ele>
        <time>2026-05-07T08:32:08.982Z</time>
      </trkpt>
      <trkpt lat="51.82451" lon="6.32649">
        <ele>61.750478</ele>
        <time>2026-05-07T08:32:11.980Z</time>
      </trkpt>
      <trkpt lat="51.82456" lon="6.32632">
        <ele>61.779115</ele>
        <time>2026-05-07T08:32:14.994Z</time>
      </trkpt>
      <trkpt lat="51.82462" lon="6.32615">
        <ele>61.806463</ele>
        <time>2026-05-07T08:32:17.984Z</time>
      </trkpt>
      <trkpt lat="51.82467" lon="6.32599">
        <ele>61.834524</ele>
        <time>2026-05-07T08:32:20.985Z</time>
      </trkpt>
      <trkpt lat="51.82474" lon="6.32582">
        <ele>61.863337</ele>
        <time>2026-05-07T08:32:23.976Z</time>
      </trkpt>
      <trkpt lat="51.8248" lon="6.32564">
        <ele>61.893906</ele>
        <time>2026-05-07T08:32:26.978Z</time>
      </trkpt>
      <trkpt lat="51.82487" lon="6.32547">
        <ele>61.924724</ele>
        <time>2026-05-07T08:32:29.992Z</time>
      </trkpt>
      <trkpt lat="51.82494" lon="6.32528">
        <ele>61.956559</ele>
        <time>2026-05-07T08:32:32.989Z</time>
      </trkpt>
      <trkpt lat="51.82501" lon="6.32509">
        <ele>61.988892</ele>
        <time>2026-05-07T08:32:35.984Z</time>
      </trkpt>
      <trkpt lat="51.82508" lon="6.32491">
        <ele>62.020969</ele>
        <time>2026-05-07T08:32:38.983Z</time>
      </trkpt>
      <trkpt lat="51.82512" lon="6.32478">
        <ele>62.042757</ele>
        <time>2026-05-07T08:32:40.984Z</time>
      </trkpt>
      <trkpt lat="51.82516" lon="6.32465">
        <ele>62.064579</ele>
        <time>2026-05-07T08:32:42.985Z</time>
      </trkpt>
      <trkpt lat="51.8252" lon="6.32451">
        <ele>62.082808</ele>
        <time>2026-05-07T08:32:44.985Z</time>
      </trkpt>
      <trkpt lat="51.82524" lon="6.32437">
        <ele>62.100582</ele>
        <time>2026-05-07T08:32:46.972Z</time>
      </trkpt>
      <trkpt lat="51.82528" lon="6.32423">
        <ele>62.118537</ele>
        <time>2026-05-07T08:32:48.991Z</time>
      </trkpt>
      <trkpt lat="51.82531" lon="6.32409">
        <ele>62.135737</ele>
        <time>2026-05-07T08:32:50.990Z</time>
      </trkpt>
      <trkpt lat="51.82534" lon="6.32395">
        <ele>62.153111</ele>
        <time>2026-05-07T08:32:52.982Z</time>
      </trkpt>
      <trkpt lat="51.82538" lon="6.32375">
        <ele>62.177881</ele>
        <time>2026-05-07T08:32:55.977Z</time>
      </trkpt>
      <trkpt lat="51.82541" lon="6.32355">
        <ele>62.202316</ele>
        <time>2026-05-07T08:32:58.990Z</time>
      </trkpt>
      <trkpt lat="51.82545" lon="6.32335">
        <ele>62.226321</ele>
        <time>2026-05-07T08:33:01.986Z</time>
      </trkpt>
      <trkpt lat="51.82547" lon="6.32316">
        <ele>62.24827</ele>
        <time>2026-05-07T08:33:04.978Z</time>
      </trkpt>
      <trkpt lat="51.8255" lon="6.32299">
        <ele>62.268833</ele>
        <time>2026-05-07T08:33:07.978Z</time>
      </trkpt>
      <trkpt lat="51.82553" lon="6.32283">
        <ele>62.288382</ele>
        <time>2026-05-07T08:33:10.993Z</time>
      </trkpt>
      <trkpt lat="51.82555" lon="6.32264">
        <ele>62.310912</ele>
        <time>2026-05-07T08:33:13.985Z</time>
      </trkpt>
      <trkpt lat="51.82558" lon="6.32244">
        <ele>62.335614</ele>
        <time>2026-05-07T08:33:16.995Z</time>
      </trkpt>
      <trkpt lat="51.82561" lon="6.32229">
        <ele>62.35267</ele>
        <time>2026-05-07T08:33:18.979Z</time>
      </trkpt>
      <trkpt lat="51.82564" lon="6.3221">
        <ele>62.375776</ele>
        <time>2026-05-07T08:33:21.990Z</time>
      </trkpt>
      <trkpt lat="51.82568" lon="6.32191">
        <ele>62.399265</ele>
        <time>2026-05-07T08:33:24.985Z</time>
      </trkpt>
      <trkpt lat="51.82571" lon="6.32171">
        <ele>62.357775</ele>
        <time>2026-05-07T08:33:27.984Z</time>
      </trkpt>
      <trkpt lat="51.82576" lon="6.32151">
        <ele>62.283745</ele>
        <time>2026-05-07T08:33:30.991Z</time>
      </trkpt>
      <trkpt lat="51.82581" lon="6.32132">
        <ele>62.208667</ele>
        <time>2026-05-07T08:33:33.987Z</time>
      </trkpt>
      <trkpt lat="51.82587" lon="6.3212">
        <ele>62.155718</ele>
        <time>2026-05-07T08:33:35.988Z</time>
      </trkpt>
      <trkpt lat="51.82592" lon="6.32108">
        <ele>62.10339</ele>
        <time>2026-05-07T08:33:37.984Z</time>
      </trkpt>
      <trkpt lat="51.82597" lon="6.32096">
        <ele>62.052132</ele>
        <time>2026-05-07T08:33:39.988Z</time>
      </trkpt>
      <trkpt lat="51.82604" lon="6.32077">
        <ele>61.976154</ele>
        <time>2026-05-07T08:33:42.976Z</time>
      </trkpt>
      <trkpt lat="51.82609" lon="6.32063">
        <ele>61.921502</ele>
        <time>2026-05-07T08:33:44.980Z</time>
      </trkpt>
      <trkpt lat="51.82613" lon="6.32049">
        <ele>61.867713</ele>
        <time>2026-05-07T08:33:46.990Z</time>
      </trkpt>
      <trkpt lat="51.82616" lon="6.32036">
        <ele>61.816327</ele>
        <time>2026-05-07T08:33:48.986Z</time>
      </trkpt>
      <trkpt lat="51.8262" lon="6.32022">
        <ele>61.76547</ele>
        <time>2026-05-07T08:33:50.980Z</time>
      </trkpt>
      <trkpt lat="51.82623" lon="6.32008">
        <ele>61.713315</ele>
        <time>2026-05-07T08:33:52.977Z</time>
      </trkpt>
      <trkpt lat="51.82627" lon="6.31995">
        <ele>61.661674</ele>
        <time>2026-05-07T08:33:54.987Z</time>
      </trkpt>
      <trkpt lat="51.8263" lon="6.31981">
        <ele>61.609531</ele>
        <time>2026-05-07T08:33:56.982Z</time>
      </trkpt>
      <trkpt lat="51.82634" lon="6.31967">
        <ele>61.556393</ele>
        <time>2026-05-07T08:33:58.976Z</time>
      </trkpt>
      <trkpt lat="51.82637" lon="6.31953">
        <ele>61.501985</ele>
        <time>2026-05-07T08:34:00.971Z</time>
      </trkpt>
      <trkpt lat="51.82641" lon="6.31939">
        <ele>61.44833</ele>
        <time>2026-05-07T08:34:02.984Z</time>
      </trkpt>
      <trkpt lat="51.82645" lon="6.31925">
        <ele>61.395413</ele>
        <time>2026-05-07T08:34:04.980Z</time>
      </trkpt>
      <trkpt lat="51.82648" lon="6.31911">
        <ele>61.418804</ele>
        <time>2026-05-07T08:34:06.985Z</time>
      </trkpt>
      <trkpt lat="51.82654" lon="6.31892">
        <ele>61.472406</ele>
        <time>2026-05-07T08:34:09.979Z</time>
      </trkpt>
      <trkpt lat="51.82659" lon="6.31872">
        <ele>61.52673</ele>
        <time>2026-05-07T08:34:12.986Z</time>
      </trkpt>
      <trkpt lat="51.82665" lon="6.31852">
        <ele>61.581179</ele>
        <time>2026-05-07T08:34:15.984Z</time>
      </trkpt>
      <trkpt lat="51.82668" lon="6.31837">
        <ele>61.620701</ele>
        <time>2026-05-07T08:34:17.984Z</time>
      </trkpt>
      <trkpt lat="51.82672" lon="6.31822">
        <ele>61.661</ele>
        <time>2026-05-07T08:34:19.986Z</time>
      </trkpt>
      <trkpt lat="51.82676" lon="6.31808">
        <ele>61.698919</ele>
        <time>2026-05-07T08:34:21.987Z</time>
      </trkpt>
      <trkpt lat="51.82681" lon="6.31789">
        <ele>61.750511</ele>
        <time>2026-05-07T08:34:24.986Z</time>
      </trkpt>
      <trkpt lat="51.82685" lon="6.31775">
        <ele>61.788111</ele>
        <time>2026-05-07T08:34:26.981Z</time>
      </trkpt>
      <trkpt lat="51.8269" lon="6.31755">
        <ele>61.842548</ele>
        <time>2026-05-07T08:34:29.979Z</time>
      </trkpt>
      <trkpt lat="51.82693" lon="6.31741">
        <ele>61.880255</ele>
        <time>2026-05-07T08:34:31.980Z</time>
      </trkpt>
      <trkpt lat="51.82696" lon="6.31727">
        <ele>61.918804</ele>
        <time>2026-05-07T08:34:33.990Z</time>
      </trkpt>
      <trkpt lat="51.82699" lon="6.31712">
        <ele>61.957418</ele>
        <time>2026-05-07T08:34:35.982Z</time>
      </trkpt>
      <trkpt lat="51.82701" lon="6.31696">
        <ele>61.996764</ele>
        <time>2026-05-07T08:34:37.991Z</time>
      </trkpt>
      <trkpt lat="51.82701" lon="6.31681">
        <ele>62.03526</ele>
        <time>2026-05-07T08:34:39.977Z</time>
      </trkpt>
      <trkpt lat="51.82701" lon="6.31666">
        <ele>62.072182</ele>
        <time>2026-05-07T08:34:41.976Z</time>
      </trkpt>
      <trkpt lat="51.82701" lon="6.31651">
        <ele>62.109856</ele>
        <time>2026-05-07T08:34:43.986Z</time>
      </trkpt>
      <trkpt lat="51.82701" lon="6.31636">
        <ele>62.059697</ele>
        <time>2026-05-07T08:34:45.984Z</time>
      </trkpt>
      <trkpt lat="51.827" lon="6.31621">
        <ele>61.998872</ele>
        <time>2026-05-07T08:34:47.974Z</time>
      </trkpt>
      <trkpt lat="51.82698" lon="6.31606">
        <ele>61.936467</ele>
        <time>2026-05-07T08:34:49.974Z</time>
      </trkpt>
      <trkpt lat="51.82696" lon="6.31591">
        <ele>61.873638</ele>
        <time>2026-05-07T08:34:51.975Z</time>
      </trkpt>
      <trkpt lat="51.82692" lon="6.31577">
        <ele>61.810356</ele>
        <time>2026-05-07T08:34:53.981Z</time>
      </trkpt>
      <trkpt lat="51.82689" lon="6.31563">
        <ele>61.749066</ele>
        <time>2026-05-07T08:34:55.977Z</time>
      </trkpt>
      <trkpt lat="51.82685" lon="6.31549">
        <ele>61.689446</ele>
        <time>2026-05-07T08:34:57.980Z</time>
      </trkpt>
      <trkpt lat="51.82679" lon="6.3153">
        <ele>61.601105</ele>
        <time>2026-05-07T08:35:00.984Z</time>
      </trkpt>
      <trkpt lat="51.82674" lon="6.31518">
        <ele>61.541056</ele>
        <time>2026-05-07T08:35:02.985Z</time>
      </trkpt>
      <trkpt lat="51.8267" lon="6.31505">
        <ele>61.478866</ele>
        <time>2026-05-07T08:35:04.986Z</time>
      </trkpt>
      <trkpt lat="51.82665" lon="6.31491">
        <ele>61.415345</ele>
        <time>2026-05-07T08:35:06.981Z</time>
      </trkpt>
      <trkpt lat="51.8266" lon="6.31478">
        <ele>61.353203</ele>
        <time>2026-05-07T08:35:08.979Z</time>
      </trkpt>
      <trkpt lat="51.82655" lon="6.31466">
        <ele>61.293489</ele>
        <time>2026-05-07T08:35:10.987Z</time>
      </trkpt>
      <trkpt lat="51.82651" lon="6.31446">
        <ele>61.208599</ele>
        <time>2026-05-07T08:35:13.988Z</time>
      </trkpt>
      <trkpt lat="51.82647" lon="6.31432">
        <ele>61.145293</ele>
        <time>2026-05-07T08:35:15.988Z</time>
      </trkpt>
      <trkpt lat="51.82642" lon="6.31419">
        <ele>61.082423</ele>
        <time>2026-05-07T08:35:17.987Z</time>
      </trkpt>
      <trkpt lat="51.82637" lon="6.31405">
        <ele>61.019785</ele>
        <time>2026-05-07T08:35:19.989Z</time>
      </trkpt>
      <trkpt lat="51.82633" lon="6.31391">
        <ele>60.95722</ele>
        <time>2026-05-07T08:35:21.982Z</time>
      </trkpt>
      <trkpt lat="51.8263" lon="6.31377">
        <ele>60.980015</ele>
        <time>2026-05-07T08:35:23.979Z</time>
      </trkpt>
      <trkpt lat="51.82627" lon="6.31362">
        <ele>61.091237</ele>
        <time>2026-05-07T08:35:25.988Z</time>
      </trkpt>
      <trkpt lat="51.82626" lon="6.31347">
        <ele>61.198665</ele>
        <time>2026-05-07T08:35:27.992Z</time>
      </trkpt>
      <trkpt lat="51.82625" lon="6.31332">
        <ele>61.30787</ele>
        <time>2026-05-07T08:35:29.984Z</time>
      </trkpt>
      <trkpt lat="51.82624" lon="6.31317">
        <ele>61.417363</ele>
        <time>2026-05-07T08:35:31.987Z</time>
      </trkpt>
      <trkpt lat="51.82623" lon="6.31302">
        <ele>61.525679</ele>
        <time>2026-05-07T08:35:33.984Z</time>
      </trkpt>
      <trkpt lat="51.82623" lon="6.31287">
        <ele>61.630284</ele>
        <time>2026-05-07T08:35:35.986Z</time>
      </trkpt>
      <trkpt lat="51.82624" lon="6.31266">
        <ele>61.781783</ele>
        <time>2026-05-07T08:35:38.989Z</time>
      </trkpt>
      <trkpt lat="51.82625" lon="6.31246">
        <ele>61.930942</ele>
        <time>2026-05-07T08:35:41.990Z</time>
      </trkpt>
      <trkpt lat="51.82627" lon="6.31225">
        <ele>62.079425</ele>
        <time>2026-05-07T08:35:44.980Z</time>
      </trkpt>
      <trkpt lat="51.8263" lon="6.31205">
        <ele>62.229563</ele>
        <time>2026-05-07T08:35:47.988Z</time>
      </trkpt>
      <trkpt lat="51.82632" lon="6.3119">
        <ele>62.334148</ele>
        <time>2026-05-07T08:35:49.985Z</time>
      </trkpt>
      <trkpt lat="51.82634" lon="6.3117">
        <ele>62.486633</ele>
        <time>2026-05-07T08:35:52.986Z</time>
      </trkpt>
      <trkpt lat="51.82638" lon="6.31149">
        <ele>62.638669</ele>
        <time>2026-05-07T08:35:55.992Z</time>
      </trkpt>
      <trkpt lat="51.8264" lon="6.31128">
        <ele>62.791943</ele>
        <time>2026-05-07T08:35:58.987Z</time>
      </trkpt>
      <trkpt lat="51.82641" lon="6.31108">
        <ele>62.938386</ele>
        <time>2026-05-07T08:36:01.990Z</time>
      </trkpt>
      <trkpt lat="51.82643" lon="6.31086">
        <ele>62.924159</ele>
        <time>2026-05-07T08:36:04.981Z</time>
      </trkpt>
      <trkpt lat="51.82645" lon="6.31072">
        <ele>62.814236</ele>
        <time>2026-05-07T08:36:06.979Z</time>
      </trkpt>
      <trkpt lat="51.82648" lon="6.31051">
        <ele>62.654635</ele>
        <time>2026-05-07T08:36:09.981Z</time>
      </trkpt>
      <trkpt lat="51.8265" lon="6.31037">
        <ele>62.544942</ele>
        <time>2026-05-07T08:36:11.996Z</time>
      </trkpt>
      <trkpt lat="51.82652" lon="6.31022">
        <ele>62.434292</ele>
        <time>2026-05-07T08:36:13.988Z</time>
      </trkpt>
      <trkpt lat="51.82653" lon="6.31008">
        <ele>62.324443</ele>
        <time>2026-05-07T08:36:15.982Z</time>
      </trkpt>
      <trkpt lat="51.82654" lon="6.30993">
        <ele>62.21032</ele>
        <time>2026-05-07T08:36:17.990Z</time>
      </trkpt>
      <trkpt lat="51.82656" lon="6.30978">
        <ele>62.09967</ele>
        <time>2026-05-07T08:36:19.986Z</time>
      </trkpt>
      <trkpt lat="51.82658" lon="6.30964">
        <ele>61.987546</ele>
        <time>2026-05-07T08:36:21.982Z</time>
      </trkpt>
      <trkpt lat="51.8266" lon="6.30948">
        <ele>61.872473</ele>
        <time>2026-05-07T08:36:23.983Z</time>
      </trkpt>
      <trkpt lat="51.82661" lon="6.30934">
        <ele>61.759144</ele>
        <time>2026-05-07T08:36:25.989Z</time>
      </trkpt>
      <trkpt lat="51.82664" lon="6.30912">
        <ele>61.597557</ele>
        <time>2026-05-07T08:36:28.987Z</time>
      </trkpt>
      <trkpt lat="51.82665" lon="6.30898">
        <ele>61.486045</ele>
        <time>2026-05-07T08:36:30.986Z</time>
      </trkpt>
      <trkpt lat="51.82666" lon="6.30877">
        <ele>61.328135</ele>
        <time>2026-05-07T08:36:33.986Z</time>
      </trkpt>
      <trkpt lat="51.82667" lon="6.30856">
        <ele>61.170523</ele>
        <time>2026-05-07T08:36:36.976Z</time>
      </trkpt>
      <trkpt lat="51.82668" lon="6.30834">
        <ele>61.00761</ele>
        <time>2026-05-07T08:36:39.980Z</time>
      </trkpt>
      <trkpt lat="51.82668" lon="6.30812">
        <ele>60.844918</ele>
        <time>2026-05-07T08:36:42.986Z</time>
      </trkpt>
      <trkpt lat="51.82667" lon="6.3079">
        <ele>60.870259</ele>
        <time>2026-05-07T08:36:45.980Z</time>
      </trkpt>
      <trkpt lat="51.82666" lon="6.30775">
        <ele>60.901626</ele>
        <time>2026-05-07T08:36:47.991Z</time>
      </trkpt>
      <trkpt lat="51.82666" lon="6.3076">
        <ele>60.932742</ele>
        <time>2026-05-07T08:36:49.984Z</time>
      </trkpt>
      <trkpt lat="51.82665" lon="6.30746">
        <ele>60.963632</ele>
        <time>2026-05-07T08:36:51.978Z</time>
      </trkpt>
      <trkpt lat="51.82665" lon="6.30731">
        <ele>60.994106</ele>
        <time>2026-05-07T08:36:53.985Z</time>
      </trkpt>
      <trkpt lat="51.82664" lon="6.3071">
        <ele>61.037959</ele>
        <time>2026-05-07T08:36:56.994Z</time>
      </trkpt>
      <trkpt lat="51.82664" lon="6.30689">
        <ele>61.081586</ele>
        <time>2026-05-07T08:36:59.983Z</time>
      </trkpt>
      <trkpt lat="51.82663" lon="6.30668">
        <ele>61.126572</ele>
        <time>2026-05-07T08:37:02.992Z</time>
      </trkpt>
      <trkpt lat="51.82662" lon="6.30646">
        <ele>61.171276</ele>
        <time>2026-05-07T08:37:05.974Z</time>
      </trkpt>
      <trkpt lat="51.82661" lon="6.30625">
        <ele>61.215587</ele>
        <time>2026-05-07T08:37:08.982Z</time>
      </trkpt>
      <trkpt lat="51.8266" lon="6.30604">
        <ele>61.260572</ele>
        <time>2026-05-07T08:37:11.984Z</time>
      </trkpt>
      <trkpt lat="51.82659" lon="6.30582">
        <ele>61.304699</ele>
        <time>2026-05-07T08:37:14.983Z</time>
      </trkpt>
      <trkpt lat="51.82658" lon="6.30561">
        <ele>61.349404</ele>
        <time>2026-05-07T08:37:17.986Z</time>
      </trkpt>
      <trkpt lat="51.82658" lon="6.30546">
        <ele>61.379855</ele>
        <time>2026-05-07T08:37:19.979Z</time>
      </trkpt>
      <trkpt lat="51.82656" lon="6.30525">
        <ele>61.42535</ele>
        <time>2026-05-07T08:37:22.972Z</time>
      </trkpt>
      <trkpt lat="51.82655" lon="6.30504">
        <ele>61.414645</ele>
        <time>2026-05-07T08:37:25.986Z</time>
      </trkpt>
      <trkpt lat="51.82654" lon="6.30483">
        <ele>61.387067</ele>
        <time>2026-05-07T08:37:28.983Z</time>
      </trkpt>
      <trkpt lat="51.82653" lon="6.30462">
        <ele>61.35916</ele>
        <time>2026-05-07T08:37:31.985Z</time>
      </trkpt>
      <trkpt lat="51.82654" lon="6.30441">
        <ele>61.33098</ele>
        <time>2026-05-07T08:37:34.980Z</time>
      </trkpt>
      <trkpt lat="51.82655" lon="6.30427">
        <ele>61.311312</ele>
        <time>2026-05-07T08:37:36.986Z</time>
      </trkpt>
      <trkpt lat="51.82656" lon="6.30412">
        <ele>61.291719</ele>
        <time>2026-05-07T08:37:38.984Z</time>
      </trkpt>
      <trkpt lat="51.82658" lon="6.30391">
        <ele>61.263296</ele>
        <time>2026-05-07T08:37:41.982Z</time>
      </trkpt>
      <trkpt lat="51.8266" lon="6.3037">
        <ele>61.235039</ele>
        <time>2026-05-07T08:37:44.988Z</time>
      </trkpt>
      <trkpt lat="51.82662" lon="6.30348">
        <ele>61.206191</ele>
        <time>2026-05-07T08:37:47.980Z</time>
      </trkpt>
      <trkpt lat="51.82664" lon="6.30328">
        <ele>61.178625</ele>
        <time>2026-05-07T08:37:50.973Z</time>
      </trkpt>
      <trkpt lat="51.82665" lon="6.30313">
        <ele>61.158666</ele>
        <time>2026-05-07T08:37:52.984Z</time>
      </trkpt>
      <trkpt lat="51.82666" lon="6.30297">
        <ele>61.138099</ele>
        <time>2026-05-07T08:37:54.986Z</time>
      </trkpt>
      <trkpt lat="51.82667" lon="6.30282">
        <ele>61.117375</ele>
        <time>2026-05-07T08:37:56.977Z</time>
      </trkpt>
      <trkpt lat="51.82669" lon="6.30267">
        <ele>61.097125</ele>
        <time>2026-05-07T08:37:58.985Z</time>
      </trkpt>
      <trkpt lat="51.82669" lon="6.30252">
        <ele>61.077409</ele>
        <time>2026-05-07T08:38:00.980Z</time>
      </trkpt>
      <trkpt lat="51.82671" lon="6.30238">
        <ele>61.058005</ele>
        <time>2026-05-07T08:38:02.983Z</time>
      </trkpt>
      <trkpt lat="51.82673" lon="6.30216">
        <ele>61.117714</ele>
        <time>2026-05-07T08:38:05.991Z</time>
      </trkpt>
      <trkpt lat="51.82674" lon="6.30201">
        <ele>61.186076</ele>
        <time>2026-05-07T08:38:07.983Z</time>
      </trkpt>
      <trkpt lat="51.82676" lon="6.30186">
        <ele>61.256317</ele>
        <time>2026-05-07T08:38:09.991Z</time>
      </trkpt>
      <trkpt lat="51.82678" lon="6.30171">
        <ele>61.327451</ele>
        <time>2026-05-07T08:38:11.982Z</time>
      </trkpt>
      <trkpt lat="51.8268" lon="6.30156">
        <ele>61.397996</ele>
        <time>2026-05-07T08:38:13.984Z</time>
      </trkpt>
      <trkpt lat="51.82681" lon="6.30141">
        <ele>61.467646</ele>
        <time>2026-05-07T08:38:15.985Z</time>
      </trkpt>
      <trkpt lat="51.82683" lon="6.30126">
        <ele>61.537244</ele>
        <time>2026-05-07T08:38:17.985Z</time>
      </trkpt>
      <trkpt lat="51.82684" lon="6.3011">
        <ele>61.607092</ele>
        <time>2026-05-07T08:38:19.984Z</time>
      </trkpt>
      <trkpt lat="51.82685" lon="6.30096">
        <ele>61.675131</ele>
        <time>2026-05-07T08:38:21.982Z</time>
      </trkpt>
      <trkpt lat="51.82687" lon="6.30081">
        <ele>61.743828</ele>
        <time>2026-05-07T08:38:23.985Z</time>
      </trkpt>
      <trkpt lat="51.82688" lon="6.30066">
        <ele>61.81087</ele>
        <time>2026-05-07T08:38:25.981Z</time>
      </trkpt>
      <trkpt lat="51.82689" lon="6.30044">
        <ele>61.910569</ele>
        <time>2026-05-07T08:38:28.988Z</time>
      </trkpt>
      <trkpt lat="51.8269" lon="6.30029">
        <ele>61.978227</ele>
        <time>2026-05-07T08:38:30.972Z</time>
      </trkpt>
      <trkpt lat="51.8269" lon="6.30008">
        <ele>62.078076</ele>
        <time>2026-05-07T08:38:33.973Z</time>
      </trkpt>
      <trkpt lat="51.82691" lon="6.29993">
        <ele>62.146392</ele>
        <time>2026-05-07T08:38:35.971Z</time>
      </trkpt>
      <trkpt lat="51.82692" lon="6.29978">
        <ele>62.215787</ele>
        <time>2026-05-07T08:38:37.982Z</time>
      </trkpt>
      <trkpt lat="51.82694" lon="6.29963">
        <ele>62.283823</ele>
        <time>2026-05-07T08:38:39.988Z</time>
      </trkpt>
      <trkpt lat="51.82695" lon="6.29948">
        <ele>62.352675</ele>
        <time>2026-05-07T08:38:41.989Z</time>
      </trkpt>
      <trkpt lat="51.82696" lon="6.29933">
        <ele>62.422486</ele>
        <time>2026-05-07T08:38:43.979Z</time>
      </trkpt>
      <trkpt lat="51.82696" lon="6.29918">
        <ele>62.493675</ele>
        <time>2026-05-07T08:38:45.981Z</time>
      </trkpt>
      <trkpt lat="51.82697" lon="6.29903">
        <ele>62.566024</ele>
        <time>2026-05-07T08:38:47.980Z</time>
      </trkpt>
      <trkpt lat="51.82699" lon="6.29888">
        <ele>62.639026</ele>
        <time>2026-05-07T08:38:49.978Z</time>
      </trkpt>
      <trkpt lat="51.827" lon="6.29873">
        <ele>62.711297</ele>
        <time>2026-05-07T08:38:51.980Z</time>
      </trkpt>
      <trkpt lat="51.82701" lon="6.29858">
        <ele>62.783217</ele>
        <time>2026-05-07T08:38:53.988Z</time>
      </trkpt>
      <trkpt lat="51.82703" lon="6.29843">
        <ele>62.856902</ele>
        <time>2026-05-07T08:38:55.979Z</time>
      </trkpt>
      <trkpt lat="51.82704" lon="6.29827">
        <ele>62.932237</ele>
        <time>2026-05-07T08:38:57.994Z</time>
      </trkpt>
      <trkpt lat="51.82706" lon="6.29812">
        <ele>63.007206</ele>
        <time>2026-05-07T08:38:59.987Z</time>
      </trkpt>
      <trkpt lat="51.82708" lon="6.29797">
        <ele>63.080327</ele>
        <time>2026-05-07T08:39:01.987Z</time>
      </trkpt>
      <trkpt lat="51.8271" lon="6.29782">
        <ele>63.151457</ele>
        <time>2026-05-07T08:39:03.979Z</time>
      </trkpt>
      <trkpt lat="51.82712" lon="6.29768">
        <ele>63.221139</ele>
        <time>2026-05-07T08:39:05.976Z</time>
      </trkpt>
      <trkpt lat="51.82714" lon="6.29753">
        <ele>63.294244</ele>
        <time>2026-05-07T08:39:07.980Z</time>
      </trkpt>
      <trkpt lat="51.82716" lon="6.29738">
        <ele>63.363768</ele>
        <time>2026-05-07T08:39:09.973Z</time>
      </trkpt>
      <trkpt lat="51.82718" lon="6.29724">
        <ele>63.436247</ele>
        <time>2026-05-07T08:39:11.979Z</time>
      </trkpt>
      <trkpt lat="51.8272" lon="6.29709">
        <ele>63.50749</ele>
        <time>2026-05-07T08:39:13.977Z</time>
      </trkpt>
      <trkpt lat="51.82722" lon="6.29694">
        <ele>63.579199</ele>
        <time>2026-05-07T08:39:15.974Z</time>
      </trkpt>
      <trkpt lat="51.82724" lon="6.2968">
        <ele>63.6489</ele>
        <time>2026-05-07T08:39:17.975Z</time>
      </trkpt>
      <trkpt lat="51.82726" lon="6.29659">
        <ele>63.749999</ele>
        <time>2026-05-07T08:39:20.979Z</time>
      </trkpt>
      <trkpt lat="51.82728" lon="6.29645">
        <ele>63.748894</ele>
        <time>2026-05-07T08:39:22.982Z</time>
      </trkpt>
      <trkpt lat="51.82731" lon="6.29624">
        <ele>63.726057</ele>
        <time>2026-05-07T08:39:25.974Z</time>
      </trkpt>
      <trkpt lat="51.82735" lon="6.29603">
        <ele>63.703263</ele>
        <time>2026-05-07T08:39:28.984Z</time>
      </trkpt>
      <trkpt lat="51.82737" lon="6.29582">
        <ele>63.680062</ele>
        <time>2026-05-07T08:39:31.978Z</time>
      </trkpt>
      <trkpt lat="51.8274" lon="6.29561">
        <ele>63.656896</ele>
        <time>2026-05-07T08:39:34.988Z</time>
      </trkpt>
      <trkpt lat="51.82743" lon="6.2954">
        <ele>63.634142</ele>
        <time>2026-05-07T08:39:37.985Z</time>
      </trkpt>
      <trkpt lat="51.82746" lon="6.29519">
        <ele>63.610931</ele>
        <time>2026-05-07T08:39:40.980Z</time>
      </trkpt>
      <trkpt lat="51.82748" lon="6.29504">
        <ele>63.594888</ele>
        <time>2026-05-07T08:39:42.977Z</time>
      </trkpt>
      <trkpt lat="51.8275" lon="6.2949">
        <ele>63.578741</ele>
        <time>2026-05-07T08:39:44.973Z</time>
      </trkpt>
      <trkpt lat="51.82752" lon="6.29475">
        <ele>63.563018</ele>
        <time>2026-05-07T08:39:46.972Z</time>
      </trkpt>
      <trkpt lat="51.82754" lon="6.29461">
        <ele>63.547013</ele>
        <time>2026-05-07T08:39:48.986Z</time>
      </trkpt>
      <trkpt lat="51.82756" lon="6.29446">
        <ele>63.53059</ele>
        <time>2026-05-07T08:39:50.970Z</time>
      </trkpt>
      <trkpt lat="51.82757" lon="6.29431">
        <ele>63.514539</ele>
        <time>2026-05-07T08:39:52.976Z</time>
      </trkpt>
      <trkpt lat="51.82759" lon="6.29415">
        <ele>63.497986</ele>
        <time>2026-05-07T08:39:54.987Z</time>
      </trkpt>
      <trkpt lat="51.8276" lon="6.294">
        <ele>63.481564</ele>
        <time>2026-05-07T08:39:56.980Z</time>
      </trkpt>
      <trkpt lat="51.82762" lon="6.29385">
        <ele>63.464685</ele>
        <time>2026-05-07T08:39:58.983Z</time>
      </trkpt>
      <trkpt lat="51.82764" lon="6.2937">
        <ele>63.43491</ele>
        <time>2026-05-07T08:40:00.991Z</time>
      </trkpt>
      <trkpt lat="51.82765" lon="6.29355">
        <ele>63.326324</ele>
        <time>2026-05-07T08:40:02.978Z</time>
      </trkpt>
      <trkpt lat="51.82767" lon="6.29339">
        <ele>63.211091</ele>
        <time>2026-05-07T08:40:04.987Z</time>
      </trkpt>
      <trkpt lat="51.82768" lon="6.29324">
        <ele>63.095524</ele>
        <time>2026-05-07T08:40:06.987Z</time>
      </trkpt>
      <trkpt lat="51.82769" lon="6.29308">
        <ele>62.980294</ele>
        <time>2026-05-07T08:40:08.980Z</time>
      </trkpt>
      <trkpt lat="51.82771" lon="6.29293">
        <ele>62.866883</ele>
        <time>2026-05-07T08:40:10.980Z</time>
      </trkpt>
      <trkpt lat="51.82773" lon="6.29277">
        <ele>62.755014</ele>
        <time>2026-05-07T08:40:12.981Z</time>
      </trkpt>
      <trkpt lat="51.82775" lon="6.29263">
        <ele>62.645765</ele>
        <time>2026-05-07T08:40:14.998Z</time>
      </trkpt>
      <trkpt lat="51.82776" lon="6.29248">
        <ele>62.537464</ele>
        <time>2026-05-07T08:40:16.995Z</time>
      </trkpt>
      <trkpt lat="51.82778" lon="6.29234">
        <ele>62.429164</ele>
        <time>2026-05-07T08:40:18.981Z</time>
      </trkpt>
      <trkpt lat="51.82781" lon="6.29212">
        <ele>62.272378</ele>
        <time>2026-05-07T08:40:21.983Z</time>
      </trkpt>
      <trkpt lat="51.82783" lon="6.29191">
        <ele>62.117024</ele>
        <time>2026-05-07T08:40:24.976Z</time>
      </trkpt>
      <trkpt lat="51.82786" lon="6.29171">
        <ele>61.965458</ele>
        <time>2026-05-07T08:40:27.986Z</time>
      </trkpt>
      <trkpt lat="51.82789" lon="6.29151">
        <ele>61.812207</ele>
        <time>2026-05-07T08:40:30.985Z</time>
      </trkpt>
      <trkpt lat="51.82791" lon="6.29136">
        <ele>61.703308</ele>
        <time>2026-05-07T08:40:32.987Z</time>
      </trkpt>
      <trkpt lat="51.82794" lon="6.29122">
        <ele>61.594536</ele>
        <time>2026-05-07T08:40:34.981Z</time>
      </trkpt>
      <trkpt lat="51.82797" lon="6.29107">
        <ele>61.483218</ele>
        <time>2026-05-07T08:40:36.977Z</time>
      </trkpt>
      <trkpt lat="51.828" lon="6.29093">
        <ele>61.369157</ele>
        <time>2026-05-07T08:40:38.985Z</time>
      </trkpt>
      <trkpt lat="51.82803" lon="6.29078">
        <ele>61.335419</ele>
        <time>2026-05-07T08:40:40.993Z</time>
      </trkpt>
      <trkpt lat="51.82807" lon="6.29057">
        <ele>61.339327</ele>
        <time>2026-05-07T08:40:43.985Z</time>
      </trkpt>
      <trkpt lat="51.8281" lon="6.29043">
        <ele>61.342009</ele>
        <time>2026-05-07T08:40:45.976Z</time>
      </trkpt>
      <trkpt lat="51.82813" lon="6.29029">
        <ele>61.344676</ele>
        <time>2026-05-07T08:40:47.986Z</time>
      </trkpt>
      <trkpt lat="51.82818" lon="6.29009">
        <ele>61.348578</ele>
        <time>2026-05-07T08:40:50.974Z</time>
      </trkpt>
      <trkpt lat="51.82823" lon="6.28989">
        <ele>61.352392</ele>
        <time>2026-05-07T08:40:53.986Z</time>
      </trkpt>
      <trkpt lat="51.82827" lon="6.2897">
        <ele>61.356089</ele>
        <time>2026-05-07T08:40:56.981Z</time>
      </trkpt>
      <trkpt lat="51.82831" lon="6.2895">
        <ele>61.359879</ele>
        <time>2026-05-07T08:40:59.989Z</time>
      </trkpt>
      <trkpt lat="51.82835" lon="6.2893">
        <ele>61.363685</ele>
        <time>2026-05-07T08:41:02.982Z</time>
      </trkpt>
      <trkpt lat="51.82838" lon="6.28915">
        <ele>61.366383</ele>
        <time>2026-05-07T08:41:04.994Z</time>
      </trkpt>
      <trkpt lat="51.8284" lon="6.28901">
        <ele>61.368995</ele>
        <time>2026-05-07T08:41:06.985Z</time>
      </trkpt>
      <trkpt lat="51.82843" lon="6.28887">
        <ele>61.371645</ele>
        <time>2026-05-07T08:41:08.978Z</time>
      </trkpt>
      <trkpt lat="51.82845" lon="6.28873">
        <ele>61.374281</ele>
        <time>2026-05-07T08:41:10.980Z</time>
      </trkpt>
      <trkpt lat="51.82847" lon="6.28852">
        <ele>61.37808</ele>
        <time>2026-05-07T08:41:13.986Z</time>
      </trkpt>
      <trkpt lat="51.82849" lon="6.2883">
        <ele>61.382039</ele>
        <time>2026-05-07T08:41:16.984Z</time>
      </trkpt>
      <trkpt lat="51.82851" lon="6.28816">
        <ele>61.384739</ele>
        <time>2026-05-07T08:41:18.983Z</time>
      </trkpt>
      <trkpt lat="51.82853" lon="6.28801">
        <ele>61.457774</ele>
        <time>2026-05-07T08:41:20.987Z</time>
      </trkpt>
      <trkpt lat="51.82855" lon="6.28787">
        <ele>61.585546</ele>
        <time>2026-05-07T08:41:22.974Z</time>
      </trkpt>
      <trkpt lat="51.82857" lon="6.28772">
        <ele>61.71761</ele>
        <time>2026-05-07T08:41:24.990Z</time>
      </trkpt>
      <trkpt lat="51.82859" lon="6.28757">
        <ele>61.849328</ele>
        <time>2026-05-07T08:41:26.992Z</time>
      </trkpt>
      <trkpt lat="51.8286" lon="6.28742">
        <ele>61.980543</ele>
        <time>2026-05-07T08:41:28.985Z</time>
      </trkpt>
      <trkpt lat="51.82862" lon="6.28727">
        <ele>62.111757</ele>
        <time>2026-05-07T08:41:30.982Z</time>
      </trkpt>
      <trkpt lat="51.82863" lon="6.28712">
        <ele>62.241041</ele>
        <time>2026-05-07T08:41:32.982Z</time>
      </trkpt>
      <trkpt lat="51.82865" lon="6.28697">
        <ele>62.371406</ele>
        <time>2026-05-07T08:41:34.984Z</time>
      </trkpt>
      <trkpt lat="51.82867" lon="6.28682">
        <ele>62.505795</ele>
        <time>2026-05-07T08:41:36.992Z</time>
      </trkpt>
      <trkpt lat="51.82868" lon="6.28667">
        <ele>62.633864</ele>
        <time>2026-05-07T08:41:38.985Z</time>
      </trkpt>
      <trkpt lat="51.8287" lon="6.28652">
        <ele>62.76338</ele>
        <time>2026-05-07T08:41:40.974Z</time>
      </trkpt>
      <trkpt lat="51.82871" lon="6.28637">
        <ele>62.893514</ele>
        <time>2026-05-07T08:41:42.980Z</time>
      </trkpt>
      <trkpt lat="51.82873" lon="6.28623">
        <ele>63.022423</ele>
        <time>2026-05-07T08:41:44.991Z</time>
      </trkpt>
      <trkpt lat="51.82876" lon="6.28608">
        <ele>63.154809</ele>
        <time>2026-05-07T08:41:46.986Z</time>
      </trkpt>
      <trkpt lat="51.82878" lon="6.28593">
        <ele>63.284027</ele>
        <time>2026-05-07T08:41:48.981Z</time>
      </trkpt>
      <trkpt lat="51.82881" lon="6.28573">
        <ele>63.463665</ele>
        <time>2026-05-07T08:41:51.986Z</time>
      </trkpt>
      <trkpt lat="51.82885" lon="6.28553">
        <ele>63.646933</ele>
        <time>2026-05-07T08:41:54.978Z</time>
      </trkpt>
      <trkpt lat="51.82887" lon="6.28533">
        <ele>63.818893</ele>
        <time>2026-05-07T08:41:57.992Z</time>
      </trkpt>
      <trkpt lat="51.8289" lon="6.28515">
        <ele>63.920301</ele>
        <time>2026-05-07T08:42:00.978Z</time>
      </trkpt>
      <trkpt lat="51.82893" lon="6.28496">
        <ele>63.968123</ele>
        <time>2026-05-07T08:42:03.990Z</time>
      </trkpt>
      <trkpt lat="51.82896" lon="6.28476">
        <ele>64.021554</ele>
        <time>2026-05-07T08:42:06.975Z</time>
      </trkpt>
      <trkpt lat="51.82899" lon="6.28455">
        <ele>64.073471</ele>
        <time>2026-05-07T08:42:09.993Z</time>
      </trkpt>
      <trkpt lat="51.82902" lon="6.28435">
        <ele>64.125389</ele>
        <time>2026-05-07T08:42:12.971Z</time>
      </trkpt>
      <trkpt lat="51.82905" lon="6.28416">
        <ele>64.176298</ele>
        <time>2026-05-07T08:42:15.987Z</time>
      </trkpt>
      <trkpt lat="51.82908" lon="6.28396">
        <ele>64.226752</ele>
        <time>2026-05-07T08:42:18.984Z</time>
      </trkpt>
      <trkpt lat="51.8291" lon="6.28378">
        <ele>64.27433</ele>
        <time>2026-05-07T08:42:21.988Z</time>
      </trkpt>
      <trkpt lat="51.82912" lon="6.2836">
        <ele>64.320182</ele>
        <time>2026-05-07T08:42:24.983Z</time>
      </trkpt>
      <trkpt lat="51.82912" lon="6.28342">
        <ele>64.364373</ele>
        <time>2026-05-07T08:42:27.990Z</time>
      </trkpt>
      <trkpt lat="51.82913" lon="6.28326">
        <ele>64.404342</ele>
        <time>2026-05-07T08:42:30.991Z</time>
      </trkpt>
      <trkpt lat="51.82915" lon="6.2831">
        <ele>64.445002</ele>
        <time>2026-05-07T08:42:33.992Z</time>
      </trkpt>
      <trkpt lat="51.82917" lon="6.28293">
        <ele>64.489103</ele>
        <time>2026-05-07T08:42:36.972Z</time>
      </trkpt>
      <trkpt lat="51.82921" lon="6.28277">
        <ele>64.532407</ele>
        <time>2026-05-07T08:42:39.990Z</time>
      </trkpt>
      <trkpt lat="51.82924" lon="6.28257">
        <ele>64.58352</ele>
        <time>2026-05-07T08:42:42.987Z</time>
      </trkpt>
      <trkpt lat="51.82927" lon="6.28238">
        <ele>64.647323</ele>
        <time>2026-05-07T08:42:45.975Z</time>
      </trkpt>
      <trkpt lat="51.82929" lon="6.28221">
        <ele>64.769669</ele>
        <time>2026-05-07T08:43:00.986Z</time>
      </trkpt>
      <trkpt lat="51.82932" lon="6.28204">
        <ele>64.899156</ele>
        <time>2026-05-07T08:43:04.975Z</time>
      </trkpt>
      <trkpt lat="51.82936" lon="6.28188">
        <ele>65.023818</ele>
        <time>2026-05-07T08:43:07.983Z</time>
      </trkpt>
      <trkpt lat="51.82939" lon="6.28172">
        <ele>65.141704</ele>
        <time>2026-05-07T08:43:10.992Z</time>
      </trkpt>
      <trkpt lat="51.82943" lon="6.28158">
        <ele>65.254349</ele>
        <time>2026-05-07T08:43:13.989Z</time>
      </trkpt>
      <trkpt lat="51.82945" lon="6.28143">
        <ele>65.365236</ele>
        <time>2026-05-07T08:43:16.985Z</time>
      </trkpt>
      <trkpt lat="51.82949" lon="6.28125">
        <ele>65.505163</ele>
        <time>2026-05-07T08:43:20.971Z</time>
      </trkpt>
      <trkpt lat="51.82953" lon="6.28106">
        <ele>65.645697</ele>
        <time>2026-05-07T08:43:24.996Z</time>
      </trkpt>
      <trkpt lat="51.82957" lon="6.28089">
        <ele>65.776692</ele>
        <time>2026-05-07T08:43:27.988Z</time>
      </trkpt>
      <trkpt lat="51.82961" lon="6.2807">
        <ele>65.919726</ele>
        <time>2026-05-07T08:43:30.986Z</time>
      </trkpt>
      <trkpt lat="51.82966" lon="6.28052">
        <ele>66.063968</ele>
        <time>2026-05-07T08:43:33.978Z</time>
      </trkpt>
      <trkpt lat="51.8297" lon="6.28034">
        <ele>66.197795</ele>
        <time>2026-05-07T08:43:36.982Z</time>
      </trkpt>
      <trkpt lat="51.82974" lon="6.28017">
        <ele>66.330688</ele>
        <time>2026-05-07T08:43:39.981Z</time>
      </trkpt>
      <trkpt lat="51.82977" lon="6.28002">
        <ele>66.442654</ele>
        <time>2026-05-07T08:43:42.975Z</time>
      </trkpt>
      <trkpt lat="51.82981" lon="6.27985">
        <ele>66.575969</ele>
        <time>2026-05-07T08:43:46.979Z</time>
      </trkpt>
      <trkpt lat="51.82986" lon="6.27969">
        <ele>66.707148</ele>
        <time>2026-05-07T08:43:50.990Z</time>
      </trkpt>
      <trkpt lat="51.82991" lon="6.27951">
        <ele>66.615003</ele>
        <time>2026-05-07T08:43:54.976Z</time>
      </trkpt>
      <trkpt lat="51.82994" lon="6.27932">
        <ele>66.492773</ele>
        <time>2026-05-07T08:43:57.983Z</time>
      </trkpt>
      <trkpt lat="51.82997" lon="6.27912">
        <ele>66.367116</ele>
        <time>2026-05-07T08:44:00.987Z</time>
      </trkpt>
      <trkpt lat="51.83001" lon="6.27892">
        <ele>66.232204</ele>
        <time>2026-05-07T08:44:03.989Z</time>
      </trkpt>
      <trkpt lat="51.83005" lon="6.27871">
        <ele>66.098155</ele>
        <time>2026-05-07T08:44:06.985Z</time>
      </trkpt>
      <trkpt lat="51.83009" lon="6.27851">
        <ele>65.97032</ele>
        <time>2026-05-07T08:44:09.984Z</time>
      </trkpt>
      <trkpt lat="51.83013" lon="6.27831">
        <ele>65.839845</ele>
        <time>2026-05-07T08:44:12.984Z</time>
      </trkpt>
      <trkpt lat="51.83017" lon="6.27812">
        <ele>65.716471</ele>
        <time>2026-05-07T08:44:15.988Z</time>
      </trkpt>
      <trkpt lat="51.83021" lon="6.27795">
        <ele>65.604511</ele>
        <time>2026-05-07T08:44:18.990Z</time>
      </trkpt>
      <trkpt lat="51.83024" lon="6.27778">
        <ele>65.492081</ele>
        <time>2026-05-07T08:44:21.979Z</time>
      </trkpt>
      <trkpt lat="51.8303" lon="6.27764">
        <ele>65.386665</ele>
        <time>2026-05-07T08:44:24.984Z</time>
      </trkpt>
      <trkpt lat="51.83037" lon="6.2775">
        <ele>65.2747</ele>
        <time>2026-05-07T08:44:27.982Z</time>
      </trkpt>
      <trkpt lat="51.83042" lon="6.27735">
        <ele>65.168184</ele>
        <time>2026-05-07T08:44:30.985Z</time>
      </trkpt>
      <trkpt lat="51.83047" lon="6.27718">
        <ele>65.051546</ele>
        <time>2026-05-07T08:44:33.974Z</time>
      </trkpt>
      <trkpt lat="51.83051" lon="6.277">
        <ele>64.933081</ele>
        <time>2026-05-07T08:44:36.989Z</time>
      </trkpt>
      <trkpt lat="51.83054" lon="6.27682">
        <ele>64.84735</ele>
        <time>2026-05-07T08:44:39.978Z</time>
      </trkpt>
      <trkpt lat="51.83058" lon="6.27664">
        <ele>64.765724</ele>
        <time>2026-05-07T08:44:42.975Z</time>
      </trkpt>
      <trkpt lat="51.83061" lon="6.27645">
        <ele>64.681004</ele>
        <time>2026-05-07T08:44:45.992Z</time>
      </trkpt>
      <trkpt lat="51.83065" lon="6.27626">
        <ele>64.597705</ele>
        <time>2026-05-07T08:44:48.989Z</time>
      </trkpt>
      <trkpt lat="51.83069" lon="6.27609">
        <ele>64.517729</ele>
        <time>2026-05-07T08:44:51.974Z</time>
      </trkpt>
      <trkpt lat="51.83071" lon="6.27591">
        <ele>64.43797</ele>
        <time>2026-05-07T08:44:54.972Z</time>
      </trkpt>
      <trkpt lat="51.83074" lon="6.27572">
        <ele>64.354151</ele>
        <time>2026-05-07T08:44:57.979Z</time>
      </trkpt>
      <trkpt lat="51.83075" lon="6.27554">
        <ele>64.275247</ele>
        <time>2026-05-07T08:45:00.975Z</time>
      </trkpt>
      <trkpt lat="51.83077" lon="6.27536">
        <ele>64.197185</ele>
        <time>2026-05-07T08:45:03.974Z</time>
      </trkpt>
      <trkpt lat="51.83079" lon="6.2752">
        <ele>64.126219</ele>
        <time>2026-05-07T08:45:06.994Z</time>
      </trkpt>
      <trkpt lat="51.83082" lon="6.27505">
        <ele>64.059415</ele>
        <time>2026-05-07T08:45:09.988Z</time>
      </trkpt>
      <trkpt lat="51.83085" lon="6.27491">
        <ele>63.994886</ele>
        <time>2026-05-07T08:45:12.990Z</time>
      </trkpt>
      <trkpt lat="51.83089" lon="6.27475">
        <ele>63.920789</ele>
        <time>2026-05-07T08:45:16.978Z</time>
      </trkpt>
      <trkpt lat="51.83099" lon="6.27429">
        <ele>63.710561</ele>
        <time>2026-05-07T08:45:47.982Z</time>
      </trkpt>
      <trkpt lat="51.83099" lon="6.27413">
        <ele>63.74586</ele>
        <time>2026-05-07T08:45:51.982Z</time>
      </trkpt>
      <trkpt lat="51.83098" lon="6.27398">
        <ele>63.97199</ele>
        <time>2026-05-07T08:45:57.974Z</time>
      </trkpt>
      <trkpt lat="51.83101" lon="6.2738">
        <ele>64.244341</ele>
        <time>2026-05-07T08:46:03.981Z</time>
      </trkpt>
      <trkpt lat="51.83104" lon="6.27362">
        <ele>64.520556</ele>
        <time>2026-05-07T08:46:07.979Z</time>
      </trkpt>
      <trkpt lat="51.83106" lon="6.27347">
        <ele>64.750743</ele>
        <time>2026-05-07T08:46:10.975Z</time>
      </trkpt>
      <trkpt lat="51.83109" lon="6.27331">
        <ele>64.98764</ele>
        <time>2026-05-07T08:46:13.986Z</time>
      </trkpt>
      <trkpt lat="51.83112" lon="6.27315">
        <ele>65.235944</ele>
        <time>2026-05-07T08:46:16.985Z</time>
      </trkpt>
      <trkpt lat="51.83114" lon="6.27299">
        <ele>65.470521</ele>
        <time>2026-05-07T08:46:19.982Z</time>
      </trkpt>
      <trkpt lat="51.83116" lon="6.27282">
        <ele>65.727677</ele>
        <time>2026-05-07T08:46:22.990Z</time>
      </trkpt>
      <trkpt lat="51.83118" lon="6.27264">
        <ele>66.008441</ele>
        <time>2026-05-07T08:46:25.993Z</time>
      </trkpt>
      <trkpt lat="51.83121" lon="6.27246">
        <ele>66.273297</ele>
        <time>2026-05-07T08:46:28.982Z</time>
      </trkpt>
      <trkpt lat="51.83123" lon="6.2723">
        <ele>66.514075</ele>
        <time>2026-05-07T08:46:31.992Z</time>
      </trkpt>
      <trkpt lat="51.83125" lon="6.27213">
        <ele>66.772389</ele>
        <time>2026-05-07T08:46:34.976Z</time>
      </trkpt>
      <trkpt lat="51.83128" lon="6.27193">
        <ele>67.077114</ele>
        <time>2026-05-07T08:46:37.975Z</time>
      </trkpt>
      <trkpt lat="51.8313" lon="6.27174">
        <ele>67.358823</ele>
        <time>2026-05-07T08:46:40.978Z</time>
      </trkpt>
      <trkpt lat="51.8313" lon="6.27156">
        <ele>67.621469</ele>
        <time>2026-05-07T08:46:43.983Z</time>
      </trkpt>
      <trkpt lat="51.83132" lon="6.27137">
        <ele>67.913846</ele>
        <time>2026-05-07T08:46:46.973Z</time>
      </trkpt>
      <trkpt lat="51.83135" lon="6.27118">
        <ele>68.286342</ele>
        <time>2026-05-07T08:46:49.990Z</time>
      </trkpt>
      <trkpt lat="51.83138" lon="6.27099">
        <ele>68.688221</ele>
        <time>2026-05-07T08:46:52.981Z</time>
      </trkpt>
      <trkpt lat="51.8314" lon="6.2708">
        <ele>69.082584</ele>
        <time>2026-05-07T08:46:55.981Z</time>
      </trkpt>
      <trkpt lat="51.83143" lon="6.27063">
        <ele>69.438353</ele>
        <time>2026-05-07T08:46:58.967Z</time>
      </trkpt>
      <trkpt lat="51.83146" lon="6.27048">
        <ele>69.751859</ele>
        <time>2026-05-07T08:47:01.977Z</time>
      </trkpt>
      <trkpt lat="51.83148" lon="6.27033">
        <ele>70.061448</ele>
        <time>2026-05-07T08:47:04.986Z</time>
      </trkpt>
      <trkpt lat="51.83149" lon="6.27017">
        <ele>70.384503</ele>
        <time>2026-05-07T08:47:07.980Z</time>
      </trkpt>
      <trkpt lat="51.83153" lon="6.27002">
        <ele>70.718629</ele>
        <time>2026-05-07T08:47:11.987Z</time>
      </trkpt>
      <trkpt lat="51.83157" lon="6.26986">
        <ele>71.069224</ele>
        <time>2026-05-07T08:47:15.983Z</time>
      </trkpt>
      <trkpt lat="51.83159" lon="6.26972">
        <ele>71.365876</ele>
        <time>2026-05-07T08:47:18.975Z</time>
      </trkpt>
      <trkpt lat="51.83161" lon="6.26955">
        <ele>71.714029</ele>
        <time>2026-05-07T08:47:22.994Z</time>
      </trkpt>
      <trkpt lat="51.83163" lon="6.26937">
        <ele>72.082963</ele>
        <time>2026-05-07T08:47:26.984Z</time>
      </trkpt>
      <trkpt lat="51.83164" lon="6.26921">
        <ele>72.416092</ele>
        <time>2026-05-07T08:47:29.975Z</time>
      </trkpt>
      <trkpt lat="51.83166" lon="6.26902">
        <ele>72.802525</ele>
        <time>2026-05-07T08:47:32.983Z</time>
      </trkpt>
      <trkpt lat="51.83168" lon="6.26881">
        <ele>73.23095</ele>
        <time>2026-05-07T08:47:35.989Z</time>
      </trkpt>
      <trkpt lat="51.83171" lon="6.2686">
        <ele>73.671011</ele>
        <time>2026-05-07T08:47:39.001Z</time>
      </trkpt>
      <trkpt lat="51.83173" lon="6.26845">
        <ele>73.938771</ele>
        <time>2026-05-07T08:47:40.981Z</time>
      </trkpt>
      <trkpt lat="51.83174" lon="6.26825">
        <ele>74.244087</ele>
        <time>2026-05-07T08:47:43.983Z</time>
      </trkpt>
      <trkpt lat="51.83175" lon="6.26805">
        <ele>74.533071</ele>
        <time>2026-05-07T08:47:46.988Z</time>
      </trkpt>
      <trkpt lat="51.83179" lon="6.26786">
        <ele>74.83418</ele>
        <time>2026-05-07T08:47:49.990Z</time>
      </trkpt>
      <trkpt lat="51.83181" lon="6.26772">
        <ele>75.052893</ele>
        <time>2026-05-07T08:47:51.991Z</time>
      </trkpt>
      <trkpt lat="51.83184" lon="6.26752">
        <ele>75.359831</ele>
        <time>2026-05-07T08:47:54.977Z</time>
      </trkpt>
      <trkpt lat="51.83186" lon="6.26731">
        <ele>75.675088</ele>
        <time>2026-05-07T08:47:57.976Z</time>
      </trkpt>
      <trkpt lat="51.83189" lon="6.2671">
        <ele>75.99321</ele>
        <time>2026-05-07T08:48:00.978Z</time>
      </trkpt>
      <trkpt lat="51.8319" lon="6.26696">
        <ele>76.209731</ele>
        <time>2026-05-07T08:48:02.981Z</time>
      </trkpt>
      <trkpt lat="51.83193" lon="6.26675">
        <ele>76.520565</ele>
        <time>2026-05-07T08:48:05.975Z</time>
      </trkpt>
      <trkpt lat="51.83196" lon="6.26654">
        <ele>76.836801</ele>
        <time>2026-05-07T08:48:08.982Z</time>
      </trkpt>
      <trkpt lat="51.83198" lon="6.2664">
        <ele>77.053764</ele>
        <time>2026-05-07T08:48:10.984Z</time>
      </trkpt>
      <trkpt lat="51.83202" lon="6.2662">
        <ele>77.374067</ele>
        <time>2026-05-07T08:48:13.982Z</time>
      </trkpt>
      <trkpt lat="51.83204" lon="6.26605">
        <ele>77.590736</ele>
        <time>2026-05-07T08:48:15.981Z</time>
      </trkpt>
      <trkpt lat="51.83205" lon="6.26586">
        <ele>77.880863</ele>
        <time>2026-05-07T08:48:18.979Z</time>
      </trkpt>
      <trkpt lat="51.83207" lon="6.26568">
        <ele>78.151461</ele>
        <time>2026-05-07T08:48:21.986Z</time>
      </trkpt>
      <trkpt lat="51.83209" lon="6.26549">
        <ele>77.846214</ele>
        <time>2026-05-07T08:48:24.993Z</time>
      </trkpt>
      <trkpt lat="51.83212" lon="6.26528">
        <ele>77.453452</ele>
        <time>2026-05-07T08:48:27.974Z</time>
      </trkpt>
      <trkpt lat="51.83213" lon="6.26513">
        <ele>77.162692</ele>
        <time>2026-05-07T08:48:29.984Z</time>
      </trkpt>
      <trkpt lat="51.83214" lon="6.26498">
        <ele>76.876332</ele>
        <time>2026-05-07T08:48:31.987Z</time>
      </trkpt>
      <trkpt lat="51.83216" lon="6.2648">
        <ele>76.546568</ele>
        <time>2026-05-07T08:48:33.978Z</time>
      </trkpt>
      <trkpt lat="51.83217" lon="6.26465">
        <ele>76.257873</ele>
        <time>2026-05-07T08:48:35.977Z</time>
      </trkpt>
      <trkpt lat="51.83219" lon="6.26451">
        <ele>75.979923</ele>
        <time>2026-05-07T08:48:37.975Z</time>
      </trkpt>
      <trkpt lat="51.8322" lon="6.26436">
        <ele>75.702892</ele>
        <time>2026-05-07T08:48:39.990Z</time>
      </trkpt>
      <trkpt lat="51.83223" lon="6.26417">
        <ele>75.320735</ele>
        <time>2026-05-07T08:48:42.983Z</time>
      </trkpt>
      <trkpt lat="51.83225" lon="6.26396">
        <ele>74.934867</ele>
        <time>2026-05-07T08:48:45.979Z</time>
      </trkpt>
      <trkpt lat="51.83227" lon="6.26376">
        <ele>74.54588</ele>
        <time>2026-05-07T08:48:48.989Z</time>
      </trkpt>
      <trkpt lat="51.83229" lon="6.26356">
        <ele>74.160704</ele>
        <time>2026-05-07T08:48:51.983Z</time>
      </trkpt>
      <trkpt lat="51.83231" lon="6.26336">
        <ele>73.779623</ele>
        <time>2026-05-07T08:48:54.982Z</time>
      </trkpt>
      <trkpt lat="51.83233" lon="6.26318">
        <ele>73.423245</ele>
        <time>2026-05-07T08:48:57.986Z</time>
      </trkpt>
      <trkpt lat="51.83236" lon="6.263">
        <ele>73.076886</ele>
        <time>2026-05-07T08:49:00.983Z</time>
      </trkpt>
      <trkpt lat="51.83237" lon="6.26281">
        <ele>72.715908</ele>
        <time>2026-05-07T08:49:03.992Z</time>
      </trkpt>
      <trkpt lat="51.83239" lon="6.26261">
        <ele>72.748912</ele>
        <time>2026-05-07T08:49:06.984Z</time>
      </trkpt>
      <trkpt lat="51.83241" lon="6.26242">
        <ele>72.808711</ele>
        <time>2026-05-07T08:49:09.999Z</time>
      </trkpt>
      <trkpt lat="51.83243" lon="6.26222">
        <ele>72.872946</ele>
        <time>2026-05-07T08:49:12.982Z</time>
      </trkpt>
      <trkpt lat="51.83245" lon="6.26208">
        <ele>72.919042</ele>
        <time>2026-05-07T08:49:14.991Z</time>
      </trkpt>
      <trkpt lat="51.83247" lon="6.26188">
        <ele>72.982764</ele>
        <time>2026-05-07T08:49:17.981Z</time>
      </trkpt>
      <trkpt lat="51.83249" lon="6.26168">
        <ele>73.046765</ele>
        <time>2026-05-07T08:49:20.991Z</time>
      </trkpt>
      <trkpt lat="51.83251" lon="6.26149">
        <ele>73.108525</ele>
        <time>2026-05-07T08:49:23.976Z</time>
      </trkpt>
      <trkpt lat="51.83254" lon="6.26131">
        <ele>73.167663</ele>
        <time>2026-05-07T08:49:26.983Z</time>
      </trkpt>
      <trkpt lat="51.83256" lon="6.26113">
        <ele>73.225141</ele>
        <time>2026-05-07T08:49:29.977Z</time>
      </trkpt>
      <trkpt lat="51.8326" lon="6.26094">
        <ele>73.288028</ele>
        <time>2026-05-07T08:49:32.997Z</time>
      </trkpt>
      <trkpt lat="51.83261" lon="6.26075">
        <ele>73.348722</ele>
        <time>2026-05-07T08:49:35.985Z</time>
      </trkpt>
      <trkpt lat="51.83262" lon="6.26057">
        <ele>73.40685</ele>
        <time>2026-05-07T08:49:38.987Z</time>
      </trkpt>
      <trkpt lat="51.83263" lon="6.26039">
        <ele>73.463907</ele>
        <time>2026-05-07T08:49:41.991Z</time>
      </trkpt>
      <trkpt lat="51.83265" lon="6.2602">
        <ele>73.524086</ele>
        <time>2026-05-07T08:49:44.987Z</time>
      </trkpt>
      <trkpt lat="51.83268" lon="6.26">
        <ele>73.589674</ele>
        <time>2026-05-07T08:49:47.988Z</time>
      </trkpt>
      <trkpt lat="51.83271" lon="6.2598">
        <ele>73.555247</ele>
        <time>2026-05-07T08:49:50.986Z</time>
      </trkpt>
      <trkpt lat="51.83273" lon="6.2596">
        <ele>73.465848</ele>
        <time>2026-05-07T08:49:53.980Z</time>
      </trkpt>
      <trkpt lat="51.83275" lon="6.25942">
        <ele>73.385291</ele>
        <time>2026-05-07T08:49:56.985Z</time>
      </trkpt>
      <trkpt lat="51.83277" lon="6.25923">
        <ele>73.302463</ele>
        <time>2026-05-07T08:49:59.996Z</time>
      </trkpt>
      <trkpt lat="51.83279" lon="6.25904">
        <ele>73.216252</ele>
        <time>2026-05-07T08:50:02.993Z</time>
      </trkpt>
      <trkpt lat="51.83281" lon="6.25884">
        <ele>73.126214</ele>
        <time>2026-05-07T08:50:05.991Z</time>
      </trkpt>
      <trkpt lat="51.83284" lon="6.25865">
        <ele>73.041389</ele>
        <time>2026-05-07T08:50:08.985Z</time>
      </trkpt>
      <trkpt lat="51.83285" lon="6.25846">
        <ele>72.958274</ele>
        <time>2026-05-07T08:50:11.987Z</time>
      </trkpt>
      <trkpt lat="51.83286" lon="6.25825">
        <ele>72.866958</ele>
        <time>2026-05-07T08:50:14.989Z</time>
      </trkpt>
      <trkpt lat="51.83289" lon="6.2581">
        <ele>72.800777</ele>
        <time>2026-05-07T08:50:16.983Z</time>
      </trkpt>
      <trkpt lat="51.83292" lon="6.2579">
        <ele>72.710107</ele>
        <time>2026-05-07T08:50:20.029Z</time>
      </trkpt>
      <trkpt lat="51.83296" lon="6.25771">
        <ele>72.620623</ele>
        <time>2026-05-07T08:50:22.992Z</time>
      </trkpt>
      <trkpt lat="51.83298" lon="6.25752">
        <ele>72.536076</ele>
        <time>2026-05-07T08:50:25.982Z</time>
      </trkpt>
      <trkpt lat="51.83298" lon="6.25732">
        <ele>72.450025</ele>
        <time>2026-05-07T08:50:28.977Z</time>
      </trkpt>
      <trkpt lat="51.833" lon="6.25712">
        <ele>72.362531</ele>
        <time>2026-05-07T08:50:31.987Z</time>
      </trkpt>
      <trkpt lat="51.83301" lon="6.25693">
        <ele>72.237718</ele>
        <time>2026-05-07T08:50:34.986Z</time>
      </trkpt>
      <trkpt lat="51.83303" lon="6.25673">
        <ele>72.099014</ele>
        <time>2026-05-07T08:50:37.988Z</time>
      </trkpt>
      <trkpt lat="51.83305" lon="6.25653">
        <ele>71.960001</ele>
        <time>2026-05-07T08:50:40.979Z</time>
      </trkpt>
      <trkpt lat="51.83307" lon="6.25633">
        <ele>71.814168</ele>
        <time>2026-05-07T08:50:43.984Z</time>
      </trkpt>
      <trkpt lat="51.8331" lon="6.25614">
        <ele>71.674938</ele>
        <time>2026-05-07T08:50:46.975Z</time>
      </trkpt>
      <trkpt lat="51.83313" lon="6.25597">
        <ele>71.554943</ele>
        <time>2026-05-07T08:50:49.977Z</time>
      </trkpt>
      <trkpt lat="51.83314" lon="6.25578">
        <ele>71.420222</ele>
        <time>2026-05-07T08:50:53.980Z</time>
      </trkpt>
      <trkpt lat="51.83307" lon="6.25564">
        <ele>71.292942</ele>
        <time>2026-05-07T08:50:57.980Z</time>
      </trkpt>
      <trkpt lat="51.83297" lon="6.25559">
        <ele>71.176777</ele>
        <time>2026-05-07T08:51:00.983Z</time>
      </trkpt>
      <trkpt lat="51.83287" lon="6.25554">
        <ele>71.051489</ele>
        <time>2026-05-07T08:51:03.989Z</time>
      </trkpt>
      <trkpt lat="51.83276" lon="6.25548">
        <ele>70.920221</ele>
        <time>2026-05-07T08:51:06.976Z</time>
      </trkpt>
      <trkpt lat="51.83265" lon="6.25544">
        <ele>70.792089</ele>
        <time>2026-05-07T08:51:09.978Z</time>
      </trkpt>
      <trkpt lat="51.83254" lon="6.25541">
        <ele>70.668024</ele>
        <time>2026-05-07T08:51:12.987Z</time>
      </trkpt>
      <trkpt lat="51.83242" lon="6.25538">
        <ele>70.535526</ele>
        <time>2026-05-07T08:51:15.981Z</time>
      </trkpt>
      <trkpt lat="51.83231" lon="6.25534">
        <ele>70.408251</ele>
        <time>2026-05-07T08:51:18.984Z</time>
      </trkpt>
      <trkpt lat="51.8322" lon="6.25533">
        <ele>70.29261</ele>
        <time>2026-05-07T08:51:21.977Z</time>
      </trkpt>
      <trkpt lat="51.8321" lon="6.25529">
        <ele>70.255026</ele>
        <time>2026-05-07T08:51:24.977Z</time>
      </trkpt>
      <trkpt lat="51.83199" lon="6.25526">
        <ele>70.218083</ele>
        <time>2026-05-07T08:51:27.987Z</time>
      </trkpt>
      <trkpt lat="51.83188" lon="6.25523">
        <ele>70.177971</ele>
        <time>2026-05-07T08:51:31.962Z</time>
      </trkpt>
      <trkpt lat="51.83183" lon="6.25507">
        <ele>70.140175</ele>
        <time>2026-05-07T08:51:36.976Z</time>
      </trkpt>
      <trkpt lat="51.83183" lon="6.25492">
        <ele>70.107677</ele>
        <time>2026-05-07T08:51:39.977Z</time>
      </trkpt>
      <trkpt lat="51.83185" lon="6.25475">
        <ele>70.071468</ele>
        <time>2026-05-07T08:51:42.982Z</time>
      </trkpt>
      <trkpt lat="51.83187" lon="6.25456">
        <ele>70.028458</ele>
        <time>2026-05-07T08:51:45.975Z</time>
      </trkpt>
      <trkpt lat="51.83187" lon="6.25438">
        <ele>69.98902</ele>
        <time>2026-05-07T08:51:48.990Z</time>
      </trkpt>
      <trkpt lat="51.83188" lon="6.25418">
        <ele>69.946349</ele>
        <time>2026-05-07T08:51:51.980Z</time>
      </trkpt>
      <trkpt lat="51.83189" lon="6.25397">
        <ele>69.901607</ele>
        <time>2026-05-07T08:51:54.981Z</time>
      </trkpt>
      <trkpt lat="51.8319" lon="6.25377">
        <ele>69.857945</ele>
        <time>2026-05-07T08:51:57.977Z</time>
      </trkpt>
      <trkpt lat="51.83191" lon="6.25358">
        <ele>69.815194</ele>
        <time>2026-05-07T08:52:00.982Z</time>
      </trkpt>
      <trkpt lat="51.83191" lon="6.25337">
        <ele>69.771178</ele>
        <time>2026-05-07T08:52:03.988Z</time>
      </trkpt>
      <trkpt lat="51.83193" lon="6.25317">
        <ele>69.726669</ele>
        <time>2026-05-07T08:52:06.979Z</time>
      </trkpt>
      <trkpt lat="51.83194" lon="6.25297">
        <ele>69.684213</ele>
        <time>2026-05-07T08:52:09.984Z</time>
      </trkpt>
      <trkpt lat="51.83196" lon="6.25279">
        <ele>69.623427</ele>
        <time>2026-05-07T08:52:12.988Z</time>
      </trkpt>
      <trkpt lat="51.83199" lon="6.2526">
        <ele>69.541502</ele>
        <time>2026-05-07T08:52:15.984Z</time>
      </trkpt>
      <trkpt lat="51.83201" lon="6.25246">
        <ele>69.479755</ele>
        <time>2026-05-07T08:52:17.989Z</time>
      </trkpt>
      <trkpt lat="51.83203" lon="6.25232">
        <ele>69.419206</ele>
        <time>2026-05-07T08:52:19.983Z</time>
      </trkpt>
      <trkpt lat="51.83207" lon="6.25217">
        <ele>69.356467</ele>
        <time>2026-05-07T08:52:21.986Z</time>
      </trkpt>
      <trkpt lat="51.83209" lon="6.25203">
        <ele>69.29626</ele>
        <time>2026-05-07T08:52:23.976Z</time>
      </trkpt>
      <trkpt lat="51.83211" lon="6.25182">
        <ele>69.205561</ele>
        <time>2026-05-07T08:52:26.983Z</time>
      </trkpt>
      <trkpt lat="51.83213" lon="6.2516">
        <ele>69.116366</ele>
        <time>2026-05-07T08:52:29.987Z</time>
      </trkpt>
      <trkpt lat="51.83215" lon="6.25146">
        <ele>69.0555</ele>
        <time>2026-05-07T08:52:31.987Z</time>
      </trkpt>
      <trkpt lat="51.83217" lon="6.25124">
        <ele>68.965207</ele>
        <time>2026-05-07T08:52:34.982Z</time>
      </trkpt>
      <trkpt lat="51.83219" lon="6.25103">
        <ele>68.877434</ele>
        <time>2026-05-07T08:52:37.977Z</time>
      </trkpt>
      <trkpt lat="51.8322" lon="6.25083">
        <ele>68.79078</ele>
        <time>2026-05-07T08:52:40.990Z</time>
      </trkpt>
      <trkpt lat="51.83222" lon="6.25062">
        <ele>68.702648</ele>
        <time>2026-05-07T08:52:43.994Z</time>
      </trkpt>
      <trkpt lat="51.83228" lon="6.25045">
        <ele>68.625293</ele>
        <time>2026-05-07T08:52:46.978Z</time>
      </trkpt>
      <trkpt lat="51.83235" lon="6.2503">
        <ele>68.54666</ele>
        <time>2026-05-07T08:52:49.990Z</time>
      </trkpt>
      <trkpt lat="51.83244" lon="6.25015">
        <ele>68.462691</ele>
        <time>2026-05-07T08:52:52.982Z</time>
      </trkpt>
      <trkpt lat="51.83253" lon="6.25005">
        <ele>68.544469</ele>
        <time>2026-05-07T08:52:55.989Z</time>
      </trkpt>
      <trkpt lat="51.83262" lon="6.2499">
        <ele>68.63768</ele>
        <time>2026-05-07T08:52:58.980Z</time>
      </trkpt>
      <trkpt lat="51.83269" lon="6.24972">
        <ele>68.736616</ele>
        <time>2026-05-07T08:53:01.974Z</time>
      </trkpt>
      <trkpt lat="51.83272" lon="6.24955">
        <ele>68.815749</ele>
        <time>2026-05-07T08:53:03.981Z</time>
      </trkpt>
      <trkpt lat="51.83274" lon="6.24938">
        <ele>68.894521</ele>
        <time>2026-05-07T08:53:05.986Z</time>
      </trkpt>
      <trkpt lat="51.83272" lon="6.24921">
        <ele>68.973552</ele>
        <time>2026-05-07T08:53:07.991Z</time>
      </trkpt>
      <trkpt lat="51.83268" lon="6.24907">
        <ele>69.043388</ele>
        <time>2026-05-07T08:53:09.987Z</time>
      </trkpt>
      <trkpt lat="51.83264" lon="6.24894">
        <ele>69.111316</ele>
        <time>2026-05-07T08:53:11.981Z</time>
      </trkpt>
      <trkpt lat="51.83256" lon="6.24877">
        <ele>69.206066</ele>
        <time>2026-05-07T08:53:14.991Z</time>
      </trkpt>
      <trkpt lat="51.83249" lon="6.2486">
        <ele>69.302076</ele>
        <time>2026-05-07T08:53:17.994Z</time>
      </trkpt>
      <trkpt lat="51.83241" lon="6.24843">
        <ele>69.399171</ele>
        <time>2026-05-07T08:53:20.987Z</time>
      </trkpt>
      <trkpt lat="51.83234" lon="6.24826">
        <ele>69.491132</ele>
        <time>2026-05-07T08:53:23.990Z</time>
      </trkpt>
      <trkpt lat="51.83227" lon="6.24809">
        <ele>69.586398</ele>
        <time>2026-05-07T08:53:26.980Z</time>
      </trkpt>
      <trkpt lat="51.83219" lon="6.24792">
        <ele>69.683111</ele>
        <time>2026-05-07T08:53:29.982Z</time>
      </trkpt>
      <trkpt lat="51.83212" lon="6.24775">
        <ele>69.775147</ele>
        <time>2026-05-07T08:53:32.983Z</time>
      </trkpt>
      <trkpt lat="51.83203" lon="6.24761">
        <ele>70.07425</ele>
        <time>2026-05-07T08:53:35.972Z</time>
      </trkpt>
      <trkpt lat="51.83194" lon="6.24747">
        <ele>70.413655</ele>
        <time>2026-05-07T08:53:38.980Z</time>
      </trkpt>
      <trkpt lat="51.83183" lon="6.24735">
        <ele>70.754273</ele>
        <time>2026-05-07T08:53:42.000Z</time>
      </trkpt>
      <trkpt lat="51.83173" lon="6.24726">
        <ele>71.075971</ele>
        <time>2026-05-07T08:53:44.986Z</time>
      </trkpt>
      <trkpt lat="51.83163" lon="6.24718">
        <ele>71.37536</ele>
        <time>2026-05-07T08:53:47.990Z</time>
      </trkpt>
      <trkpt lat="51.83151" lon="6.24713">
        <ele>71.689075</ele>
        <time>2026-05-07T08:53:50.986Z</time>
      </trkpt>
      <trkpt lat="51.83139" lon="6.24708">
        <ele>72.023867</ele>
        <time>2026-05-07T08:53:53.995Z</time>
      </trkpt>
      <trkpt lat="51.83127" lon="6.24706">
        <ele>72.35946</ele>
        <time>2026-05-07T08:53:56.988Z</time>
      </trkpt>
      <trkpt lat="51.83114" lon="6.24705">
        <ele>72.688798</ele>
        <time>2026-05-07T08:53:59.982Z</time>
      </trkpt>
      <trkpt lat="51.83102" lon="6.24705">
        <ele>73.031109</ele>
        <time>2026-05-07T08:54:02.998Z</time>
      </trkpt>
      <trkpt lat="51.83089" lon="6.24703">
        <ele>73.377657</ele>
        <time>2026-05-07T08:54:05.991Z</time>
      </trkpt>
      <trkpt lat="51.83076" lon="6.24703">
        <ele>73.722661</ele>
        <time>2026-05-07T08:54:08.975Z</time>
      </trkpt>
      <trkpt lat="51.83063" lon="6.24703">
        <ele>74.07032</ele>
        <time>2026-05-07T08:54:11.977Z</time>
      </trkpt>
      <trkpt lat="51.8305" lon="6.247">
        <ele>74.423065</ele>
        <time>2026-05-07T08:54:14.981Z</time>
      </trkpt>
      <trkpt lat="51.83037" lon="6.24697">
        <ele>74.437167</ele>
        <time>2026-05-07T08:54:17.987Z</time>
      </trkpt>
      <trkpt lat="51.83024" lon="6.24694">
        <ele>74.101712</ele>
        <time>2026-05-07T08:54:20.990Z</time>
      </trkpt>
      <trkpt lat="51.83013" lon="6.24689">
        <ele>73.819621</ele>
        <time>2026-05-07T08:54:23.991Z</time>
      </trkpt>
      <trkpt lat="51.83003" lon="6.24685">
        <ele>73.548689</ele>
        <time>2026-05-07T08:54:26.978Z</time>
      </trkpt>
      <trkpt lat="51.82993" lon="6.24681">
        <ele>73.267795</ele>
        <time>2026-05-07T08:54:29.979Z</time>
      </trkpt>
      <trkpt lat="51.82984" lon="6.24674">
        <ele>73.023359</ele>
        <time>2026-05-07T08:54:32.982Z</time>
      </trkpt>
      <trkpt lat="51.82975" lon="6.24668">
        <ele>72.770176</ele>
        <time>2026-05-07T08:54:35.980Z</time>
      </trkpt>
      <trkpt lat="51.82964" lon="6.2466">
        <ele>72.471182</ele>
        <time>2026-05-07T08:54:39.974Z</time>
      </trkpt>
      <trkpt lat="51.82956" lon="6.24646">
        <ele>72.166497</ele>
        <time>2026-05-07T08:54:43.979Z</time>
      </trkpt>
      <trkpt lat="51.82948" lon="6.24634">
        <ele>71.878273</ele>
        <time>2026-05-07T08:54:47.994Z</time>
      </trkpt>
      <trkpt lat="51.82942" lon="6.24619">
        <ele>71.606451</ele>
        <time>2026-05-07T08:54:51.972Z</time>
      </trkpt>
      <trkpt lat="51.82939" lon="6.24605">
        <ele>71.355785</ele>
        <time>2026-05-07T08:54:55.977Z</time>
      </trkpt>
      <trkpt lat="51.82937" lon="6.24589">
        <ele>71.095953</ele>
        <time>2026-05-07T08:54:59.979Z</time>
      </trkpt>
      <trkpt lat="51.82935" lon="6.24571">
        <ele>70.820691</ele>
        <time>2026-05-07T08:55:03.990Z</time>
      </trkpt>
      <trkpt lat="51.82931" lon="6.24557">
        <ele>70.568356</ele>
        <time>2026-05-07T08:55:08.989Z</time>
      </trkpt>
      <trkpt lat="51.82929" lon="6.24542">
        <ele>70.315159</ele>
        <time>2026-05-07T08:55:13.991Z</time>
      </trkpt>
      <trkpt lat="51.82926" lon="6.24528">
        <ele>70.083704</ele>
        <time>2026-05-07T08:55:25.972Z</time>
      </trkpt>
      <trkpt lat="51.82926" lon="6.24565">
        <ele>69.568455</ele>
        <time>2026-05-07T09:03:25.991Z</time>
      </trkpt>
      <trkpt lat="51.82923" lon="6.2455">
        <ele>69.354702</ele>
        <time>2026-05-07T09:03:47.981Z</time>
      </trkpt>
      <trkpt lat="51.82924" lon="6.24535">
        <ele>69.158993</ele>
        <time>2026-05-07T09:03:57.981Z</time>
      </trkpt>
      <trkpt lat="51.8293" lon="6.24494">
        <ele>68.60163</ele>
        <time>2026-05-07T09:16:17.978Z</time>
      </trkpt>
      <trkpt lat="51.82936" lon="6.24484">
        <ele>68.405909</ele>
        <time>2026-05-07T09:16:26.987Z</time>
      </trkpt>
      <trkpt lat="51.8294" lon="6.2447">
        <ele>68.195588</ele>
        <time>2026-05-07T09:16:31.982Z</time>
      </trkpt>
      <trkpt lat="51.82944" lon="6.24452">
        <ele>67.947817</ele>
        <time>2026-05-07T09:16:35.985Z</time>
      </trkpt>
      <trkpt lat="51.82947" lon="6.24433">
        <ele>67.694824</ele>
        <time>2026-05-07T09:16:39.986Z</time>
      </trkpt>
      <trkpt lat="51.82948" lon="6.24418">
        <ele>67.490175</ele>
        <time>2026-05-07T09:16:42.981Z</time>
      </trkpt>
      <trkpt lat="51.82949" lon="6.24401">
        <ele>67.257289</ele>
        <time>2026-05-07T09:16:45.978Z</time>
      </trkpt>
      <trkpt lat="51.8295" lon="6.24384">
        <ele>67.029572</ele>
        <time>2026-05-07T09:16:48.986Z</time>
      </trkpt>
      <trkpt lat="51.82953" lon="6.24368">
        <ele>66.810255</ele>
        <time>2026-05-07T09:16:51.993Z</time>
      </trkpt>
      <trkpt lat="51.82956" lon="6.24353">
        <ele>66.603058</ele>
        <time>2026-05-07T09:16:54.971Z</time>
      </trkpt>
      <trkpt lat="51.82958" lon="6.24337">
        <ele>66.390987</ele>
        <time>2026-05-07T09:16:57.974Z</time>
      </trkpt>
      <trkpt lat="51.82962" lon="6.24321">
        <ele>66.169693</ele>
        <time>2026-05-07T09:17:00.979Z</time>
      </trkpt>
      <trkpt lat="51.82966" lon="6.24307">
        <ele>66.664172</ele>
        <time>2026-05-07T09:17:03.976Z</time>
      </trkpt>
      <trkpt lat="51.8297" lon="6.24289">
        <ele>67.454677</ele>
        <time>2026-05-07T09:17:07.983Z</time>
      </trkpt>
      <trkpt lat="51.82971" lon="6.24272">
        <ele>68.168316</ele>
        <time>2026-05-07T09:17:10.988Z</time>
      </trkpt>
      <trkpt lat="51.82972" lon="6.24256">
        <ele>68.848861</ele>
        <time>2026-05-07T09:17:13.980Z</time>
      </trkpt>
      <trkpt lat="51.82975" lon="6.24237">
        <ele>69.645654</ele>
        <time>2026-05-07T09:17:17.982Z</time>
      </trkpt>
      <trkpt lat="51.82977" lon="6.24223">
        <ele>70.256058</ele>
        <time>2026-05-07T09:17:20.986Z</time>
      </trkpt>
      <trkpt lat="51.8298" lon="6.24207">
        <ele>70.944061</ele>
        <time>2026-05-07T09:17:23.990Z</time>
      </trkpt>
      <trkpt lat="51.82982" lon="6.24193">
        <ele>71.589979</ele>
        <time>2026-05-07T09:17:26.993Z</time>
      </trkpt>
      <trkpt lat="51.82986" lon="6.24175">
        <ele>72.351824</ele>
        <time>2026-05-07T09:17:30.984Z</time>
      </trkpt>
      <trkpt lat="51.82989" lon="6.24159">
        <ele>73.053685</ele>
        <time>2026-05-07T09:17:33.996Z</time>
      </trkpt>
      <trkpt lat="51.82992" lon="6.24143">
        <ele>73.767537</ele>
        <time>2026-05-07T09:17:37.986Z</time>
      </trkpt>
      <trkpt lat="51.82995" lon="6.24126">
        <ele>74.52742</ele>
        <time>2026-05-07T09:17:41.983Z</time>
      </trkpt>
      <trkpt lat="51.82999" lon="6.24105">
        <ele>75.409245</ele>
        <time>2026-05-07T09:17:45.991Z</time>
      </trkpt>
      <trkpt lat="51.83003" lon="6.24086">
        <ele>76.241073</ele>
        <time>2026-05-07T09:17:49.991Z</time>
      </trkpt>
      <trkpt lat="51.83005" lon="6.24072">
        <ele>76.856972</ele>
        <time>2026-05-07T09:17:52.979Z</time>
      </trkpt>
      <trkpt lat="51.83008" lon="6.24057">
        <ele>77.514838</ele>
        <time>2026-05-07T09:17:55.994Z</time>
      </trkpt>
      <trkpt lat="51.83011" lon="6.24042">
        <ele>78.166707</ele>
        <time>2026-05-07T09:17:58.970Z</time>
      </trkpt>
      <trkpt lat="51.8301" lon="6.24027">
        <ele>78.228251</ele>
        <time>2026-05-07T09:18:01.989Z</time>
      </trkpt>
      <trkpt lat="51.8301" lon="6.2401">
        <ele>78.123023</ele>
        <time>2026-05-07T09:18:04.974Z</time>
      </trkpt>
      <trkpt lat="51.8301" lon="6.23995">
        <ele>78.024624</ele>
        <time>2026-05-07T09:18:07.972Z</time>
      </trkpt>
      <trkpt lat="51.83012" lon="6.2398">
        <ele>77.923378</ele>
        <time>2026-05-07T09:18:10.976Z</time>
      </trkpt>
      <trkpt lat="51.83014" lon="6.23965">
        <ele>77.820303</ele>
        <time>2026-05-07T09:18:13.981Z</time>
      </trkpt>
      <trkpt lat="51.83015" lon="6.23949">
        <ele>77.715663</ele>
        <time>2026-05-07T09:18:16.976Z</time>
      </trkpt>
      <trkpt lat="51.83018" lon="6.23931">
        <ele>77.595242</ele>
        <time>2026-05-07T09:18:20.976Z</time>
      </trkpt>
      <trkpt lat="51.8302" lon="6.23915">
        <ele>77.488753</ele>
        <time>2026-05-07T09:18:23.998Z</time>
      </trkpt>
      <trkpt lat="51.83023" lon="6.23898">
        <ele>77.375564</ele>
        <time>2026-05-07T09:18:26.979Z</time>
      </trkpt>
      <trkpt lat="51.83025" lon="6.23882">
        <ele>77.263009</ele>
        <time>2026-05-07T09:18:29.976Z</time>
      </trkpt>
      <trkpt lat="51.83027" lon="6.23866">
        <ele>77.161216</ele>
        <time>2026-05-07T09:18:32.985Z</time>
      </trkpt>
      <trkpt lat="51.83034" lon="6.23854">
        <ele>77.054781</ele>
        <time>2026-05-07T09:18:36.984Z</time>
      </trkpt>
      <trkpt lat="51.83046" lon="6.23849">
        <ele>76.923333</ele>
        <time>2026-05-07T09:18:40.979Z</time>
      </trkpt>
      <trkpt lat="51.83056" lon="6.23852">
        <ele>76.809952</ele>
        <time>2026-05-07T09:18:43.983Z</time>
      </trkpt>
      <trkpt lat="51.83065" lon="6.23857">
        <ele>76.709431</ele>
        <time>2026-05-07T09:18:46.981Z</time>
      </trkpt>
      <trkpt lat="51.83073" lon="6.23871">
        <ele>76.589031</ele>
        <time>2026-05-07T09:18:50.986Z</time>
      </trkpt>
      <trkpt lat="51.83082" lon="6.23884">
        <ele>76.462575</ele>
        <time>2026-05-07T09:18:54.963Z</time>
      </trkpt>
      <trkpt lat="51.83088" lon="6.239">
        <ele>76.190287</ele>
        <time>2026-05-07T09:18:58.993Z</time>
      </trkpt>
      <trkpt lat="51.83097" lon="6.23902">
        <ele>75.842814</ele>
        <time>2026-05-07T09:19:04.999Z</time>
      </trkpt>
      <trkpt lat="51.83102" lon="6.23888">
        <ele>75.479215</ele>
        <time>2026-05-07T09:19:21.978Z</time>
      </trkpt>
      <trkpt lat="51.83109" lon="6.23873">
        <ele>75.068033</ele>
        <time>2026-05-07T09:19:26.984Z</time>
      </trkpt>
      <trkpt lat="51.83117" lon="6.23861">
        <ele>74.67544</ele>
        <time>2026-05-07T09:19:29.991Z</time>
      </trkpt>
      <trkpt lat="51.83124" lon="6.23849">
        <ele>74.317833</ele>
        <time>2026-05-07T09:19:32.981Z</time>
      </trkpt>
      <trkpt lat="51.83131" lon="6.23838">
        <ele>73.961549</ele>
        <time>2026-05-07T09:19:35.993Z</time>
      </trkpt>
      <trkpt lat="51.83138" lon="6.23826">
        <ele>73.603216</ele>
        <time>2026-05-07T09:19:38.981Z</time>
      </trkpt>
      <trkpt lat="51.83146" lon="6.23814">
        <ele>73.215742</ele>
        <time>2026-05-07T09:19:42.979Z</time>
      </trkpt>
      <trkpt lat="51.83156" lon="6.23804">
        <ele>72.807233</ele>
        <time>2026-05-07T09:19:46.977Z</time>
      </trkpt>
      <trkpt lat="51.83154" lon="6.23789">
        <ele>72.457149</ele>
        <time>2026-05-07T09:19:51.982Z</time>
      </trkpt>
      <trkpt lat="51.83147" lon="6.23779">
        <ele>72.116452</ele>
        <time>2026-05-07T09:19:55.978Z</time>
      </trkpt>
      <trkpt lat="51.8316" lon="6.23808">
        <ele>71.313774</ele>
        <time>2026-05-07T09:23:11.985Z</time>
      </trkpt>
      <trkpt lat="51.83171" lon="6.23804">
        <ele>70.940176</ele>
        <time>2026-05-07T09:23:15.991Z</time>
      </trkpt>
      <trkpt lat="51.83182" lon="6.23804">
        <ele>70.555368</ele>
        <time>2026-05-07T09:23:19.989Z</time>
      </trkpt>
      <trkpt lat="51.83192" lon="6.23799">
        <ele>70.168452</ele>
        <time>2026-05-07T09:23:23.974Z</time>
      </trkpt>
      <trkpt lat="51.832" lon="6.23792">
        <ele>70.010448</ele>
        <time>2026-05-07T09:23:26.995Z</time>
      </trkpt>
      <trkpt lat="51.83209" lon="6.23784">
        <ele>70.029266</ele>
        <time>2026-05-07T09:23:29.974Z</time>
      </trkpt>
      <trkpt lat="51.83217" lon="6.23776">
        <ele>70.047953</ele>
        <time>2026-05-07T09:23:32.994Z</time>
      </trkpt>
      <trkpt lat="51.83227" lon="6.23767">
        <ele>70.067988</ele>
        <time>2026-05-07T09:23:35.991Z</time>
      </trkpt>
      <trkpt lat="51.83235" lon="6.23759">
        <ele>70.086733</ele>
        <time>2026-05-07T09:23:38.990Z</time>
      </trkpt>
      <trkpt lat="51.83243" lon="6.2375">
        <ele>70.104969</ele>
        <time>2026-05-07T09:23:41.981Z</time>
      </trkpt>
      <trkpt lat="51.8325" lon="6.23741">
        <ele>70.122284</ele>
        <time>2026-05-07T09:23:45.010Z</time>
      </trkpt>
      <trkpt lat="51.83259" lon="6.23731">
        <ele>70.142244</ele>
        <time>2026-05-07T09:23:48.999Z</time>
      </trkpt>
      <trkpt lat="51.83267" lon="6.23723">
        <ele>70.160883</ele>
        <time>2026-05-07T09:23:52.988Z</time>
      </trkpt>
      <trkpt lat="51.83276" lon="6.23715">
        <ele>70.181081</ele>
        <time>2026-05-07T09:23:56.977Z</time>
      </trkpt>
      <trkpt lat="51.83285" lon="6.23709">
        <ele>70.198567</ele>
        <time>2026-05-07T09:24:00.983Z</time>
      </trkpt>
      <trkpt lat="51.83294" lon="6.23713">
        <ele>70.216603</ele>
        <time>2026-05-07T09:24:06.977Z</time>
      </trkpt>
      <trkpt lat="51.83318" lon="6.23688">
        <ele>70.270674</ele>
        <time>2026-05-07T09:24:39.975Z</time>
      </trkpt>
      <trkpt lat="51.83325" lon="6.23675">
        <ele>70.291725</ele>
        <time>2026-05-07T09:24:42.989Z</time>
      </trkpt>
      <trkpt lat="51.83335" lon="6.23665">
        <ele>70.312955</ele>
        <time>2026-05-07T09:24:45.974Z</time>
      </trkpt>
      <trkpt lat="51.83344" lon="6.23656">
        <ele>70.333196</ele>
        <time>2026-05-07T09:24:48.995Z</time>
      </trkpt>
      <trkpt lat="51.83353" lon="6.23649">
        <ele>70.455342</ele>
        <time>2026-05-07T09:24:51.985Z</time>
      </trkpt>
      <trkpt lat="51.83361" lon="6.23643">
        <ele>70.662535</ele>
        <time>2026-05-07T09:24:54.989Z</time>
      </trkpt>
      <trkpt lat="51.8337" lon="6.23637">
        <ele>70.87138</ele>
        <time>2026-05-07T09:24:57.989Z</time>
      </trkpt>
      <trkpt lat="51.83378" lon="6.23631">
        <ele>71.080226</ele>
        <time>2026-05-07T09:25:04.980Z</time>
      </trkpt>
      <trkpt lat="51.83388" lon="6.23624">
        <ele>71.318774</ele>
        <time>2026-05-07T09:25:10.984Z</time>
      </trkpt>
      <trkpt lat="51.83414" lon="6.23604">
        <ele>71.975266</ele>
        <time>2026-05-07T09:26:02.983Z</time>
      </trkpt>
      <trkpt lat="51.83423" lon="6.23594">
        <ele>72.213635</ele>
        <time>2026-05-07T09:26:06.984Z</time>
      </trkpt>
      <trkpt lat="51.83432" lon="6.23585">
        <ele>72.449366</ele>
        <time>2026-05-07T09:26:09.980Z</time>
      </trkpt>
      <trkpt lat="51.8344" lon="6.23576">
        <ele>72.659805</ele>
        <time>2026-05-07T09:26:12.988Z</time>
      </trkpt>
      <trkpt lat="51.83448" lon="6.23567">
        <ele>72.895535</ele>
        <time>2026-05-07T09:26:15.990Z</time>
      </trkpt>
      <trkpt lat="51.83458" lon="6.23556">
        <ele>73.149733</ele>
        <time>2026-05-07T09:26:18.977Z</time>
      </trkpt>
      <trkpt lat="51.83468" lon="6.23543">
        <ele>73.450078</ele>
        <time>2026-05-07T09:26:21.986Z</time>
      </trkpt>
      <trkpt lat="51.83479" lon="6.2353">
        <ele>73.746041</ele>
        <time>2026-05-07T09:26:24.984Z</time>
      </trkpt>
      <trkpt lat="51.83489" lon="6.23517">
        <ele>74.046904</ele>
        <time>2026-05-07T09:26:27.989Z</time>
      </trkpt>
      <trkpt lat="51.83497" lon="6.23508">
        <ele>74.259432</ele>
        <time>2026-05-07T09:26:29.991Z</time>
      </trkpt>
      <trkpt lat="51.83504" lon="6.235">
        <ele>74.272994</ele>
        <time>2026-05-07T09:26:31.982Z</time>
      </trkpt>
      <trkpt lat="51.83512" lon="6.23491">
        <ele>73.990492</ele>
        <time>2026-05-07T09:26:33.988Z</time>
      </trkpt>
      <trkpt lat="51.8352" lon="6.23483">
        <ele>73.690324</ele>
        <time>2026-05-07T09:26:35.983Z</time>
      </trkpt>
      <trkpt lat="51.83528" lon="6.23474">
        <ele>73.396819</ele>
        <time>2026-05-07T09:26:37.976Z</time>
      </trkpt>
      <trkpt lat="51.83535" lon="6.23465">
        <ele>73.102204</ele>
        <time>2026-05-07T09:26:39.997Z</time>
      </trkpt>
      <trkpt lat="51.83543" lon="6.23456">
        <ele>72.797098</ele>
        <time>2026-05-07T09:26:41.986Z</time>
      </trkpt>
      <trkpt lat="51.83551" lon="6.23447">
        <ele>72.499051</ele>
        <time>2026-05-07T09:26:43.987Z</time>
      </trkpt>
      <trkpt lat="51.83562" lon="6.23436">
        <ele>72.077148</ele>
        <time>2026-05-07T09:26:46.989Z</time>
      </trkpt>
      <trkpt lat="51.8357" lon="6.23428">
        <ele>71.787495</ele>
        <time>2026-05-07T09:26:48.970Z</time>
      </trkpt>
      <trkpt lat="51.83578" lon="6.23419">
        <ele>71.505292</ele>
        <time>2026-05-07T09:26:50.987Z</time>
      </trkpt>
      <trkpt lat="51.83585" lon="6.2341">
        <ele>71.222226</ele>
        <time>2026-05-07T09:26:52.979Z</time>
      </trkpt>
      <trkpt lat="51.83592" lon="6.23401">
        <ele>70.930412</ele>
        <time>2026-05-07T09:26:54.985Z</time>
      </trkpt>
      <trkpt lat="51.836" lon="6.23392">
        <ele>70.631455</ele>
        <time>2026-05-07T09:26:56.973Z</time>
      </trkpt>
      <trkpt lat="51.83607" lon="6.23383">
        <ele>70.352039</ele>
        <time>2026-05-07T09:26:58.983Z</time>
      </trkpt>
      <trkpt lat="51.83617" lon="6.23369">
        <ele>69.941413</ele>
        <time>2026-05-07T09:27:01.978Z</time>
      </trkpt>
      <trkpt lat="51.83624" lon="6.23359">
        <ele>69.638723</ele>
        <time>2026-05-07T09:27:03.982Z</time>
      </trkpt>
      <trkpt lat="51.83632" lon="6.2335">
        <ele>69.334777</ele>
        <time>2026-05-07T09:27:05.987Z</time>
      </trkpt>
      <trkpt lat="51.83643" lon="6.23338">
        <ele>68.932835</ele>
        <time>2026-05-07T09:27:08.987Z</time>
      </trkpt>
      <trkpt lat="51.83654" lon="6.23325">
        <ele>68.728058</ele>
        <time>2026-05-07T09:27:11.987Z</time>
      </trkpt>
      <trkpt lat="51.83664" lon="6.23311">
        <ele>68.671935</ele>
        <time>2026-05-07T09:27:14.974Z</time>
      </trkpt>
      <trkpt lat="51.83671" lon="6.23301">
        <ele>68.633301</ele>
        <time>2026-05-07T09:27:16.980Z</time>
      </trkpt>
      <trkpt lat="51.83682" lon="6.23288">
        <ele>68.579053</ele>
        <time>2026-05-07T09:27:19.985Z</time>
      </trkpt>
      <trkpt lat="51.8369" lon="6.2328">
        <ele>68.540786</ele>
        <time>2026-05-07T09:27:21.986Z</time>
      </trkpt>
      <trkpt lat="51.83697" lon="6.23272">
        <ele>68.503495</ele>
        <time>2026-05-07T09:27:23.988Z</time>
      </trkpt>
      <trkpt lat="51.83705" lon="6.23263">
        <ele>68.464312</ele>
        <time>2026-05-07T09:27:25.979Z</time>
      </trkpt>
      <trkpt lat="51.83712" lon="6.23253">
        <ele>68.426453</ele>
        <time>2026-05-07T09:27:27.982Z</time>
      </trkpt>
      <trkpt lat="51.83719" lon="6.23242">
        <ele>68.388633</ele>
        <time>2026-05-07T09:27:29.979Z</time>
      </trkpt>
      <trkpt lat="51.83726" lon="6.23231">
        <ele>68.349123</ele>
        <time>2026-05-07T09:27:31.984Z</time>
      </trkpt>
      <trkpt lat="51.83733" lon="6.23221">
        <ele>68.309175</ele>
        <time>2026-05-07T09:27:33.986Z</time>
      </trkpt>
      <trkpt lat="51.8374" lon="6.23211">
        <ele>68.271079</ele>
        <time>2026-05-07T09:27:35.987Z</time>
      </trkpt>
      <trkpt lat="51.83749" lon="6.23196">
        <ele>68.218434</ele>
        <time>2026-05-07T09:27:38.988Z</time>
      </trkpt>
      <trkpt lat="51.83757" lon="6.23188">
        <ele>68.17867</ele>
        <time>2026-05-07T09:27:42.970Z</time>
      </trkpt>
      <trkpt lat="51.83775" lon="6.23163">
        <ele>68.083568</ele>
        <time>2026-05-07T09:28:34.985Z</time>
      </trkpt>
      <trkpt lat="51.83773" lon="6.2313">
        <ele>67.965236</ele>
        <time>2026-05-07T09:29:14.981Z</time>
      </trkpt>
      <trkpt lat="51.83781" lon="6.2312">
        <ele>67.862751</ele>
        <time>2026-05-07T09:29:17.990Z</time>
      </trkpt>
      <trkpt lat="51.83789" lon="6.23107">
        <ele>67.748885</ele>
        <time>2026-05-07T09:29:20.982Z</time>
      </trkpt>
      <trkpt lat="51.83797" lon="6.23093">
        <ele>67.630104</ele>
        <time>2026-05-07T09:29:23.974Z</time>
      </trkpt>
      <trkpt lat="51.83806" lon="6.23079">
        <ele>67.5039</ele>
        <time>2026-05-07T09:29:26.978Z</time>
      </trkpt>
      <trkpt lat="51.83815" lon="6.23064">
        <ele>67.377372</ele>
        <time>2026-05-07T09:29:29.991Z</time>
      </trkpt>
      <trkpt lat="51.83824" lon="6.23049">
        <ele>67.248631</ele>
        <time>2026-05-07T09:29:32.986Z</time>
      </trkpt>
      <trkpt lat="51.8383" lon="6.23038">
        <ele>67.159126</ele>
        <time>2026-05-07T09:29:34.991Z</time>
      </trkpt>
      <trkpt lat="51.83837" lon="6.23028">
        <ele>67.066876</ele>
        <time>2026-05-07T09:29:36.981Z</time>
      </trkpt>
      <trkpt lat="51.83843" lon="6.23016">
        <ele>66.972635</ele>
        <time>2026-05-07T09:29:38.987Z</time>
      </trkpt>
      <trkpt lat="51.83849" lon="6.23005">
        <ele>66.881766</ele>
        <time>2026-05-07T09:29:40.976Z</time>
      </trkpt>
      <trkpt lat="51.83856" lon="6.22993">
        <ele>66.782998</ele>
        <time>2026-05-07T09:29:42.990Z</time>
      </trkpt>
      <trkpt lat="51.83862" lon="6.22982">
        <ele>66.6856</ele>
        <time>2026-05-07T09:29:44.989Z</time>
      </trkpt>
      <trkpt lat="51.83869" lon="6.2297">
        <ele>66.591113</ele>
        <time>2026-05-07T09:29:47.001Z</time>
      </trkpt>
      <trkpt lat="51.83875" lon="6.22959">
        <ele>66.499801</ele>
        <time>2026-05-07T09:29:48.983Z</time>
      </trkpt>
      <trkpt lat="51.83883" lon="6.22946">
        <ele>66.387003</ele>
        <time>2026-05-07T09:29:51.988Z</time>
      </trkpt>
      <trkpt lat="51.83891" lon="6.22934">
        <ele>66.280763</ele>
        <time>2026-05-07T09:29:54.977Z</time>
      </trkpt>
      <trkpt lat="51.83899" lon="6.22919">
        <ele>66.265347</ele>
        <time>2026-05-07T09:29:58.015Z</time>
      </trkpt>
      <trkpt lat="51.83908" lon="6.22903">
        <ele>66.316174</ele>
        <time>2026-05-07T09:30:00.986Z</time>
      </trkpt>
      <trkpt lat="51.83915" lon="6.22893">
        <ele>66.350964</ele>
        <time>2026-05-07T09:30:02.990Z</time>
      </trkpt>
      <trkpt lat="51.83922" lon="6.22881">
        <ele>66.388072</ele>
        <time>2026-05-07T09:30:04.981Z</time>
      </trkpt>
      <trkpt lat="51.83928" lon="6.22869">
        <ele>66.425966</ele>
        <time>2026-05-07T09:30:06.969Z</time>
      </trkpt>
      <trkpt lat="51.83935" lon="6.22857">
        <ele>66.463417</ele>
        <time>2026-05-07T09:30:08.989Z</time>
      </trkpt>
      <trkpt lat="51.83942" lon="6.22846">
        <ele>66.500868</ele>
        <time>2026-05-07T09:30:10.994Z</time>
      </trkpt>
      <trkpt lat="51.83948" lon="6.22834">
        <ele>66.537036</ele>
        <time>2026-05-07T09:30:12.985Z</time>
      </trkpt>
      <trkpt lat="51.83955" lon="6.22823">
        <ele>66.573459</ele>
        <time>2026-05-07T09:30:14.988Z</time>
      </trkpt>
      <trkpt lat="51.83961" lon="6.22812">
        <ele>66.60886</ele>
        <time>2026-05-07T09:30:16.981Z</time>
      </trkpt>
      <trkpt lat="51.83968" lon="6.22801">
        <ele>66.645058</ele>
        <time>2026-05-07T09:30:18.974Z</time>
      </trkpt>
      <trkpt lat="51.83975" lon="6.2279">
        <ele>66.681488</ele>
        <time>2026-05-07T09:30:20.985Z</time>
      </trkpt>
      <trkpt lat="51.83981" lon="6.22779">
        <ele>66.717826</ele>
        <time>2026-05-07T09:30:22.978Z</time>
      </trkpt>
      <trkpt lat="51.83988" lon="6.22768">
        <ele>66.754294</ele>
        <time>2026-05-07T09:30:24.982Z</time>
      </trkpt>
      <trkpt lat="51.83995" lon="6.22756">
        <ele>66.790802</ele>
        <time>2026-05-07T09:30:26.974Z</time>
      </trkpt>
      <trkpt lat="51.84001" lon="6.22745">
        <ele>66.827824</ele>
        <time>2026-05-07T09:30:28.993Z</time>
      </trkpt>
      <trkpt lat="51.84008" lon="6.22733">
        <ele>66.864592</ele>
        <time>2026-05-07T09:30:30.986Z</time>
      </trkpt>
      <trkpt lat="51.84015" lon="6.22722">
        <ele>66.900688</ele>
        <time>2026-05-07T09:30:32.983Z</time>
      </trkpt>
      <trkpt lat="51.84021" lon="6.22711">
        <ele>66.98044</ele>
        <time>2026-05-07T09:30:34.997Z</time>
      </trkpt>
      <trkpt lat="51.84027" lon="6.227">
        <ele>67.092032</ele>
        <time>2026-05-07T09:30:36.994Z</time>
      </trkpt>
      <trkpt lat="51.84036" lon="6.22689">
        <ele>67.225261</ele>
        <time>2026-05-07T09:30:39.977Z</time>
      </trkpt>
      <trkpt lat="51.84046" lon="6.22678">
        <ele>67.370186</ele>
        <time>2026-05-07T09:30:43.981Z</time>
      </trkpt>
      <trkpt lat="51.84052" lon="6.22661">
        <ele>67.519607</ele>
        <time>2026-05-07T09:30:46.971Z</time>
      </trkpt>
      <trkpt lat="51.84058" lon="6.22649">
        <ele>67.628302</ele>
        <time>2026-05-07T09:30:49.984Z</time>
      </trkpt>
      <trkpt lat="51.84053" lon="6.22635">
        <ele>67.743818</ele>
        <time>2026-05-07T09:30:57.985Z</time>
      </trkpt>
      <trkpt lat="51.84043" lon="6.22635">
        <ele>67.864901</ele>
        <time>2026-05-07T09:31:01.978Z</time>
      </trkpt>
      <trkpt lat="51.84034" lon="6.22634">
        <ele>67.976255</ele>
        <time>2026-05-07T09:31:04.998Z</time>
      </trkpt>
      <trkpt lat="51.84023" lon="6.22634">
        <ele>68.106921</ele>
        <time>2026-05-07T09:31:07.985Z</time>
      </trkpt>
      <trkpt lat="51.84013" lon="6.22634">
        <ele>68.227899</ele>
        <time>2026-05-07T09:31:10.993Z</time>
      </trkpt>
      <trkpt lat="51.84003" lon="6.22633">
        <ele>68.348952</ele>
        <time>2026-05-07T09:31:13.989Z</time>
      </trkpt>
      <trkpt lat="51.83992" lon="6.2263">
        <ele>68.489522</ele>
        <time>2026-05-07T09:31:16.989Z</time>
      </trkpt>
      <trkpt lat="51.83981" lon="6.2263">
        <ele>68.616718</ele>
        <time>2026-05-07T09:31:19.985Z</time>
      </trkpt>
      <trkpt lat="51.83972" lon="6.22626">
        <ele>68.727692</ele>
        <time>2026-05-07T09:31:22.995Z</time>
      </trkpt>
      <trkpt lat="51.83962" lon="6.22622">
        <ele>68.863062</ele>
        <time>2026-05-07T09:31:26.971Z</time>
      </trkpt>
      <trkpt lat="51.83953" lon="6.22615">
        <ele>68.981488</ele>
        <time>2026-05-07T09:31:29.978Z</time>
      </trkpt>
      <trkpt lat="51.83944" lon="6.22607">
        <ele>69.082929</ele>
        <time>2026-05-07T09:31:32.984Z</time>
      </trkpt>
      <trkpt lat="51.8394" lon="6.22593">
        <ele>68.940551</ele>
        <time>2026-05-07T09:31:35.985Z</time>
      </trkpt>
      <trkpt lat="51.83939" lon="6.22576">
        <ele>68.786369</ele>
        <time>2026-05-07T09:31:38.987Z</time>
      </trkpt>
      <trkpt lat="51.8394" lon="6.22559">
        <ele>68.63236</ele>
        <time>2026-05-07T09:31:41.981Z</time>
      </trkpt>
      <trkpt lat="51.83943" lon="6.22542">
        <ele>68.47381</ele>
        <time>2026-05-07T09:31:44.976Z</time>
      </trkpt>
      <trkpt lat="51.83944" lon="6.22524">
        <ele>68.308815</ele>
        <time>2026-05-07T09:31:47.979Z</time>
      </trkpt>
      <trkpt lat="51.83945" lon="6.22506">
        <ele>68.138237</ele>
        <time>2026-05-07T09:31:50.981Z</time>
      </trkpt>
      <trkpt lat="51.83944" lon="6.22487">
        <ele>67.972143</ele>
        <time>2026-05-07T09:31:53.986Z</time>
      </trkpt>
      <trkpt lat="51.83943" lon="6.22469">
        <ele>67.803039</ele>
        <time>2026-05-07T09:31:56.985Z</time>
      </trkpt>
      <trkpt lat="51.83939" lon="6.22452">
        <ele>67.646473</ele>
        <time>2026-05-07T09:31:59.987Z</time>
      </trkpt>
      <trkpt lat="51.83936" lon="6.22437">
        <ele>67.494185</ele>
        <time>2026-05-07T09:32:02.984Z</time>
      </trkpt>
      <trkpt lat="51.83932" lon="6.22421">
        <ele>67.340032</ele>
        <time>2026-05-07T09:32:05.983Z</time>
      </trkpt>
      <trkpt lat="51.83929" lon="6.22403">
        <ele>67.176018</ele>
        <time>2026-05-07T09:32:08.987Z</time>
      </trkpt>
      <trkpt lat="51.83927" lon="6.22384">
        <ele>66.99799</ele>
        <time>2026-05-07T09:32:11.981Z</time>
      </trkpt>
      <trkpt lat="51.83925" lon="6.2237">
        <ele>66.863505</ele>
        <time>2026-05-07T09:32:13.986Z</time>
      </trkpt>
      <trkpt lat="51.83924" lon="6.22355">
        <ele>66.727874</ele>
        <time>2026-05-07T09:32:15.995Z</time>
      </trkpt>
      <trkpt lat="51.83922" lon="6.22334">
        <ele>66.534269</ele>
        <time>2026-05-07T09:32:18.993Z</time>
      </trkpt>
      <trkpt lat="51.83921" lon="6.22314">
        <ele>66.472975</ele>
        <time>2026-05-07T09:32:21.980Z</time>
      </trkpt>
      <trkpt lat="51.83919" lon="6.22297">
        <ele>66.512632</ele>
        <time>2026-05-07T09:32:24.972Z</time>
      </trkpt>
      <trkpt lat="51.83918" lon="6.2228">
        <ele>66.551509</ele>
        <time>2026-05-07T09:32:27.982Z</time>
      </trkpt>
      <trkpt lat="51.83917" lon="6.22262">
        <ele>66.592289</ele>
        <time>2026-05-07T09:32:30.989Z</time>
      </trkpt>
      <trkpt lat="51.83916" lon="6.22244">
        <ele>66.633417</ele>
        <time>2026-05-07T09:32:33.978Z</time>
      </trkpt>
      <trkpt lat="51.83914" lon="6.22226">
        <ele>66.675766</ele>
        <time>2026-05-07T09:32:36.983Z</time>
      </trkpt>
      <trkpt lat="51.83913" lon="6.22207">
        <ele>66.717794</ele>
        <time>2026-05-07T09:32:39.979Z</time>
      </trkpt>
      <trkpt lat="51.83911" lon="6.22189">
        <ele>66.759514</ele>
        <time>2026-05-07T09:32:42.980Z</time>
      </trkpt>
      <trkpt lat="51.8391" lon="6.22171">
        <ele>66.800417</ele>
        <time>2026-05-07T09:32:45.992Z</time>
      </trkpt>
      <trkpt lat="51.83909" lon="6.22152">
        <ele>66.843002</ele>
        <time>2026-05-07T09:32:48.984Z</time>
      </trkpt>
      <trkpt lat="51.83907" lon="6.22134">
        <ele>66.885852</ele>
        <time>2026-05-07T09:32:51.988Z</time>
      </trkpt>
      <trkpt lat="51.83906" lon="6.22115">
        <ele>66.929151</ele>
        <time>2026-05-07T09:32:54.988Z</time>
      </trkpt>
      <trkpt lat="51.83904" lon="6.22095">
        <ele>66.973746</ele>
        <time>2026-05-07T09:32:57.984Z</time>
      </trkpt>
      <trkpt lat="51.83902" lon="6.22075">
        <ele>67.019619</ele>
        <time>2026-05-07T09:33:00.977Z</time>
      </trkpt>
      <trkpt lat="51.83901" lon="6.22056">
        <ele>67.064167</ele>
        <time>2026-05-07T09:33:03.978Z</time>
      </trkpt>
      <trkpt lat="51.83901" lon="6.22036">
        <ele>67.107923</ele>
        <time>2026-05-07T09:33:06.985Z</time>
      </trkpt>
      <trkpt lat="51.83902" lon="6.22018">
        <ele>66.827898</ele>
        <time>2026-05-07T09:33:09.984Z</time>
      </trkpt>
      <trkpt lat="51.83905" lon="6.22">
        <ele>66.541082</ele>
        <time>2026-05-07T09:33:12.974Z</time>
      </trkpt>
      <trkpt lat="51.83908" lon="6.21983">
        <ele>66.264907</ele>
        <time>2026-05-07T09:33:15.974Z</time>
      </trkpt>
      <trkpt lat="51.83913" lon="6.21969">
        <ele>66.016756</ele>
        <time>2026-05-07T09:33:18.978Z</time>
      </trkpt>
      <trkpt lat="51.83922" lon="6.21962">
        <ele>65.745039</ele>
        <time>2026-05-07T09:33:23.977Z</time>
      </trkpt>
      <trkpt lat="51.83933" lon="6.21961">
        <ele>65.46746</ele>
        <time>2026-05-07T09:33:29.992Z</time>
      </trkpt>
      <trkpt lat="51.83932" lon="6.21944">
        <ele>65.198872</ele>
        <time>2026-05-07T09:33:39.997Z</time>
      </trkpt>
      <trkpt lat="51.83928" lon="6.21925">
        <ele>64.881866</ele>
        <time>2026-05-07T09:33:43.978Z</time>
      </trkpt>
      <trkpt lat="51.8393" lon="6.21906">
        <ele>64.583557</ele>
        <time>2026-05-07T09:33:46.980Z</time>
      </trkpt>
      <trkpt lat="51.83934" lon="6.21888">
        <ele>64.281576</ele>
        <time>2026-05-07T09:33:49.978Z</time>
      </trkpt>
      <trkpt lat="51.83938" lon="6.21872">
        <ele>64.018502</ele>
        <time>2026-05-07T09:33:52.978Z</time>
      </trkpt>
      <trkpt lat="51.83943" lon="6.21855">
        <ele>63.722018</ele>
        <time>2026-05-07T09:33:56.981Z</time>
      </trkpt>
      <trkpt lat="51.83946" lon="6.21842">
        <ele>63.493914</ele>
        <time>2026-05-07T09:34:00.994Z</time>
      </trkpt>
      <trkpt lat="51.8395" lon="6.21827">
        <ele>63.239656</ele>
        <time>2026-05-07T09:34:15.985Z</time>
      </trkpt>
      <trkpt lat="51.83954" lon="6.21809">
        <ele>62.948884</ele>
        <time>2026-05-07T09:34:19.992Z</time>
      </trkpt>
      <trkpt lat="51.83958" lon="6.21794">
        <ele>62.691693</ele>
        <time>2026-05-07T09:34:22.974Z</time>
      </trkpt>
      <trkpt lat="51.83962" lon="6.21777">
        <ele>62.520589</ele>
        <time>2026-05-07T09:34:25.985Z</time>
      </trkpt>
      <trkpt lat="51.83966" lon="6.2176">
        <ele>62.483713</ele>
        <time>2026-05-07T09:34:28.985Z</time>
      </trkpt>
      <trkpt lat="51.83971" lon="6.21742">
        <ele>62.446294</ele>
        <time>2026-05-07T09:34:31.990Z</time>
      </trkpt>
      <trkpt lat="51.83975" lon="6.21723">
        <ele>62.407556</ele>
        <time>2026-05-07T09:34:34.980Z</time>
      </trkpt>
      <trkpt lat="51.8398" lon="6.21702">
        <ele>62.364825</ele>
        <time>2026-05-07T09:34:37.978Z</time>
      </trkpt>
      <trkpt lat="51.83984" lon="6.21688">
        <ele>62.333949</ele>
        <time>2026-05-07T09:34:39.998Z</time>
      </trkpt>
      <trkpt lat="51.83988" lon="6.21673">
        <ele>62.301435</ele>
        <time>2026-05-07T09:34:41.990Z</time>
      </trkpt>
      <trkpt lat="51.83992" lon="6.21657">
        <ele>62.268418</ele>
        <time>2026-05-07T09:34:43.986Z</time>
      </trkpt>
      <trkpt lat="51.83995" lon="6.21641">
        <ele>62.236174</ele>
        <time>2026-05-07T09:34:45.983Z</time>
      </trkpt>
      <trkpt lat="51.83998" lon="6.21625">
        <ele>62.204861</ele>
        <time>2026-05-07T09:34:47.983Z</time>
      </trkpt>
      <trkpt lat="51.84" lon="6.2161">
        <ele>62.174386</ele>
        <time>2026-05-07T09:34:49.973Z</time>
      </trkpt>
      <trkpt lat="51.84004" lon="6.21595">
        <ele>62.143983</ele>
        <time>2026-05-07T09:34:51.985Z</time>
      </trkpt>
      <trkpt lat="51.84007" lon="6.21581">
        <ele>62.114929</ele>
        <time>2026-05-07T09:34:53.986Z</time>
      </trkpt>
      <trkpt lat="51.84012" lon="6.21561">
        <ele>62.072253</ele>
        <time>2026-05-07T09:34:56.991Z</time>
      </trkpt>
      <trkpt lat="51.84017" lon="6.21548">
        <ele>62.043682</ele>
        <time>2026-05-07T09:34:58.984Z</time>
      </trkpt>
      <trkpt lat="51.84022" lon="6.21536">
        <ele>62.014815</ele>
        <time>2026-05-07T09:35:01.006Z</time>
      </trkpt>
      <trkpt lat="51.84026" lon="6.21523">
        <ele>61.986438</ele>
        <time>2026-05-07T09:35:02.988Z</time>
      </trkpt>
      <trkpt lat="51.84031" lon="6.2151">
        <ele>61.959896</ele>
        <time>2026-05-07T09:35:04.989Z</time>
      </trkpt>
      <trkpt lat="51.84035" lon="6.21497">
        <ele>61.935251</ele>
        <time>2026-05-07T09:35:06.990Z</time>
      </trkpt>
      <trkpt lat="51.84042" lon="6.21479">
        <ele>61.898964</ele>
        <time>2026-05-07T09:35:09.973Z</time>
      </trkpt>
      <trkpt lat="51.84047" lon="6.21467">
        <ele>61.873759</ele>
        <time>2026-05-07T09:35:11.991Z</time>
      </trkpt>
      <trkpt lat="51.84052" lon="6.21455">
        <ele>61.848826</ele>
        <time>2026-05-07T09:35:13.975Z</time>
      </trkpt>
      <trkpt lat="51.84059" lon="6.21436">
        <ele>61.811949</ele>
        <time>2026-05-07T09:35:16.983Z</time>
      </trkpt>
      <trkpt lat="51.84064" lon="6.21424">
        <ele>61.787181</ele>
        <time>2026-05-07T09:35:18.982Z</time>
      </trkpt>
      <trkpt lat="51.84069" lon="6.21411">
        <ele>61.761405</ele>
        <time>2026-05-07T09:35:20.992Z</time>
      </trkpt>
      <trkpt lat="51.84074" lon="6.21398">
        <ele>61.73534</ele>
        <time>2026-05-07T09:35:22.991Z</time>
      </trkpt>
      <trkpt lat="51.84079" lon="6.21385">
        <ele>61.710276</ele>
        <time>2026-05-07T09:35:24.980Z</time>
      </trkpt>
      <trkpt lat="51.84085" lon="6.21366">
        <ele>61.673677</ele>
        <time>2026-05-07T09:35:27.980Z</time>
      </trkpt>
      <trkpt lat="51.8409" lon="6.21353">
        <ele>61.648996</ele>
        <time>2026-05-07T09:35:29.986Z</time>
      </trkpt>
      <trkpt lat="51.84094" lon="6.2134">
        <ele>61.624291</ele>
        <time>2026-05-07T09:35:31.987Z</time>
      </trkpt>
      <trkpt lat="51.841" lon="6.21321">
        <ele>61.588199</ele>
        <time>2026-05-07T09:35:34.984Z</time>
      </trkpt>
      <trkpt lat="51.84105" lon="6.21301">
        <ele>61.551567</ele>
        <time>2026-05-07T09:35:37.978Z</time>
      </trkpt>
      <trkpt lat="51.84108" lon="6.21287">
        <ele>61.526485</ele>
        <time>2026-05-07T09:35:39.989Z</time>
      </trkpt>
      <trkpt lat="51.8411" lon="6.21273">
        <ele>61.501607</ele>
        <time>2026-05-07T09:35:41.975Z</time>
      </trkpt>
      <trkpt lat="51.84111" lon="6.21252">
        <ele>61.539033</ele>
        <time>2026-05-07T09:35:44.986Z</time>
      </trkpt>
      <trkpt lat="51.84111" lon="6.21232">
        <ele>61.687065</ele>
        <time>2026-05-07T09:35:47.982Z</time>
      </trkpt>
      <trkpt lat="51.8411" lon="6.21212">
        <ele>61.832925</ele>
        <time>2026-05-07T09:35:50.982Z</time>
      </trkpt>
      <trkpt lat="51.84107" lon="6.21194">
        <ele>61.965195</ele>
        <time>2026-05-07T09:35:53.976Z</time>
      </trkpt>
      <trkpt lat="51.84099" lon="6.21181">
        <ele>62.091102</ele>
        <time>2026-05-07T09:35:56.986Z</time>
      </trkpt>
      <trkpt lat="51.84092" lon="6.21167">
        <ele>62.226498</ele>
        <time>2026-05-07T09:36:00.982Z</time>
      </trkpt>
      <trkpt lat="51.84085" lon="6.21155">
        <ele>62.347836</ele>
        <time>2026-05-07T09:36:04.983Z</time>
      </trkpt>
      <trkpt lat="51.84078" lon="6.21142">
        <ele>62.471878</ele>
        <time>2026-05-07T09:36:08.974Z</time>
      </trkpt>
      <trkpt lat="51.84071" lon="6.21129">
        <ele>62.593976</ele>
        <time>2026-05-07T09:36:13.984Z</time>
      </trkpt>
      <trkpt lat="51.84076" lon="6.21145">
        <ele>62.719737</ele>
        <time>2026-05-07T09:36:29.978Z</time>
      </trkpt>
      <trkpt lat="51.84082" lon="6.21157">
        <ele>62.83391</ele>
        <time>2026-05-07T09:36:32.982Z</time>
      </trkpt>
      <trkpt lat="51.84089" lon="6.2117">
        <ele>62.958435</ele>
        <time>2026-05-07T09:36:35.975Z</time>
      </trkpt>
      <trkpt lat="51.84095" lon="6.21185">
        <ele>63.086246</ele>
        <time>2026-05-07T09:36:38.990Z</time>
      </trkpt>
      <trkpt lat="51.84102" lon="6.21198">
        <ele>63.213767</ele>
        <time>2026-05-07T09:36:41.978Z</time>
      </trkpt>
      <trkpt lat="51.84105" lon="6.21183">
        <ele>63.331214</ele>
        <time>2026-05-07T09:36:48.993Z</time>
      </trkpt>
      <trkpt lat="51.84101" lon="6.21169">
        <ele>63.446445</ele>
        <time>2026-05-07T09:36:51.988Z</time>
      </trkpt>
      <trkpt lat="51.84097" lon="6.21153">
        <ele>63.574389</ele>
        <time>2026-05-07T09:36:54.986Z</time>
      </trkpt>
      <trkpt lat="51.84092" lon="6.21135">
        <ele>63.495393</ele>
        <time>2026-05-07T09:36:57.976Z</time>
      </trkpt>
      <trkpt lat="51.84086" lon="6.21119">
        <ele>63.388389</ele>
        <time>2026-05-07T09:37:00.984Z</time>
      </trkpt>
      <trkpt lat="51.84078" lon="6.21102">
        <ele>63.271014</ele>
        <time>2026-05-07T09:37:03.990Z</time>
      </trkpt>
      <trkpt lat="51.84071" lon="6.21086">
        <ele>63.157869</ele>
        <time>2026-05-07T09:37:06.974Z</time>
      </trkpt>
      <trkpt lat="51.84065" lon="6.21069">
        <ele>63.043606</ele>
        <time>2026-05-07T09:37:09.969Z</time>
      </trkpt>
      <trkpt lat="51.84058" lon="6.21051">
        <ele>62.928777</ele>
        <time>2026-05-07T09:37:12.974Z</time>
      </trkpt>
      <trkpt lat="51.84052" lon="6.21033">
        <ele>62.812899</ele>
        <time>2026-05-07T09:37:15.985Z</time>
      </trkpt>
      <trkpt lat="51.84046" lon="6.21015">
        <ele>62.693265</ele>
        <time>2026-05-07T09:37:18.983Z</time>
      </trkpt>
      <trkpt lat="51.84039" lon="6.20997">
        <ele>62.573699</ele>
        <time>2026-05-07T09:37:21.978Z</time>
      </trkpt>
      <trkpt lat="51.84034" lon="6.20977">
        <ele>62.453521</ele>
        <time>2026-05-07T09:37:24.986Z</time>
      </trkpt>
      <trkpt lat="51.8403" lon="6.20957">
        <ele>62.333594</ele>
        <time>2026-05-07T09:37:27.973Z</time>
      </trkpt>
      <trkpt lat="51.84027" lon="6.20936">
        <ele>62.212803</ele>
        <time>2026-05-07T09:37:30.980Z</time>
      </trkpt>
      <trkpt lat="51.84026" lon="6.20915">
        <ele>62.091775</ele>
        <time>2026-05-07T09:37:33.984Z</time>
      </trkpt>
      <trkpt lat="51.84026" lon="6.209">
        <ele>62.006222</ele>
        <time>2026-05-07T09:37:35.985Z</time>
      </trkpt>
      <trkpt lat="51.84026" lon="6.20884">
        <ele>61.964977</ele>
        <time>2026-05-07T09:37:37.980Z</time>
      </trkpt>
      <trkpt lat="51.84026" lon="6.20868">
        <ele>62.040517</ele>
        <time>2026-05-07T09:37:39.986Z</time>
      </trkpt>
      <trkpt lat="51.84028" lon="6.20853">
        <ele>62.114151</ele>
        <time>2026-05-07T09:37:41.975Z</time>
      </trkpt>
      <trkpt lat="51.8403" lon="6.20838">
        <ele>62.185275</ele>
        <time>2026-05-07T09:37:43.979Z</time>
      </trkpt>
      <trkpt lat="51.84032" lon="6.20824">
        <ele>62.254494</ele>
        <time>2026-05-07T09:37:45.977Z</time>
      </trkpt>
      <trkpt lat="51.84035" lon="6.20803">
        <ele>62.355944</ele>
        <time>2026-05-07T09:37:48.988Z</time>
      </trkpt>
      <trkpt lat="51.84038" lon="6.20789">
        <ele>62.424206</ele>
        <time>2026-05-07T09:37:50.978Z</time>
      </trkpt>
      <trkpt lat="51.84041" lon="6.20775">
        <ele>62.49383</ele>
        <time>2026-05-07T09:37:52.992Z</time>
      </trkpt>
      <trkpt lat="51.84044" lon="6.20754">
        <ele>62.595681</ele>
        <time>2026-05-07T09:37:55.982Z</time>
      </trkpt>
      <trkpt lat="51.84048" lon="6.20734">
        <ele>62.696112</ele>
        <time>2026-05-07T09:37:58.982Z</time>
      </trkpt>
      <trkpt lat="51.84049" lon="6.20714">
        <ele>62.789451</ele>
        <time>2026-05-07T09:38:01.984Z</time>
      </trkpt>
      <trkpt lat="51.8405" lon="6.20695">
        <ele>62.879902</ele>
        <time>2026-05-07T09:38:04.987Z</time>
      </trkpt>
      <trkpt lat="51.8405" lon="6.20675">
        <ele>62.973747</ele>
        <time>2026-05-07T09:38:07.977Z</time>
      </trkpt>
      <trkpt lat="51.84049" lon="6.20654">
        <ele>63.070997</ele>
        <time>2026-05-07T09:38:10.986Z</time>
      </trkpt>
      <trkpt lat="51.84044" lon="6.20635">
        <ele>63.17101</ele>
        <time>2026-05-07T09:38:13.986Z</time>
      </trkpt>
      <trkpt lat="51.8404" lon="6.20621">
        <ele>63.240042</ele>
        <time>2026-05-07T09:38:15.982Z</time>
      </trkpt>
      <trkpt lat="51.84035" lon="6.20601">
        <ele>63.343823</ele>
        <time>2026-05-07T09:38:18.977Z</time>
      </trkpt>
      <trkpt lat="51.84029" lon="6.20583">
        <ele>63.448288</ele>
        <time>2026-05-07T09:38:21.982Z</time>
      </trkpt>
      <trkpt lat="51.84021" lon="6.20564">
        <ele>63.553471</ele>
        <time>2026-05-07T09:38:24.982Z</time>
      </trkpt>
      <trkpt lat="51.84017" lon="6.20552">
        <ele>63.62499</ele>
        <time>2026-05-07T09:38:26.980Z</time>
      </trkpt>
      <trkpt lat="51.84011" lon="6.20534">
        <ele>63.726936</ele>
        <time>2026-05-07T09:38:29.986Z</time>
      </trkpt>
      <trkpt lat="51.84006" lon="6.20521">
        <ele>63.798454</ele>
        <time>2026-05-07T09:38:31.986Z</time>
      </trkpt>
      <trkpt lat="51.84001" lon="6.20508">
        <ele>63.870889</ele>
        <time>2026-05-07T09:38:33.980Z</time>
      </trkpt>
      <trkpt lat="51.83995" lon="6.20489">
        <ele>63.976167</ele>
        <time>2026-05-07T09:38:36.982Z</time>
      </trkpt>
      <trkpt lat="51.8399" lon="6.20477">
        <ele>64.048091</ele>
        <time>2026-05-07T09:38:38.982Z</time>
      </trkpt>
      <trkpt lat="51.83984" lon="6.20458">
        <ele>64.154392</ele>
        <time>2026-05-07T09:38:41.972Z</time>
      </trkpt>
      <trkpt lat="51.83981" lon="6.20443">
        <ele>64.227464</ele>
        <time>2026-05-07T09:38:43.979Z</time>
      </trkpt>
      <trkpt lat="51.83982" lon="6.20422">
        <ele>64.330651</ele>
        <time>2026-05-07T09:38:46.982Z</time>
      </trkpt>
      <trkpt lat="51.83986" lon="6.20403">
        <ele>64.432099</ele>
        <time>2026-05-07T09:38:49.992Z</time>
      </trkpt>
      <trkpt lat="51.83991" lon="6.20384">
        <ele>64.530603</ele>
        <time>2026-05-07T09:38:52.981Z</time>
      </trkpt>
      <trkpt lat="51.83995" lon="6.20371">
        <ele>64.602611</ele>
        <time>2026-05-07T09:38:54.976Z</time>
      </trkpt>
      <trkpt lat="51.84001" lon="6.20352">
        <ele>64.705375</ele>
        <time>2026-05-07T09:38:57.992Z</time>
      </trkpt>
      <trkpt lat="51.84005" lon="6.20333">
        <ele>64.570967</ele>
        <time>2026-05-07T09:39:00.974Z</time>
      </trkpt>
      <trkpt lat="51.8401" lon="6.20313">
        <ele>64.320015</ele>
        <time>2026-05-07T09:39:03.985Z</time>
      </trkpt>
      <trkpt lat="51.84014" lon="6.20294">
        <ele>64.079666</ele>
        <time>2026-05-07T09:39:06.987Z</time>
      </trkpt>
      <trkpt lat="51.84019" lon="6.20275">
        <ele>63.834586</ele>
        <time>2026-05-07T09:39:09.991Z</time>
      </trkpt>
      <trkpt lat="51.84022" lon="6.20261">
        <ele>63.652239</ele>
        <time>2026-05-07T09:39:11.976Z</time>
      </trkpt>
      <trkpt lat="51.84025" lon="6.20247">
        <ele>63.474395</ele>
        <time>2026-05-07T09:39:13.977Z</time>
      </trkpt>
      <trkpt lat="51.8403" lon="6.20227">
        <ele>63.213562</ele>
        <time>2026-05-07T09:39:16.983Z</time>
      </trkpt>
      <trkpt lat="51.84034" lon="6.20206">
        <ele>62.956577</ele>
        <time>2026-05-07T09:39:19.984Z</time>
      </trkpt>
      <trkpt lat="51.84039" lon="6.20186">
        <ele>62.700715</ele>
        <time>2026-05-07T09:39:22.990Z</time>
      </trkpt>
      <trkpt lat="51.84044" lon="6.20167">
        <ele>62.439638</ele>
        <time>2026-05-07T09:39:25.981Z</time>
      </trkpt>
      <trkpt lat="51.8405" lon="6.20148">
        <ele>62.189845</ele>
        <time>2026-05-07T09:39:28.980Z</time>
      </trkpt>
      <trkpt lat="51.84056" lon="6.20131">
        <ele>61.950829</ele>
        <time>2026-05-07T09:39:31.984Z</time>
      </trkpt>
      <trkpt lat="51.84061" lon="6.20115">
        <ele>61.738875</ele>
        <time>2026-05-07T09:39:34.982Z</time>
      </trkpt>
      <trkpt lat="51.84065" lon="6.201">
        <ele>61.551896</ele>
        <time>2026-05-07T09:39:37.978Z</time>
      </trkpt>
      <trkpt lat="51.84069" lon="6.20083">
        <ele>61.333799</ele>
        <time>2026-05-07T09:39:41.985Z</time>
      </trkpt>
      <trkpt lat="51.84073" lon="6.20068">
        <ele>61.270134</ele>
        <time>2026-05-07T09:39:45.984Z</time>
      </trkpt>
      <trkpt lat="51.84076" lon="6.20053">
        <ele>61.307978</ele>
        <time>2026-05-07T09:39:49.985Z</time>
      </trkpt>
      <trkpt lat="51.84079" lon="6.20039">
        <ele>61.343014</ele>
        <time>2026-05-07T09:39:53.977Z</time>
      </trkpt>
      <trkpt lat="51.84081" lon="6.20024">
        <ele>61.38092</ele>
        <time>2026-05-07T09:39:58.980Z</time>
      </trkpt>
      <trkpt lat="51.84085" lon="6.2001">
        <ele>61.41818</ele>
        <time>2026-05-07T09:40:04.981Z</time>
      </trkpt>
      <trkpt lat="51.84088" lon="6.19995">
        <ele>61.454821</ele>
        <time>2026-05-07T09:40:10.987Z</time>
      </trkpt>
      <trkpt lat="51.84093" lon="6.19979">
        <ele>61.497391</ele>
        <time>2026-05-07T09:40:16.979Z</time>
      </trkpt>
      <trkpt lat="51.84097" lon="6.19964">
        <ele>61.53758</ele>
        <time>2026-05-07T09:40:20.983Z</time>
      </trkpt>
      <trkpt lat="51.84101" lon="6.19948">
        <ele>61.580369</ele>
        <time>2026-05-07T09:40:24.978Z</time>
      </trkpt>
      <trkpt lat="51.84106" lon="6.19931">
        <ele>61.62348</ele>
        <time>2026-05-07T09:40:28.974Z</time>
      </trkpt>
      <trkpt lat="51.8411" lon="6.19915">
        <ele>61.666706</ele>
        <time>2026-05-07T09:40:32.991Z</time>
      </trkpt>
      <trkpt lat="51.84115" lon="6.19899">
        <ele>61.70972</ele>
        <time>2026-05-07T09:40:36.988Z</time>
      </trkpt>
      <trkpt lat="51.8412" lon="6.19882">
        <ele>61.754299</ele>
        <time>2026-05-07T09:40:40.970Z</time>
      </trkpt>
      <trkpt lat="51.84125" lon="6.19865">
        <ele>61.799977</ele>
        <time>2026-05-07T09:40:44.983Z</time>
      </trkpt>
      <trkpt lat="51.8413" lon="6.19852">
        <ele>61.834896</ele>
        <time>2026-05-07T09:40:47.983Z</time>
      </trkpt>
      <trkpt lat="51.84134" lon="6.19839">
        <ele>61.870169</ele>
        <time>2026-05-07T09:40:50.993Z</time>
      </trkpt>
      <trkpt lat="51.84139" lon="6.19826">
        <ele>61.90626</ele>
        <time>2026-05-07T09:40:53.986Z</time>
      </trkpt>
      <trkpt lat="51.84143" lon="6.19813">
        <ele>61.941874</ele>
        <time>2026-05-07T09:40:56.985Z</time>
      </trkpt>
      <trkpt lat="51.84146" lon="6.19795">
        <ele>61.994857</ele>
        <time>2026-05-07T09:41:00.983Z</time>
      </trkpt>
      <trkpt lat="51.84147" lon="6.19776">
        <ele>62.046804</ele>
        <time>2026-05-07T09:41:04.970Z</time>
      </trkpt>
      <trkpt lat="51.84149" lon="6.19757">
        <ele>62.102118</ele>
        <time>2026-05-07T09:41:08.986Z</time>
      </trkpt>
      <trkpt lat="51.8415" lon="6.19742">
        <ele>62.144828</ele>
        <time>2026-05-07T09:41:11.986Z</time>
      </trkpt>
      <trkpt lat="51.84152" lon="6.19727">
        <ele>62.18726</ele>
        <time>2026-05-07T09:41:14.986Z</time>
      </trkpt>
      <trkpt lat="51.84154" lon="6.19713">
        <ele>62.229568</ele>
        <time>2026-05-07T09:41:17.980Z</time>
      </trkpt>
      <trkpt lat="51.84156" lon="6.19697">
        <ele>62.273998</ele>
        <time>2026-05-07T09:41:20.984Z</time>
      </trkpt>
      <trkpt lat="51.84158" lon="6.19681">
        <ele>62.319371</ele>
        <time>2026-05-07T09:41:23.986Z</time>
      </trkpt>
      <trkpt lat="51.84159" lon="6.19665">
        <ele>62.36566</ele>
        <time>2026-05-07T09:41:26.989Z</time>
      </trkpt>
      <trkpt lat="51.84161" lon="6.19649">
        <ele>62.413899</ele>
        <time>2026-05-07T09:41:29.981Z</time>
      </trkpt>
      <trkpt lat="51.84162" lon="6.19632">
        <ele>62.462212</ele>
        <time>2026-05-07T09:41:32.984Z</time>
      </trkpt>
      <trkpt lat="51.84163" lon="6.19615">
        <ele>62.510571</ele>
        <time>2026-05-07T09:41:35.988Z</time>
      </trkpt>
      <trkpt lat="51.84163" lon="6.19597">
        <ele>62.560938</ele>
        <time>2026-05-07T09:41:38.983Z</time>
      </trkpt>
      <trkpt lat="51.84163" lon="6.19579">
        <ele>62.611183</ele>
        <time>2026-05-07T09:41:41.977Z</time>
      </trkpt>
      <trkpt lat="51.84161" lon="6.19561">
        <ele>62.663072</ele>
        <time>2026-05-07T09:41:44.978Z</time>
      </trkpt>
      <trkpt lat="51.84159" lon="6.19542">
        <ele>62.716335</ele>
        <time>2026-05-07T09:41:47.976Z</time>
      </trkpt>
      <trkpt lat="51.84158" lon="6.19524">
        <ele>62.768691</ele>
        <time>2026-05-07T09:41:50.977Z</time>
      </trkpt>
      <trkpt lat="51.84158" lon="6.19505">
        <ele>62.723395</ele>
        <time>2026-05-07T09:41:53.980Z</time>
      </trkpt>
      <trkpt lat="51.84158" lon="6.19487">
        <ele>62.678212</ele>
        <time>2026-05-07T09:41:56.981Z</time>
      </trkpt>
      <trkpt lat="51.84161" lon="6.19469">
        <ele>62.63126</ele>
        <time>2026-05-07T09:41:59.985Z</time>
      </trkpt>
      <trkpt lat="51.84164" lon="6.19452">
        <ele>62.586141</ele>
        <time>2026-05-07T09:42:02.992Z</time>
      </trkpt>
      <trkpt lat="51.84169" lon="6.19436">
        <ele>62.542158</ele>
        <time>2026-05-07T09:42:05.989Z</time>
      </trkpt>
      <trkpt lat="51.84175" lon="6.1942">
        <ele>62.496122</ele>
        <time>2026-05-07T09:42:08.974Z</time>
      </trkpt>
      <trkpt lat="51.84181" lon="6.19406">
        <ele>62.45265</ele>
        <time>2026-05-07T09:42:11.971Z</time>
      </trkpt>
      <trkpt lat="51.84188" lon="6.19393">
        <ele>62.408682</ele>
        <time>2026-05-07T09:42:14.978Z</time>
      </trkpt>
      <trkpt lat="51.84195" lon="6.19379">
        <ele>62.364382</ele>
        <time>2026-05-07T09:42:17.975Z</time>
      </trkpt>
      <trkpt lat="51.84202" lon="6.19366">
        <ele>62.319908</ele>
        <time>2026-05-07T09:42:20.979Z</time>
      </trkpt>
      <trkpt lat="51.84208" lon="6.19351">
        <ele>62.275501</ele>
        <time>2026-05-07T09:42:23.982Z</time>
      </trkpt>
      <trkpt lat="51.84213" lon="6.19336">
        <ele>62.231121</ele>
        <time>2026-05-07T09:42:26.989Z</time>
      </trkpt>
      <trkpt lat="51.84218" lon="6.19319">
        <ele>62.185659</ele>
        <time>2026-05-07T09:42:29.983Z</time>
      </trkpt>
      <trkpt lat="51.84222" lon="6.19303">
        <ele>62.140722</ele>
        <time>2026-05-07T09:42:32.984Z</time>
      </trkpt>
      <trkpt lat="51.84227" lon="6.19286">
        <ele>62.094859</ele>
        <time>2026-05-07T09:42:35.988Z</time>
      </trkpt>
      <trkpt lat="51.84231" lon="6.19269">
        <ele>62.04835</ele>
        <time>2026-05-07T09:42:38.983Z</time>
      </trkpt>
      <trkpt lat="51.84236" lon="6.19251">
        <ele>61.876031</ele>
        <time>2026-05-07T09:42:41.974Z</time>
      </trkpt>
      <trkpt lat="51.8424" lon="6.19234">
        <ele>61.676251</ele>
        <time>2026-05-07T09:42:44.982Z</time>
      </trkpt>
      <trkpt lat="51.84245" lon="6.19216">
        <ele>61.475825</ele>
        <time>2026-05-07T09:42:47.989Z</time>
      </trkpt>
      <trkpt lat="51.84249" lon="6.19198">
        <ele>61.275333</ele>
        <time>2026-05-07T09:42:50.989Z</time>
      </trkpt>
      <trkpt lat="51.84253" lon="6.19181">
        <ele>61.075553</ele>
        <time>2026-05-07T09:42:53.987Z</time>
      </trkpt>
      <trkpt lat="51.84258" lon="6.19163">
        <ele>60.872675</ele>
        <time>2026-05-07T09:42:56.974Z</time>
      </trkpt>
      <trkpt lat="51.84264" lon="6.19144">
        <ele>60.648313</ele>
        <time>2026-05-07T09:42:59.983Z</time>
      </trkpt>
      <trkpt lat="51.84268" lon="6.1913">
        <ele>60.483605</ele>
        <time>2026-05-07T09:43:01.979Z</time>
      </trkpt>
      <trkpt lat="51.84272" lon="6.19115">
        <ele>60.312937</ele>
        <time>2026-05-07T09:43:03.987Z</time>
      </trkpt>
      <trkpt lat="51.84277" lon="6.191">
        <ele>60.137265</ele>
        <time>2026-05-07T09:43:05.984Z</time>
      </trkpt>
      <trkpt lat="51.84282" lon="6.19085">
        <ele>59.958031</ele>
        <time>2026-05-07T09:43:07.983Z</time>
      </trkpt>
      <trkpt lat="51.84287" lon="6.1907">
        <ele>59.777875</ele>
        <time>2026-05-07T09:43:09.978Z</time>
      </trkpt>
      <trkpt lat="51.84291" lon="6.19055">
        <ele>59.602923</ele>
        <time>2026-05-07T09:43:11.976Z</time>
      </trkpt>
      <trkpt lat="51.84295" lon="6.1904">
        <ele>59.429081</ele>
        <time>2026-05-07T09:43:13.981Z</time>
      </trkpt>
      <trkpt lat="51.84298" lon="6.19024">
        <ele>59.258119</ele>
        <time>2026-05-07T09:43:15.980Z</time>
      </trkpt>
      <trkpt lat="51.84301" lon="6.19009">
        <ele>59.09406</ele>
        <time>2026-05-07T09:43:17.983Z</time>
      </trkpt>
      <trkpt lat="51.84304" lon="6.18988">
        <ele>58.969898</ele>
        <time>2026-05-07T09:43:20.988Z</time>
      </trkpt>
      <trkpt lat="51.84306" lon="6.18974">
        <ele>58.960198</ele>
        <time>2026-05-07T09:43:22.982Z</time>
      </trkpt>
      <trkpt lat="51.84308" lon="6.1896">
        <ele>58.950677</ele>
        <time>2026-05-07T09:43:24.982Z</time>
      </trkpt>
      <trkpt lat="51.84312" lon="6.18939">
        <ele>58.936834</ele>
        <time>2026-05-07T09:43:27.986Z</time>
      </trkpt>
      <trkpt lat="51.84316" lon="6.1892">
        <ele>58.923647</ele>
        <time>2026-05-07T09:43:30.981Z</time>
      </trkpt>
      <trkpt lat="51.84319" lon="6.18901">
        <ele>58.910679</ele>
        <time>2026-05-07T09:43:33.988Z</time>
      </trkpt>
      <trkpt lat="51.84323" lon="6.18882">
        <ele>58.897711</ele>
        <time>2026-05-07T09:43:36.984Z</time>
      </trkpt>
      <trkpt lat="51.84326" lon="6.18863">
        <ele>58.884526</ele>
        <time>2026-05-07T09:43:39.980Z</time>
      </trkpt>
      <trkpt lat="51.8433" lon="6.18844">
        <ele>58.871679</ele>
        <time>2026-05-07T09:43:42.981Z</time>
      </trkpt>
      <trkpt lat="51.84332" lon="6.18825">
        <ele>58.858835</ele>
        <time>2026-05-07T09:43:45.983Z</time>
      </trkpt>
      <trkpt lat="51.84335" lon="6.18806">
        <ele>58.845885</ele>
        <time>2026-05-07T09:43:48.984Z</time>
      </trkpt>
      <trkpt lat="51.84338" lon="6.18787">
        <ele>58.833232</ele>
        <time>2026-05-07T09:43:51.977Z</time>
      </trkpt>
      <trkpt lat="51.8434" lon="6.18768">
        <ele>58.820625</ele>
        <time>2026-05-07T09:43:54.981Z</time>
      </trkpt>
      <trkpt lat="51.84342" lon="6.1875">
        <ele>58.808446</ele>
        <time>2026-05-07T09:43:57.973Z</time>
      </trkpt>
      <trkpt lat="51.84345" lon="6.18732">
        <ele>58.796558</ele>
        <time>2026-05-07T09:44:00.980Z</time>
      </trkpt>
      <trkpt lat="51.84348" lon="6.18714">
        <ele>58.82001</ele>
        <time>2026-05-07T09:44:03.977Z</time>
      </trkpt>
      <trkpt lat="51.84351" lon="6.18696">
        <ele>59.070541</ele>
        <time>2026-05-07T09:44:06.979Z</time>
      </trkpt>
      <trkpt lat="51.84353" lon="6.18678">
        <ele>59.326941</ele>
        <time>2026-05-07T09:44:09.982Z</time>
      </trkpt>
      <trkpt lat="51.84356" lon="6.1866">
        <ele>59.57666</ele>
        <time>2026-05-07T09:44:12.995Z</time>
      </trkpt>
      <trkpt lat="51.84358" lon="6.18642">
        <ele>59.823282</ele>
        <time>2026-05-07T09:44:15.977Z</time>
      </trkpt>
      <trkpt lat="51.8436" lon="6.18626">
        <ele>60.051222</ele>
        <time>2026-05-07T09:44:18.976Z</time>
      </trkpt>
      <trkpt lat="51.84362" lon="6.1861">
        <ele>60.266808</ele>
        <time>2026-05-07T09:44:21.985Z</time>
      </trkpt>
      <trkpt lat="51.84365" lon="6.18593">
        <ele>60.518425</ele>
        <time>2026-05-07T09:44:25.974Z</time>
      </trkpt>
      <trkpt lat="51.84368" lon="6.18578">
        <ele>60.73233</ele>
        <time>2026-05-07T09:44:30.975Z</time>
      </trkpt>
      <trkpt lat="51.84369" lon="6.18559">
        <ele>60.990313</ele>
        <time>2026-05-07T09:44:34.981Z</time>
      </trkpt>
      <trkpt lat="51.8437" lon="6.18543">
        <ele>61.212541</ele>
        <time>2026-05-07T09:44:37.983Z</time>
      </trkpt>
      <trkpt lat="51.8437" lon="6.18526">
        <ele>61.438469</ele>
        <time>2026-05-07T09:44:40.975Z</time>
      </trkpt>
      <trkpt lat="51.84369" lon="6.18511">
        <ele>61.645755</ele>
        <time>2026-05-07T09:44:43.987Z</time>
      </trkpt>
      <trkpt lat="51.84369" lon="6.18492">
        <ele>61.902974</ele>
        <time>2026-05-07T09:44:47.983Z</time>
      </trkpt>
      <trkpt lat="51.84369" lon="6.18474">
        <ele>62.140035</ele>
        <time>2026-05-07T09:44:51.982Z</time>
      </trkpt>
      <trkpt lat="51.84371" lon="6.18458">
        <ele>62.363109</ele>
        <time>2026-05-07T09:44:55.970Z</time>
      </trkpt>
      <trkpt lat="51.84372" lon="6.18442">
        <ele>62.594124</ele>
        <time>2026-05-07T09:44:59.978Z</time>
      </trkpt>
      <trkpt lat="51.84373" lon="6.18424">
        <ele>62.753495</ele>
        <time>2026-05-07T09:45:03.983Z</time>
      </trkpt>
      <trkpt lat="51.84371" lon="6.18405">
        <ele>62.769039</ele>
        <time>2026-05-07T09:45:07.982Z</time>
      </trkpt>
      <trkpt lat="51.84368" lon="6.18391">
        <ele>62.781293</ele>
        <time>2026-05-07T09:45:10.983Z</time>
      </trkpt>
      <trkpt lat="51.84363" lon="6.18374">
        <ele>62.796097</ele>
        <time>2026-05-07T09:45:14.981Z</time>
      </trkpt>
      <trkpt lat="51.8436" lon="6.18359">
        <ele>62.80939</ele>
        <time>2026-05-07T09:45:18.993Z</time>
      </trkpt>
      <trkpt lat="51.84357" lon="6.18341">
        <ele>62.824787</ele>
        <time>2026-05-07T09:45:22.972Z</time>
      </trkpt>
      <trkpt lat="51.84354" lon="6.18325">
        <ele>62.837953</ele>
        <time>2026-05-07T09:45:25.975Z</time>
      </trkpt>
      <trkpt lat="51.84351" lon="6.18309">
        <ele>62.85222</ele>
        <time>2026-05-07T09:45:28.988Z</time>
      </trkpt>
      <trkpt lat="51.84347" lon="6.18292">
        <ele>62.866868</ele>
        <time>2026-05-07T09:45:31.986Z</time>
      </trkpt>
      <trkpt lat="51.84344" lon="6.18274">
        <ele>62.882067</ele>
        <time>2026-05-07T09:45:34.986Z</time>
      </trkpt>
      <trkpt lat="51.84342" lon="6.18256">
        <ele>62.897323</ele>
        <time>2026-05-07T09:45:37.981Z</time>
      </trkpt>
      <trkpt lat="51.84344" lon="6.18237">
        <ele>62.913157</ele>
        <time>2026-05-07T09:45:40.974Z</time>
      </trkpt>
      <trkpt lat="51.84348" lon="6.18219">
        <ele>62.928787</ele>
        <time>2026-05-07T09:45:43.980Z</time>
      </trkpt>
      <trkpt lat="51.84354" lon="6.18202">
        <ele>62.944534</ele>
        <time>2026-05-07T09:45:46.987Z</time>
      </trkpt>
      <trkpt lat="51.8436" lon="6.18186">
        <ele>62.960469</ele>
        <time>2026-05-07T09:45:49.976Z</time>
      </trkpt>
      <trkpt lat="51.84367" lon="6.18171">
        <ele>62.975582</ele>
        <time>2026-05-07T09:45:52.980Z</time>
      </trkpt>
      <trkpt lat="51.84374" lon="6.18157">
        <ele>62.982811</ele>
        <time>2026-05-07T09:45:55.990Z</time>
      </trkpt>
      <trkpt lat="51.84381" lon="6.18143">
        <ele>62.972051</ele>
        <time>2026-05-07T09:45:58.984Z</time>
      </trkpt>
      <trkpt lat="51.84387" lon="6.18132">
        <ele>62.962315</ele>
        <time>2026-05-07T09:46:01.992Z</time>
      </trkpt>
      <trkpt lat="51.84392" lon="6.18115">
        <ele>62.949731</ele>
        <time>2026-05-07T09:46:05.975Z</time>
      </trkpt>
      <trkpt lat="51.84396" lon="6.18095">
        <ele>62.936741</ele>
        <time>2026-05-07T09:46:08.982Z</time>
      </trkpt>
      <trkpt lat="51.84398" lon="6.18081">
        <ele>62.926844</ele>
        <time>2026-05-07T09:46:10.983Z</time>
      </trkpt>
      <trkpt lat="51.844" lon="6.18065">
        <ele>62.916918</ele>
        <time>2026-05-07T09:46:12.984Z</time>
      </trkpt>
      <trkpt lat="51.84402" lon="6.1805">
        <ele>62.907041</ele>
        <time>2026-05-07T09:46:14.976Z</time>
      </trkpt>
      <trkpt lat="51.84403" lon="6.18035">
        <ele>62.897204</ele>
        <time>2026-05-07T09:46:16.973Z</time>
      </trkpt>
      <trkpt lat="51.84404" lon="6.1802">
        <ele>62.887635</ele>
        <time>2026-05-07T09:46:18.975Z</time>
      </trkpt>
      <trkpt lat="51.84405" lon="6.18006">
        <ele>62.878059</ele>
        <time>2026-05-07T09:46:20.996Z</time>
      </trkpt>
      <trkpt lat="51.84407" lon="6.17991">
        <ele>62.868553</ele>
        <time>2026-05-07T09:46:22.981Z</time>
      </trkpt>
      <trkpt lat="51.84409" lon="6.17976">
        <ele>62.858751</ele>
        <time>2026-05-07T09:46:24.974Z</time>
      </trkpt>
      <trkpt lat="51.8441" lon="6.17961">
        <ele>62.849128</ele>
        <time>2026-05-07T09:46:26.981Z</time>
      </trkpt>
      <trkpt lat="51.84412" lon="6.17946">
        <ele>62.839329</ele>
        <time>2026-05-07T09:46:28.979Z</time>
      </trkpt>
      <trkpt lat="51.84413" lon="6.17931">
        <ele>62.829493</ele>
        <time>2026-05-07T09:46:30.984Z</time>
      </trkpt>
      <trkpt lat="51.84414" lon="6.17916">
        <ele>62.819757</ele>
        <time>2026-05-07T09:46:32.980Z</time>
      </trkpt>
      <trkpt lat="51.84415" lon="6.17901">
        <ele>62.81034</ele>
        <time>2026-05-07T09:46:34.979Z</time>
      </trkpt>
      <trkpt lat="51.84418" lon="6.1788">
        <ele>62.797164</ele>
        <time>2026-05-07T09:46:37.992Z</time>
      </trkpt>
      <trkpt lat="51.8442" lon="6.17858">
        <ele>62.787338</ele>
        <time>2026-05-07T09:46:40.987Z</time>
      </trkpt>
      <trkpt lat="51.84421" lon="6.17843">
        <ele>62.780493</ele>
        <time>2026-05-07T09:46:42.971Z</time>
      </trkpt>
      <trkpt lat="51.84422" lon="6.17828">
        <ele>62.773889</ele>
        <time>2026-05-07T09:46:44.977Z</time>
      </trkpt>
      <trkpt lat="51.84424" lon="6.17814">
        <ele>62.767342</ele>
        <time>2026-05-07T09:46:46.979Z</time>
      </trkpt>
      <trkpt lat="51.84426" lon="6.17792">
        <ele>62.757492</ele>
        <time>2026-05-07T09:46:49.978Z</time>
      </trkpt>
      <trkpt lat="51.84427" lon="6.17777">
        <ele>62.750879</ele>
        <time>2026-05-07T09:46:51.982Z</time>
      </trkpt>
      <trkpt lat="51.84429" lon="6.17762">
        <ele>62.744218</ele>
        <time>2026-05-07T09:46:53.976Z</time>
      </trkpt>
      <trkpt lat="51.8443" lon="6.17747">
        <ele>62.737462</ele>
        <time>2026-05-07T09:46:55.980Z</time>
      </trkpt>
      <trkpt lat="51.84432" lon="6.17733">
        <ele>62.73087</ele>
        <time>2026-05-07T09:46:57.989Z</time>
      </trkpt>
      <trkpt lat="51.84434" lon="6.17712">
        <ele>62.721275</ele>
        <time>2026-05-07T09:47:00.974Z</time>
      </trkpt>
      <trkpt lat="51.84435" lon="6.17691">
        <ele>62.711877</ele>
        <time>2026-05-07T09:47:03.978Z</time>
      </trkpt>
      <trkpt lat="51.84437" lon="6.17669">
        <ele>62.702292</ele>
        <time>2026-05-07T09:47:06.978Z</time>
      </trkpt>
      <trkpt lat="51.84439" lon="6.17655">
        <ele>62.6957</ele>
        <time>2026-05-07T09:47:08.992Z</time>
      </trkpt>
      <trkpt lat="51.8444" lon="6.1764">
        <ele>62.689185</ele>
        <time>2026-05-07T09:47:10.982Z</time>
      </trkpt>
      <trkpt lat="51.84442" lon="6.17619">
        <ele>62.679634</ele>
        <time>2026-05-07T09:47:13.977Z</time>
      </trkpt>
      <trkpt lat="51.84444" lon="6.17597">
        <ele>62.669906</ele>
        <time>2026-05-07T09:47:16.976Z</time>
      </trkpt>
      <trkpt lat="51.84446" lon="6.17576">
        <ele>62.710403</ele>
        <time>2026-05-07T09:47:19.984Z</time>
      </trkpt>
      <trkpt lat="51.84448" lon="6.17554">
        <ele>62.753716</ele>
        <time>2026-05-07T09:47:22.985Z</time>
      </trkpt>
      <trkpt lat="51.8445" lon="6.17534">
        <ele>62.796095</ele>
        <time>2026-05-07T09:47:25.973Z</time>
      </trkpt>
      <trkpt lat="51.84452" lon="6.17512">
        <ele>62.83901</ele>
        <time>2026-05-07T09:47:28.976Z</time>
      </trkpt>
      <trkpt lat="51.84455" lon="6.17491">
        <ele>62.882488</ele>
        <time>2026-05-07T09:47:31.976Z</time>
      </trkpt>
      <trkpt lat="51.84458" lon="6.1747">
        <ele>62.925939</ele>
        <time>2026-05-07T09:47:34.984Z</time>
      </trkpt>
      <trkpt lat="51.8446" lon="6.17456">
        <ele>62.955521</ele>
        <time>2026-05-07T09:47:36.981Z</time>
      </trkpt>
      <trkpt lat="51.84464" lon="6.17434">
        <ele>62.999581</ele>
        <time>2026-05-07T09:47:39.989Z</time>
      </trkpt>
      <trkpt lat="51.84468" lon="6.17414">
        <ele>63.042791</ele>
        <time>2026-05-07T09:47:42.987Z</time>
      </trkpt>
      <trkpt lat="51.84472" lon="6.17393">
        <ele>63.084971</ele>
        <time>2026-05-07T09:47:45.984Z</time>
      </trkpt>
      <trkpt lat="51.84475" lon="6.17374">
        <ele>63.125888</ele>
        <time>2026-05-07T09:47:48.988Z</time>
      </trkpt>
      <trkpt lat="51.84479" lon="6.17354">
        <ele>63.166326</ele>
        <time>2026-05-07T09:47:51.984Z</time>
      </trkpt>
      <trkpt lat="51.84483" lon="6.17337">
        <ele>63.203616</ele>
        <time>2026-05-07T09:47:54.988Z</time>
      </trkpt>
      <trkpt lat="51.84486" lon="6.17319">
        <ele>63.239576</ele>
        <time>2026-05-07T09:47:57.974Z</time>
      </trkpt>
      <trkpt lat="51.84488" lon="6.17302">
        <ele>63.252988</ele>
        <time>2026-05-07T09:48:00.979Z</time>
      </trkpt>
      <trkpt lat="51.84491" lon="6.17286">
        <ele>63.256468</ele>
        <time>2026-05-07T09:48:03.980Z</time>
      </trkpt>
      <trkpt lat="51.84494" lon="6.17269">
        <ele>63.259963</ele>
        <time>2026-05-07T09:48:06.987Z</time>
      </trkpt>
      <trkpt lat="51.84498" lon="6.17252">
        <ele>63.263717</ele>
        <time>2026-05-07T09:48:09.983Z</time>
      </trkpt>
      <trkpt lat="51.84501" lon="6.17233">
        <ele>63.267743</ele>
        <time>2026-05-07T09:48:12.971Z</time>
      </trkpt>
      <trkpt lat="51.84505" lon="6.17214">
        <ele>63.271787</ele>
        <time>2026-05-07T09:48:15.990Z</time>
      </trkpt>
      <trkpt lat="51.84508" lon="6.17194">
        <ele>63.275843</ele>
        <time>2026-05-07T09:48:18.977Z</time>
      </trkpt>
      <trkpt lat="51.84512" lon="6.17176">
        <ele>63.279793</ele>
        <time>2026-05-07T09:48:21.987Z</time>
      </trkpt>
      <trkpt lat="51.84515" lon="6.17157">
        <ele>63.283721</ele>
        <time>2026-05-07T09:48:24.977Z</time>
      </trkpt>
      <trkpt lat="51.84516" lon="6.1714">
        <ele>63.28728</ele>
        <time>2026-05-07T09:48:27.973Z</time>
      </trkpt>
      <trkpt lat="51.8452" lon="6.17123">
        <ele>63.290812</ele>
        <time>2026-05-07T09:48:30.980Z</time>
      </trkpt>
      <trkpt lat="51.84523" lon="6.17105">
        <ele>63.294585</ele>
        <time>2026-05-07T09:48:33.989Z</time>
      </trkpt>
      <trkpt lat="51.84527" lon="6.17086">
        <ele>63.298562</ele>
        <time>2026-05-07T09:48:36.976Z</time>
      </trkpt>
      <trkpt lat="51.8453" lon="6.17067">
        <ele>63.302606</ele>
        <time>2026-05-07T09:48:39.983Z</time>
      </trkpt>
      <trkpt lat="51.84533" lon="6.17048">
        <ele>63.306696</ele>
        <time>2026-05-07T09:48:42.970Z</time>
      </trkpt>
      <trkpt lat="51.84535" lon="6.17028">
        <ele>63.311672</ele>
        <time>2026-05-07T09:48:45.984Z</time>
      </trkpt>
      <trkpt lat="51.84536" lon="6.17008">
        <ele>63.318809</ele>
        <time>2026-05-07T09:48:48.975Z</time>
      </trkpt>
      <trkpt lat="51.84536" lon="6.16988">
        <ele>63.325901</ele>
        <time>2026-05-07T09:48:51.982Z</time>
      </trkpt>
      <trkpt lat="51.84534" lon="6.16967">
        <ele>63.333025</ele>
        <time>2026-05-07T09:48:54.979Z</time>
      </trkpt>
      <trkpt lat="51.84533" lon="6.16947">
        <ele>63.34012</ele>
        <time>2026-05-07T09:48:57.981Z</time>
      </trkpt>
      <trkpt lat="51.84531" lon="6.16926">
        <ele>63.347696</ele>
        <time>2026-05-07T09:49:00.984Z</time>
      </trkpt>
      <trkpt lat="51.8453" lon="6.16905">
        <ele>63.355184</ele>
        <time>2026-05-07T09:49:03.987Z</time>
      </trkpt>
      <trkpt lat="51.84527" lon="6.16886">
        <ele>63.362049</ele>
        <time>2026-05-07T09:49:06.985Z</time>
      </trkpt>
      <trkpt lat="51.84524" lon="6.16869">
        <ele>63.36833</ele>
        <time>2026-05-07T09:49:09.979Z</time>
      </trkpt>
      <trkpt lat="51.84522" lon="6.16852">
        <ele>63.374557</ele>
        <time>2026-05-07T09:49:12.987Z</time>
      </trkpt>
      <trkpt lat="51.84519" lon="6.16834">
        <ele>63.381065</ele>
        <time>2026-05-07T09:49:15.991Z</time>
      </trkpt>
      <trkpt lat="51.84518" lon="6.16815">
        <ele>63.387745</ele>
        <time>2026-05-07T09:49:18.975Z</time>
      </trkpt>
      <trkpt lat="51.84518" lon="6.16797">
        <ele>63.394133</ele>
        <time>2026-05-07T09:49:21.983Z</time>
      </trkpt>
      <trkpt lat="51.84521" lon="6.1678">
        <ele>63.40042</ele>
        <time>2026-05-07T09:49:24.985Z</time>
      </trkpt>
      <trkpt lat="51.84525" lon="6.16762">
        <ele>63.407044</ele>
        <time>2026-05-07T09:49:27.983Z</time>
      </trkpt>
      <trkpt lat="51.84528" lon="6.16742">
        <ele>63.414235</ele>
        <time>2026-05-07T09:49:30.980Z</time>
      </trkpt>
      <trkpt lat="51.84532" lon="6.16724">
        <ele>63.421769</ele>
        <time>2026-05-07T09:49:33.974Z</time>
      </trkpt>
      <trkpt lat="51.84535" lon="6.16705">
        <ele>63.429219</ele>
        <time>2026-05-07T09:49:36.983Z</time>
      </trkpt>
      <trkpt lat="51.84539" lon="6.16685">
        <ele>63.437117</ele>
        <time>2026-05-07T09:49:39.982Z</time>
      </trkpt>
      <trkpt lat="51.84543" lon="6.16667">
        <ele>63.444378</ele>
        <time>2026-05-07T09:49:42.991Z</time>
      </trkpt>
      <trkpt lat="51.84546" lon="6.1665">
        <ele>63.451148</ele>
        <time>2026-05-07T09:49:45.984Z</time>
      </trkpt>
      <trkpt lat="51.84549" lon="6.16635">
        <ele>63.457174</ele>
        <time>2026-05-07T09:49:48.977Z</time>
      </trkpt>
      <trkpt lat="51.84552" lon="6.1662">
        <ele>63.463113</ele>
        <time>2026-05-07T09:49:51.984Z</time>
      </trkpt>
      <trkpt lat="51.84555" lon="6.16602">
        <ele>63.470376</ele>
        <time>2026-05-07T09:49:55.994Z</time>
      </trkpt>
      <trkpt lat="51.84562" lon="6.16586">
        <ele>63.47767</ele>
        <time>2026-05-07T09:49:59.979Z</time>
      </trkpt>
      <trkpt lat="51.84565" lon="6.1657">
        <ele>63.484097</ele>
        <time>2026-05-07T09:50:02.978Z</time>
      </trkpt>
      <trkpt lat="51.84565" lon="6.16551">
        <ele>63.491051</ele>
        <time>2026-05-07T09:50:05.976Z</time>
      </trkpt>
      <trkpt lat="51.84566" lon="6.16532">
        <ele>63.498617</ele>
        <time>2026-05-07T09:50:08.985Z</time>
      </trkpt>
      <trkpt lat="51.84566" lon="6.16516">
        <ele>63.50443</ele>
        <time>2026-05-07T09:50:12.979Z</time>
      </trkpt>
      <trkpt lat="51.84567" lon="6.16473">
        <ele>63.520943</ele>
        <time>2026-05-07T09:51:04.992Z</time>
      </trkpt>
      <trkpt lat="51.84568" lon="6.16455">
        <ele>63.536271</ele>
        <time>2026-05-07T09:51:07.986Z</time>
      </trkpt>
      <trkpt lat="51.84569" lon="6.16436">
        <ele>63.556985</ele>
        <time>2026-05-07T09:51:10.984Z</time>
      </trkpt>
      <trkpt lat="51.8457" lon="6.16417">
        <ele>63.577029</ele>
        <time>2026-05-07T09:51:13.986Z</time>
      </trkpt>
      <trkpt lat="51.84571" lon="6.164">
        <ele>63.594662</ele>
        <time>2026-05-07T09:51:16.981Z</time>
      </trkpt>
      <trkpt lat="51.84572" lon="6.16384">
        <ele>63.611467</ele>
        <time>2026-05-07T09:51:19.986Z</time>
      </trkpt>
      <trkpt lat="51.84573" lon="6.16369">
        <ele>63.627556</ele>
        <time>2026-05-07T09:51:22.980Z</time>
      </trkpt>
      <trkpt lat="51.84574" lon="6.1635">
        <ele>63.647063</ele>
        <time>2026-05-07T09:51:26.981Z</time>
      </trkpt>
      <trkpt lat="51.84575" lon="6.16333">
        <ele>63.665281</ele>
        <time>2026-05-07T09:51:30.980Z</time>
      </trkpt>
      <trkpt lat="51.84576" lon="6.16319">
        <ele>63.680724</ele>
        <time>2026-05-07T09:51:33.978Z</time>
      </trkpt>
      <trkpt lat="51.84578" lon="6.16299">
        <ele>63.701093</ele>
        <time>2026-05-07T09:51:37.981Z</time>
      </trkpt>
      <trkpt lat="51.84578" lon="6.16285">
        <ele>63.716573</ele>
        <time>2026-05-07T09:51:40.974Z</time>
      </trkpt>
      <trkpt lat="51.84579" lon="6.16269">
        <ele>63.73293</ele>
        <time>2026-05-07T09:51:43.985Z</time>
      </trkpt>
      <trkpt lat="51.84579" lon="6.16253">
        <ele>63.750298</ele>
        <time>2026-05-07T09:51:46.975Z</time>
      </trkpt>
      <trkpt lat="51.84578" lon="6.16236">
        <ele>63.768308</ele>
        <time>2026-05-07T09:51:49.985Z</time>
      </trkpt>
      <trkpt lat="51.84577" lon="6.16218">
        <ele>63.786463</ele>
        <time>2026-05-07T09:51:52.973Z</time>
      </trkpt>
      <trkpt lat="51.84575" lon="6.16201">
        <ele>63.805267</ele>
        <time>2026-05-07T09:51:55.982Z</time>
      </trkpt>
      <trkpt lat="51.84574" lon="6.16182">
        <ele>63.824848</ele>
        <time>2026-05-07T09:51:58.980Z</time>
      </trkpt>
      <trkpt lat="51.84572" lon="6.16163">
        <ele>63.844034</ele>
        <time>2026-05-07T09:52:01.983Z</time>
      </trkpt>
      <trkpt lat="51.84571" lon="6.16143">
        <ele>63.863146</ele>
        <time>2026-05-07T09:52:04.979Z</time>
      </trkpt>
      <trkpt lat="51.84569" lon="6.16124">
        <ele>63.882017</ele>
        <time>2026-05-07T09:52:07.989Z</time>
      </trkpt>
      <trkpt lat="51.84569" lon="6.16104">
        <ele>63.901293</ele>
        <time>2026-05-07T09:52:10.993Z</time>
      </trkpt>
      <trkpt lat="51.84569" lon="6.16084">
        <ele>63.920858</ele>
        <time>2026-05-07T09:52:13.988Z</time>
      </trkpt>
      <trkpt lat="51.8457" lon="6.16062">
        <ele>63.941253</ele>
        <time>2026-05-07T09:52:16.988Z</time>
      </trkpt>
      <trkpt lat="51.84571" lon="6.16041">
        <ele>63.962058</ele>
        <time>2026-05-07T09:52:19.986Z</time>
      </trkpt>
      <trkpt lat="51.84573" lon="6.1602">
        <ele>63.982632</ele>
        <time>2026-05-07T09:52:23.001Z</time>
      </trkpt>
      <trkpt lat="51.84576" lon="6.16">
        <ele>64.002525</ele>
        <time>2026-05-07T09:52:25.982Z</time>
      </trkpt>
      <trkpt lat="51.84579" lon="6.1598">
        <ele>64.022036</ele>
        <time>2026-05-07T09:52:28.995Z</time>
      </trkpt>
      <trkpt lat="51.84582" lon="6.1596">
        <ele>64.041928</ele>
        <time>2026-05-07T09:52:31.982Z</time>
      </trkpt>
      <trkpt lat="51.84586" lon="6.1594">
        <ele>64.062005</ele>
        <time>2026-05-07T09:52:34.974Z</time>
      </trkpt>
      <trkpt lat="51.8459" lon="6.15926">
        <ele>64.076413</ele>
        <time>2026-05-07T09:52:36.983Z</time>
      </trkpt>
      <trkpt lat="51.84594" lon="6.15906">
        <ele>64.096765</ele>
        <time>2026-05-07T09:52:39.996Z</time>
      </trkpt>
      <trkpt lat="51.84598" lon="6.15887">
        <ele>64.070374</ele>
        <time>2026-05-07T09:52:42.981Z</time>
      </trkpt>
      <trkpt lat="51.84602" lon="6.15867">
        <ele>63.959092</ele>
        <time>2026-05-07T09:52:45.978Z</time>
      </trkpt>
      <trkpt lat="51.84606" lon="6.15847">
        <ele>63.845197</ele>
        <time>2026-05-07T09:52:48.991Z</time>
      </trkpt>
      <trkpt lat="51.8461" lon="6.15827">
        <ele>63.731578</ele>
        <time>2026-05-07T09:52:51.984Z</time>
      </trkpt>
      <trkpt lat="51.84614" lon="6.15807">
        <ele>63.616603</ele>
        <time>2026-05-07T09:52:54.981Z</time>
      </trkpt>
      <trkpt lat="51.84618" lon="6.15788">
        <ele>63.506354</ele>
        <time>2026-05-07T09:52:57.977Z</time>
      </trkpt>
      <trkpt lat="51.84623" lon="6.15769">
        <ele>63.398406</ele>
        <time>2026-05-07T09:53:00.986Z</time>
      </trkpt>
      <trkpt lat="51.84626" lon="6.1575">
        <ele>63.288427</ele>
        <time>2026-05-07T09:53:03.992Z</time>
      </trkpt>
      <trkpt lat="51.8463" lon="6.15731">
        <ele>63.17921</ele>
        <time>2026-05-07T09:53:06.986Z</time>
      </trkpt>
      <trkpt lat="51.84634" lon="6.15712">
        <ele>63.068684</ele>
        <time>2026-05-07T09:53:09.982Z</time>
      </trkpt>
      <trkpt lat="51.84638" lon="6.15692">
        <ele>62.956585</ele>
        <time>2026-05-07T09:53:12.982Z</time>
      </trkpt>
      <trkpt lat="51.84641" lon="6.15672">
        <ele>62.845303</ele>
        <time>2026-05-07T09:53:15.979Z</time>
      </trkpt>
      <trkpt lat="51.84645" lon="6.15652">
        <ele>62.731685</ele>
        <time>2026-05-07T09:53:18.979Z</time>
      </trkpt>
      <trkpt lat="51.8465" lon="6.15633">
        <ele>62.619564</ele>
        <time>2026-05-07T09:53:21.984Z</time>
      </trkpt>
      <trkpt lat="51.84653" lon="6.15613">
        <ele>62.537213</ele>
        <time>2026-05-07T09:53:24.980Z</time>
      </trkpt>
      <trkpt lat="51.84657" lon="6.15594">
        <ele>62.577758</ele>
        <time>2026-05-07T09:53:27.982Z</time>
      </trkpt>
      <trkpt lat="51.84661" lon="6.15575">
        <ele>62.616801</ele>
        <time>2026-05-07T09:53:30.982Z</time>
      </trkpt>
      <trkpt lat="51.84665" lon="6.15556">
        <ele>62.656684</ele>
        <time>2026-05-07T09:53:33.987Z</time>
      </trkpt>
      <trkpt lat="51.8467" lon="6.15536">
        <ele>62.697676</ele>
        <time>2026-05-07T09:53:36.988Z</time>
      </trkpt>
      <trkpt lat="51.84674" lon="6.15518">
        <ele>62.73621</ele>
        <time>2026-05-07T09:53:39.987Z</time>
      </trkpt>
      <trkpt lat="51.84679" lon="6.155">
        <ele>62.776028</ele>
        <time>2026-05-07T09:53:42.988Z</time>
      </trkpt>
      <trkpt lat="51.84684" lon="6.15482">
        <ele>62.814264</ele>
        <time>2026-05-07T09:53:45.975Z</time>
      </trkpt>
      <trkpt lat="51.84688" lon="6.15464">
        <ele>62.852663</ele>
        <time>2026-05-07T09:53:48.982Z</time>
      </trkpt>
      <trkpt lat="51.84692" lon="6.15445">
        <ele>62.891519</ele>
        <time>2026-05-07T09:53:51.981Z</time>
      </trkpt>
      <trkpt lat="51.84695" lon="6.15428">
        <ele>62.928092</ele>
        <time>2026-05-07T09:53:54.976Z</time>
      </trkpt>
      <trkpt lat="51.84699" lon="6.15411">
        <ele>62.963914</ele>
        <time>2026-05-07T09:53:57.979Z</time>
      </trkpt>
      <trkpt lat="51.84703" lon="6.15392">
        <ele>63.001816</ele>
        <time>2026-05-07T09:54:00.986Z</time>
      </trkpt>
      <trkpt lat="51.84706" lon="6.15373">
        <ele>63.040946</ele>
        <time>2026-05-07T09:54:03.986Z</time>
      </trkpt>
      <trkpt lat="51.8471" lon="6.15355">
        <ele>63.079977</ele>
        <time>2026-05-07T09:54:06.985Z</time>
      </trkpt>
      <trkpt lat="51.84713" lon="6.15336">
        <ele>63.081194</ele>
        <time>2026-05-07T09:54:09.976Z</time>
      </trkpt>
      <trkpt lat="51.84717" lon="6.15318">
        <ele>63.01502</ele>
        <time>2026-05-07T09:54:12.989Z</time>
      </trkpt>
      <trkpt lat="51.8472" lon="6.153">
        <ele>62.947389</ele>
        <time>2026-05-07T09:54:15.976Z</time>
      </trkpt>
      <trkpt lat="51.84724" lon="6.15281">
        <ele>62.876373</ele>
        <time>2026-05-07T09:54:18.986Z</time>
      </trkpt>
      <trkpt lat="51.84728" lon="6.15262">
        <ele>62.807222</ele>
        <time>2026-05-07T09:54:21.982Z</time>
      </trkpt>
      <trkpt lat="51.84731" lon="6.15243">
        <ele>62.738394</ele>
        <time>2026-05-07T09:54:24.984Z</time>
      </trkpt>
      <trkpt lat="51.84735" lon="6.15225">
        <ele>62.669911</ele>
        <time>2026-05-07T09:54:27.983Z</time>
      </trkpt>
      <trkpt lat="51.84738" lon="6.15206">
        <ele>62.599565</ele>
        <time>2026-05-07T09:54:30.986Z</time>
      </trkpt>
      <trkpt lat="51.84742" lon="6.15187">
        <ele>62.528672</ele>
        <time>2026-05-07T09:54:33.988Z</time>
      </trkpt>
      <trkpt lat="51.84746" lon="6.15169">
        <ele>62.459305</ele>
        <time>2026-05-07T09:54:36.983Z</time>
      </trkpt>
      <trkpt lat="51.84751" lon="6.1515">
        <ele>62.38861</ele>
        <time>2026-05-07T09:54:39.977Z</time>
      </trkpt>
      <trkpt lat="51.84755" lon="6.15131">
        <ele>62.317993</ele>
        <time>2026-05-07T09:54:42.986Z</time>
      </trkpt>
      <trkpt lat="51.8476" lon="6.15113">
        <ele>62.2475</ele>
        <time>2026-05-07T09:54:45.983Z</time>
      </trkpt>
      <trkpt lat="51.84765" lon="6.15096">
        <ele>62.179411</ele>
        <time>2026-05-07T09:54:48.988Z</time>
      </trkpt>
      <trkpt lat="51.84771" lon="6.15078">
        <ele>62.110181</ele>
        <time>2026-05-07T09:54:51.983Z</time>
      </trkpt>
      <trkpt lat="51.84777" lon="6.15062">
        <ele>62.076293</ele>
        <time>2026-05-07T09:54:54.984Z</time>
      </trkpt>
      <trkpt lat="51.84785" lon="6.15046">
        <ele>62.079717</ele>
        <time>2026-05-07T09:54:57.980Z</time>
      </trkpt>
      <trkpt lat="51.84793" lon="6.1503">
        <ele>62.08324</ele>
        <time>2026-05-07T09:55:00.989Z</time>
      </trkpt>
      <trkpt lat="51.84802" lon="6.15016">
        <ele>62.086751</ele>
        <time>2026-05-07T09:55:03.984Z</time>
      </trkpt>
      <trkpt lat="51.84811" lon="6.15001">
        <ele>62.090282</ele>
        <time>2026-05-07T09:55:06.988Z</time>
      </trkpt>
      <trkpt lat="51.84821" lon="6.14988">
        <ele>62.093781</ele>
        <time>2026-05-07T09:55:09.988Z</time>
      </trkpt>
      <trkpt lat="51.8483" lon="6.14976">
        <ele>62.097151</ele>
        <time>2026-05-07T09:55:12.981Z</time>
      </trkpt>
      <trkpt lat="51.8484" lon="6.14964">
        <ele>62.100448</ele>
        <time>2026-05-07T09:55:15.984Z</time>
      </trkpt>
      <trkpt lat="51.84849" lon="6.14951">
        <ele>62.10385</ele>
        <time>2026-05-07T09:55:18.980Z</time>
      </trkpt>
      <trkpt lat="51.84859" lon="6.14939">
        <ele>62.107296</ele>
        <time>2026-05-07T09:55:21.975Z</time>
      </trkpt>
      <trkpt lat="51.84869" lon="6.14926">
        <ele>62.110753</ele>
        <time>2026-05-07T09:55:24.983Z</time>
      </trkpt>
      <trkpt lat="51.84878" lon="6.14913">
        <ele>62.114084</ele>
        <time>2026-05-07T09:55:27.983Z</time>
      </trkpt>
      <trkpt lat="51.84887" lon="6.14901">
        <ele>62.117411</ele>
        <time>2026-05-07T09:55:30.985Z</time>
      </trkpt>
      <trkpt lat="51.84896" lon="6.14889">
        <ele>62.120427</ele>
        <time>2026-05-07T09:55:33.979Z</time>
      </trkpt>
      <trkpt lat="51.84904" lon="6.14879">
        <ele>62.123455</ele>
        <time>2026-05-07T09:55:36.982Z</time>
      </trkpt>
      <trkpt lat="51.84913" lon="6.14868">
        <ele>62.201684</ele>
        <time>2026-05-07T09:55:39.971Z</time>
      </trkpt>
      <trkpt lat="51.8492" lon="6.14857">
        <ele>62.305206</ele>
        <time>2026-05-07T09:55:42.986Z</time>
      </trkpt>
      <trkpt lat="51.84928" lon="6.14846">
        <ele>62.412062</ele>
        <time>2026-05-07T09:55:45.977Z</time>
      </trkpt>
      <trkpt lat="51.84936" lon="6.14835">
        <ele>62.523093</ele>
        <time>2026-05-07T09:55:48.990Z</time>
      </trkpt>
      <trkpt lat="51.84945" lon="6.14824">
        <ele>62.636123</ele>
        <time>2026-05-07T09:55:51.994Z</time>
      </trkpt>
      <trkpt lat="51.84953" lon="6.14811">
        <ele>62.754045</ele>
        <time>2026-05-07T09:55:54.977Z</time>
      </trkpt>
      <trkpt lat="51.84962" lon="6.14799">
        <ele>62.869881</ele>
        <time>2026-05-07T09:55:57.974Z</time>
      </trkpt>
      <trkpt lat="51.8497" lon="6.14787">
        <ele>62.983804</ele>
        <time>2026-05-07T09:56:00.976Z</time>
      </trkpt>
      <trkpt lat="51.84978" lon="6.14776">
        <ele>63.096833</ele>
        <time>2026-05-07T09:56:03.976Z</time>
      </trkpt>
      <trkpt lat="51.84987" lon="6.14765">
        <ele>63.207945</ele>
        <time>2026-05-07T09:56:06.973Z</time>
      </trkpt>
      <trkpt lat="51.84997" lon="6.14768">
        <ele>63.319267</ele>
        <time>2026-05-07T09:56:10.978Z</time>
      </trkpt>
      <trkpt lat="51.85004" lon="6.14781">
        <ele>63.429084</ele>
        <time>2026-05-07T09:56:14.978Z</time>
      </trkpt>
      <trkpt lat="51.85009" lon="6.14794">
        <ele>63.525081</ele>
        <time>2026-05-07T09:56:21.977Z</time>
      </trkpt>
      <trkpt lat="51.85008" lon="6.14779">
        <ele>63.62321</ele>
        <time>2026-05-07T09:56:31.981Z</time>
      </trkpt>
      <trkpt lat="51.85003" lon="6.14766">
        <ele>63.719218</ele>
        <time>2026-05-07T09:56:45.971Z</time>
      </trkpt>
      <trkpt lat="51.85003" lon="6.14748">
        <ele>63.832021</ele>
        <time>2026-05-07T09:56:54.986Z</time>
      </trkpt>
      <trkpt lat="51.85009" lon="6.14738">
        <ele>63.925731</ele>
        <time>2026-05-07T09:56:57.980Z</time>
      </trkpt>
      <trkpt lat="51.85017" lon="6.14727">
        <ele>63.931705</ele>
        <time>2026-05-07T09:57:00.977Z</time>
      </trkpt>
      <trkpt lat="51.85025" lon="6.14717">
        <ele>63.831646</ele>
        <time>2026-05-07T09:57:03.977Z</time>
      </trkpt>
      <trkpt lat="51.85033" lon="6.14704">
        <ele>63.722023</ele>
        <time>2026-05-07T09:57:06.972Z</time>
      </trkpt>
      <trkpt lat="51.85043" lon="6.14692">
        <ele>63.604666</ele>
        <time>2026-05-07T09:57:09.985Z</time>
      </trkpt>
      <trkpt lat="51.85053" lon="6.14679">
        <ele>63.481668</ele>
        <time>2026-05-07T09:57:12.978Z</time>
      </trkpt>
      <trkpt lat="51.85063" lon="6.14666">
        <ele>63.357536</ele>
        <time>2026-05-07T09:57:15.988Z</time>
      </trkpt>
      <trkpt lat="51.85072" lon="6.14652">
        <ele>63.233731</ele>
        <time>2026-05-07T09:57:18.985Z</time>
      </trkpt>
      <trkpt lat="51.85082" lon="6.14639">
        <ele>63.109871</ele>
        <time>2026-05-07T09:57:21.986Z</time>
      </trkpt>
      <trkpt lat="51.85091" lon="6.14625">
        <ele>62.984818</ele>
        <time>2026-05-07T09:57:24.968Z</time>
      </trkpt>
      <trkpt lat="51.85101" lon="6.14611">
        <ele>62.860665</ele>
        <time>2026-05-07T09:57:27.980Z</time>
      </trkpt>
      <trkpt lat="51.85111" lon="6.14598">
        <ele>62.740675</ele>
        <time>2026-05-07T09:57:30.988Z</time>
      </trkpt>
      <trkpt lat="51.85121" lon="6.14585">
        <ele>62.613528</ele>
        <time>2026-05-07T09:57:33.976Z</time>
      </trkpt>
      <trkpt lat="51.85131" lon="6.14571">
        <ele>62.486382</ele>
        <time>2026-05-07T09:57:36.979Z</time>
      </trkpt>
      <trkpt lat="51.85141" lon="6.14557">
        <ele>62.358035</ele>
        <time>2026-05-07T09:57:39.985Z</time>
      </trkpt>
      <trkpt lat="51.85151" lon="6.14544">
        <ele>62.238203</ele>
        <time>2026-05-07T09:57:42.980Z</time>
      </trkpt>
      <trkpt lat="51.8516" lon="6.14531">
        <ele>62.23171</ele>
        <time>2026-05-07T09:57:45.978Z</time>
      </trkpt>
      <trkpt lat="51.8517" lon="6.14519">
        <ele>62.225256</ele>
        <time>2026-05-07T09:57:48.980Z</time>
      </trkpt>
      <trkpt lat="51.85179" lon="6.14506">
        <ele>62.218857</ele>
        <time>2026-05-07T09:57:51.986Z</time>
      </trkpt>
      <trkpt lat="51.85188" lon="6.14491">
        <ele>62.21206</ele>
        <time>2026-05-07T09:57:54.981Z</time>
      </trkpt>
      <trkpt lat="51.85195" lon="6.14476">
        <ele>62.205646</ele>
        <time>2026-05-07T09:57:57.978Z</time>
      </trkpt>
      <trkpt lat="51.85202" lon="6.1446">
        <ele>62.199212</ele>
        <time>2026-05-07T09:58:00.988Z</time>
      </trkpt>
      <trkpt lat="51.85209" lon="6.14443">
        <ele>62.192592</ele>
        <time>2026-05-07T09:58:03.974Z</time>
      </trkpt>
      <trkpt lat="51.85215" lon="6.14426">
        <ele>62.186102</ele>
        <time>2026-05-07T09:58:06.977Z</time>
      </trkpt>
      <trkpt lat="51.85219" lon="6.14408">
        <ele>62.179526</ele>
        <time>2026-05-07T09:58:09.986Z</time>
      </trkpt>
      <trkpt lat="51.85223" lon="6.14388">
        <ele>62.172847</ele>
        <time>2026-05-07T09:58:12.983Z</time>
      </trkpt>
      <trkpt lat="51.85226" lon="6.14369">
        <ele>62.166234</ele>
        <time>2026-05-07T09:58:15.985Z</time>
      </trkpt>
      <trkpt lat="51.85228" lon="6.14349">
        <ele>62.159763</ele>
        <time>2026-05-07T09:58:18.983Z</time>
      </trkpt>
      <trkpt lat="51.8523" lon="6.1433">
        <ele>62.15327</ele>
        <time>2026-05-07T09:58:21.986Z</time>
      </trkpt>
      <trkpt lat="51.85231" lon="6.1431">
        <ele>62.146759</ele>
        <time>2026-05-07T09:58:24.981Z</time>
      </trkpt>
      <trkpt lat="51.85232" lon="6.14291">
        <ele>62.117211</ele>
        <time>2026-05-07T09:58:27.976Z</time>
      </trkpt>
      <trkpt lat="51.85234" lon="6.14271">
        <ele>62.043354</ele>
        <time>2026-05-07T09:58:30.986Z</time>
      </trkpt>
      <trkpt lat="51.85235" lon="6.14251">
        <ele>61.96854</ele>
        <time>2026-05-07T09:58:33.978Z</time>
      </trkpt>
      <trkpt lat="51.85237" lon="6.14233">
        <ele>61.897448</ele>
        <time>2026-05-07T09:58:36.974Z</time>
      </trkpt>
      <trkpt lat="51.85238" lon="6.14213">
        <ele>61.822186</ele>
        <time>2026-05-07T09:58:39.978Z</time>
      </trkpt>
      <trkpt lat="51.8524" lon="6.14194">
        <ele>61.750121</ele>
        <time>2026-05-07T09:58:42.987Z</time>
      </trkpt>
      <trkpt lat="51.85241" lon="6.14175">
        <ele>61.680944</ele>
        <time>2026-05-07T09:58:45.987Z</time>
      </trkpt>
      <trkpt lat="51.85241" lon="6.14158">
        <ele>61.615267</ele>
        <time>2026-05-07T09:58:48.984Z</time>
      </trkpt>
      <trkpt lat="51.85242" lon="6.14142">
        <ele>61.555439</ele>
        <time>2026-05-07T09:58:51.978Z</time>
      </trkpt>
      <trkpt lat="51.85243" lon="6.14125">
        <ele>61.492944</ele>
        <time>2026-05-07T09:58:54.969Z</time>
      </trkpt>
      <trkpt lat="51.85244" lon="6.14107">
        <ele>61.425539</ele>
        <time>2026-05-07T09:58:57.967Z</time>
      </trkpt>
      <trkpt lat="51.85244" lon="6.1409">
        <ele>61.360556</ele>
        <time>2026-05-07T09:59:00.980Z</time>
      </trkpt>
      <trkpt lat="51.85244" lon="6.14074">
        <ele>61.300538</ele>
        <time>2026-05-07T09:59:03.980Z</time>
      </trkpt>
      <trkpt lat="51.85248" lon="6.14059">
        <ele>61.240614</ele>
        <time>2026-05-07T09:59:07.979Z</time>
      </trkpt>
      <trkpt lat="51.85261" lon="6.14055">
        <ele>61.161669</ele>
        <time>2026-05-07T09:59:11.988Z</time>
      </trkpt>
      <trkpt lat="51.85271" lon="6.14054">
        <ele>61.099602</ele>
        <time>2026-05-07T09:59:13.984Z</time>
      </trkpt>
      <trkpt lat="51.85283" lon="6.14053">
        <ele>61.022188</ele>
        <time>2026-05-07T09:59:15.989Z</time>
      </trkpt>
      <trkpt lat="51.85295" lon="6.14051">
        <ele>60.932206</ele>
        <time>2026-05-07T09:59:17.982Z</time>
      </trkpt>
      <trkpt lat="51.85306" lon="6.14051">
        <ele>60.853288</ele>
        <time>2026-05-07T09:59:19.981Z</time>
      </trkpt>
      <trkpt lat="51.85317" lon="6.14049">
        <ele>60.778428</ele>
        <time>2026-05-07T09:59:21.977Z</time>
      </trkpt>
      <trkpt lat="51.85326" lon="6.14047">
        <ele>60.712666</ele>
        <time>2026-05-07T09:59:23.972Z</time>
      </trkpt>
      <trkpt lat="51.85336" lon="6.14045">
        <ele>60.640922</ele>
        <time>2026-05-07T09:59:26.984Z</time>
      </trkpt>
      <trkpt lat="51.8534" lon="6.14032">
        <ele>60.575324</ele>
        <time>2026-05-07T09:59:30.976Z</time>
      </trkpt>
      <trkpt lat="51.85339" lon="6.14015">
        <ele>60.497454</ele>
        <time>2026-05-07T09:59:33.980Z</time>
      </trkpt>
      <trkpt lat="51.85338" lon="6.13999">
        <ele>60.424828</ele>
        <time>2026-05-07T09:59:35.981Z</time>
      </trkpt>
      <trkpt lat="51.85333" lon="6.13983">
        <ele>60.344906</ele>
        <time>2026-05-07T09:59:37.989Z</time>
      </trkpt>
      <trkpt lat="51.85325" lon="6.13972">
        <ele>60.271585</ele>
        <time>2026-05-07T09:59:39.994Z</time>
      </trkpt>
      <trkpt lat="51.85313" lon="6.13972">
        <ele>60.189809</ele>
        <time>2026-05-07T09:59:41.981Z</time>
      </trkpt>
      <trkpt lat="51.85302" lon="6.13975">
        <ele>60.108056</ele>
        <time>2026-05-07T09:59:43.983Z</time>
      </trkpt>
      <trkpt lat="51.85291" lon="6.13977">
        <ele>60.025472</ele>
        <time>2026-05-07T09:59:45.978Z</time>
      </trkpt>
      <trkpt lat="51.8528" lon="6.13979">
        <ele>59.95177</ele>
        <time>2026-05-07T09:59:47.975Z</time>
      </trkpt>
      <trkpt lat="51.85272" lon="6.13969">
        <ele>59.875873</ele>
        <time>2026-05-07T09:59:50.981Z</time>
      </trkpt>
      <trkpt lat="51.85271" lon="6.13949">
        <ele>59.786324</ele>
        <time>2026-05-07T09:59:53.990Z</time>
      </trkpt>
      <trkpt lat="51.85271" lon="6.13927">
        <ele>59.651435</ele>
        <time>2026-05-07T09:59:56.971Z</time>
      </trkpt>
      <trkpt lat="51.85271" lon="6.13911">
        <ele>59.543351</ele>
        <time>2026-05-07T09:59:58.985Z</time>
      </trkpt>
      <trkpt lat="51.8527" lon="6.13895">
        <ele>59.434072</ele>
        <time>2026-05-07T10:00:00.976Z</time>
      </trkpt>
      <trkpt lat="51.85269" lon="6.13879">
        <ele>59.323995</ele>
        <time>2026-05-07T10:00:02.985Z</time>
      </trkpt>
      <trkpt lat="51.85268" lon="6.13864">
        <ele>59.217718</ele>
        <time>2026-05-07T10:00:04.972Z</time>
      </trkpt>
      <trkpt lat="51.85267" lon="6.13849">
        <ele>59.115622</ele>
        <time>2026-05-07T10:00:06.983Z</time>
      </trkpt>
      <trkpt lat="51.85266" lon="6.13834">
        <ele>59.011215</ele>
        <time>2026-05-07T10:00:08.974Z</time>
      </trkpt>
      <trkpt lat="51.85265" lon="6.13819">
        <ele>58.906808</ele>
        <time>2026-05-07T10:00:10.985Z</time>
      </trkpt>
      <trkpt lat="51.85264" lon="6.13803">
        <ele>58.801225</ele>
        <time>2026-05-07T10:00:12.985Z</time>
      </trkpt>
      <trkpt lat="51.85264" lon="6.13788">
        <ele>58.694278</ele>
        <time>2026-05-07T10:00:14.987Z</time>
      </trkpt>
      <trkpt lat="51.85263" lon="6.13772">
        <ele>58.58543</ele>
        <time>2026-05-07T10:00:16.979Z</time>
      </trkpt>
      <trkpt lat="51.85262" lon="6.13756">
        <ele>58.477619</ele>
        <time>2026-05-07T10:00:18.970Z</time>
      </trkpt>
      <trkpt lat="51.85261" lon="6.13741">
        <ele>58.373893</ele>
        <time>2026-05-07T10:00:20.991Z</time>
      </trkpt>
      <trkpt lat="51.8526" lon="6.13726">
        <ele>58.268805</ele>
        <time>2026-05-07T10:00:22.982Z</time>
      </trkpt>
      <trkpt lat="51.85259" lon="6.13711">
        <ele>58.164966</ele>
        <time>2026-05-07T10:00:24.984Z</time>
      </trkpt>
      <trkpt lat="51.85258" lon="6.13696">
        <ele>58.062792</ele>
        <time>2026-05-07T10:00:26.974Z</time>
      </trkpt>
      <trkpt lat="51.85258" lon="6.13681">
        <ele>57.96206</ele>
        <time>2026-05-07T10:00:28.971Z</time>
      </trkpt>
      <trkpt lat="51.85256" lon="6.1366">
        <ele>57.813867</ele>
        <time>2026-05-07T10:00:31.994Z</time>
      </trkpt>
      <trkpt lat="51.85255" lon="6.13639">
        <ele>57.711167</ele>
        <time>2026-05-07T10:00:34.982Z</time>
      </trkpt>
      <trkpt lat="51.85253" lon="6.13618">
        <ele>57.626175</ele>
        <time>2026-05-07T10:00:37.966Z</time>
      </trkpt>
      <trkpt lat="51.85249" lon="6.13563">
        <ele>57.402422</ele>
        <time>2026-05-07T10:03:38.988Z</time>
      </trkpt>
      <trkpt lat="51.85248" lon="6.13544">
        <ele>57.325311</ele>
        <time>2026-05-07T10:03:41.969Z</time>
      </trkpt>
      <trkpt lat="51.85247" lon="6.13524">
        <ele>57.242152</ele>
        <time>2026-05-07T10:03:44.977Z</time>
      </trkpt>
      <trkpt lat="51.85245" lon="6.13503">
        <ele>57.157159</ele>
        <time>2026-05-07T10:03:47.983Z</time>
      </trkpt>
      <trkpt lat="51.85243" lon="6.13483">
        <ele>57.074099</ele>
        <time>2026-05-07T10:03:50.984Z</time>
      </trkpt>
      <trkpt lat="51.85241" lon="6.13462">
        <ele>56.988038</ele>
        <time>2026-05-07T10:03:53.980Z</time>
      </trkpt>
      <trkpt lat="51.8524" lon="6.13441">
        <ele>56.900845</ele>
        <time>2026-05-07T10:03:56.985Z</time>
      </trkpt>
      <trkpt lat="51.85239" lon="6.13426">
        <ele>56.841753</ele>
        <time>2026-05-07T10:03:58.987Z</time>
      </trkpt>
      <trkpt lat="51.85238" lon="6.13411">
        <ele>56.781047</ele>
        <time>2026-05-07T10:04:00.983Z</time>
      </trkpt>
      <trkpt lat="51.85237" lon="6.1339">
        <ele>56.694257</ele>
        <time>2026-05-07T10:04:03.967Z</time>
      </trkpt>
      <trkpt lat="51.85235" lon="6.13368">
        <ele>56.60612</ele>
        <time>2026-05-07T10:04:06.989Z</time>
      </trkpt>
      <trkpt lat="51.85234" lon="6.13347">
        <ele>56.953701</ele>
        <time>2026-05-07T10:04:09.985Z</time>
      </trkpt>
      <trkpt lat="51.85232" lon="6.13326">
        <ele>57.398143</ele>
        <time>2026-05-07T10:04:12.985Z</time>
      </trkpt>
      <trkpt lat="51.85231" lon="6.13305">
        <ele>57.851815</ele>
        <time>2026-05-07T10:04:15.979Z</time>
      </trkpt>
      <trkpt lat="51.8523" lon="6.1329">
        <ele>58.162133</ele>
        <time>2026-05-07T10:04:17.974Z</time>
      </trkpt>
      <trkpt lat="51.85228" lon="6.13269">
        <ele>58.614129</ele>
        <time>2026-05-07T10:04:20.981Z</time>
      </trkpt>
      <trkpt lat="51.85226" lon="6.13248">
        <ele>59.064964</ele>
        <time>2026-05-07T10:04:23.986Z</time>
      </trkpt>
      <trkpt lat="51.85224" lon="6.13229">
        <ele>59.484299</ele>
        <time>2026-05-07T10:04:26.981Z</time>
      </trkpt>
      <trkpt lat="51.85226" lon="6.13212">
        <ele>59.851176</ele>
        <time>2026-05-07T10:04:29.976Z</time>
      </trkpt>
      <trkpt lat="51.85234" lon="6.13206">
        <ele>60.172378</ele>
        <time>2026-05-07T10:04:32.984Z</time>
      </trkpt>
      <trkpt lat="51.85247" lon="6.13207">
        <ele>60.606697</ele>
        <time>2026-05-07T10:04:35.992Z</time>
      </trkpt>
      <trkpt lat="51.85256" lon="6.13209">
        <ele>60.935621</ele>
        <time>2026-05-07T10:04:37.973Z</time>
      </trkpt>
      <trkpt lat="51.85268" lon="6.13209">
        <ele>61.344986</ele>
        <time>2026-05-07T10:04:40.982Z</time>
      </trkpt>
      <trkpt lat="51.85281" lon="6.13207">
        <ele>61.773734</ele>
        <time>2026-05-07T10:04:43.983Z</time>
      </trkpt>
      <trkpt lat="51.85292" lon="6.13205">
        <ele>62.169067</ele>
        <time>2026-05-07T10:04:46.984Z</time>
      </trkpt>
      <trkpt lat="51.85303" lon="6.13201">
        <ele>62.546238</ele>
        <time>2026-05-07T10:04:49.986Z</time>
      </trkpt>
      <trkpt lat="51.85306" lon="6.13187">
        <ele>62.813063</ele>
        <time>2026-05-07T10:04:53.983Z</time>
      </trkpt>
      <trkpt lat="51.85309" lon="6.13173">
        <ele>62.953782</ele>
        <time>2026-05-07T10:04:58.984Z</time>
      </trkpt>
      <trkpt lat="51.85321" lon="6.13174">
        <ele>63.128054</ele>
        <time>2026-05-07T10:05:02.978Z</time>
      </trkpt>
      <trkpt lat="51.8533" lon="6.13172">
        <ele>63.269891</ele>
        <time>2026-05-07T10:05:05.989Z</time>
      </trkpt>
      <trkpt lat="51.85339" lon="6.1317">
        <ele>63.409666</ele>
        <time>2026-05-07T10:05:08.977Z</time>
      </trkpt>
      <trkpt lat="51.85349" lon="6.13163">
        <ele>63.566886</ele>
        <time>2026-05-07T10:05:11.985Z</time>
      </trkpt>
      <trkpt lat="51.85357" lon="6.13157">
        <ele>63.70907</ele>
        <time>2026-05-07T10:05:14.985Z</time>
      </trkpt>
      <trkpt lat="51.85365" lon="6.13146">
        <ele>63.863446</ele>
        <time>2026-05-07T10:05:17.979Z</time>
      </trkpt>
      <trkpt lat="51.85372" lon="6.13132">
        <ele>64.035535</ele>
        <time>2026-05-07T10:05:20.986Z</time>
      </trkpt>
      <trkpt lat="51.85379" lon="6.13114">
        <ele>64.228951</ele>
        <time>2026-05-07T10:05:23.979Z</time>
      </trkpt>
      <trkpt lat="51.85383" lon="6.13097">
        <ele>64.404267</ele>
        <time>2026-05-07T10:05:26.978Z</time>
      </trkpt>
      <trkpt lat="51.85387" lon="6.13081">
        <ele>64.559511</ele>
        <time>2026-05-07T10:05:29.977Z</time>
      </trkpt>
      <trkpt lat="51.8539" lon="6.13067">
        <ele>64.705999</ele>
        <time>2026-05-07T10:05:32.989Z</time>
      </trkpt>
      <trkpt lat="51.85395" lon="6.13049">
        <ele>64.887069</ele>
        <time>2026-05-07T10:05:36.976Z</time>
      </trkpt>
      <trkpt lat="51.85396" lon="6.13034">
        <ele>65.026895</ele>
        <time>2026-05-07T10:05:48.974Z</time>
      </trkpt>
      <trkpt lat="51.85405" lon="6.12984">
        <ele>65.490749</ele>
        <time>2026-05-07T10:07:38.982Z</time>
      </trkpt>
      <trkpt lat="51.85409" lon="6.12967">
        <ele>65.389805</ele>
        <time>2026-05-07T10:07:41.977Z</time>
      </trkpt>
      <trkpt lat="51.85414" lon="6.1295">
        <ele>65.282391</ele>
        <time>2026-05-07T10:07:44.985Z</time>
      </trkpt>
      <trkpt lat="51.8542" lon="6.12932">
        <ele>65.166243</ele>
        <time>2026-05-07T10:07:47.987Z</time>
      </trkpt>
      <trkpt lat="51.85426" lon="6.1292">
        <ele>65.082971</ele>
        <time>2026-05-07T10:07:49.978Z</time>
      </trkpt>
      <trkpt lat="51.85435" lon="6.12905">
        <ele>64.965478</ele>
        <time>2026-05-07T10:07:52.978Z</time>
      </trkpt>
      <trkpt lat="51.85445" lon="6.12892">
        <ele>64.849798</ele>
        <time>2026-05-07T10:07:55.981Z</time>
      </trkpt>
      <trkpt lat="51.85456" lon="6.12879">
        <ele>64.728765</ele>
        <time>2026-05-07T10:07:58.974Z</time>
      </trkpt>
      <trkpt lat="51.85463" lon="6.1287">
        <ele>64.642973</ele>
        <time>2026-05-07T10:08:00.981Z</time>
      </trkpt>
      <trkpt lat="51.8547" lon="6.12861">
        <ele>64.559237</ele>
        <time>2026-05-07T10:08:02.982Z</time>
      </trkpt>
      <trkpt lat="51.85481" lon="6.12848">
        <ele>64.440023</ele>
        <time>2026-05-07T10:08:05.986Z</time>
      </trkpt>
      <trkpt lat="51.85489" lon="6.12835">
        <ele>64.335756</ele>
        <time>2026-05-07T10:08:08.969Z</time>
      </trkpt>
      <trkpt lat="51.85491" lon="6.12817">
        <ele>64.231791</ele>
        <time>2026-05-07T10:08:11.973Z</time>
      </trkpt>
      <trkpt lat="51.85489" lon="6.12796">
        <ele>64.113741</ele>
        <time>2026-05-07T10:08:14.977Z</time>
      </trkpt>
      <trkpt lat="51.85488" lon="6.12781">
        <ele>64.02978</ele>
        <time>2026-05-07T10:08:16.977Z</time>
      </trkpt>
      <trkpt lat="51.85485" lon="6.12766">
        <ele>63.943832</ele>
        <time>2026-05-07T10:08:18.977Z</time>
      </trkpt>
      <trkpt lat="51.85483" lon="6.12751">
        <ele>63.831868</ele>
        <time>2026-05-07T10:08:20.976Z</time>
      </trkpt>
      <trkpt lat="51.85482" lon="6.12736">
        <ele>63.563801</ele>
        <time>2026-05-07T10:08:22.985Z</time>
      </trkpt>
      <trkpt lat="51.85485" lon="6.12715">
        <ele>63.192589</ele>
        <time>2026-05-07T10:08:25.983Z</time>
      </trkpt>
      <trkpt lat="51.85489" lon="6.12702">
        <ele>62.934044</ele>
        <time>2026-05-07T10:08:27.983Z</time>
      </trkpt>
      <trkpt lat="51.85496" lon="6.1269">
        <ele>62.656216</ele>
        <time>2026-05-07T10:08:29.980Z</time>
      </trkpt>
      <trkpt lat="51.85502" lon="6.12678">
        <ele>62.381186</ele>
        <time>2026-05-07T10:08:31.975Z</time>
      </trkpt>
      <trkpt lat="51.85509" lon="6.12666">
        <ele>62.095742</ele>
        <time>2026-05-07T10:08:33.976Z</time>
      </trkpt>
      <trkpt lat="51.85518" lon="6.12655">
        <ele>61.783317</ele>
        <time>2026-05-07T10:08:35.991Z</time>
      </trkpt>
      <trkpt lat="51.85529" lon="6.12642">
        <ele>61.405391</ele>
        <time>2026-05-07T10:08:37.981Z</time>
      </trkpt>
      <trkpt lat="51.8554" lon="6.12627">
        <ele>60.989279</ele>
        <time>2026-05-07T10:08:39.980Z</time>
      </trkpt>
      <trkpt lat="51.85551" lon="6.12612">
        <ele>60.591659</ele>
        <time>2026-05-07T10:08:41.968Z</time>
      </trkpt>
      <trkpt lat="51.85561" lon="6.12598">
        <ele>60.213732</ele>
        <time>2026-05-07T10:08:43.980Z</time>
      </trkpt>
      <trkpt lat="51.85572" lon="6.12585">
        <ele>59.842405</ele>
        <time>2026-05-07T10:08:45.977Z</time>
      </trkpt>
      <trkpt lat="51.85582" lon="6.12572">
        <ele>59.483093</ele>
        <time>2026-05-07T10:08:47.969Z</time>
      </trkpt>
      <trkpt lat="51.85591" lon="6.12558">
        <ele>59.12589</ele>
        <time>2026-05-07T10:08:49.980Z</time>
      </trkpt>
      <trkpt lat="51.85601" lon="6.12546">
        <ele>58.81791</ele>
        <time>2026-05-07T10:08:51.991Z</time>
      </trkpt>
      <trkpt lat="51.8561" lon="6.12533">
        <ele>58.836027</ele>
        <time>2026-05-07T10:08:53.983Z</time>
      </trkpt>
      <trkpt lat="51.85619" lon="6.12522">
        <ele>58.853435</ele>
        <time>2026-05-07T10:08:55.978Z</time>
      </trkpt>
      <trkpt lat="51.85627" lon="6.12511">
        <ele>58.86977</ele>
        <time>2026-05-07T10:08:57.980Z</time>
      </trkpt>
      <trkpt lat="51.85635" lon="6.12499">
        <ele>58.886311</ele>
        <time>2026-05-07T10:08:59.986Z</time>
      </trkpt>
      <trkpt lat="51.85644" lon="6.12489">
        <ele>58.902467</ele>
        <time>2026-05-07T10:09:01.987Z</time>
      </trkpt>
      <trkpt lat="51.85652" lon="6.12479">
        <ele>58.917973</ele>
        <time>2026-05-07T10:09:03.986Z</time>
      </trkpt>
      <trkpt lat="51.85659" lon="6.12469">
        <ele>58.932892</ele>
        <time>2026-05-07T10:09:05.977Z</time>
      </trkpt>
      <trkpt lat="51.85667" lon="6.12461">
        <ele>58.94701</ele>
        <time>2026-05-07T10:09:07.986Z</time>
      </trkpt>
      <trkpt lat="51.85676" lon="6.12452">
        <ele>58.96256</ele>
        <time>2026-05-07T10:09:10.992Z</time>
      </trkpt>
      <trkpt lat="51.85678" lon="6.12435">
        <ele>58.978453</ele>
        <time>2026-05-07T10:09:15.977Z</time>
      </trkpt>
      <trkpt lat="51.85673" lon="6.12421">
        <ele>58.994139</ele>
        <time>2026-05-07T10:09:19.976Z</time>
      </trkpt>
      <trkpt lat="51.85668" lon="6.12409">
        <ele>59.008748</ele>
        <time>2026-05-07T10:09:23.992Z</time>
      </trkpt>
      <trkpt lat="51.8566" lon="6.12395">
        <ele>59.026199</ele>
        <time>2026-05-07T10:09:27.982Z</time>
      </trkpt>
      <trkpt lat="51.85653" lon="6.12384">
        <ele>59.040881</ele>
        <time>2026-05-07T10:09:30.971Z</time>
      </trkpt>
      <trkpt lat="51.85646" lon="6.12372">
        <ele>59.056956</ele>
        <time>2026-05-07T10:09:33.976Z</time>
      </trkpt>
      <trkpt lat="51.85638" lon="6.12359">
        <ele>59.074171</ele>
        <time>2026-05-07T10:09:36.985Z</time>
      </trkpt>
      <trkpt lat="51.8563" lon="6.12346">
        <ele>59.09006</ele>
        <time>2026-05-07T10:09:39.981Z</time>
      </trkpt>
      <trkpt lat="51.85623" lon="6.12331">
        <ele>59.0785</ele>
        <time>2026-05-07T10:09:42.974Z</time>
      </trkpt>
      <trkpt lat="51.85617" lon="6.12316">
        <ele>59.066926</ele>
        <time>2026-05-07T10:09:45.989Z</time>
      </trkpt>
      <trkpt lat="51.85611" lon="6.12298">
        <ele>59.054423</ele>
        <time>2026-05-07T10:09:48.983Z</time>
      </trkpt>
      <trkpt lat="51.85606" lon="6.12278">
        <ele>59.040765</ele>
        <time>2026-05-07T10:09:51.988Z</time>
      </trkpt>
      <trkpt lat="51.85601" lon="6.12259">
        <ele>59.027781</ele>
        <time>2026-05-07T10:09:54.987Z</time>
      </trkpt>
      <trkpt lat="51.85597" lon="6.12239">
        <ele>59.01493</ele>
        <time>2026-05-07T10:09:57.980Z</time>
      </trkpt>
      <trkpt lat="51.85592" lon="6.1222">
        <ele>59.002079</ele>
        <time>2026-05-07T10:10:00.993Z</time>
      </trkpt>
      <trkpt lat="51.85588" lon="6.122">
        <ele>58.988668</ele>
        <time>2026-05-07T10:10:03.994Z</time>
      </trkpt>
      <trkpt lat="51.85583" lon="6.12179">
        <ele>58.97504</ele>
        <time>2026-05-07T10:10:06.971Z</time>
      </trkpt>
      <trkpt lat="51.85581" lon="6.12165">
        <ele>58.965728</ele>
        <time>2026-05-07T10:10:08.993Z</time>
      </trkpt>
      <trkpt lat="51.85577" lon="6.12144">
        <ele>58.952008</ele>
        <time>2026-05-07T10:10:11.984Z</time>
      </trkpt>
      <trkpt lat="51.85576" lon="6.12129">
        <ele>58.942715</ele>
        <time>2026-05-07T10:10:13.983Z</time>
      </trkpt>
      <trkpt lat="51.85574" lon="6.12115">
        <ele>58.933315</ele>
        <time>2026-05-07T10:10:15.980Z</time>
      </trkpt>
      <trkpt lat="51.85572" lon="6.121">
        <ele>58.923758</ele>
        <time>2026-05-07T10:10:17.981Z</time>
      </trkpt>
      <trkpt lat="51.8557" lon="6.12084">
        <ele>58.913874</ele>
        <time>2026-05-07T10:10:19.982Z</time>
      </trkpt>
      <trkpt lat="51.85568" lon="6.12069">
        <ele>58.920843</ele>
        <time>2026-05-07T10:10:21.979Z</time>
      </trkpt>
      <trkpt lat="51.85566" lon="6.12054">
        <ele>58.95155</ele>
        <time>2026-05-07T10:10:23.977Z</time>
      </trkpt>
      <trkpt lat="51.85563" lon="6.12039">
        <ele>58.983583</ele>
        <time>2026-05-07T10:10:25.974Z</time>
      </trkpt>
      <trkpt lat="51.85561" lon="6.12023">
        <ele>59.015446</ele>
        <time>2026-05-07T10:10:27.989Z</time>
      </trkpt>
      <trkpt lat="51.85559" lon="6.12008">
        <ele>59.04715</ele>
        <time>2026-05-07T10:10:29.992Z</time>
      </trkpt>
      <trkpt lat="51.85556" lon="6.11993">
        <ele>59.078798</ele>
        <time>2026-05-07T10:10:31.980Z</time>
      </trkpt>
      <trkpt lat="51.85553" lon="6.11978">
        <ele>59.110552</ele>
        <time>2026-05-07T10:10:33.986Z</time>
      </trkpt>
      <trkpt lat="51.85551" lon="6.11963">
        <ele>59.141478</ele>
        <time>2026-05-07T10:10:35.985Z</time>
      </trkpt>
      <trkpt lat="51.85549" lon="6.11948">
        <ele>59.172017</ele>
        <time>2026-05-07T10:10:37.974Z</time>
      </trkpt>
      <trkpt lat="51.85546" lon="6.11932">
        <ele>59.203963</ele>
        <time>2026-05-07T10:10:39.983Z</time>
      </trkpt>
      <trkpt lat="51.85543" lon="6.11917">
        <ele>59.236279</ele>
        <time>2026-05-07T10:10:41.982Z</time>
      </trkpt>
      <trkpt lat="51.85541" lon="6.11902">
        <ele>59.267261</ele>
        <time>2026-05-07T10:10:43.989Z</time>
      </trkpt>
      <trkpt lat="51.85538" lon="6.11887">
        <ele>59.297474</ele>
        <time>2026-05-07T10:10:45.970Z</time>
      </trkpt>
      <trkpt lat="51.85535" lon="6.11872">
        <ele>59.32923</ele>
        <time>2026-05-07T10:10:47.983Z</time>
      </trkpt>
      <trkpt lat="51.85532" lon="6.11857">
        <ele>59.360879</ele>
        <time>2026-05-07T10:10:49.988Z</time>
      </trkpt>
      <trkpt lat="51.85529" lon="6.11842">
        <ele>59.39281</ele>
        <time>2026-05-07T10:10:51.988Z</time>
      </trkpt>
      <trkpt lat="51.85526" lon="6.11827">
        <ele>59.425536</ele>
        <time>2026-05-07T10:10:53.980Z</time>
      </trkpt>
      <trkpt lat="51.85523" lon="6.11811">
        <ele>59.45862</ele>
        <time>2026-05-07T10:10:55.982Z</time>
      </trkpt>
      <trkpt lat="51.85521" lon="6.11795">
        <ele>59.490567</ele>
        <time>2026-05-07T10:10:57.985Z</time>
      </trkpt>
      <trkpt lat="51.85518" lon="6.1178">
        <ele>59.46972</ele>
        <time>2026-05-07T10:10:59.989Z</time>
      </trkpt>
      <trkpt lat="51.85515" lon="6.11765">
        <ele>59.448613</ele>
        <time>2026-05-07T10:11:01.983Z</time>
      </trkpt>
      <trkpt lat="51.85512" lon="6.1175">
        <ele>59.427641</ele>
        <time>2026-05-07T10:11:03.981Z</time>
      </trkpt>
      <trkpt lat="51.85509" lon="6.11735">
        <ele>59.40641</ele>
        <time>2026-05-07T10:11:05.978Z</time>
      </trkpt>
      <trkpt lat="51.85507" lon="6.1172">
        <ele>59.385426</ele>
        <time>2026-05-07T10:11:08.009Z</time>
      </trkpt>
      <trkpt lat="51.85504" lon="6.11706">
        <ele>59.364964</ele>
        <time>2026-05-07T10:11:10.049Z</time>
      </trkpt>
      <trkpt lat="51.85502" lon="6.11691">
        <ele>59.344251</ele>
        <time>2026-05-07T10:11:11.966Z</time>
      </trkpt>
      <trkpt lat="51.85498" lon="6.11677">
        <ele>59.322926</ele>
        <time>2026-05-07T10:11:13.959Z</time>
      </trkpt>
      <trkpt lat="51.85494" lon="6.11662">
        <ele>59.301317</ele>
        <time>2026-05-07T10:11:15.972Z</time>
      </trkpt>
      <trkpt lat="51.8549" lon="6.11647">
        <ele>59.279337</ele>
        <time>2026-05-07T10:11:17.960Z</time>
      </trkpt>
      <trkpt lat="51.85486" lon="6.11633">
        <ele>59.258258</ele>
        <time>2026-05-07T10:11:19.963Z</time>
      </trkpt>
      <trkpt lat="51.85482" lon="6.11619">
        <ele>59.237062</ele>
        <time>2026-05-07T10:11:21.978Z</time>
      </trkpt>
      <trkpt lat="51.85478" lon="6.11605">
        <ele>59.216718</ele>
        <time>2026-05-07T10:11:23.980Z</time>
      </trkpt>
      <trkpt lat="51.85473" lon="6.11592">
        <ele>59.196762</ele>
        <time>2026-05-07T10:11:25.962Z</time>
      </trkpt>
      <trkpt lat="51.85469" lon="6.11578">
        <ele>59.175984</ele>
        <time>2026-05-07T10:11:28.015Z</time>
      </trkpt>
      <trkpt lat="51.85465" lon="6.11564">
        <ele>59.154188</ele>
        <time>2026-05-07T10:11:29.965Z</time>
      </trkpt>
      <trkpt lat="51.85461" lon="6.1155">
        <ele>59.133289</ele>
        <time>2026-05-07T10:11:32.063Z</time>
      </trkpt>
      <trkpt lat="51.85456" lon="6.11536">
        <ele>59.112413</ele>
        <time>2026-05-07T10:11:34.197Z</time>
      </trkpt>
      <trkpt lat="51.85452" lon="6.11522">
        <ele>59.09429</ele>
        <time>2026-05-07T10:11:35.986Z</time>
      </trkpt>
      <trkpt lat="51.85448" lon="6.11509">
        <ele>59.083906</ele>
        <time>2026-05-07T10:11:38.100Z</time>
      </trkpt>
      <trkpt lat="51.85443" lon="6.11495">
        <ele>59.073434</ele>
        <time>2026-05-07T10:11:39.998Z</time>
      </trkpt>
      <trkpt lat="51.85439" lon="6.11482">
        <ele>59.062627</ele>
        <time>2026-05-07T10:11:41.960Z</time>
      </trkpt>
      <trkpt lat="51.85434" lon="6.11467">
        <ele>59.051435</ele>
        <time>2026-05-07T10:11:43.976Z</time>
      </trkpt>
      <trkpt lat="51.8543" lon="6.11453">
        <ele>59.040439</ele>
        <time>2026-05-07T10:11:45.962Z</time>
      </trkpt>
      <trkpt lat="51.85425" lon="6.11439">
        <ele>59.029571</ele>
        <time>2026-05-07T10:11:47.981Z</time>
      </trkpt>
      <trkpt lat="51.85421" lon="6.11425">
        <ele>59.018914</ele>
        <time>2026-05-07T10:11:49.966Z</time>
      </trkpt>
      <trkpt lat="51.85416" lon="6.11412">
        <ele>59.008057</ele>
        <time>2026-05-07T10:11:51.970Z</time>
      </trkpt>
      <trkpt lat="51.85412" lon="6.11398">
        <ele>58.997263</ele>
        <time>2026-05-07T10:11:53.977Z</time>
      </trkpt>
      <trkpt lat="51.85408" lon="6.11384">
        <ele>58.986629</ele>
        <time>2026-05-07T10:11:55.989Z</time>
      </trkpt>
      <trkpt lat="51.85402" lon="6.11365">
        <ele>58.971542</ele>
        <time>2026-05-07T10:11:58.993Z</time>
      </trkpt>
      <trkpt lat="51.85396" lon="6.11345">
        <ele>58.95631</ele>
        <time>2026-05-07T10:12:01.977Z</time>
      </trkpt>
      <trkpt lat="51.8539" lon="6.11326">
        <ele>58.941634</ele>
        <time>2026-05-07T10:12:04.988Z</time>
      </trkpt>
      <trkpt lat="51.85384" lon="6.11307">
        <ele>58.926588</ele>
        <time>2026-05-07T10:12:07.985Z</time>
      </trkpt>
      <trkpt lat="51.85379" lon="6.11294">
        <ele>58.916198</ele>
        <time>2026-05-07T10:12:09.994Z</time>
      </trkpt>
      <trkpt lat="51.85375" lon="6.1128">
        <ele>58.905653</ele>
        <time>2026-05-07T10:12:11.970Z</time>
      </trkpt>
      <trkpt lat="51.85368" lon="6.11261">
        <ele>58.880001</ele>
        <time>2026-05-07T10:12:14.991Z</time>
      </trkpt>
      <trkpt lat="51.85363" lon="6.11248">
        <ele>58.848565</ele>
        <time>2026-05-07T10:12:16.968Z</time>
      </trkpt>
      <trkpt lat="51.85357" lon="6.11229">
        <ele>58.803392</ele>
        <time>2026-05-07T10:12:19.985Z</time>
      </trkpt>
      <trkpt lat="51.85353" lon="6.11216">
        <ele>58.772178</ele>
        <time>2026-05-07T10:12:21.985Z</time>
      </trkpt>
      <trkpt lat="51.85351" lon="6.11195">
        <ele>58.728651</ele>
        <time>2026-05-07T10:12:24.982Z</time>
      </trkpt>
      <trkpt lat="51.85352" lon="6.1118">
        <ele>58.695838</ele>
        <time>2026-05-07T10:12:26.998Z</time>
      </trkpt>
      <trkpt lat="51.85353" lon="6.11161">
        <ele>58.657358</ele>
        <time>2026-05-07T10:12:28.985Z</time>
      </trkpt>
      <trkpt lat="51.85354" lon="6.11141">
        <ele>58.615108</ele>
        <time>2026-05-07T10:12:30.981Z</time>
      </trkpt>
      <trkpt lat="51.85353" lon="6.11121">
        <ele>58.573118</ele>
        <time>2026-05-07T10:12:32.985Z</time>
      </trkpt>
      <trkpt lat="51.85352" lon="6.11102">
        <ele>58.533137</ele>
        <time>2026-05-07T10:12:34.975Z</time>
      </trkpt>
      <trkpt lat="51.85348" lon="6.11085">
        <ele>58.49497</ele>
        <time>2026-05-07T10:12:36.987Z</time>
      </trkpt>
      <trkpt lat="51.85341" lon="6.11068">
        <ele>58.454657</ele>
        <time>2026-05-07T10:12:38.995Z</time>
      </trkpt>
      <trkpt lat="51.85337" lon="6.11052">
        <ele>58.416965</ele>
        <time>2026-05-07T10:12:40.982Z</time>
      </trkpt>
      <trkpt lat="51.85336" lon="6.11035">
        <ele>58.381735</ele>
        <time>2026-05-07T10:12:42.993Z</time>
      </trkpt>
      <trkpt lat="51.85337" lon="6.1102">
        <ele>58.348998</ele>
        <time>2026-05-07T10:12:44.973Z</time>
      </trkpt>
      <trkpt lat="51.85338" lon="6.11005">
        <ele>58.317333</ele>
        <time>2026-05-07T10:12:46.979Z</time>
      </trkpt>
      <trkpt lat="51.85341" lon="6.10984">
        <ele>58.320451</ele>
        <time>2026-05-07T10:12:49.970Z</time>
      </trkpt>
      <trkpt lat="51.85343" lon="6.10965">
        <ele>58.411113</ele>
        <time>2026-05-07T10:12:52.984Z</time>
      </trkpt>
      <trkpt lat="51.85344" lon="6.10948">
        <ele>58.491812</ele>
        <time>2026-05-07T10:12:55.990Z</time>
      </trkpt>
      <trkpt lat="51.85337" lon="6.10937">
        <ele>58.569995</ele>
        <time>2026-05-07T10:12:58.979Z</time>
      </trkpt>
      <trkpt lat="51.85326" lon="6.10935">
        <ele>58.659211</ele>
        <time>2026-05-07T10:13:01.975Z</time>
      </trkpt>
      <trkpt lat="51.85313" lon="6.10932">
        <ele>58.753328</ele>
        <time>2026-05-07T10:13:04.972Z</time>
      </trkpt>
      <trkpt lat="51.85301" lon="6.10929">
        <ele>58.846443</ele>
        <time>2026-05-07T10:13:07.967Z</time>
      </trkpt>
      <trkpt lat="51.85291" lon="6.10926">
        <ele>58.928884</ele>
        <time>2026-05-07T10:13:10.988Z</time>
      </trkpt>
      <trkpt lat="51.8528" lon="6.10925">
        <ele>59.008069</ele>
        <time>2026-05-07T10:13:13.969Z</time>
      </trkpt>
      <trkpt lat="51.85276" lon="6.10911">
        <ele>59.083713</ele>
        <time>2026-05-07T10:13:17.984Z</time>
      </trkpt>
      <trkpt lat="51.85278" lon="6.10892">
        <ele>59.171269</ele>
        <time>2026-05-07T10:13:22.976Z</time>
      </trkpt>
      <trkpt lat="51.85275" lon="6.10875">
        <ele>59.25586</ele>
        <time>2026-05-07T10:13:26.976Z</time>
      </trkpt>
      <trkpt lat="51.85269" lon="6.10861">
        <ele>59.336698</ele>
        <time>2026-05-07T10:13:30.983Z</time>
      </trkpt>
      <trkpt lat="51.85258" lon="6.10852">
        <ele>59.425496</ele>
        <time>2026-05-07T10:13:34.980Z</time>
      </trkpt>
      <trkpt lat="51.85248" lon="6.10857">
        <ele>59.506179</ele>
        <time>2026-05-07T10:13:38.973Z</time>
      </trkpt>
      <trkpt lat="51.85237" lon="6.1086">
        <ele>59.594696</ele>
        <time>2026-05-07T10:13:42.980Z</time>
      </trkpt>
      <trkpt lat="51.85228" lon="6.10857">
        <ele>59.665479</ele>
        <time>2026-05-07T10:13:45.982Z</time>
      </trkpt>
      <trkpt lat="51.85218" lon="6.10855">
        <ele>59.743607</ele>
        <time>2026-05-07T10:13:48.986Z</time>
      </trkpt>
      <trkpt lat="51.85207" lon="6.10853">
        <ele>59.832079</ele>
        <time>2026-05-07T10:13:51.993Z</time>
      </trkpt>
      <trkpt lat="51.85196" lon="6.10851">
        <ele>59.915767</ele>
        <time>2026-05-07T10:13:54.981Z</time>
      </trkpt>
      <trkpt lat="51.85187" lon="6.10846">
        <ele>59.991778</ele>
        <time>2026-05-07T10:13:57.979Z</time>
      </trkpt>
      <trkpt lat="51.85177" lon="6.10843">
        <ele>60.072</ele>
        <time>2026-05-07T10:14:00.979Z</time>
      </trkpt>
      <trkpt lat="51.85167" lon="6.10838">
        <ele>60.152268</ele>
        <time>2026-05-07T10:14:03.983Z</time>
      </trkpt>
      <trkpt lat="51.85157" lon="6.10834">
        <ele>60.229647</ele>
        <time>2026-05-07T10:14:06.979Z</time>
      </trkpt>
      <trkpt lat="51.85148" lon="6.1083">
        <ele>60.304528</ele>
        <time>2026-05-07T10:14:09.976Z</time>
      </trkpt>
      <trkpt lat="51.85138" lon="6.10826">
        <ele>60.382914</ele>
        <time>2026-05-07T10:14:12.978Z</time>
      </trkpt>
      <trkpt lat="51.85129" lon="6.10824">
        <ele>60.458135</ele>
        <time>2026-05-07T10:14:15.987Z</time>
      </trkpt>
      <trkpt lat="51.8512" lon="6.10821">
        <ele>60.53259</ele>
        <time>2026-05-07T10:14:18.980Z</time>
      </trkpt>
      <trkpt lat="51.85109" lon="6.1082">
        <ele>60.618059</ele>
        <time>2026-05-07T10:14:21.983Z</time>
      </trkpt>
      <trkpt lat="51.85098" lon="6.1082">
        <ele>60.697936</ele>
        <time>2026-05-07T10:14:24.994Z</time>
      </trkpt>
      <trkpt lat="51.85088" lon="6.10821">
        <ele>60.778712</ele>
        <time>2026-05-07T10:14:27.986Z</time>
      </trkpt>
      <trkpt lat="51.85079" lon="6.10822">
        <ele>60.852003</ele>
        <time>2026-05-07T10:14:30.987Z</time>
      </trkpt>
      <trkpt lat="51.8507" lon="6.10826">
        <ele>60.925138</ele>
        <time>2026-05-07T10:14:34.990Z</time>
      </trkpt>
      <trkpt lat="51.85059" lon="6.10831">
        <ele>61.015109</ele>
        <time>2026-05-07T10:14:37.971Z</time>
      </trkpt>
      <trkpt lat="51.85048" lon="6.10835">
        <ele>61.123036</ele>
        <time>2026-05-07T10:14:40.982Z</time>
      </trkpt>
      <trkpt lat="51.85038" lon="6.10836">
        <ele>61.251396</ele>
        <time>2026-05-07T10:14:44.980Z</time>
      </trkpt>
      <trkpt lat="51.85033" lon="6.10823">
        <ele>61.379237</ele>
        <time>2026-05-07T10:14:48.980Z</time>
      </trkpt>
      <trkpt lat="51.85038" lon="6.10809">
        <ele>61.518276</ele>
        <time>2026-05-07T10:14:52.979Z</time>
      </trkpt>
      <trkpt lat="51.8504" lon="6.10794">
        <ele>61.642143</ele>
        <time>2026-05-07T10:14:55.974Z</time>
      </trkpt>
      <trkpt lat="51.8504" lon="6.10779">
        <ele>61.767455</ele>
        <time>2026-05-07T10:14:58.973Z</time>
      </trkpt>
      <trkpt lat="51.85038" lon="6.10764">
        <ele>61.892593</ele>
        <time>2026-05-07T10:15:01.989Z</time>
      </trkpt>
      <trkpt lat="51.85037" lon="6.10747">
        <ele>62.029694</ele>
        <time>2026-05-07T10:15:04.974Z</time>
      </trkpt>
      <trkpt lat="51.85038" lon="6.1073">
        <ele>62.17373</ele>
        <time>2026-05-07T10:15:07.975Z</time>
      </trkpt>
      <trkpt lat="51.8504" lon="6.10713">
        <ele>62.317463</ele>
        <time>2026-05-07T10:15:10.977Z</time>
      </trkpt>
      <trkpt lat="51.85043" lon="6.10695">
        <ele>62.466805</ele>
        <time>2026-05-07T10:15:13.977Z</time>
      </trkpt>
      <trkpt lat="51.85046" lon="6.10677">
        <ele>62.625595</ele>
        <time>2026-05-07T10:15:16.983Z</time>
      </trkpt>
      <trkpt lat="51.85049" lon="6.10659">
        <ele>62.773148</ele>
        <time>2026-05-07T10:15:19.983Z</time>
      </trkpt>
      <trkpt lat="51.85051" lon="6.10642">
        <ele>62.921424</ele>
        <time>2026-05-07T10:15:22.976Z</time>
      </trkpt>
      <trkpt lat="51.85053" lon="6.10624">
        <ele>63.066837</ele>
        <time>2026-05-07T10:15:25.973Z</time>
      </trkpt>
      <trkpt lat="51.85056" lon="6.10607">
        <ele>63.213792</ele>
        <time>2026-05-07T10:15:28.975Z</time>
      </trkpt>
      <trkpt lat="51.85059" lon="6.1059">
        <ele>63.36269</ele>
        <time>2026-05-07T10:15:31.978Z</time>
      </trkpt>
      <trkpt lat="51.85061" lon="6.10572">
        <ele>63.464067</ele>
        <time>2026-05-07T10:15:34.980Z</time>
      </trkpt>
      <trkpt lat="51.85064" lon="6.10554">
        <ele>63.439014</ele>
        <time>2026-05-07T10:15:37.984Z</time>
      </trkpt>
      <trkpt lat="51.85067" lon="6.10537">
        <ele>63.415694</ele>
        <time>2026-05-07T10:15:40.987Z</time>
      </trkpt>
      <trkpt lat="51.8507" lon="6.10519">
        <ele>63.391097</ele>
        <time>2026-05-07T10:15:43.990Z</time>
      </trkpt>
      <trkpt lat="51.85074" lon="6.10501">
        <ele>63.365999</ele>
        <time>2026-05-07T10:15:46.989Z</time>
      </trkpt>
      <trkpt lat="51.85074" lon="6.10483">
        <ele>63.341911</ele>
        <time>2026-05-07T10:15:49.988Z</time>
      </trkpt>
      <trkpt lat="51.85075" lon="6.10465">
        <ele>63.318307</ele>
        <time>2026-05-07T10:15:52.986Z</time>
      </trkpt>
      <trkpt lat="51.85075" lon="6.10448">
        <ele>63.295156</ele>
        <time>2026-05-07T10:15:55.971Z</time>
      </trkpt>
      <trkpt lat="51.85074" lon="6.1043">
        <ele>63.271334</ele>
        <time>2026-05-07T10:15:58.980Z</time>
      </trkpt>
      <trkpt lat="51.85074" lon="6.10411">
        <ele>63.246581</ele>
        <time>2026-05-07T10:16:01.978Z</time>
      </trkpt>
      <trkpt lat="51.85073" lon="6.10392">
        <ele>63.221296</ele>
        <time>2026-05-07T10:16:04.984Z</time>
      </trkpt>
      <trkpt lat="51.85072" lon="6.10373">
        <ele>63.195783</ele>
        <time>2026-05-07T10:16:07.988Z</time>
      </trkpt>
      <trkpt lat="51.85072" lon="6.10355">
        <ele>63.171044</ele>
        <time>2026-05-07T10:16:10.984Z</time>
      </trkpt>
      <trkpt lat="51.85071" lon="6.10337">
        <ele>63.147615</ele>
        <time>2026-05-07T10:16:13.982Z</time>
      </trkpt>
      <trkpt lat="51.85068" lon="6.10322">
        <ele>63.127028</ele>
        <time>2026-05-07T10:16:16.981Z</time>
      </trkpt>
      <trkpt lat="51.85067" lon="6.10308">
        <ele>63.107534</ele>
        <time>2026-05-07T10:16:19.990Z</time>
      </trkpt>
      <trkpt lat="51.85066" lon="6.10293">
        <ele>63.08782</ele>
        <time>2026-05-07T10:16:22.982Z</time>
      </trkpt>
      <trkpt lat="51.85066" lon="6.10275">
        <ele>63.015307</ele>
        <time>2026-05-07T10:16:26.998Z</time>
      </trkpt>
      <trkpt lat="51.85068" lon="6.10261">
        <ele>62.945831</ele>
        <time>2026-05-07T10:16:31.982Z</time>
      </trkpt>
      <trkpt lat="51.85071" lon="6.10245">
        <ele>62.869693</ele>
        <time>2026-05-07T10:17:06.992Z</time>
      </trkpt>
      <trkpt lat="51.85074" lon="6.10231">
        <ele>62.799012</ele>
        <time>2026-05-07T10:17:14.981Z</time>
      </trkpt>
      <trkpt lat="51.85077" lon="6.10216">
        <ele>62.726999</ele>
        <time>2026-05-07T10:17:22.980Z</time>
      </trkpt>
      <trkpt lat="51.85079" lon="6.10198">
        <ele>62.638327</ele>
        <time>2026-05-07T10:17:33.980Z</time>
      </trkpt>
      <trkpt lat="51.85083" lon="6.10183">
        <ele>62.56446</ele>
        <time>2026-05-07T10:17:44.975Z</time>
      </trkpt>
      <trkpt lat="51.85087" lon="6.10162">
        <ele>62.462128</ele>
        <time>2026-05-07T10:18:06.969Z</time>
      </trkpt>
      <trkpt lat="51.85096" lon="6.10118">
        <ele>62.248046</ele>
        <time>2026-05-07T10:18:51.989Z</time>
      </trkpt>
      <trkpt lat="51.85093" lon="6.10134">
        <ele>62.169785</ele>
        <time>2026-05-07T10:19:30.986Z</time>
      </trkpt>
      <trkpt lat="51.8509" lon="6.10149">
        <ele>62.098664</ele>
        <time>2026-05-07T10:19:41.981Z</time>
      </trkpt>
      <trkpt lat="51.85086" lon="6.10167">
        <ele>62.01006</ele>
        <time>2026-05-07T10:22:37.987Z</time>
      </trkpt>
      <trkpt lat="51.85095" lon="6.1014">
        <ele>61.867516</ele>
        <time>2026-05-07T11:15:19.992Z</time>
      </trkpt>
      <trkpt lat="51.85096" lon="6.10125">
        <ele>61.796018</ele>
        <time>2026-05-07T11:15:30.982Z</time>
      </trkpt>
      <trkpt lat="51.85103" lon="6.10097">
        <ele>61.617995</ele>
        <time>2026-05-07T11:15:50.970Z</time>
      </trkpt>
      <trkpt lat="51.85115" lon="6.10065">
        <ele>61.343224</ele>
        <time>2026-05-07T11:17:06.990Z</time>
      </trkpt>
      <trkpt lat="51.85123" lon="6.10057">
        <ele>61.227087</ele>
        <time>2026-05-07T11:17:12.985Z</time>
      </trkpt>
      <trkpt lat="51.85131" lon="6.10047">
        <ele>61.113132</ele>
        <time>2026-05-07T11:17:21.973Z</time>
      </trkpt>
      <trkpt lat="51.85141" lon="6.10043">
        <ele>60.989725</ele>
        <time>2026-05-07T11:17:26.979Z</time>
      </trkpt>
      <trkpt lat="51.85152" lon="6.10035">
        <ele>60.847581</ele>
        <time>2026-05-07T11:17:29.973Z</time>
      </trkpt>
      <trkpt lat="51.85161" lon="6.10029">
        <ele>60.724786</ele>
        <time>2026-05-07T11:17:31.985Z</time>
      </trkpt>
      <trkpt lat="51.85171" lon="6.10027">
        <ele>60.60623</ele>
        <time>2026-05-07T11:17:33.983Z</time>
      </trkpt>
      <trkpt lat="51.8518" lon="6.10032">
        <ele>60.499988</ele>
        <time>2026-05-07T11:17:35.978Z</time>
      </trkpt>
      <trkpt lat="51.85191" lon="6.10039">
        <ele>60.355324</ele>
        <time>2026-05-07T11:17:38.985Z</time>
      </trkpt>
      <trkpt lat="51.85201" lon="6.10043">
        <ele>60.233427</ele>
        <time>2026-05-07T11:17:41.987Z</time>
      </trkpt>
      <trkpt lat="51.85212" lon="6.10045">
        <ele>60.111884</ele>
        <time>2026-05-07T11:17:44.983Z</time>
      </trkpt>
      <trkpt lat="51.85223" lon="6.10044">
        <ele>59.979974</ele>
        <time>2026-05-07T11:17:47.990Z</time>
      </trkpt>
      <trkpt lat="51.85235" lon="6.10043">
        <ele>59.833504</ele>
        <time>2026-05-07T11:17:50.975Z</time>
      </trkpt>
      <trkpt lat="51.85248" lon="6.1004">
        <ele>59.682774</ele>
        <time>2026-05-07T11:17:53.975Z</time>
      </trkpt>
      <trkpt lat="51.8526" lon="6.10038">
        <ele>59.638896</ele>
        <time>2026-05-07T11:17:56.987Z</time>
      </trkpt>
      <trkpt lat="51.85272" lon="6.10038">
        <ele>59.6996</ele>
        <time>2026-05-07T11:17:59.989Z</time>
      </trkpt>
      <trkpt lat="51.85284" lon="6.10043">
        <ele>59.764679</ele>
        <time>2026-05-07T11:18:02.988Z</time>
      </trkpt>
      <trkpt lat="51.85296" lon="6.1005">
        <ele>59.831063</ele>
        <time>2026-05-07T11:18:05.987Z</time>
      </trkpt>
      <trkpt lat="51.85307" lon="6.10055">
        <ele>59.89545</ele>
        <time>2026-05-07T11:18:08.990Z</time>
      </trkpt>
      <trkpt lat="51.85319" lon="6.10063">
        <ele>59.960268</ele>
        <time>2026-05-07T11:18:11.991Z</time>
      </trkpt>
      <trkpt lat="51.8533" lon="6.10066">
        <ele>60.022727</ele>
        <time>2026-05-07T11:18:14.986Z</time>
      </trkpt>
      <trkpt lat="51.85341" lon="6.10062">
        <ele>60.079215</ele>
        <time>2026-05-07T11:18:17.974Z</time>
      </trkpt>
      <trkpt lat="51.85351" lon="6.10055">
        <ele>60.136372</ele>
        <time>2026-05-07T11:18:20.995Z</time>
      </trkpt>
      <trkpt lat="51.85362" lon="6.10045">
        <ele>60.202321</ele>
        <time>2026-05-07T11:18:23.989Z</time>
      </trkpt>
      <trkpt lat="51.85371" lon="6.10037">
        <ele>60.260096</ele>
        <time>2026-05-07T11:18:26.975Z</time>
      </trkpt>
      <trkpt lat="51.85381" lon="6.10029">
        <ele>60.319011</ele>
        <time>2026-05-07T11:18:29.971Z</time>
      </trkpt>
      <trkpt lat="51.85392" lon="6.10022">
        <ele>60.380284</ele>
        <time>2026-05-07T11:18:32.983Z</time>
      </trkpt>
      <trkpt lat="51.85404" lon="6.10019">
        <ele>60.443594</ele>
        <time>2026-05-07T11:18:35.992Z</time>
      </trkpt>
      <trkpt lat="51.85416" lon="6.10018">
        <ele>60.509171</ele>
        <time>2026-05-07T11:18:38.983Z</time>
      </trkpt>
      <trkpt lat="51.85429" lon="6.10016">
        <ele>60.548938</ele>
        <time>2026-05-07T11:18:41.994Z</time>
      </trkpt>
      <trkpt lat="51.85441" lon="6.10016">
        <ele>60.523337</ele>
        <time>2026-05-07T11:18:44.977Z</time>
      </trkpt>
      <trkpt lat="51.85453" lon="6.10014">
        <ele>60.498332</ele>
        <time>2026-05-07T11:18:47.980Z</time>
      </trkpt>
      <trkpt lat="51.85463" lon="6.10013">
        <ele>60.477001</ele>
        <time>2026-05-07T11:18:50.983Z</time>
      </trkpt>
      <trkpt lat="51.85474" lon="6.10012">
        <ele>60.454553</ele>
        <time>2026-05-07T11:18:53.983Z</time>
      </trkpt>
      <trkpt lat="51.85485" lon="6.10011">
        <ele>60.431186</ele>
        <time>2026-05-07T11:18:56.979Z</time>
      </trkpt>
      <trkpt lat="51.85498" lon="6.10009">
        <ele>60.403349</ele>
        <time>2026-05-07T11:18:59.978Z</time>
      </trkpt>
      <trkpt lat="51.85507" lon="6.09993">
        <ele>60.375733</ele>
        <time>2026-05-07T11:19:02.987Z</time>
      </trkpt>
      <trkpt lat="51.85514" lon="6.09975">
        <ele>60.347939</ele>
        <time>2026-05-07T11:19:05.987Z</time>
      </trkpt>
      <trkpt lat="51.8552" lon="6.09956">
        <ele>60.320803</ele>
        <time>2026-05-07T11:19:08.989Z</time>
      </trkpt>
      <trkpt lat="51.85526" lon="6.09939">
        <ele>60.294313</ele>
        <time>2026-05-07T11:19:11.986Z</time>
      </trkpt>
      <trkpt lat="51.85533" lon="6.09922">
        <ele>60.268836</ele>
        <time>2026-05-07T11:19:14.976Z</time>
      </trkpt>
      <trkpt lat="51.85539" lon="6.09906">
        <ele>60.244791</ele>
        <time>2026-05-07T11:19:17.980Z</time>
      </trkpt>
      <trkpt lat="51.85543" lon="6.09893">
        <ele>60.225055</ele>
        <time>2026-05-07T11:19:24.988Z</time>
      </trkpt>
      <trkpt lat="51.85545" lon="6.09878">
        <ele>60.205238</ele>
        <time>2026-05-07T11:19:28.970Z</time>
      </trkpt>
      <trkpt lat="51.85537" lon="6.09866">
        <ele>60.182951</ele>
        <time>2026-05-07T11:19:31.977Z</time>
      </trkpt>
      <trkpt lat="51.85528" lon="6.09855">
        <ele>60.139292</ele>
        <time>2026-05-07T11:19:34.977Z</time>
      </trkpt>
      <trkpt lat="51.85519" lon="6.09841">
        <ele>60.088963</ele>
        <time>2026-05-07T11:19:37.982Z</time>
      </trkpt>
      <trkpt lat="51.85516" lon="6.09826">
        <ele>60.050801</ele>
        <time>2026-05-07T11:19:39.977Z</time>
      </trkpt>
      <trkpt lat="51.85518" lon="6.09811">
        <ele>60.012514</ele>
        <time>2026-05-07T11:19:41.988Z</time>
      </trkpt>
      <trkpt lat="51.8552" lon="6.09797">
        <ele>59.974404</ele>
        <time>2026-05-07T11:19:43.988Z</time>
      </trkpt>
      <trkpt lat="51.85523" lon="6.09782">
        <ele>59.935282</ele>
        <time>2026-05-07T11:19:45.980Z</time>
      </trkpt>
      <trkpt lat="51.85525" lon="6.09767">
        <ele>59.895432</ele>
        <time>2026-05-07T11:19:47.968Z</time>
      </trkpt>
      <trkpt lat="51.85528" lon="6.09752">
        <ele>59.856529</ele>
        <time>2026-05-07T11:19:49.974Z</time>
      </trkpt>
      <trkpt lat="51.8553" lon="6.09736">
        <ele>59.816792</ele>
        <time>2026-05-07T11:19:51.981Z</time>
      </trkpt>
      <trkpt lat="51.85533" lon="6.09721">
        <ele>59.776215</ele>
        <time>2026-05-07T11:19:53.988Z</time>
      </trkpt>
      <trkpt lat="51.85535" lon="6.09706">
        <ele>59.737029</ele>
        <time>2026-05-07T11:19:55.989Z</time>
      </trkpt>
      <trkpt lat="51.85538" lon="6.09692">
        <ele>59.700062</ele>
        <time>2026-05-07T11:19:57.987Z</time>
      </trkpt>
      <trkpt lat="51.8554" lon="6.09678">
        <ele>59.662617</ele>
        <time>2026-05-07T11:19:59.974Z</time>
      </trkpt>
      <trkpt lat="51.85543" lon="6.09663">
        <ele>59.623848</ele>
        <time>2026-05-07T11:20:01.975Z</time>
      </trkpt>
      <trkpt lat="51.85546" lon="6.09649">
        <ele>59.58616</ele>
        <time>2026-05-07T11:20:03.981Z</time>
      </trkpt>
      <trkpt lat="51.85549" lon="6.09634">
        <ele>59.547391</ele>
        <time>2026-05-07T11:20:05.982Z</time>
      </trkpt>
      <trkpt lat="51.85552" lon="6.0962">
        <ele>59.509348</ele>
        <time>2026-05-07T11:20:07.986Z</time>
      </trkpt>
      <trkpt lat="51.85554" lon="6.09605">
        <ele>59.470551</ele>
        <time>2026-05-07T11:20:09.979Z</time>
      </trkpt>
      <trkpt lat="51.85557" lon="6.09587">
        <ele>59.453229</ele>
        <time>2026-05-07T11:20:12.990Z</time>
      </trkpt>
      <trkpt lat="51.85558" lon="6.09572">
        <ele>59.46868</ele>
        <time>2026-05-07T11:20:15.979Z</time>
      </trkpt>
      <trkpt lat="51.85559" lon="6.09555">
        <ele>59.4859</ele>
        <time>2026-05-07T11:20:18.989Z</time>
      </trkpt>
      <trkpt lat="51.85561" lon="6.0954">
        <ele>59.501598</ele>
        <time>2026-05-07T11:20:22.973Z</time>
      </trkpt>
      <trkpt lat="51.85565" lon="6.09524">
        <ele>59.517829</ele>
        <time>2026-05-07T11:20:31.983Z</time>
      </trkpt>
      <trkpt lat="51.85568" lon="6.09508">
        <ele>59.534894</ele>
        <time>2026-05-07T11:20:34.984Z</time>
      </trkpt>
      <trkpt lat="51.85571" lon="6.09489">
        <ele>59.55488</ele>
        <time>2026-05-07T11:20:37.985Z</time>
      </trkpt>
      <trkpt lat="51.85574" lon="6.09469">
        <ele>59.575303</ele>
        <time>2026-05-07T11:20:40.976Z</time>
      </trkpt>
      <trkpt lat="51.85579" lon="6.0945">
        <ele>59.595816</ele>
        <time>2026-05-07T11:20:43.980Z</time>
      </trkpt>
      <trkpt lat="51.85585" lon="6.09432">
        <ele>59.616684</ele>
        <time>2026-05-07T11:20:46.980Z</time>
      </trkpt>
      <trkpt lat="51.85594" lon="6.09417">
        <ele>59.637496</ele>
        <time>2026-05-07T11:20:49.985Z</time>
      </trkpt>
      <trkpt lat="51.85604" lon="6.09404">
        <ele>59.658083</ele>
        <time>2026-05-07T11:20:52.989Z</time>
      </trkpt>
      <trkpt lat="51.85616" lon="6.09393">
        <ele>59.679239</ele>
        <time>2026-05-07T11:20:56.001Z</time>
      </trkpt>
      <trkpt lat="51.85627" lon="6.09384">
        <ele>59.699816</ele>
        <time>2026-05-07T11:20:58.989Z</time>
      </trkpt>
      <trkpt lat="51.85637" lon="6.09378">
        <ele>59.717047</ele>
        <time>2026-05-07T11:21:01.978Z</time>
      </trkpt>
      <trkpt lat="51.85648" lon="6.09375">
        <ele>59.735268</ele>
        <time>2026-05-07T11:21:04.975Z</time>
      </trkpt>
      <trkpt lat="51.85658" lon="6.09368">
        <ele>59.692679</ele>
        <time>2026-05-07T11:21:07.976Z</time>
      </trkpt>
      <trkpt lat="51.85667" lon="6.09361">
        <ele>59.648505</ele>
        <time>2026-05-07T11:21:10.981Z</time>
      </trkpt>
      <trkpt lat="51.85677" lon="6.09357">
        <ele>59.604927</ele>
        <time>2026-05-07T11:21:13.990Z</time>
      </trkpt>
      <trkpt lat="51.85691" lon="6.09348">
        <ele>59.543166</ele>
        <time>2026-05-07T11:21:28.984Z</time>
      </trkpt>
      <trkpt lat="51.85699" lon="6.09342">
        <ele>59.501464</ele>
        <time>2026-05-07T11:21:32.977Z</time>
      </trkpt>
      <trkpt lat="51.85708" lon="6.09336">
        <ele>59.462165</ele>
        <time>2026-05-07T11:21:35.979Z</time>
      </trkpt>
      <trkpt lat="51.85717" lon="6.09328">
        <ele>59.417217</ele>
        <time>2026-05-07T11:21:38.973Z</time>
      </trkpt>
      <trkpt lat="51.85728" lon="6.09322">
        <ele>59.368442</ele>
        <time>2026-05-07T11:21:41.986Z</time>
      </trkpt>
      <trkpt lat="51.85738" lon="6.09315">
        <ele>59.318586</ele>
        <time>2026-05-07T11:21:44.984Z</time>
      </trkpt>
      <trkpt lat="51.85749" lon="6.09307">
        <ele>59.266626</ele>
        <time>2026-05-07T11:21:47.982Z</time>
      </trkpt>
      <trkpt lat="51.85761" lon="6.093">
        <ele>59.214367</ele>
        <time>2026-05-07T11:21:50.975Z</time>
      </trkpt>
      <trkpt lat="51.85772" lon="6.09293">
        <ele>59.161112</ele>
        <time>2026-05-07T11:21:53.976Z</time>
      </trkpt>
      <trkpt lat="51.85784" lon="6.09285">
        <ele>59.105537</ele>
        <time>2026-05-07T11:21:56.976Z</time>
      </trkpt>
      <trkpt lat="51.85796" lon="6.09276">
        <ele>59.04756</ele>
        <time>2026-05-07T11:21:59.976Z</time>
      </trkpt>
      <trkpt lat="51.85804" lon="6.09268">
        <ele>59.00868</ele>
        <time>2026-05-07T11:22:01.978Z</time>
      </trkpt>
      <trkpt lat="51.85815" lon="6.09256">
        <ele>58.968671</ele>
        <time>2026-05-07T11:22:04.980Z</time>
      </trkpt>
      <trkpt lat="51.85824" lon="6.09241">
        <ele>59.012656</ele>
        <time>2026-05-07T11:22:07.977Z</time>
      </trkpt>
      <trkpt lat="51.85833" lon="6.09225">
        <ele>59.0564</ele>
        <time>2026-05-07T11:22:10.987Z</time>
      </trkpt>
      <trkpt lat="51.8584" lon="6.09207">
        <ele>59.100237</ele>
        <time>2026-05-07T11:22:13.986Z</time>
      </trkpt>
      <trkpt lat="51.85844" lon="6.09194">
        <ele>59.130498</ele>
        <time>2026-05-07T11:22:15.978Z</time>
      </trkpt>
      <trkpt lat="51.85847" lon="6.0918">
        <ele>59.161429</ele>
        <time>2026-05-07T11:22:17.978Z</time>
      </trkpt>
      <trkpt lat="51.85851" lon="6.09166">
        <ele>59.19236</ele>
        <time>2026-05-07T11:22:19.968Z</time>
      </trkpt>
      <trkpt lat="51.85854" lon="6.09151">
        <ele>59.223871</ele>
        <time>2026-05-07T11:22:21.972Z</time>
      </trkpt>
      <trkpt lat="51.85858" lon="6.09137">
        <ele>59.2555</ele>
        <time>2026-05-07T11:22:23.988Z</time>
      </trkpt>
      <trkpt lat="51.85861" lon="6.09123">
        <ele>59.286763</ele>
        <time>2026-05-07T11:22:25.984Z</time>
      </trkpt>
      <trkpt lat="51.85865" lon="6.09105">
        <ele>59.327094</ele>
        <time>2026-05-07T11:22:28.986Z</time>
      </trkpt>
      <trkpt lat="51.8587" lon="6.09087">
        <ele>59.367247</ele>
        <time>2026-05-07T11:22:31.986Z</time>
      </trkpt>
      <trkpt lat="51.85874" lon="6.09066">
        <ele>59.411189</ele>
        <time>2026-05-07T11:22:34.972Z</time>
      </trkpt>
      <trkpt lat="51.85879" lon="6.09046">
        <ele>59.456292</ele>
        <time>2026-05-07T11:22:37.977Z</time>
      </trkpt>
      <trkpt lat="51.85882" lon="6.09032">
        <ele>59.487098</ele>
        <time>2026-05-07T11:22:39.981Z</time>
      </trkpt>
      <trkpt lat="51.85887" lon="6.09012">
        <ele>59.531963</ele>
        <time>2026-05-07T11:22:42.987Z</time>
      </trkpt>
      <trkpt lat="51.8589" lon="6.08998">
        <ele>59.558356</ele>
        <time>2026-05-07T11:22:44.988Z</time>
      </trkpt>
      <trkpt lat="51.85894" lon="6.08978">
        <ele>59.405433</ele>
        <time>2026-05-07T11:22:47.983Z</time>
      </trkpt>
      <trkpt lat="51.85897" lon="6.08958">
        <ele>59.25503</ele>
        <time>2026-05-07T11:22:50.974Z</time>
      </trkpt>
      <trkpt lat="51.85896" lon="6.08937">
        <ele>59.102873</ele>
        <time>2026-05-07T11:22:53.977Z</time>
      </trkpt>
      <trkpt lat="51.85893" lon="6.08917">
        <ele>58.951293</ele>
        <time>2026-05-07T11:22:56.982Z</time>
      </trkpt>
      <trkpt lat="51.85888" lon="6.089">
        <ele>58.817482</ele>
        <time>2026-05-07T11:22:59.977Z</time>
      </trkpt>
      <trkpt lat="51.85883" lon="6.08886">
        <ele>58.697715</ele>
        <time>2026-05-07T11:23:02.984Z</time>
      </trkpt>
      <trkpt lat="51.85877" lon="6.08871">
        <ele>58.563817</ele>
        <time>2026-05-07T11:23:06.987Z</time>
      </trkpt>
      <trkpt lat="51.85866" lon="6.08862">
        <ele>58.422204</ele>
        <time>2026-05-07T11:23:33.983Z</time>
      </trkpt>
      <trkpt lat="51.85856" lon="6.0885">
        <ele>58.272046</ele>
        <time>2026-05-07T11:23:37.972Z</time>
      </trkpt>
      <trkpt lat="51.85845" lon="6.08838">
        <ele>58.110684</ele>
        <time>2026-05-07T11:23:41.017Z</time>
      </trkpt>
      <trkpt lat="51.85836" lon="6.08828">
        <ele>57.984728</ele>
        <time>2026-05-07T11:23:42.982Z</time>
      </trkpt>
      <trkpt lat="51.85826" lon="6.08818">
        <ele>57.849271</ele>
        <time>2026-05-07T11:23:44.983Z</time>
      </trkpt>
      <trkpt lat="51.85816" lon="6.08807">
        <ele>57.706465</ele>
        <time>2026-05-07T11:23:46.980Z</time>
      </trkpt>
      <trkpt lat="51.85805" lon="6.08796">
        <ele>57.550086</ele>
        <time>2026-05-07T11:23:48.977Z</time>
      </trkpt>
      <trkpt lat="51.85794" lon="6.08783">
        <ele>57.386136</ele>
        <time>2026-05-07T11:23:50.975Z</time>
      </trkpt>
      <trkpt lat="51.85785" lon="6.08765">
        <ele>57.195331</ele>
        <time>2026-05-07T11:23:52.971Z</time>
      </trkpt>
      <trkpt lat="51.85779" lon="6.08746">
        <ele>57.009056</ele>
        <time>2026-05-07T11:23:54.977Z</time>
      </trkpt>
      <trkpt lat="51.85777" lon="6.08725">
        <ele>56.829441</ele>
        <time>2026-05-07T11:23:56.985Z</time>
      </trkpt>
      <trkpt lat="51.85778" lon="6.08703">
        <ele>56.649475</ele>
        <time>2026-05-07T11:23:58.988Z</time>
      </trkpt>
      <trkpt lat="51.8578" lon="6.08682">
        <ele>56.468186</ele>
        <time>2026-05-07T11:24:00.980Z</time>
      </trkpt>
      <trkpt lat="51.85785" lon="6.08663">
        <ele>56.292327</ele>
        <time>2026-05-07T11:24:02.993Z</time>
      </trkpt>
      <trkpt lat="51.85792" lon="6.08646">
        <ele>56.121719</ele>
        <time>2026-05-07T11:24:04.978Z</time>
      </trkpt>
      <trkpt lat="51.858" lon="6.08631">
        <ele>55.954997</ele>
        <time>2026-05-07T11:24:06.982Z</time>
      </trkpt>
      <trkpt lat="51.85808" lon="6.08616">
        <ele>55.789363</ele>
        <time>2026-05-07T11:24:08.990Z</time>
      </trkpt>
      <trkpt lat="51.85816" lon="6.08602">
        <ele>55.63084</ele>
        <time>2026-05-07T11:24:10.978Z</time>
      </trkpt>
      <trkpt lat="51.85824" lon="6.08588">
        <ele>55.470109</ele>
        <time>2026-05-07T11:24:12.972Z</time>
      </trkpt>
      <trkpt lat="51.85832" lon="6.08575">
        <ele>55.314903</ele>
        <time>2026-05-07T11:24:14.990Z</time>
      </trkpt>
      <trkpt lat="51.8584" lon="6.08562">
        <ele>55.15933</ele>
        <time>2026-05-07T11:24:16.985Z</time>
      </trkpt>
      <trkpt lat="51.85847" lon="6.08549">
        <ele>55.006636</ele>
        <time>2026-05-07T11:24:18.985Z</time>
      </trkpt>
      <trkpt lat="51.85855" lon="6.08536">
        <ele>55.052135</ele>
        <time>2026-05-07T11:24:20.981Z</time>
      </trkpt>
      <trkpt lat="51.85862" lon="6.08523">
        <ele>55.14212</ele>
        <time>2026-05-07T11:24:22.989Z</time>
      </trkpt>
      <trkpt lat="51.8587" lon="6.0851">
        <ele>55.233232</ele>
        <time>2026-05-07T11:24:24.993Z</time>
      </trkpt>
      <trkpt lat="51.85878" lon="6.08497">
        <ele>55.326208</ele>
        <time>2026-05-07T11:24:26.991Z</time>
      </trkpt>
      <trkpt lat="51.85886" lon="6.08484">
        <ele>55.417888</ele>
        <time>2026-05-07T11:24:28.979Z</time>
      </trkpt>
      <trkpt lat="51.85893" lon="6.08471">
        <ele>55.508434</ele>
        <time>2026-05-07T11:24:30.988Z</time>
      </trkpt>
      <trkpt lat="51.85901" lon="6.08458">
        <ele>55.599348</ele>
        <time>2026-05-07T11:24:32.991Z</time>
      </trkpt>
      <trkpt lat="51.85909" lon="6.08446">
        <ele>55.687357</ele>
        <time>2026-05-07T11:24:34.976Z</time>
      </trkpt>
      <trkpt lat="51.85917" lon="6.08434">
        <ele>55.774306</ele>
        <time>2026-05-07T11:24:36.982Z</time>
      </trkpt>
      <trkpt lat="51.85925" lon="6.08425">
        <ele>55.860247</ele>
        <time>2026-05-07T11:24:38.986Z</time>
      </trkpt>
      <trkpt lat="51.85935" lon="6.08421">
        <ele>55.940973</ele>
        <time>2026-05-07T11:24:40.973Z</time>
      </trkpt>
      <trkpt lat="51.85945" lon="6.0842">
        <ele>56.024568</ele>
        <time>2026-05-07T11:24:43.002Z</time>
      </trkpt>
      <trkpt lat="51.85955" lon="6.08425">
        <ele>56.109851</ele>
        <time>2026-05-07T11:24:44.990Z</time>
      </trkpt>
      <trkpt lat="51.85965" lon="6.0843">
        <ele>56.195569</ele>
        <time>2026-05-07T11:24:46.984Z</time>
      </trkpt>
      <trkpt lat="51.85976" lon="6.08433">
        <ele>56.285585</ele>
        <time>2026-05-07T11:24:48.993Z</time>
      </trkpt>
      <trkpt lat="51.85986" lon="6.08435">
        <ele>56.372932</ele>
        <time>2026-05-07T11:24:50.976Z</time>
      </trkpt>
      <trkpt lat="51.85998" lon="6.08435">
        <ele>56.46728</ele>
        <time>2026-05-07T11:24:52.986Z</time>
      </trkpt>
      <trkpt lat="51.86009" lon="6.08434">
        <ele>56.558616</ele>
        <time>2026-05-07T11:24:54.981Z</time>
      </trkpt>
      <trkpt lat="51.8602" lon="6.08431">
        <ele>56.648891</ele>
        <time>2026-05-07T11:24:56.990Z</time>
      </trkpt>
      <trkpt lat="51.8603" lon="6.08428">
        <ele>56.736962</ele>
        <time>2026-05-07T11:24:58.970Z</time>
      </trkpt>
      <trkpt lat="51.8604" lon="6.08423">
        <ele>56.821418</ele>
        <time>2026-05-07T11:25:00.984Z</time>
      </trkpt>
      <trkpt lat="51.86049" lon="6.08415">
        <ele>56.908719</ele>
        <time>2026-05-07T11:25:02.992Z</time>
      </trkpt>
      <trkpt lat="51.86058" lon="6.08406">
        <ele>56.993672</ele>
        <time>2026-05-07T11:25:04.977Z</time>
      </trkpt>
      <trkpt lat="51.86066" lon="6.08394">
        <ele>57.082886</ele>
        <time>2026-05-07T11:25:06.974Z</time>
      </trkpt>
      <trkpt lat="51.86072" lon="6.0838">
        <ele>57.170512</ele>
        <time>2026-05-07T11:25:08.990Z</time>
      </trkpt>
      <trkpt lat="51.86075" lon="6.08364">
        <ele>57.254435</ele>
        <time>2026-05-07T11:25:10.973Z</time>
      </trkpt>
      <trkpt lat="51.86078" lon="6.08348">
        <ele>57.342163</ele>
        <time>2026-05-07T11:25:12.982Z</time>
      </trkpt>
      <trkpt lat="51.86081" lon="6.08332">
        <ele>57.428424</ele>
        <time>2026-05-07T11:25:14.985Z</time>
      </trkpt>
      <trkpt lat="51.86084" lon="6.08316">
        <ele>57.514195</ele>
        <time>2026-05-07T11:25:16.986Z</time>
      </trkpt>
      <trkpt lat="51.86087" lon="6.08299">
        <ele>57.603634</ele>
        <time>2026-05-07T11:25:18.979Z</time>
      </trkpt>
      <trkpt lat="51.8609" lon="6.08283">
        <ele>57.690129</ele>
        <time>2026-05-07T11:25:20.974Z</time>
      </trkpt>
      <trkpt lat="51.86093" lon="6.08267">
        <ele>57.774178</ele>
        <time>2026-05-07T11:25:22.988Z</time>
      </trkpt>
      <trkpt lat="51.86096" lon="6.08251">
        <ele>57.857502</ele>
        <time>2026-05-07T11:25:24.979Z</time>
      </trkpt>
      <trkpt lat="51.86099" lon="6.08236">
        <ele>57.939114</ele>
        <time>2026-05-07T11:25:26.982Z</time>
      </trkpt>
      <trkpt lat="51.86102" lon="6.0822">
        <ele>58.175565</ele>
        <time>2026-05-07T11:25:28.984Z</time>
      </trkpt>
      <trkpt lat="51.86104" lon="6.08204">
        <ele>58.416569</ele>
        <time>2026-05-07T11:25:30.980Z</time>
      </trkpt>
      <trkpt lat="51.86107" lon="6.08184">
        <ele>58.732405</ele>
        <time>2026-05-07T11:25:33.978Z</time>
      </trkpt>
      <trkpt lat="51.86111" lon="6.08165">
        <ele>59.025405</ele>
        <time>2026-05-07T11:25:36.984Z</time>
      </trkpt>
      <trkpt lat="51.86117" lon="6.08148">
        <ele>59.309669</ele>
        <time>2026-05-07T11:25:39.976Z</time>
      </trkpt>
      <trkpt lat="51.86126" lon="6.08138">
        <ele>59.570623</ele>
        <time>2026-05-07T11:25:42.986Z</time>
      </trkpt>
      <trkpt lat="51.86134" lon="6.08129">
        <ele>59.822299</ele>
        <time>2026-05-07T11:25:45.992Z</time>
      </trkpt>
      <trkpt lat="51.86144" lon="6.08118">
        <ele>60.101322</ele>
        <time>2026-05-07T11:25:48.982Z</time>
      </trkpt>
      <trkpt lat="51.86153" lon="6.08107">
        <ele>60.378274</ele>
        <time>2026-05-07T11:25:51.987Z</time>
      </trkpt>
      <trkpt lat="51.86161" lon="6.08095">
        <ele>60.642371</ele>
        <time>2026-05-07T11:25:54.996Z</time>
      </trkpt>
      <trkpt lat="51.86169" lon="6.08083">
        <ele>60.898001</ele>
        <time>2026-05-07T11:25:57.986Z</time>
      </trkpt>
      <trkpt lat="51.86177" lon="6.08071">
        <ele>61.150883</ele>
        <time>2026-05-07T11:26:00.973Z</time>
      </trkpt>
      <trkpt lat="51.86184" lon="6.08059">
        <ele>61.40417</ele>
        <time>2026-05-07T11:26:03.990Z</time>
      </trkpt>
      <trkpt lat="51.86191" lon="6.08046">
        <ele>61.666621</ele>
        <time>2026-05-07T11:26:06.984Z</time>
      </trkpt>
      <trkpt lat="51.86198" lon="6.08032">
        <ele>61.914029</ele>
        <time>2026-05-07T11:26:09.978Z</time>
      </trkpt>
      <trkpt lat="51.86204" lon="6.0802">
        <ele>62.15453</ele>
        <time>2026-05-07T11:26:12.996Z</time>
      </trkpt>
      <trkpt lat="51.86211" lon="6.08007">
        <ele>62.111515</ele>
        <time>2026-05-07T11:26:15.984Z</time>
      </trkpt>
      <trkpt lat="51.86219" lon="6.07995">
        <ele>61.861437</ele>
        <time>2026-05-07T11:26:18.982Z</time>
      </trkpt>
      <trkpt lat="51.86225" lon="6.07983">
        <ele>61.617852</ele>
        <time>2026-05-07T11:26:21.977Z</time>
      </trkpt>
      <trkpt lat="51.86233" lon="6.07968">
        <ele>61.344295</ele>
        <time>2026-05-07T11:26:24.983Z</time>
      </trkpt>
      <trkpt lat="51.86242" lon="6.07953">
        <ele>61.051676</ele>
        <time>2026-05-07T11:26:27.973Z</time>
      </trkpt>
      <trkpt lat="51.86248" lon="6.07942">
        <ele>60.841128</ele>
        <time>2026-05-07T11:26:29.989Z</time>
      </trkpt>
      <trkpt lat="51.86253" lon="6.0793">
        <ele>60.622352</ele>
        <time>2026-05-07T11:26:31.979Z</time>
      </trkpt>
      <trkpt lat="51.86258" lon="6.07917">
        <ele>60.39365</ele>
        <time>2026-05-07T11:26:33.974Z</time>
      </trkpt>
      <trkpt lat="51.86264" lon="6.07903">
        <ele>60.153836</ele>
        <time>2026-05-07T11:26:35.985Z</time>
      </trkpt>
      <trkpt lat="51.86268" lon="6.07886">
        <ele>59.888265</ele>
        <time>2026-05-07T11:26:37.986Z</time>
      </trkpt>
      <trkpt lat="51.86272" lon="6.07869">
        <ele>59.624451</ele>
        <time>2026-05-07T11:26:39.983Z</time>
      </trkpt>
      <trkpt lat="51.86274" lon="6.0785">
        <ele>59.350955</ele>
        <time>2026-05-07T11:26:41.982Z</time>
      </trkpt>
      <trkpt lat="51.86275" lon="6.07833">
        <ele>59.104224</ele>
        <time>2026-05-07T11:26:43.990Z</time>
      </trkpt>
      <trkpt lat="51.86279" lon="6.07817">
        <ele>58.852109</ele>
        <time>2026-05-07T11:26:45.976Z</time>
      </trkpt>
      <trkpt lat="51.86286" lon="6.07807">
        <ele>58.637502</ele>
        <time>2026-05-07T11:26:47.977Z</time>
      </trkpt>
      <trkpt lat="51.86297" lon="6.07812">
        <ele>58.368653</ele>
        <time>2026-05-07T11:26:50.986Z</time>
      </trkpt>
      <trkpt lat="51.86308" lon="6.07818">
        <ele>58.084131</ele>
        <time>2026-05-07T11:26:53.995Z</time>
      </trkpt>
      <trkpt lat="51.86321" lon="6.07816">
        <ele>57.915691</ele>
        <time>2026-05-07T11:26:56.978Z</time>
      </trkpt>
      <trkpt lat="51.8633" lon="6.07811">
        <ele>57.811072</ele>
        <time>2026-05-07T11:26:58.993Z</time>
      </trkpt>
      <trkpt lat="51.86341" lon="6.07806">
        <ele>57.67855</ele>
        <time>2026-05-07T11:27:01.975Z</time>
      </trkpt>
      <trkpt lat="51.86352" lon="6.07807">
        <ele>57.549853</ele>
        <time>2026-05-07T11:27:04.978Z</time>
      </trkpt>
      <trkpt lat="51.86364" lon="6.07807">
        <ele>57.40304</ele>
        <time>2026-05-07T11:27:07.992Z</time>
      </trkpt>
      <trkpt lat="51.86377" lon="6.07807">
        <ele>57.259739</ele>
        <time>2026-05-07T11:27:10.982Z</time>
      </trkpt>
      <trkpt lat="51.86388" lon="6.07808">
        <ele>57.122239</ele>
        <time>2026-05-07T11:27:13.989Z</time>
      </trkpt>
      <trkpt lat="51.86399" lon="6.07809">
        <ele>56.997212</ele>
        <time>2026-05-07T11:27:16.986Z</time>
      </trkpt>
      <trkpt lat="51.8641" lon="6.07811">
        <ele>56.873079</ele>
        <time>2026-05-07T11:27:19.980Z</time>
      </trkpt>
      <trkpt lat="51.86421" lon="6.07813">
        <ele>56.738584</ele>
        <time>2026-05-07T11:27:22.979Z</time>
      </trkpt>
      <trkpt lat="51.86433" lon="6.07814">
        <ele>56.598637</ele>
        <time>2026-05-07T11:27:25.988Z</time>
      </trkpt>
      <trkpt lat="51.86445" lon="6.07816">
        <ele>56.462771</ele>
        <time>2026-05-07T11:27:28.971Z</time>
      </trkpt>
      <trkpt lat="51.86457" lon="6.07818">
        <ele>56.320959</ele>
        <time>2026-05-07T11:27:31.971Z</time>
      </trkpt>
      <trkpt lat="51.86468" lon="6.07818">
        <ele>56.194007</ele>
        <time>2026-05-07T11:27:34.980Z</time>
      </trkpt>
      <trkpt lat="51.86478" lon="6.0782">
        <ele>56.072112</ele>
        <time>2026-05-07T11:27:37.980Z</time>
      </trkpt>
      <trkpt lat="51.8649" lon="6.0782">
        <ele>55.970912</ele>
        <time>2026-05-07T11:27:40.985Z</time>
      </trkpt>
      <trkpt lat="51.865" lon="6.07823">
        <ele>56.150424</ele>
        <time>2026-05-07T11:27:43.980Z</time>
      </trkpt>
      <trkpt lat="51.86512" lon="6.07824">
        <ele>56.338853</ele>
        <time>2026-05-07T11:27:46.999Z</time>
      </trkpt>
      <trkpt lat="51.86523" lon="6.07826">
        <ele>56.527469</ele>
        <time>2026-05-07T11:27:49.989Z</time>
      </trkpt>
      <trkpt lat="51.86534" lon="6.07827">
        <ele>56.712039</ele>
        <time>2026-05-07T11:27:52.980Z</time>
      </trkpt>
      <trkpt lat="51.86546" lon="6.07829">
        <ele>56.897481</ele>
        <time>2026-05-07T11:27:55.985Z</time>
      </trkpt>
      <trkpt lat="51.86556" lon="6.07831">
        <ele>57.07801</ele>
        <time>2026-05-07T11:27:58.976Z</time>
      </trkpt>
      <trkpt lat="51.86567" lon="6.07831">
        <ele>57.251023</ele>
        <time>2026-05-07T11:28:01.984Z</time>
      </trkpt>
      <trkpt lat="51.86576" lon="6.07833">
        <ele>57.404925</ele>
        <time>2026-05-07T11:28:04.986Z</time>
      </trkpt>
      <trkpt lat="51.86586" lon="6.07835">
        <ele>57.574654</ele>
        <time>2026-05-07T11:28:07.980Z</time>
      </trkpt>
      <trkpt lat="51.86598" lon="6.07835">
        <ele>57.767363</ele>
        <time>2026-05-07T11:28:10.988Z</time>
      </trkpt>
      <trkpt lat="51.86611" lon="6.07836">
        <ele>57.974852</ele>
        <time>2026-05-07T11:28:13.977Z</time>
      </trkpt>
      <trkpt lat="51.86623" lon="6.07836">
        <ele>58.180754</ele>
        <time>2026-05-07T11:28:16.988Z</time>
      </trkpt>
      <trkpt lat="51.86633" lon="6.07837">
        <ele>58.344036</ele>
        <time>2026-05-07T11:28:18.988Z</time>
      </trkpt>
      <trkpt lat="51.86644" lon="6.07838">
        <ele>58.528647</ele>
        <time>2026-05-07T11:28:20.990Z</time>
      </trkpt>
      <trkpt lat="51.86655" lon="6.07838">
        <ele>58.699918</ele>
        <time>2026-05-07T11:28:22.985Z</time>
      </trkpt>
      <trkpt lat="51.86665" lon="6.07837">
        <ele>58.867932</ele>
        <time>2026-05-07T11:28:24.990Z</time>
      </trkpt>
      <trkpt lat="51.86675" lon="6.07836">
        <ele>58.722404</ele>
        <time>2026-05-07T11:28:26.986Z</time>
      </trkpt>
      <trkpt lat="51.86684" lon="6.07835">
        <ele>58.443997</ele>
        <time>2026-05-07T11:28:28.981Z</time>
      </trkpt>
      <trkpt lat="51.86694" lon="6.07833">
        <ele>58.172355</ele>
        <time>2026-05-07T11:28:30.986Z</time>
      </trkpt>
      <trkpt lat="51.86704" lon="6.0783">
        <ele>57.895916</ele>
        <time>2026-05-07T11:28:32.979Z</time>
      </trkpt>
      <trkpt lat="51.86713" lon="6.07825">
        <ele>57.619866</ele>
        <time>2026-05-07T11:28:34.983Z</time>
      </trkpt>
      <trkpt lat="51.86722" lon="6.07818">
        <ele>57.341654</ele>
        <time>2026-05-07T11:28:36.991Z</time>
      </trkpt>
      <trkpt lat="51.86731" lon="6.0781">
        <ele>57.06731</ele>
        <time>2026-05-07T11:28:38.988Z</time>
      </trkpt>
      <trkpt lat="51.8674" lon="6.07805">
        <ele>56.798921</ele>
        <time>2026-05-07T11:28:40.980Z</time>
      </trkpt>
      <trkpt lat="51.86749" lon="6.07803">
        <ele>56.534138</ele>
        <time>2026-05-07T11:28:42.997Z</time>
      </trkpt>
      <trkpt lat="51.86758" lon="6.07799">
        <ele>56.267031</ele>
        <time>2026-05-07T11:28:44.978Z</time>
      </trkpt>
      <trkpt lat="51.86767" lon="6.07796">
        <ele>55.997936</ele>
        <time>2026-05-07T11:28:46.980Z</time>
      </trkpt>
      <trkpt lat="51.86777" lon="6.07793">
        <ele>55.729489</ele>
        <time>2026-05-07T11:28:48.988Z</time>
      </trkpt>
      <trkpt lat="51.86786" lon="6.0779">
        <ele>55.47617</ele>
        <time>2026-05-07T11:28:50.984Z</time>
      </trkpt>
      <trkpt lat="51.86798" lon="6.07782">
        <ele>55.104394</ele>
        <time>2026-05-07T11:28:53.970Z</time>
      </trkpt>
      <trkpt lat="51.86808" lon="6.07769">
        <ele>54.743034</ele>
        <time>2026-05-07T11:28:56.989Z</time>
      </trkpt>
      <trkpt lat="51.86816" lon="6.07753">
        <ele>54.380907</ele>
        <time>2026-05-07T11:28:59.985Z</time>
      </trkpt>
      <trkpt lat="51.86825" lon="6.07737">
        <ele>54.008715</ele>
        <time>2026-05-07T11:29:02.982Z</time>
      </trkpt>
      <trkpt lat="51.86835" lon="6.07723">
        <ele>53.963848</ele>
        <time>2026-05-07T11:29:05.982Z</time>
      </trkpt>
      <trkpt lat="51.86846" lon="6.07714">
        <ele>54.123862</ele>
        <time>2026-05-07T11:29:08.976Z</time>
      </trkpt>
      <trkpt lat="51.86859" lon="6.07709">
        <ele>54.288708</ele>
        <time>2026-05-07T11:29:11.979Z</time>
      </trkpt>
      <trkpt lat="51.86871" lon="6.07708">
        <ele>54.447671</ele>
        <time>2026-05-07T11:29:14.987Z</time>
      </trkpt>
      <trkpt lat="51.86884" lon="6.07706">
        <ele>54.606269</ele>
        <time>2026-05-07T11:29:17.980Z</time>
      </trkpt>
      <trkpt lat="51.86895" lon="6.07704">
        <ele>54.754772</ele>
        <time>2026-05-07T11:29:20.982Z</time>
      </trkpt>
      <trkpt lat="51.86907" lon="6.07704">
        <ele>54.899666</ele>
        <time>2026-05-07T11:29:23.983Z</time>
      </trkpt>
      <trkpt lat="51.86918" lon="6.07713">
        <ele>55.05443</ele>
        <time>2026-05-07T11:29:26.986Z</time>
      </trkpt>
      <trkpt lat="51.86929" lon="6.07722">
        <ele>55.219962</ele>
        <time>2026-05-07T11:29:29.984Z</time>
      </trkpt>
      <trkpt lat="51.86942" lon="6.0773">
        <ele>55.390008</ele>
        <time>2026-05-07T11:29:32.988Z</time>
      </trkpt>
      <trkpt lat="51.86951" lon="6.07732">
        <ele>55.505339</ele>
        <time>2026-05-07T11:29:34.974Z</time>
      </trkpt>
      <trkpt lat="51.86964" lon="6.07735">
        <ele>55.671293</ele>
        <time>2026-05-07T11:29:37.990Z</time>
      </trkpt>
      <trkpt lat="51.86973" lon="6.07737">
        <ele>55.787884</ele>
        <time>2026-05-07T11:29:39.979Z</time>
      </trkpt>
      <trkpt lat="51.86982" lon="6.07738">
        <ele>55.90538</ele>
        <time>2026-05-07T11:29:41.985Z</time>
      </trkpt>
      <trkpt lat="51.86995" lon="6.07741">
        <ele>56.07247</ele>
        <time>2026-05-07T11:29:44.987Z</time>
      </trkpt>
      <trkpt lat="51.87008" lon="6.07745">
        <ele>56.306193</ele>
        <time>2026-05-07T11:29:47.990Z</time>
      </trkpt>
      <trkpt lat="51.87019" lon="6.07745">
        <ele>56.57461</ele>
        <time>2026-05-07T11:29:50.977Z</time>
      </trkpt>
      <trkpt lat="51.87031" lon="6.07744">
        <ele>56.860306</ele>
        <time>2026-05-07T11:29:53.982Z</time>
      </trkpt>
      <trkpt lat="51.87042" lon="6.07739">
        <ele>57.115603</ele>
        <time>2026-05-07T11:29:56.979Z</time>
      </trkpt>
      <trkpt lat="51.87044" lon="6.07725">
        <ele>57.332199</ele>
        <time>2026-05-07T11:29:59.989Z</time>
      </trkpt>
      <trkpt lat="51.87042" lon="6.07709">
        <ele>57.569876</ele>
        <time>2026-05-07T11:30:02.991Z</time>
      </trkpt>
      <trkpt lat="51.87039" lon="6.07692">
        <ele>57.828114</ele>
        <time>2026-05-07T11:30:05.988Z</time>
      </trkpt>
      <trkpt lat="51.87036" lon="6.07675">
        <ele>58.075255</ele>
        <time>2026-05-07T11:30:08.976Z</time>
      </trkpt>
      <trkpt lat="51.87032" lon="6.07658">
        <ele>58.336393</ele>
        <time>2026-05-07T11:30:11.972Z</time>
      </trkpt>
      <trkpt lat="51.87029" lon="6.0764">
        <ele>58.614153</ele>
        <time>2026-05-07T11:30:14.986Z</time>
      </trkpt>
      <trkpt lat="51.87026" lon="6.07621">
        <ele>58.896111</ele>
        <time>2026-05-07T11:30:17.991Z</time>
      </trkpt>
      <trkpt lat="51.87023" lon="6.076">
        <ele>59.203048</ele>
        <time>2026-05-07T11:30:20.986Z</time>
      </trkpt>
      <trkpt lat="51.87022" lon="6.0758">
        <ele>59.49851</ele>
        <time>2026-05-07T11:30:23.977Z</time>
      </trkpt>
      <trkpt lat="51.8702" lon="6.0756">
        <ele>59.800076</ele>
        <time>2026-05-07T11:30:26.974Z</time>
      </trkpt>
      <trkpt lat="51.87018" lon="6.07545">
        <ele>60.016879</ele>
        <time>2026-05-07T11:30:28.989Z</time>
      </trkpt>
      <trkpt lat="51.87014" lon="6.07525">
        <ele>60.320933</ele>
        <time>2026-05-07T11:30:31.980Z</time>
      </trkpt>
      <trkpt lat="51.87012" lon="6.07511">
        <ele>60.258446</ele>
        <time>2026-05-07T11:30:33.979Z</time>
      </trkpt>
      <trkpt lat="51.8701" lon="6.07496">
        <ele>60.0865</ele>
        <time>2026-05-07T11:30:35.987Z</time>
      </trkpt>
      <trkpt lat="51.87008" lon="6.07482">
        <ele>59.914738</ele>
        <time>2026-05-07T11:30:37.990Z</time>
      </trkpt>
      <trkpt lat="51.87005" lon="6.07467">
        <ele>59.742337</ele>
        <time>2026-05-07T11:30:39.977Z</time>
      </trkpt>
      <trkpt lat="51.87003" lon="6.07452">
        <ele>59.56501</ele>
        <time>2026-05-07T11:30:41.982Z</time>
      </trkpt>
      <trkpt lat="51.87001" lon="6.07437">
        <ele>59.38206</ele>
        <time>2026-05-07T11:30:43.989Z</time>
      </trkpt>
      <trkpt lat="51.87" lon="6.07421">
        <ele>59.201025</ele>
        <time>2026-05-07T11:30:45.988Z</time>
      </trkpt>
      <trkpt lat="51.86999" lon="6.07406">
        <ele>59.019491</ele>
        <time>2026-05-07T11:30:47.982Z</time>
      </trkpt>
      <trkpt lat="51.86997" lon="6.07391">
        <ele>58.844792</ele>
        <time>2026-05-07T11:30:49.984Z</time>
      </trkpt>
      <trkpt lat="51.86996" lon="6.07375">
        <ele>58.666042</ele>
        <time>2026-05-07T11:30:51.981Z</time>
      </trkpt>
      <trkpt lat="51.86996" lon="6.0736">
        <ele>58.486357</ele>
        <time>2026-05-07T11:30:53.978Z</time>
      </trkpt>
      <trkpt lat="51.86995" lon="6.07344">
        <ele>58.305213</ele>
        <time>2026-05-07T11:30:55.984Z</time>
      </trkpt>
      <trkpt lat="51.86995" lon="6.07328">
        <ele>58.121875</ele>
        <time>2026-05-07T11:30:57.984Z</time>
      </trkpt>
      <trkpt lat="51.86995" lon="6.07312">
        <ele>57.942229</ele>
        <time>2026-05-07T11:30:59.982Z</time>
      </trkpt>
      <trkpt lat="51.86994" lon="6.07296">
        <ele>57.75852</ele>
        <time>2026-05-07T11:31:01.986Z</time>
      </trkpt>
      <trkpt lat="51.86993" lon="6.0728">
        <ele>57.57084</ele>
        <time>2026-05-07T11:31:03.969Z</time>
      </trkpt>
      <trkpt lat="51.86992" lon="6.07264">
        <ele>57.380431</ele>
        <time>2026-05-07T11:31:05.982Z</time>
      </trkpt>
      <trkpt lat="51.8699" lon="6.07248">
        <ele>57.195477</ele>
        <time>2026-05-07T11:31:07.993Z</time>
      </trkpt>
      <trkpt lat="51.86989" lon="6.07233">
        <ele>57.025749</ele>
        <time>2026-05-07T11:31:09.992Z</time>
      </trkpt>
      <trkpt lat="51.86987" lon="6.07214">
        <ele>56.989622</ele>
        <time>2026-05-07T11:31:12.982Z</time>
      </trkpt>
      <trkpt lat="51.86986" lon="6.07194">
        <ele>56.952535</ele>
        <time>2026-05-07T11:31:15.985Z</time>
      </trkpt>
      <trkpt lat="51.86981" lon="6.07179">
        <ele>56.920962</ele>
        <time>2026-05-07T11:31:18.987Z</time>
      </trkpt>
      <trkpt lat="51.86976" lon="6.07165">
        <ele>56.892847</ele>
        <time>2026-05-07T11:31:21.978Z</time>
      </trkpt>
      <trkpt lat="51.86971" lon="6.07149">
        <ele>56.858495</ele>
        <time>2026-05-07T11:31:25.982Z</time>
      </trkpt>
      <trkpt lat="51.86966" lon="6.07132">
        <ele>56.824509</ele>
        <time>2026-05-07T11:31:29.990Z</time>
      </trkpt>
      <trkpt lat="51.8696" lon="6.07118">
        <ele>56.792064</ele>
        <time>2026-05-07T11:31:32.973Z</time>
      </trkpt>
      <trkpt lat="51.86954" lon="6.07101">
        <ele>56.755676</ele>
        <time>2026-05-07T11:31:35.986Z</time>
      </trkpt>
      <trkpt lat="51.86948" lon="6.07089">
        <ele>56.727717</ele>
        <time>2026-05-07T11:31:37.985Z</time>
      </trkpt>
      <trkpt lat="51.86944" lon="6.07076">
        <ele>56.699999</ele>
        <time>2026-05-07T11:31:39.976Z</time>
      </trkpt>
      <trkpt lat="51.86938" lon="6.07063">
        <ele>56.671485</ele>
        <time>2026-05-07T11:31:41.979Z</time>
      </trkpt>
      <trkpt lat="51.86932" lon="6.07044">
        <ele>56.631053</ele>
        <time>2026-05-07T11:31:44.994Z</time>
      </trkpt>
      <trkpt lat="51.86927" lon="6.0703">
        <ele>56.602074</ele>
        <time>2026-05-07T11:31:46.990Z</time>
      </trkpt>
      <trkpt lat="51.86921" lon="6.07012">
        <ele>56.562339</ele>
        <time>2026-05-07T11:31:49.982Z</time>
      </trkpt>
      <trkpt lat="51.86914" lon="6.06994">
        <ele>56.523591</ele>
        <time>2026-05-07T11:31:52.993Z</time>
      </trkpt>
      <trkpt lat="51.8691" lon="6.06981">
        <ele>56.496737</ele>
        <time>2026-05-07T11:31:54.987Z</time>
      </trkpt>
      <trkpt lat="51.86905" lon="6.06968">
        <ele>56.464876</ele>
        <time>2026-05-07T11:31:56.994Z</time>
      </trkpt>
      <trkpt lat="51.869" lon="6.06955">
        <ele>56.430864</ele>
        <time>2026-05-07T11:31:58.980Z</time>
      </trkpt>
      <trkpt lat="51.86895" lon="6.06942">
        <ele>56.396674</ele>
        <time>2026-05-07T11:32:00.990Z</time>
      </trkpt>
      <trkpt lat="51.86889" lon="6.06929">
        <ele>56.362031</ele>
        <time>2026-05-07T11:32:02.987Z</time>
      </trkpt>
      <trkpt lat="51.86884" lon="6.06916">
        <ele>56.328206</ele>
        <time>2026-05-07T11:32:04.985Z</time>
      </trkpt>
      <trkpt lat="51.8688" lon="6.06902">
        <ele>56.293531</ele>
        <time>2026-05-07T11:32:06.978Z</time>
      </trkpt>
      <trkpt lat="51.86876" lon="6.06888">
        <ele>56.258682</ele>
        <time>2026-05-07T11:32:08.996Z</time>
      </trkpt>
      <trkpt lat="51.86871" lon="6.06874">
        <ele>56.222917</ele>
        <time>2026-05-07T11:32:10.983Z</time>
      </trkpt>
      <trkpt lat="51.86867" lon="6.0686">
        <ele>56.188299</ele>
        <time>2026-05-07T11:32:12.989Z</time>
      </trkpt>
      <trkpt lat="51.86861" lon="6.06846">
        <ele>56.151845</ele>
        <time>2026-05-07T11:32:14.991Z</time>
      </trkpt>
      <trkpt lat="51.86856" lon="6.06832">
        <ele>56.116144</ele>
        <time>2026-05-07T11:32:16.985Z</time>
      </trkpt>
      <trkpt lat="51.86851" lon="6.06818">
        <ele>56.080061</ele>
        <time>2026-05-07T11:32:18.982Z</time>
      </trkpt>
      <trkpt lat="51.86846" lon="6.06805">
        <ele>56.045495</ele>
        <time>2026-05-07T11:32:20.986Z</time>
      </trkpt>
      <trkpt lat="51.86841" lon="6.06791">
        <ele>56.008851</ele>
        <time>2026-05-07T11:32:22.993Z</time>
      </trkpt>
      <trkpt lat="51.86836" lon="6.06777">
        <ele>55.97342</ele>
        <time>2026-05-07T11:32:24.983Z</time>
      </trkpt>
      <trkpt lat="51.8683" lon="6.06764">
        <ele>55.938596</ele>
        <time>2026-05-07T11:32:26.983Z</time>
      </trkpt>
      <trkpt lat="51.86826" lon="6.0675">
        <ele>55.903629</ele>
        <time>2026-05-07T11:32:28.983Z</time>
      </trkpt>
      <trkpt lat="51.86821" lon="6.06737">
        <ele>55.869572</ele>
        <time>2026-05-07T11:32:30.978Z</time>
      </trkpt>
      <trkpt lat="51.86816" lon="6.06723">
        <ele>55.844752</ele>
        <time>2026-05-07T11:32:32.987Z</time>
      </trkpt>
      <trkpt lat="51.86812" lon="6.0671">
        <ele>55.873181</ele>
        <time>2026-05-07T11:32:34.988Z</time>
      </trkpt>
      <trkpt lat="51.86807" lon="6.06696">
        <ele>55.90147</ele>
        <time>2026-05-07T11:32:36.984Z</time>
      </trkpt>
      <trkpt lat="51.86803" lon="6.06682">
        <ele>55.930814</ele>
        <time>2026-05-07T11:32:38.978Z</time>
      </trkpt>
      <trkpt lat="51.86798" lon="6.06668">
        <ele>55.960773</ele>
        <time>2026-05-07T11:32:40.980Z</time>
      </trkpt>
      <trkpt lat="51.86792" lon="6.06654">
        <ele>55.991353</ele>
        <time>2026-05-07T11:32:42.980Z</time>
      </trkpt>
      <trkpt lat="51.86788" lon="6.06641">
        <ele>56.019458</ele>
        <time>2026-05-07T11:32:44.976Z</time>
      </trkpt>
      <trkpt lat="51.86783" lon="6.06623">
        <ele>56.05519</ele>
        <time>2026-05-07T11:32:47.986Z</time>
      </trkpt>
      <trkpt lat="51.86781" lon="6.06606">
        <ele>56.086478</ele>
        <time>2026-05-07T11:32:50.981Z</time>
      </trkpt>
      <trkpt lat="51.86782" lon="6.06588">
        <ele>56.12028</ele>
        <time>2026-05-07T11:32:53.979Z</time>
      </trkpt>
      <trkpt lat="51.86785" lon="6.06569">
        <ele>56.155879</ele>
        <time>2026-05-07T11:32:56.989Z</time>
      </trkpt>
      <trkpt lat="51.86788" lon="6.0655">
        <ele>56.192699</ele>
        <time>2026-05-07T11:32:59.979Z</time>
      </trkpt>
      <trkpt lat="51.86792" lon="6.0653">
        <ele>56.230665</ele>
        <time>2026-05-07T11:33:02.974Z</time>
      </trkpt>
      <trkpt lat="51.86795" lon="6.06511">
        <ele>56.266263</ele>
        <time>2026-05-07T11:33:05.990Z</time>
      </trkpt>
      <trkpt lat="51.86797" lon="6.06494">
        <ele>56.299929</ele>
        <time>2026-05-07T11:33:08.973Z</time>
      </trkpt>
      <trkpt lat="51.868" lon="6.06476">
        <ele>56.332602</ele>
        <time>2026-05-07T11:33:11.982Z</time>
      </trkpt>
      <trkpt lat="51.86803" lon="6.06458">
        <ele>56.366732</ele>
        <time>2026-05-07T11:33:14.988Z</time>
      </trkpt>
      <trkpt lat="51.86807" lon="6.0644">
        <ele>56.342579</ele>
        <time>2026-05-07T11:33:17.985Z</time>
      </trkpt>
      <trkpt lat="51.86812" lon="6.06422">
        <ele>56.293588</ele>
        <time>2026-05-07T11:33:20.985Z</time>
      </trkpt>
      <trkpt lat="51.86818" lon="6.06405">
        <ele>56.244874</ele>
        <time>2026-05-07T11:33:23.986Z</time>
      </trkpt>
      <trkpt lat="51.86824" lon="6.06389">
        <ele>56.195925</ele>
        <time>2026-05-07T11:33:26.980Z</time>
      </trkpt>
      <trkpt lat="51.86831" lon="6.06374">
        <ele>56.149695</ele>
        <time>2026-05-07T11:33:29.988Z</time>
      </trkpt>
      <trkpt lat="51.86838" lon="6.06358">
        <ele>56.101267</ele>
        <time>2026-05-07T11:33:32.982Z</time>
      </trkpt>
      <trkpt lat="51.86846" lon="6.06342">
        <ele>56.049983</ele>
        <time>2026-05-07T11:33:35.986Z</time>
      </trkpt>
      <trkpt lat="51.86853" lon="6.06325">
        <ele>55.999317</ele>
        <time>2026-05-07T11:33:38.987Z</time>
      </trkpt>
      <trkpt lat="51.86861" lon="6.06309">
        <ele>55.948277</ele>
        <time>2026-05-07T11:33:41.980Z</time>
      </trkpt>
      <trkpt lat="51.86868" lon="6.06294">
        <ele>55.899266</ele>
        <time>2026-05-07T11:33:44.978Z</time>
      </trkpt>
      <trkpt lat="51.86876" lon="6.06278">
        <ele>55.848968</ele>
        <time>2026-05-07T11:33:47.987Z</time>
      </trkpt>
      <trkpt lat="51.86883" lon="6.06263">
        <ele>55.799839</ele>
        <time>2026-05-07T11:33:50.977Z</time>
      </trkpt>
      <trkpt lat="51.86891" lon="6.06246">
        <ele>55.749081</ele>
        <time>2026-05-07T11:33:53.983Z</time>
      </trkpt>
      <trkpt lat="51.86898" lon="6.0623">
        <ele>55.69844</ele>
        <time>2026-05-07T11:33:56.984Z</time>
      </trkpt>
      <trkpt lat="51.86908" lon="6.06215">
        <ele>55.64374</ele>
        <time>2026-05-07T11:33:59.982Z</time>
      </trkpt>
      <trkpt lat="51.86916" lon="6.06199">
        <ele>55.528237</ele>
        <time>2026-05-07T11:34:02.984Z</time>
      </trkpt>
      <trkpt lat="51.86922" lon="6.06187">
        <ele>55.446472</ele>
        <time>2026-05-07T11:34:04.975Z</time>
      </trkpt>
      <trkpt lat="51.86927" lon="6.06174">
        <ele>55.364718</ele>
        <time>2026-05-07T11:34:06.982Z</time>
      </trkpt>
      <trkpt lat="51.86933" lon="6.06161">
        <ele>55.281645</ele>
        <time>2026-05-07T11:34:08.984Z</time>
      </trkpt>
      <trkpt lat="51.86939" lon="6.06149">
        <ele>55.199244</ele>
        <time>2026-05-07T11:34:10.986Z</time>
      </trkpt>
      <trkpt lat="51.86944" lon="6.06136">
        <ele>55.116995</ele>
        <time>2026-05-07T11:34:12.978Z</time>
      </trkpt>
      <trkpt lat="51.8695" lon="6.06124">
        <ele>55.035447</ele>
        <time>2026-05-07T11:34:14.982Z</time>
      </trkpt>
      <trkpt lat="51.86955" lon="6.06111">
        <ele>54.952263</ele>
        <time>2026-05-07T11:34:16.977Z</time>
      </trkpt>
      <trkpt lat="51.86961" lon="6.06099">
        <ele>54.867756</ele>
        <time>2026-05-07T11:34:18.977Z</time>
      </trkpt>
      <trkpt lat="51.86967" lon="6.06087">
        <ele>54.785684</ele>
        <time>2026-05-07T11:34:20.990Z</time>
      </trkpt>
      <trkpt lat="51.86973" lon="6.06075">
        <ele>54.705596</ele>
        <time>2026-05-07T11:34:22.979Z</time>
      </trkpt>
      <trkpt lat="51.86979" lon="6.06063">
        <ele>54.622447</ele>
        <time>2026-05-07T11:34:24.989Z</time>
      </trkpt>
      <trkpt lat="51.86985" lon="6.06051">
        <ele>54.537399</ele>
        <time>2026-05-07T11:34:26.975Z</time>
      </trkpt>
      <trkpt lat="51.86992" lon="6.0604">
        <ele>54.456243</ele>
        <time>2026-05-07T11:34:28.989Z</time>
      </trkpt>
      <trkpt lat="51.86999" lon="6.06029">
        <ele>54.376593</ele>
        <time>2026-05-07T11:34:30.988Z</time>
      </trkpt>
      <trkpt lat="51.87005" lon="6.06018">
        <ele>54.295114</ele>
        <time>2026-05-07T11:34:32.994Z</time>
      </trkpt>
      <trkpt lat="51.8701" lon="6.06005">
        <ele>54.212967</ele>
        <time>2026-05-07T11:34:34.980Z</time>
      </trkpt>
      <trkpt lat="51.87015" lon="6.05992">
        <ele>54.129508</ele>
        <time>2026-05-07T11:34:36.979Z</time>
      </trkpt>
      <trkpt lat="51.8702" lon="6.05977">
        <ele>54.093883</ele>
        <time>2026-05-07T11:34:38.978Z</time>
      </trkpt>
      <trkpt lat="51.87024" lon="6.05963">
        <ele>54.089901</ele>
        <time>2026-05-07T11:34:40.982Z</time>
      </trkpt>
      <trkpt lat="51.87028" lon="6.05948">
        <ele>54.085792</ele>
        <time>2026-05-07T11:34:42.971Z</time>
      </trkpt>
      <trkpt lat="51.87033" lon="6.05933">
        <ele>54.081603</ele>
        <time>2026-05-07T11:34:44.985Z</time>
      </trkpt>
      <trkpt lat="51.87037" lon="6.05919">
        <ele>54.077521</ele>
        <time>2026-05-07T11:34:46.987Z</time>
      </trkpt>
      <trkpt lat="51.87042" lon="6.05904">
        <ele>54.073425</ele>
        <time>2026-05-07T11:34:48.985Z</time>
      </trkpt>
      <trkpt lat="51.87047" lon="6.0589">
        <ele>54.069329</ele>
        <time>2026-05-07T11:34:50.990Z</time>
      </trkpt>
      <trkpt lat="51.87051" lon="6.05876">
        <ele>54.065409</ele>
        <time>2026-05-07T11:34:52.980Z</time>
      </trkpt>
      <trkpt lat="51.87055" lon="6.05862">
        <ele>54.061484</ele>
        <time>2026-05-07T11:34:54.978Z</time>
      </trkpt>
      <trkpt lat="51.8706" lon="6.05848">
        <ele>54.057597</ele>
        <time>2026-05-07T11:34:56.990Z</time>
      </trkpt>
      <trkpt lat="51.87064" lon="6.05834">
        <ele>54.053597</ele>
        <time>2026-05-07T11:34:58.975Z</time>
      </trkpt>
      <trkpt lat="51.87068" lon="6.0582">
        <ele>54.049668</ele>
        <time>2026-05-07T11:35:00.979Z</time>
      </trkpt>
      <trkpt lat="51.87072" lon="6.05806">
        <ele>54.045783</ele>
        <time>2026-05-07T11:35:02.983Z</time>
      </trkpt>
      <trkpt lat="51.87076" lon="6.05792">
        <ele>54.04189</ele>
        <time>2026-05-07T11:35:04.986Z</time>
      </trkpt>
      <trkpt lat="51.87079" lon="6.05777">
        <ele>54.037985</ele>
        <time>2026-05-07T11:35:06.976Z</time>
      </trkpt>
      <trkpt lat="51.87082" lon="6.05763">
        <ele>54.03431</ele>
        <time>2026-05-07T11:35:08.992Z</time>
      </trkpt>
      <trkpt lat="51.8709" lon="6.05748">
        <ele>54.029203</ele>
        <time>2026-05-07T11:35:11.984Z</time>
      </trkpt>
      <trkpt lat="51.871" lon="6.05733">
        <ele>54.023659</ele>
        <time>2026-05-07T11:35:14.987Z</time>
      </trkpt>
      <trkpt lat="51.87107" lon="6.05723">
        <ele>54.06055</ele>
        <time>2026-05-07T11:35:16.987Z</time>
      </trkpt>
      <trkpt lat="51.87116" lon="6.05709">
        <ele>54.119205</ele>
        <time>2026-05-07T11:35:19.984Z</time>
      </trkpt>
      <trkpt lat="51.87124" lon="6.05695">
        <ele>54.175937</ele>
        <time>2026-05-07T11:35:22.977Z</time>
      </trkpt>
      <trkpt lat="51.87132" lon="6.05681">
        <ele>54.230201</ele>
        <time>2026-05-07T11:35:25.977Z</time>
      </trkpt>
      <trkpt lat="51.87142" lon="6.05678">
        <ele>54.280807</ele>
        <time>2026-05-07T11:35:29.974Z</time>
      </trkpt>
      <trkpt lat="51.87152" lon="6.05676">
        <ele>54.325957</ele>
        <time>2026-05-07T11:35:32.984Z</time>
      </trkpt>
      <trkpt lat="51.87164" lon="6.05675">
        <ele>54.382143</ele>
        <time>2026-05-07T11:35:35.974Z</time>
      </trkpt>
      <trkpt lat="51.87176" lon="6.05675">
        <ele>54.440459</ele>
        <time>2026-05-07T11:35:38.979Z</time>
      </trkpt>
      <trkpt lat="51.87188" lon="6.05675">
        <ele>54.498305</ele>
        <time>2026-05-07T11:35:41.979Z</time>
      </trkpt>
      <trkpt lat="51.87201" lon="6.05675">
        <ele>54.558042</ele>
        <time>2026-05-07T11:35:44.977Z</time>
      </trkpt>
      <trkpt lat="51.87213" lon="6.05674">
        <ele>54.615889</ele>
        <time>2026-05-07T11:35:47.980Z</time>
      </trkpt>
      <trkpt lat="51.87224" lon="6.05675">
        <ele>54.667574</ele>
        <time>2026-05-07T11:35:50.981Z</time>
      </trkpt>
      <trkpt lat="51.87235" lon="6.05676">
        <ele>54.719786</ele>
        <time>2026-05-07T11:35:53.986Z</time>
      </trkpt>
      <trkpt lat="51.87243" lon="6.05689">
        <ele>54.773264</ele>
        <time>2026-05-07T11:35:56.980Z</time>
      </trkpt>
      <trkpt lat="51.87247" lon="6.05707">
        <ele>54.830306</ele>
        <time>2026-05-07T11:35:59.986Z</time>
      </trkpt>
      <trkpt lat="51.87254" lon="6.05724">
        <ele>54.895248</ele>
        <time>2026-05-07T11:36:02.979Z</time>
      </trkpt>
      <trkpt lat="51.8726" lon="6.05741">
        <ele>54.991466</ele>
        <time>2026-05-07T11:36:05.981Z</time>
      </trkpt>
      <trkpt lat="51.87267" lon="6.05758">
        <ele>55.086492</ele>
        <time>2026-05-07T11:36:08.990Z</time>
      </trkpt>
      <trkpt lat="51.87273" lon="6.05776">
        <ele>55.182809</ele>
        <time>2026-05-07T11:36:11.981Z</time>
      </trkpt>
      <trkpt lat="51.87279" lon="6.05793">
        <ele>55.27702</ele>
        <time>2026-05-07T11:36:14.992Z</time>
      </trkpt>
      <trkpt lat="51.87284" lon="6.05811">
        <ele>55.372224</ele>
        <time>2026-05-07T11:36:17.987Z</time>
      </trkpt>
      <trkpt lat="51.8729" lon="6.05827">
        <ele>55.461617</ele>
        <time>2026-05-07T11:36:20.988Z</time>
      </trkpt>
      <trkpt lat="51.873" lon="6.05833">
        <ele>55.536601</ele>
        <time>2026-05-07T11:36:24.986Z</time>
      </trkpt>
      <trkpt lat="51.87309" lon="6.05824">
        <ele>55.621837</ele>
        <time>2026-05-07T11:36:29.982Z</time>
      </trkpt>
      <trkpt lat="51.87316" lon="6.05809">
        <ele>55.706685</ele>
        <time>2026-05-07T11:36:33.974Z</time>
      </trkpt>
      <trkpt lat="51.8732" lon="6.05795">
        <ele>55.780646</ele>
        <time>2026-05-07T11:36:37.994Z</time>
      </trkpt>
      <trkpt lat="51.87325" lon="6.05778">
        <ele>55.871876</ele>
        <time>2026-05-07T11:36:41.988Z</time>
      </trkpt>
      <trkpt lat="51.87327" lon="6.05763">
        <ele>55.944657</ele>
        <time>2026-05-07T11:36:44.983Z</time>
      </trkpt>
      <trkpt lat="51.87331" lon="6.05749">
        <ele>56.015713</ele>
        <time>2026-05-07T11:36:47.986Z</time>
      </trkpt>
      <trkpt lat="51.87335" lon="6.05734">
        <ele>56.093588</ele>
        <time>2026-05-07T11:36:50.977Z</time>
      </trkpt>
      <trkpt lat="51.8734" lon="6.05719">
        <ele>56.17507</ele>
        <time>2026-05-07T11:36:53.991Z</time>
      </trkpt>
      <trkpt lat="51.87344" lon="6.05701">
        <ele>56.261288</ele>
        <time>2026-05-07T11:36:56.987Z</time>
      </trkpt>
      <trkpt lat="51.87345" lon="6.0568">
        <ele>56.327588</ele>
        <time>2026-05-07T11:36:59.981Z</time>
      </trkpt>
      <trkpt lat="51.87344" lon="6.05665">
        <ele>56.374069</ele>
        <time>2026-05-07T11:37:01.982Z</time>
      </trkpt>
      <trkpt lat="51.87342" lon="6.05644">
        <ele>56.442327</ele>
        <time>2026-05-07T11:37:04.976Z</time>
      </trkpt>
      <trkpt lat="51.87341" lon="6.05628">
        <ele>56.491122</ele>
        <time>2026-05-07T11:37:06.989Z</time>
      </trkpt>
      <trkpt lat="51.8734" lon="6.05613">
        <ele>56.538536</ele>
        <time>2026-05-07T11:37:08.983Z</time>
      </trkpt>
      <trkpt lat="51.87339" lon="6.05598">
        <ele>56.58583</ele>
        <time>2026-05-07T11:37:10.977Z</time>
      </trkpt>
      <trkpt lat="51.87337" lon="6.05584">
        <ele>56.632501</ele>
        <time>2026-05-07T11:37:12.992Z</time>
      </trkpt>
      <trkpt lat="51.87335" lon="6.05569">
        <ele>56.680342</ele>
        <time>2026-05-07T11:37:14.983Z</time>
      </trkpt>
      <trkpt lat="51.87333" lon="6.05554">
        <ele>56.727445</ele>
        <time>2026-05-07T11:37:16.994Z</time>
      </trkpt>
      <trkpt lat="51.87333" lon="6.05539">
        <ele>56.774221</ele>
        <time>2026-05-07T11:37:18.983Z</time>
      </trkpt>
      <trkpt lat="51.87332" lon="6.05523">
        <ele>56.822852</ele>
        <time>2026-05-07T11:37:20.990Z</time>
      </trkpt>
      <trkpt lat="51.87331" lon="6.05508">
        <ele>56.87151</ele>
        <time>2026-05-07T11:37:22.989Z</time>
      </trkpt>
      <trkpt lat="51.8733" lon="6.05493">
        <ele>56.919484</ele>
        <time>2026-05-07T11:37:24.981Z</time>
      </trkpt>
      <trkpt lat="51.87329" lon="6.05478">
        <ele>56.966965</ele>
        <time>2026-05-07T11:37:26.978Z</time>
      </trkpt>
      <trkpt lat="51.87328" lon="6.05463">
        <ele>57.013694</ele>
        <time>2026-05-07T11:37:28.982Z</time>
      </trkpt>
      <trkpt lat="51.87326" lon="6.05442">
        <ele>57.080612</ele>
        <time>2026-05-07T11:37:31.992Z</time>
      </trkpt>
      <trkpt lat="51.87333" lon="6.05426">
        <ele>57.141573</ele>
        <time>2026-05-07T11:37:34.979Z</time>
      </trkpt>
      <trkpt lat="51.87345" lon="6.05423">
        <ele>57.155386</ele>
        <time>2026-05-07T11:37:37.975Z</time>
      </trkpt>
      <trkpt lat="51.87357" lon="6.05418">
        <ele>57.136352</ele>
        <time>2026-05-07T11:37:40.998Z</time>
      </trkpt>
      <trkpt lat="51.87366" lon="6.05403">
        <ele>57.117012</ele>
        <time>2026-05-07T11:37:43.966Z</time>
      </trkpt>
      <trkpt lat="51.87374" lon="6.05387">
        <ele>57.097751</ele>
        <time>2026-05-07T11:37:46.978Z</time>
      </trkpt>
      <trkpt lat="51.87377" lon="6.05368">
        <ele>57.079731</ele>
        <time>2026-05-07T11:37:49.991Z</time>
      </trkpt>
      <trkpt lat="51.87379" lon="6.05349">
        <ele>57.060936</ele>
        <time>2026-05-07T11:37:52.993Z</time>
      </trkpt>
      <trkpt lat="51.87381" lon="6.05334">
        <ele>57.047084</ele>
        <time>2026-05-07T11:37:54.981Z</time>
      </trkpt>
      <trkpt lat="51.87383" lon="6.05313">
        <ele>57.027218</ele>
        <time>2026-05-07T11:37:57.987Z</time>
      </trkpt>
      <trkpt lat="51.87385" lon="6.05293">
        <ele>57.00729</ele>
        <time>2026-05-07T11:38:00.982Z</time>
      </trkpt>
      <trkpt lat="51.87388" lon="6.05278">
        <ele>56.993289</ele>
        <time>2026-05-07T11:38:02.990Z</time>
      </trkpt>
      <trkpt lat="51.8739" lon="6.05264">
        <ele>56.979288</ele>
        <time>2026-05-07T11:38:04.985Z</time>
      </trkpt>
      <trkpt lat="51.87392" lon="6.05243">
        <ele>56.95951</ele>
        <time>2026-05-07T11:38:07.976Z</time>
      </trkpt>
      <trkpt lat="51.87395" lon="6.05223">
        <ele>56.939731</ele>
        <time>2026-05-07T11:38:10.985Z</time>
      </trkpt>
      <trkpt lat="51.87398" lon="6.05204">
        <ele>56.921164</ele>
        <time>2026-05-07T11:38:13.979Z</time>
      </trkpt>
      <trkpt lat="51.87401" lon="6.0519">
        <ele>56.906943</ele>
        <time>2026-05-07T11:38:16.980Z</time>
      </trkpt>
      <trkpt lat="51.87403" lon="6.05176">
        <ele>56.892991</ele>
        <time>2026-05-07T11:38:19.977Z</time>
      </trkpt>
      <trkpt lat="51.87407" lon="6.05158">
        <ele>56.810169</ele>
        <time>2026-05-07T11:38:22.986Z</time>
      </trkpt>
      <trkpt lat="51.87411" lon="6.05139">
        <ele>56.715561</ele>
        <time>2026-05-07T11:38:25.990Z</time>
      </trkpt>
      <trkpt lat="51.87413" lon="6.05118">
        <ele>56.616021</ele>
        <time>2026-05-07T11:38:28.981Z</time>
      </trkpt>
      <trkpt lat="51.87413" lon="6.05102">
        <ele>56.537553</ele>
        <time>2026-05-07T11:38:31.991Z</time>
      </trkpt>
      <trkpt lat="51.87412" lon="6.05084">
        <ele>56.451494</ele>
        <time>2026-05-07T11:42:08.994Z</time>
      </trkpt>
      <trkpt lat="51.87423" lon="6.0509">
        <ele>56.359439</ele>
        <time>2026-05-07T11:46:02.987Z</time>
      </trkpt>
      <trkpt lat="51.87433" lon="6.05086">
        <ele>56.280918</ele>
        <time>2026-05-07T11:46:06.987Z</time>
      </trkpt>
      <trkpt lat="51.87443" lon="6.05085">
        <ele>56.208774</ele>
        <time>2026-05-07T11:46:09.982Z</time>
      </trkpt>
      <trkpt lat="51.87453" lon="6.05086">
        <ele>56.131285</ele>
        <time>2026-05-07T11:46:12.986Z</time>
      </trkpt>
      <trkpt lat="51.87463" lon="6.05086">
        <ele>56.053204</ele>
        <time>2026-05-07T11:46:15.984Z</time>
      </trkpt>
      <trkpt lat="51.87473" lon="6.05088">
        <ele>55.975607</ele>
        <time>2026-05-07T11:46:18.982Z</time>
      </trkpt>
      <trkpt lat="51.87483" lon="6.05089">
        <ele>55.895721</ele>
        <time>2026-05-07T11:46:21.987Z</time>
      </trkpt>
      <trkpt lat="51.87495" lon="6.05089">
        <ele>55.809208</ele>
        <time>2026-05-07T11:46:24.981Z</time>
      </trkpt>
      <trkpt lat="51.87506" lon="6.05088">
        <ele>55.721896</ele>
        <time>2026-05-07T11:46:27.984Z</time>
      </trkpt>
      <trkpt lat="51.87517" lon="6.05088">
        <ele>55.640686</ele>
        <time>2026-05-07T11:46:30.989Z</time>
      </trkpt>
      <trkpt lat="51.87528" lon="6.05084">
        <ele>55.550274</ele>
        <time>2026-05-07T11:46:33.978Z</time>
      </trkpt>
      <trkpt lat="51.87541" lon="6.05078">
        <ele>55.434221</ele>
        <time>2026-05-07T11:46:36.983Z</time>
      </trkpt>
      <trkpt lat="51.87554" lon="6.05072">
        <ele>55.305643</ele>
        <time>2026-05-07T11:46:39.982Z</time>
      </trkpt>
      <trkpt lat="51.87566" lon="6.05066">
        <ele>55.184702</ele>
        <time>2026-05-07T11:46:42.984Z</time>
      </trkpt>
      <trkpt lat="51.87578" lon="6.05061">
        <ele>55.064452</ele>
        <time>2026-05-07T11:46:45.981Z</time>
      </trkpt>
      <trkpt lat="51.87589" lon="6.05056">
        <ele>54.952833</ele>
        <time>2026-05-07T11:46:48.997Z</time>
      </trkpt>
      <trkpt lat="51.87599" lon="6.05052">
        <ele>54.850094</ele>
        <time>2026-05-07T11:46:51.981Z</time>
      </trkpt>
      <trkpt lat="51.87609" lon="6.05045">
        <ele>54.749734</ele>
        <time>2026-05-07T11:46:54.983Z</time>
      </trkpt>
      <trkpt lat="51.87616" lon="6.05033">
        <ele>54.655382</ele>
        <time>2026-05-07T11:46:57.973Z</time>
      </trkpt>
      <trkpt lat="51.87627" lon="6.05025">
        <ele>54.538534</ele>
        <time>2026-05-07T11:47:00.976Z</time>
      </trkpt>
      <trkpt lat="51.87639" lon="6.0502">
        <ele>54.412584</ele>
        <time>2026-05-07T11:47:03.974Z</time>
      </trkpt>
      <trkpt lat="51.87648" lon="6.05016">
        <ele>54.325457</ele>
        <time>2026-05-07T11:47:05.974Z</time>
      </trkpt>
      <trkpt lat="51.87661" lon="6.05011">
        <ele>54.199493</ele>
        <time>2026-05-07T11:47:08.980Z</time>
      </trkpt>
      <trkpt lat="51.87674" lon="6.05006">
        <ele>54.072451</ele>
        <time>2026-05-07T11:47:11.974Z</time>
      </trkpt>
      <trkpt lat="51.87682" lon="6.05001">
        <ele>53.983162</ele>
        <time>2026-05-07T11:47:13.985Z</time>
      </trkpt>
      <trkpt lat="51.87691" lon="6.04996">
        <ele>53.894602</ele>
        <time>2026-05-07T11:47:15.977Z</time>
      </trkpt>
      <trkpt lat="51.877" lon="6.04992">
        <ele>53.802756</ele>
        <time>2026-05-07T11:47:17.984Z</time>
      </trkpt>
      <trkpt lat="51.8771" lon="6.04987">
        <ele>53.771362</ele>
        <time>2026-05-07T11:47:19.991Z</time>
      </trkpt>
      <trkpt lat="51.87719" lon="6.04983">
        <ele>53.754144</ele>
        <time>2026-05-07T11:47:21.980Z</time>
      </trkpt>
      <trkpt lat="51.87729" lon="6.04979">
        <ele>53.73624</ele>
        <time>2026-05-07T11:47:23.984Z</time>
      </trkpt>
      <trkpt lat="51.87739" lon="6.04975">
        <ele>53.717693</ele>
        <time>2026-05-07T11:47:25.974Z</time>
      </trkpt>
      <trkpt lat="51.8775" lon="6.04972">
        <ele>53.699277</ele>
        <time>2026-05-07T11:47:27.979Z</time>
      </trkpt>
      <trkpt lat="51.8776" lon="6.04968">
        <ele>53.680627</ele>
        <time>2026-05-07T11:47:29.983Z</time>
      </trkpt>
      <trkpt lat="51.8777" lon="6.04965">
        <ele>53.662038</ele>
        <time>2026-05-07T11:47:31.983Z</time>
      </trkpt>
      <trkpt lat="51.87781" lon="6.04961">
        <ele>53.64357</ele>
        <time>2026-05-07T11:47:33.987Z</time>
      </trkpt>
      <trkpt lat="51.87791" lon="6.04957">
        <ele>53.625273</ele>
        <time>2026-05-07T11:47:35.983Z</time>
      </trkpt>
      <trkpt lat="51.87801" lon="6.04953">
        <ele>53.607291</ele>
        <time>2026-05-07T11:47:37.995Z</time>
      </trkpt>
      <trkpt lat="51.8781" lon="6.04949">
        <ele>53.58948</ele>
        <time>2026-05-07T11:47:39.982Z</time>
      </trkpt>
      <trkpt lat="51.8782" lon="6.04944">
        <ele>53.571333</ele>
        <time>2026-05-07T11:47:41.989Z</time>
      </trkpt>
      <trkpt lat="51.8783" lon="6.0494">
        <ele>53.553607</ele>
        <time>2026-05-07T11:47:43.975Z</time>
      </trkpt>
      <trkpt lat="51.87839" lon="6.04935">
        <ele>53.536108</ele>
        <time>2026-05-07T11:47:45.990Z</time>
      </trkpt>
      <trkpt lat="51.87849" lon="6.04932">
        <ele>53.519032</ele>
        <time>2026-05-07T11:47:47.978Z</time>
      </trkpt>
      <trkpt lat="51.87859" lon="6.04928">
        <ele>53.501324</ele>
        <time>2026-05-07T11:47:49.988Z</time>
      </trkpt>
      <trkpt lat="51.87869" lon="6.04923">
        <ele>53.482771</ele>
        <time>2026-05-07T11:47:51.982Z</time>
      </trkpt>
      <trkpt lat="51.87878" lon="6.04918">
        <ele>53.444546</ele>
        <time>2026-05-07T11:47:53.979Z</time>
      </trkpt>
      <trkpt lat="51.87888" lon="6.04915">
        <ele>53.338092</ele>
        <time>2026-05-07T11:47:55.985Z</time>
      </trkpt>
      <trkpt lat="51.87898" lon="6.04911">
        <ele>53.234638</ele>
        <time>2026-05-07T11:47:57.982Z</time>
      </trkpt>
      <trkpt lat="51.87907" lon="6.04906">
        <ele>53.129824</ele>
        <time>2026-05-07T11:47:59.969Z</time>
      </trkpt>
      <trkpt lat="51.87917" lon="6.04903">
        <ele>53.027472</ele>
        <time>2026-05-07T11:48:01.981Z</time>
      </trkpt>
      <trkpt lat="51.87926" lon="6.04898">
        <ele>52.924678</ele>
        <time>2026-05-07T11:48:03.979Z</time>
      </trkpt>
      <trkpt lat="51.87936" lon="6.04894">
        <ele>52.816298</ele>
        <time>2026-05-07T11:48:05.978Z</time>
      </trkpt>
      <trkpt lat="51.87946" lon="6.0489">
        <ele>52.707218</ele>
        <time>2026-05-07T11:48:07.978Z</time>
      </trkpt>
      <trkpt lat="51.87956" lon="6.04886">
        <ele>52.601354</ele>
        <time>2026-05-07T11:48:09.991Z</time>
      </trkpt>
      <trkpt lat="51.87966" lon="6.04882">
        <ele>52.495529</ele>
        <time>2026-05-07T11:48:11.980Z</time>
      </trkpt>
      <trkpt lat="51.87976" lon="6.04877">
        <ele>52.390047</ele>
        <time>2026-05-07T11:48:13.994Z</time>
      </trkpt>
      <trkpt lat="51.87985" lon="6.04873">
        <ele>52.284223</ele>
        <time>2026-05-07T11:48:15.975Z</time>
      </trkpt>
      <trkpt lat="51.87995" lon="6.04869">
        <ele>52.17499</ele>
        <time>2026-05-07T11:48:17.976Z</time>
      </trkpt>
      <trkpt lat="51.88005" lon="6.04865">
        <ele>52.067979</ele>
        <time>2026-05-07T11:48:19.981Z</time>
      </trkpt>
      <trkpt lat="51.88015" lon="6.0486">
        <ele>51.959956</ele>
        <time>2026-05-07T11:48:21.984Z</time>
      </trkpt>
      <trkpt lat="51.88025" lon="6.04856">
        <ele>51.850409</ele>
        <time>2026-05-07T11:48:23.981Z</time>
      </trkpt>
      <trkpt lat="51.88035" lon="6.04852">
        <ele>51.741764</ele>
        <time>2026-05-07T11:48:25.983Z</time>
      </trkpt>
      <trkpt lat="51.88045" lon="6.04848">
        <ele>51.632532</ele>
        <time>2026-05-07T11:48:27.977Z</time>
      </trkpt>
      <trkpt lat="51.88055" lon="6.04844">
        <ele>51.590816</ele>
        <time>2026-05-07T11:48:29.993Z</time>
      </trkpt>
      <trkpt lat="51.88065" lon="6.0484">
        <ele>51.613746</ele>
        <time>2026-05-07T11:48:31.978Z</time>
      </trkpt>
      <trkpt lat="51.88075" lon="6.04834">
        <ele>51.63657</ele>
        <time>2026-05-07T11:48:33.990Z</time>
      </trkpt>
      <trkpt lat="51.88086" lon="6.04828">
        <ele>51.660464</ele>
        <time>2026-05-07T11:48:35.975Z</time>
      </trkpt>
      <trkpt lat="51.88097" lon="6.04823">
        <ele>51.685148</ele>
        <time>2026-05-07T11:48:37.978Z</time>
      </trkpt>
      <trkpt lat="51.88107" lon="6.04819">
        <ele>51.708761</ele>
        <time>2026-05-07T11:48:39.983Z</time>
      </trkpt>
      <trkpt lat="51.88117" lon="6.04816">
        <ele>51.729713</ele>
        <time>2026-05-07T11:48:41.986Z</time>
      </trkpt>
      <trkpt lat="51.88128" lon="6.0481">
        <ele>51.754852</ele>
        <time>2026-05-07T11:48:44.991Z</time>
      </trkpt>
      <trkpt lat="51.88138" lon="6.04806">
        <ele>51.7778</ele>
        <time>2026-05-07T11:48:47.989Z</time>
      </trkpt>
      <trkpt lat="51.88151" lon="6.04801">
        <ele>51.806921</ele>
        <time>2026-05-07T11:48:50.983Z</time>
      </trkpt>
      <trkpt lat="51.88161" lon="6.04797">
        <ele>51.828312</ele>
        <time>2026-05-07T11:48:52.993Z</time>
      </trkpt>
      <trkpt lat="51.88171" lon="6.04793">
        <ele>51.851174</ele>
        <time>2026-05-07T11:48:54.987Z</time>
      </trkpt>
      <trkpt lat="51.88181" lon="6.04791">
        <ele>51.874313</ele>
        <time>2026-05-07T11:48:56.981Z</time>
      </trkpt>
      <trkpt lat="51.88192" lon="6.04787">
        <ele>51.898401</ele>
        <time>2026-05-07T11:48:58.983Z</time>
      </trkpt>
      <trkpt lat="51.88204" lon="6.04782">
        <ele>51.924302</ele>
        <time>2026-05-07T11:49:00.981Z</time>
      </trkpt>
      <trkpt lat="51.88215" lon="6.04778">
        <ele>51.948981</ele>
        <time>2026-05-07T11:49:02.990Z</time>
      </trkpt>
      <trkpt lat="51.88226" lon="6.04773">
        <ele>51.945171</ele>
        <time>2026-05-07T11:49:04.975Z</time>
      </trkpt>
      <trkpt lat="51.88238" lon="6.04768">
        <ele>51.784303</ele>
        <time>2026-05-07T11:49:06.980Z</time>
      </trkpt>
      <trkpt lat="51.88249" lon="6.04763">
        <ele>51.619507</ele>
        <time>2026-05-07T11:49:08.976Z</time>
      </trkpt>
      <trkpt lat="51.88261" lon="6.04758">
        <ele>51.461048</ele>
        <time>2026-05-07T11:49:10.982Z</time>
      </trkpt>
      <trkpt lat="51.88272" lon="6.04753">
        <ele>51.302991</ele>
        <time>2026-05-07T11:49:12.987Z</time>
      </trkpt>
      <trkpt lat="51.88283" lon="6.04748">
        <ele>51.147365</ele>
        <time>2026-05-07T11:49:14.982Z</time>
      </trkpt>
      <trkpt lat="51.88294" lon="6.04743">
        <ele>50.995661</ele>
        <time>2026-05-07T11:49:16.979Z</time>
      </trkpt>
      <trkpt lat="51.88304" lon="6.04738">
        <ele>50.843507</ele>
        <time>2026-05-07T11:49:18.979Z</time>
      </trkpt>
      <trkpt lat="51.88316" lon="6.04732">
        <ele>50.684973</ele>
        <time>2026-05-07T11:49:20.985Z</time>
      </trkpt>
      <trkpt lat="51.88327" lon="6.04727">
        <ele>50.528217</ele>
        <time>2026-05-07T11:49:22.979Z</time>
      </trkpt>
      <trkpt lat="51.88338" lon="6.04723">
        <ele>50.375636</ele>
        <time>2026-05-07T11:49:24.976Z</time>
      </trkpt>
      <trkpt lat="51.88349" lon="6.04717">
        <ele>50.21651</ele>
        <time>2026-05-07T11:49:26.985Z</time>
      </trkpt>
      <trkpt lat="51.8836" lon="6.04713">
        <ele>50.059786</ele>
        <time>2026-05-07T11:49:28.983Z</time>
      </trkpt>
      <trkpt lat="51.88371" lon="6.04708">
        <ele>49.906304</ele>
        <time>2026-05-07T11:49:30.980Z</time>
      </trkpt>
      <trkpt lat="51.88382" lon="6.04703">
        <ele>49.753682</ele>
        <time>2026-05-07T11:49:32.976Z</time>
      </trkpt>
      <trkpt lat="51.88393" lon="6.04699">
        <ele>49.601515</ele>
        <time>2026-05-07T11:49:34.985Z</time>
      </trkpt>
      <trkpt lat="51.88404" lon="6.04694">
        <ele>49.699123</ele>
        <time>2026-05-07T11:49:36.994Z</time>
      </trkpt>
      <trkpt lat="51.88415" lon="6.04689">
        <ele>49.985404</ele>
        <time>2026-05-07T11:49:38.981Z</time>
      </trkpt>
      <trkpt lat="51.88426" lon="6.04684">
        <ele>50.270808</ele>
        <time>2026-05-07T11:49:40.979Z</time>
      </trkpt>
      <trkpt lat="51.88436" lon="6.04678">
        <ele>50.551771</ele>
        <time>2026-05-07T11:49:42.981Z</time>
      </trkpt>
      <trkpt lat="51.88447" lon="6.04674">
        <ele>50.829423</ele>
        <time>2026-05-07T11:49:44.987Z</time>
      </trkpt>
      <trkpt lat="51.88457" lon="6.0467">
        <ele>51.095172</ele>
        <time>2026-05-07T11:49:46.987Z</time>
      </trkpt>
      <trkpt lat="51.88467" lon="6.04665">
        <ele>51.360517</ele>
        <time>2026-05-07T11:49:48.973Z</time>
      </trkpt>
      <trkpt lat="51.88477" lon="6.04661">
        <ele>51.621781</ele>
        <time>2026-05-07T11:49:50.979Z</time>
      </trkpt>
      <trkpt lat="51.88486" lon="6.04657">
        <ele>51.875282</ele>
        <time>2026-05-07T11:49:52.982Z</time>
      </trkpt>
      <trkpt lat="51.88496" lon="6.04653">
        <ele>52.121831</ele>
        <time>2026-05-07T11:49:54.981Z</time>
      </trkpt>
      <trkpt lat="51.88505" lon="6.0465">
        <ele>52.363073</ele>
        <time>2026-05-07T11:49:56.988Z</time>
      </trkpt>
      <trkpt lat="51.88514" lon="6.04646">
        <ele>52.604315</ele>
        <time>2026-05-07T11:49:58.974Z</time>
      </trkpt>
      <trkpt lat="51.88523" lon="6.04642">
        <ele>52.838177</ele>
        <time>2026-05-07T11:50:00.987Z</time>
      </trkpt>
      <trkpt lat="51.88536" lon="6.04646">
        <ele>53.164421</ele>
        <time>2026-05-07T11:50:03.978Z</time>
      </trkpt>
      <trkpt lat="51.88545" lon="6.04649">
        <ele>53.397129</ele>
        <time>2026-05-07T11:50:05.992Z</time>
      </trkpt>
      <trkpt lat="51.88554" lon="6.04646">
        <ele>53.628438</ele>
        <time>2026-05-07T11:50:07.966Z</time>
      </trkpt>
      <trkpt lat="51.88563" lon="6.04643">
        <ele>53.871034</ele>
        <time>2026-05-07T11:50:09.979Z</time>
      </trkpt>
      <trkpt lat="51.88573" lon="6.04639">
        <ele>54.128104</ele>
        <time>2026-05-07T11:50:11.987Z</time>
      </trkpt>
      <trkpt lat="51.88583" lon="6.04635">
        <ele>54.413292</ele>
        <time>2026-05-07T11:50:13.972Z</time>
      </trkpt>
      <trkpt lat="51.88593" lon="6.04631">
        <ele>54.705732</ele>
        <time>2026-05-07T11:50:15.982Z</time>
      </trkpt>
      <trkpt lat="51.88603" lon="6.04626">
        <ele>54.984687</ele>
        <time>2026-05-07T11:50:17.976Z</time>
      </trkpt>
      <trkpt lat="51.88612" lon="6.04622">
        <ele>55.265841</ele>
        <time>2026-05-07T11:50:19.976Z</time>
      </trkpt>
      <trkpt lat="51.88621" lon="6.04617">
        <ele>55.517882</ele>
        <time>2026-05-07T11:50:21.995Z</time>
      </trkpt>
      <trkpt lat="51.88633" lon="6.0461">
        <ele>55.876859</ele>
        <time>2026-05-07T11:50:24.994Z</time>
      </trkpt>
      <trkpt lat="51.88644" lon="6.04601">
        <ele>56.217028</ele>
        <time>2026-05-07T11:50:27.971Z</time>
      </trkpt>
      <trkpt lat="51.88655" lon="6.04593">
        <ele>56.554308</ele>
        <time>2026-05-07T11:50:30.982Z</time>
      </trkpt>
      <trkpt lat="51.88667" lon="6.04587">
        <ele>56.876757</ele>
        <time>2026-05-07T11:50:33.981Z</time>
      </trkpt>
      <trkpt lat="51.88676" lon="6.04587">
        <ele>57.145022</ele>
        <time>2026-05-07T11:50:37.994Z</time>
      </trkpt>
      <trkpt lat="51.88684" lon="6.04576">
        <ele>57.421809</ele>
        <time>2026-05-07T11:50:49.991Z</time>
      </trkpt>
      <trkpt lat="51.88684" lon="6.0456">
        <ele>57.687013</ele>
        <time>2026-05-07T11:50:52.983Z</time>
      </trkpt>
      <trkpt lat="51.88684" lon="6.04543">
        <ele>57.978865</ele>
        <time>2026-05-07T11:50:55.983Z</time>
      </trkpt>
      <trkpt lat="51.88684" lon="6.04525">
        <ele>58.289546</ele>
        <time>2026-05-07T11:50:58.986Z</time>
      </trkpt>
      <trkpt lat="51.88683" lon="6.04506">
        <ele>58.607532</ele>
        <time>2026-05-07T11:51:01.978Z</time>
      </trkpt>
      <trkpt lat="51.88681" lon="6.04486">
        <ele>58.951151</ele>
        <time>2026-05-07T11:51:04.981Z</time>
      </trkpt>
      <trkpt lat="51.88679" lon="6.04465">
        <ele>59.088924</ele>
        <time>2026-05-07T11:51:07.981Z</time>
      </trkpt>
      <trkpt lat="51.88676" lon="6.04445">
        <ele>59.106836</ele>
        <time>2026-05-07T11:51:10.986Z</time>
      </trkpt>
      <trkpt lat="51.88675" lon="6.04424">
        <ele>59.125562</ele>
        <time>2026-05-07T11:51:13.982Z</time>
      </trkpt>
      <trkpt lat="51.88674" lon="6.04402">
        <ele>59.144506</ele>
        <time>2026-05-07T11:51:16.981Z</time>
      </trkpt>
      <trkpt lat="51.88674" lon="6.04387">
        <ele>59.157178</ele>
        <time>2026-05-07T11:51:18.981Z</time>
      </trkpt>
      <trkpt lat="51.88674" lon="6.04372">
        <ele>59.170112</ele>
        <time>2026-05-07T11:51:20.978Z</time>
      </trkpt>
      <trkpt lat="51.88674" lon="6.04357">
        <ele>59.183044</ele>
        <time>2026-05-07T11:51:22.976Z</time>
      </trkpt>
      <trkpt lat="51.88675" lon="6.04342">
        <ele>59.196642</ele>
        <time>2026-05-07T11:51:24.976Z</time>
      </trkpt>
      <trkpt lat="51.88676" lon="6.04327">
        <ele>59.209855</ele>
        <time>2026-05-07T11:51:26.982Z</time>
      </trkpt>
      <trkpt lat="51.88678" lon="6.04312">
        <ele>59.222691</ele>
        <time>2026-05-07T11:51:28.986Z</time>
      </trkpt>
      <trkpt lat="51.8868" lon="6.04298">
        <ele>59.235733</ele>
        <time>2026-05-07T11:51:30.985Z</time>
      </trkpt>
      <trkpt lat="51.88683" lon="6.04284">
        <ele>59.248463</ele>
        <time>2026-05-07T11:51:32.987Z</time>
      </trkpt>
      <trkpt lat="51.88686" lon="6.0427">
        <ele>59.261192</ele>
        <time>2026-05-07T11:51:34.975Z</time>
      </trkpt>
      <trkpt lat="51.88689" lon="6.04255">
        <ele>59.27451</ele>
        <time>2026-05-07T11:51:36.983Z</time>
      </trkpt>
      <trkpt lat="51.88692" lon="6.04241">
        <ele>59.287728</ele>
        <time>2026-05-07T11:51:38.978Z</time>
      </trkpt>
      <trkpt lat="51.88696" lon="6.04227">
        <ele>59.300623</ele>
        <time>2026-05-07T11:51:40.974Z</time>
      </trkpt>
      <trkpt lat="51.88699" lon="6.04213">
        <ele>59.313706</ele>
        <time>2026-05-07T11:51:42.981Z</time>
      </trkpt>
      <trkpt lat="51.88703" lon="6.04199">
        <ele>59.326843</ele>
        <time>2026-05-07T11:51:44.981Z</time>
      </trkpt>
      <trkpt lat="51.88706" lon="6.04184">
        <ele>59.315732</ele>
        <time>2026-05-07T11:51:46.986Z</time>
      </trkpt>
      <trkpt lat="51.8871" lon="6.0417">
        <ele>59.298353</ele>
        <time>2026-05-07T11:51:48.992Z</time>
      </trkpt>
      <trkpt lat="51.88713" lon="6.04155">
        <ele>59.281551</ele>
        <time>2026-05-07T11:51:50.978Z</time>
      </trkpt>
      <trkpt lat="51.88716" lon="6.04141">
        <ele>59.264758</ele>
        <time>2026-05-07T11:51:52.987Z</time>
      </trkpt>
      <trkpt lat="51.88719" lon="6.04126">
        <ele>59.248059</ele>
        <time>2026-05-07T11:51:54.981Z</time>
      </trkpt>
      <trkpt lat="51.88721" lon="6.04111">
        <ele>59.230975</ele>
        <time>2026-05-07T11:51:56.978Z</time>
      </trkpt>
      <trkpt lat="51.88722" lon="6.04097">
        <ele>59.215004</ele>
        <time>2026-05-07T11:51:58.985Z</time>
      </trkpt>
      <trkpt lat="51.88723" lon="6.04082">
        <ele>59.198172</ele>
        <time>2026-05-07T11:52:00.980Z</time>
      </trkpt>
      <trkpt lat="51.88723" lon="6.0406">
        <ele>59.174275</ele>
        <time>2026-05-07T11:52:03.976Z</time>
      </trkpt>
      <trkpt lat="51.88721" lon="6.04045">
        <ele>59.157124</ele>
        <time>2026-05-07T11:52:05.993Z</time>
      </trkpt>
      <trkpt lat="51.88719" lon="6.04029">
        <ele>59.13958</ele>
        <time>2026-05-07T11:52:07.990Z</time>
      </trkpt>
      <trkpt lat="51.88717" lon="6.04014">
        <ele>59.122643</ele>
        <time>2026-05-07T11:52:09.994Z</time>
      </trkpt>
      <trkpt lat="51.88715" lon="6.03999">
        <ele>59.105638</ele>
        <time>2026-05-07T11:52:11.996Z</time>
      </trkpt>
      <trkpt lat="51.88713" lon="6.03984">
        <ele>59.088453</ele>
        <time>2026-05-07T11:52:13.982Z</time>
      </trkpt>
      <trkpt lat="51.88712" lon="6.03968">
        <ele>59.070822</ele>
        <time>2026-05-07T11:52:15.986Z</time>
      </trkpt>
      <trkpt lat="51.88711" lon="6.03952">
        <ele>59.052966</ele>
        <time>2026-05-07T11:52:17.982Z</time>
      </trkpt>
      <trkpt lat="51.8871" lon="6.03936">
        <ele>59.035223</ele>
        <time>2026-05-07T11:52:19.988Z</time>
      </trkpt>
      <trkpt lat="51.88711" lon="6.03919">
        <ele>59.016913</ele>
        <time>2026-05-07T11:52:21.980Z</time>
      </trkpt>
      <trkpt lat="51.88712" lon="6.03903">
        <ele>58.991144</ele>
        <time>2026-05-07T11:52:23.987Z</time>
      </trkpt>
      <trkpt lat="51.88714" lon="6.03887">
        <ele>58.959116</ele>
        <time>2026-05-07T11:52:25.992Z</time>
      </trkpt>
      <trkpt lat="51.88717" lon="6.03871">
        <ele>58.927377</ele>
        <time>2026-05-07T11:52:27.986Z</time>
      </trkpt>
      <trkpt lat="51.8872" lon="6.03856">
        <ele>58.896227</ele>
        <time>2026-05-07T11:52:29.988Z</time>
      </trkpt>
      <trkpt lat="51.88724" lon="6.03842">
        <ele>58.865949</ele>
        <time>2026-05-07T11:52:31.988Z</time>
      </trkpt>
      <trkpt lat="51.88729" lon="6.03828">
        <ele>58.834476</ele>
        <time>2026-05-07T11:52:33.981Z</time>
      </trkpt>
      <trkpt lat="51.88733" lon="6.03813">
        <ele>58.802064</ele>
        <time>2026-05-07T11:52:35.981Z</time>
      </trkpt>
      <trkpt lat="51.88737" lon="6.03798">
        <ele>58.769862</ele>
        <time>2026-05-07T11:52:37.987Z</time>
      </trkpt>
      <trkpt lat="51.88742" lon="6.03783">
        <ele>58.738181</ele>
        <time>2026-05-07T11:52:39.985Z</time>
      </trkpt>
      <trkpt lat="51.88747" lon="6.03769">
        <ele>58.70592</ele>
        <time>2026-05-07T11:52:41.979Z</time>
      </trkpt>
      <trkpt lat="51.88753" lon="6.03756">
        <ele>58.673621</ele>
        <time>2026-05-07T11:52:43.983Z</time>
      </trkpt>
      <trkpt lat="51.88759" lon="6.03743">
        <ele>58.64224</ele>
        <time>2026-05-07T11:52:45.993Z</time>
      </trkpt>
      <trkpt lat="51.88766" lon="6.03731">
        <ele>58.610186</ele>
        <time>2026-05-07T11:52:47.989Z</time>
      </trkpt>
      <trkpt lat="51.88772" lon="6.03719">
        <ele>58.579199</ele>
        <time>2026-05-07T11:52:49.985Z</time>
      </trkpt>
      <trkpt lat="51.88778" lon="6.03706">
        <ele>58.547136</ele>
        <time>2026-05-07T11:52:51.983Z</time>
      </trkpt>
      <trkpt lat="51.88784" lon="6.03692">
        <ele>58.515711</ele>
        <time>2026-05-07T11:52:53.977Z</time>
      </trkpt>
      <trkpt lat="51.88789" lon="6.03677">
        <ele>58.482917</ele>
        <time>2026-05-07T11:52:55.998Z</time>
      </trkpt>
      <trkpt lat="51.88792" lon="6.0366">
        <ele>58.448004</ele>
        <time>2026-05-07T11:52:57.986Z</time>
      </trkpt>
      <trkpt lat="51.88794" lon="6.03643">
        <ele>58.43751</ele>
        <time>2026-05-07T11:52:59.987Z</time>
      </trkpt>
      <trkpt lat="51.88796" lon="6.03627">
        <ele>58.435062</ele>
        <time>2026-05-07T11:53:01.986Z</time>
      </trkpt>
      <trkpt lat="51.88797" lon="6.0361">
        <ele>58.432707</ele>
        <time>2026-05-07T11:53:03.982Z</time>
      </trkpt>
      <trkpt lat="51.88798" lon="6.03593">
        <ele>58.430254</ele>
        <time>2026-05-07T11:53:05.993Z</time>
      </trkpt>
      <trkpt lat="51.88797" lon="6.03578">
        <ele>58.427958</ele>
        <time>2026-05-07T11:53:07.984Z</time>
      </trkpt>
      <trkpt lat="51.88796" lon="6.03562">
        <ele>58.425654</ele>
        <time>2026-05-07T11:53:09.981Z</time>
      </trkpt>
      <trkpt lat="51.88794" lon="6.03546">
        <ele>58.423319</ele>
        <time>2026-05-07T11:53:11.987Z</time>
      </trkpt>
      <trkpt lat="51.88791" lon="6.0353">
        <ele>58.420976</ele>
        <time>2026-05-07T11:53:13.986Z</time>
      </trkpt>
      <trkpt lat="51.88789" lon="6.03515">
        <ele>58.418678</ele>
        <time>2026-05-07T11:53:15.985Z</time>
      </trkpt>
      <trkpt lat="51.88787" lon="6.03499">
        <ele>58.416328</ele>
        <time>2026-05-07T11:53:17.982Z</time>
      </trkpt>
      <trkpt lat="51.88786" lon="6.03482">
        <ele>58.413873</ele>
        <time>2026-05-07T11:53:19.990Z</time>
      </trkpt>
      <trkpt lat="51.88786" lon="6.03465">
        <ele>58.411422</ele>
        <time>2026-05-07T11:53:21.983Z</time>
      </trkpt>
      <trkpt lat="51.88787" lon="6.03448">
        <ele>58.409023</ele>
        <time>2026-05-07T11:53:23.982Z</time>
      </trkpt>
      <trkpt lat="51.88788" lon="6.03432">
        <ele>58.406696</ele>
        <time>2026-05-07T11:53:25.989Z</time>
      </trkpt>
      <trkpt lat="51.8879" lon="6.03416">
        <ele>58.404405</ele>
        <time>2026-05-07T11:53:27.978Z</time>
      </trkpt>
      <trkpt lat="51.88792" lon="6.03401">
        <ele>58.402089</ele>
        <time>2026-05-07T11:53:29.979Z</time>
      </trkpt>
      <trkpt lat="51.88795" lon="6.03385">
        <ele>58.399733</ele>
        <time>2026-05-07T11:53:31.980Z</time>
      </trkpt>
      <trkpt lat="51.88798" lon="6.0337">
        <ele>58.397386</ele>
        <time>2026-05-07T11:53:33.984Z</time>
      </trkpt>
      <trkpt lat="51.88802" lon="6.03355">
        <ele>58.336509</ele>
        <time>2026-05-07T11:53:35.986Z</time>
      </trkpt>
      <trkpt lat="51.88807" lon="6.03341">
        <ele>58.276414</ele>
        <time>2026-05-07T11:53:37.989Z</time>
      </trkpt>
      <trkpt lat="51.88812" lon="6.03327">
        <ele>58.215439</ele>
        <time>2026-05-07T11:53:39.975Z</time>
      </trkpt>
      <trkpt lat="51.88818" lon="6.03314">
        <ele>58.15432</ele>
        <time>2026-05-07T11:53:41.989Z</time>
      </trkpt>
      <trkpt lat="51.88825" lon="6.03302">
        <ele>58.094016</ele>
        <time>2026-05-07T11:53:43.990Z</time>
      </trkpt>
      <trkpt lat="51.88833" lon="6.03291">
        <ele>58.031454</ele>
        <time>2026-05-07T11:53:45.996Z</time>
      </trkpt>
      <trkpt lat="51.8884" lon="6.0328">
        <ele>57.970983</ele>
        <time>2026-05-07T11:53:47.974Z</time>
      </trkpt>
      <trkpt lat="51.88848" lon="6.03271">
        <ele>57.91373</ele>
        <time>2026-05-07T11:53:49.978Z</time>
      </trkpt>
      <trkpt lat="51.88856" lon="6.03263">
        <ele>57.857639</ele>
        <time>2026-05-07T11:53:51.991Z</time>
      </trkpt>
      <trkpt lat="51.88864" lon="6.03257">
        <ele>57.802381</ele>
        <time>2026-05-07T11:53:53.969Z</time>
      </trkpt>
      <trkpt lat="51.88872" lon="6.0325">
        <ele>57.746749</ele>
        <time>2026-05-07T11:53:55.986Z</time>
      </trkpt>
      <trkpt lat="51.8888" lon="6.03243">
        <ele>57.689187</ele>
        <time>2026-05-07T11:53:57.982Z</time>
      </trkpt>
      <trkpt lat="51.88889" lon="6.03236">
        <ele>57.631253</ele>
        <time>2026-05-07T11:53:59.980Z</time>
      </trkpt>
      <trkpt lat="51.88897" lon="6.03229">
        <ele>57.573859</ele>
        <time>2026-05-07T11:54:01.987Z</time>
      </trkpt>
      <trkpt lat="51.88906" lon="6.03223">
        <ele>57.514996</ele>
        <time>2026-05-07T11:54:03.992Z</time>
      </trkpt>
      <trkpt lat="51.88915" lon="6.03216">
        <ele>57.455277</ele>
        <time>2026-05-07T11:54:05.985Z</time>
      </trkpt>
      <trkpt lat="51.88924" lon="6.03209">
        <ele>57.396039</ele>
        <time>2026-05-07T11:54:07.983Z</time>
      </trkpt>
      <trkpt lat="51.88933" lon="6.03203">
        <ele>57.337882</ele>
        <time>2026-05-07T11:54:09.969Z</time>
      </trkpt>
      <trkpt lat="51.88942" lon="6.03199">
        <ele>57.287873</ele>
        <time>2026-05-07T11:54:11.982Z</time>
      </trkpt>
      <trkpt lat="51.88951" lon="6.03194">
        <ele>57.250668</ele>
        <time>2026-05-07T11:54:13.982Z</time>
      </trkpt>
      <trkpt lat="51.88959" lon="6.03188">
        <ele>57.212469</ele>
        <time>2026-05-07T11:54:15.981Z</time>
      </trkpt>
      <trkpt lat="51.88968" lon="6.03183">
        <ele>57.175764</ele>
        <time>2026-05-07T11:54:17.978Z</time>
      </trkpt>
      <trkpt lat="51.88977" lon="6.03178">
        <ele>57.138172</ele>
        <time>2026-05-07T11:54:19.977Z</time>
      </trkpt>
      <trkpt lat="51.88986" lon="6.03174">
        <ele>57.10111</ele>
        <time>2026-05-07T11:54:21.982Z</time>
      </trkpt>
      <trkpt lat="51.88994" lon="6.0317">
        <ele>57.064216</ele>
        <time>2026-05-07T11:54:23.994Z</time>
      </trkpt>
      <trkpt lat="51.89003" lon="6.03165">
        <ele>57.02655</ele>
        <time>2026-05-07T11:54:25.977Z</time>
      </trkpt>
      <trkpt lat="51.89016" lon="6.03159">
        <ele>56.972191</ele>
        <time>2026-05-07T11:54:28.975Z</time>
      </trkpt>
      <trkpt lat="51.89029" lon="6.03153">
        <ele>56.918563</ele>
        <time>2026-05-07T11:54:31.978Z</time>
      </trkpt>
      <trkpt lat="51.89042" lon="6.03147">
        <ele>56.863955</ele>
        <time>2026-05-07T11:54:34.986Z</time>
      </trkpt>
      <trkpt lat="51.8905" lon="6.03143">
        <ele>56.827521</ele>
        <time>2026-05-07T11:54:36.990Z</time>
      </trkpt>
      <trkpt lat="51.89063" lon="6.03137">
        <ele>56.772774</ele>
        <time>2026-05-07T11:54:39.974Z</time>
      </trkpt>
      <trkpt lat="51.89072" lon="6.03133">
        <ele>56.736307</ele>
        <time>2026-05-07T11:54:41.985Z</time>
      </trkpt>
      <trkpt lat="51.89085" lon="6.03127">
        <ele>56.682744</ele>
        <time>2026-05-07T11:54:44.982Z</time>
      </trkpt>
      <trkpt lat="51.89098" lon="6.03121">
        <ele>56.627748</ele>
        <time>2026-05-07T11:54:47.994Z</time>
      </trkpt>
      <trkpt lat="51.89107" lon="6.03117">
        <ele>56.590156</ele>
        <time>2026-05-07T11:54:49.988Z</time>
      </trkpt>
      <trkpt lat="51.89116" lon="6.03112">
        <ele>56.551245</ele>
        <time>2026-05-07T11:54:51.983Z</time>
      </trkpt>
      <trkpt lat="51.89124" lon="6.03109">
        <ele>56.511265</ele>
        <time>2026-05-07T11:54:53.990Z</time>
      </trkpt>
      <trkpt lat="51.89133" lon="6.03104">
        <ele>56.470257</ele>
        <time>2026-05-07T11:54:55.978Z</time>
      </trkpt>
      <trkpt lat="51.89146" lon="6.03097">
        <ele>56.413192</ele>
        <time>2026-05-07T11:54:58.980Z</time>
      </trkpt>
      <trkpt lat="51.89158" lon="6.0309">
        <ele>56.354373</ele>
        <time>2026-05-07T11:55:01.985Z</time>
      </trkpt>
      <trkpt lat="51.89171" lon="6.03085">
        <ele>56.294822</ele>
        <time>2026-05-07T11:55:04.986Z</time>
      </trkpt>
      <trkpt lat="51.8918" lon="6.03081">
        <ele>56.254348</ele>
        <time>2026-05-07T11:55:06.978Z</time>
      </trkpt>
      <trkpt lat="51.89193" lon="6.03074">
        <ele>56.196048</ele>
        <time>2026-05-07T11:55:09.977Z</time>
      </trkpt>
      <trkpt lat="51.89201" lon="6.03069">
        <ele>56.155997</ele>
        <time>2026-05-07T11:55:11.984Z</time>
      </trkpt>
      <trkpt lat="51.89214" lon="6.03062">
        <ele>56.096761</ele>
        <time>2026-05-07T11:55:14.976Z</time>
      </trkpt>
      <trkpt lat="51.89223" lon="6.03057">
        <ele>56.056995</ele>
        <time>2026-05-07T11:55:16.970Z</time>
      </trkpt>
      <trkpt lat="51.89235" lon="6.0305">
        <ele>55.997673</ele>
        <time>2026-05-07T11:55:19.989Z</time>
      </trkpt>
      <trkpt lat="51.89248" lon="6.03043">
        <ele>55.938855</ele>
        <time>2026-05-07T11:55:22.982Z</time>
      </trkpt>
      <trkpt lat="51.8926" lon="6.03037">
        <ele>55.881946</ele>
        <time>2026-05-07T11:55:25.993Z</time>
      </trkpt>
      <trkpt lat="51.89269" lon="6.03033">
        <ele>55.842204</ele>
        <time>2026-05-07T11:55:27.981Z</time>
      </trkpt>
      <trkpt lat="51.89281" lon="6.03026">
        <ele>55.789595</ele>
        <time>2026-05-07T11:55:30.983Z</time>
      </trkpt>
      <trkpt lat="51.89294" lon="6.03019">
        <ele>55.860606</ele>
        <time>2026-05-07T11:55:33.985Z</time>
      </trkpt>
      <trkpt lat="51.89302" lon="6.03014">
        <ele>55.909284</ele>
        <time>2026-05-07T11:55:35.983Z</time>
      </trkpt>
      <trkpt lat="51.89315" lon="6.03007">
        <ele>55.982158</ele>
        <time>2026-05-07T11:55:38.981Z</time>
      </trkpt>
      <trkpt lat="51.89328" lon="6.02999">
        <ele>56.055257</ele>
        <time>2026-05-07T11:55:41.989Z</time>
      </trkpt>
      <trkpt lat="51.89336" lon="6.02993">
        <ele>56.105036</ele>
        <time>2026-05-07T11:55:43.994Z</time>
      </trkpt>
      <trkpt lat="51.89345" lon="6.02987">
        <ele>56.154913</ele>
        <time>2026-05-07T11:55:45.972Z</time>
      </trkpt>
      <trkpt lat="51.89353" lon="6.02982">
        <ele>56.204912</ele>
        <time>2026-05-07T11:55:47.988Z</time>
      </trkpt>
      <trkpt lat="51.89362" lon="6.02976">
        <ele>56.254033</ele>
        <time>2026-05-07T11:55:49.993Z</time>
      </trkpt>
      <trkpt lat="51.8937" lon="6.0297">
        <ele>56.302914</ele>
        <time>2026-05-07T11:55:51.978Z</time>
      </trkpt>
      <trkpt lat="51.89378" lon="6.02965">
        <ele>56.351796</ele>
        <time>2026-05-07T11:55:53.992Z</time>
      </trkpt>
      <trkpt lat="51.89391" lon="6.02958">
        <ele>56.422296</ele>
        <time>2026-05-07T11:55:56.986Z</time>
      </trkpt>
      <trkpt lat="51.89403" lon="6.0295">
        <ele>56.492512</ele>
        <time>2026-05-07T11:55:59.997Z</time>
      </trkpt>
      <trkpt lat="51.89415" lon="6.02942">
        <ele>56.564689</ele>
        <time>2026-05-07T11:56:02.987Z</time>
      </trkpt>
      <trkpt lat="51.89424" lon="6.02938">
        <ele>56.613988</ele>
        <time>2026-05-07T11:56:04.978Z</time>
      </trkpt>
      <trkpt lat="51.89432" lon="6.02932">
        <ele>56.664493</ele>
        <time>2026-05-07T11:56:06.991Z</time>
      </trkpt>
      <trkpt lat="51.89441" lon="6.02925">
        <ele>56.716096</ele>
        <time>2026-05-07T11:56:08.984Z</time>
      </trkpt>
      <trkpt lat="51.8945" lon="6.02919">
        <ele>56.762091</ele>
        <time>2026-05-07T11:56:10.988Z</time>
      </trkpt>
      <trkpt lat="51.89458" lon="6.02913">
        <ele>56.78064</ele>
        <time>2026-05-07T11:56:12.974Z</time>
      </trkpt>
      <trkpt lat="51.89467" lon="6.02907">
        <ele>56.79901</ele>
        <time>2026-05-07T11:56:14.998Z</time>
      </trkpt>
      <trkpt lat="51.89475" lon="6.02901">
        <ele>56.816695</ele>
        <time>2026-05-07T11:56:16.986Z</time>
      </trkpt>
      <trkpt lat="51.89484" lon="6.02896">
        <ele>56.835379</ele>
        <time>2026-05-07T11:56:18.992Z</time>
      </trkpt>
      <trkpt lat="51.89493" lon="6.0289">
        <ele>56.853654</ele>
        <time>2026-05-07T11:56:20.990Z</time>
      </trkpt>
      <trkpt lat="51.89501" lon="6.02884">
        <ele>56.871611</ele>
        <time>2026-05-07T11:56:22.987Z</time>
      </trkpt>
      <trkpt lat="51.8951" lon="6.02878">
        <ele>56.889705</ele>
        <time>2026-05-07T11:56:24.990Z</time>
      </trkpt>
      <trkpt lat="51.89518" lon="6.02872">
        <ele>56.907864</ele>
        <time>2026-05-07T11:56:26.987Z</time>
      </trkpt>
      <trkpt lat="51.89526" lon="6.02866">
        <ele>56.925543</ele>
        <time>2026-05-07T11:56:28.986Z</time>
      </trkpt>
      <trkpt lat="51.89535" lon="6.02859">
        <ele>56.94411</ele>
        <time>2026-05-07T11:56:30.987Z</time>
      </trkpt>
      <trkpt lat="51.89543" lon="6.02853">
        <ele>56.962348</ele>
        <time>2026-05-07T11:56:32.973Z</time>
      </trkpt>
      <trkpt lat="51.89552" lon="6.02847">
        <ele>56.980586</ele>
        <time>2026-05-07T11:56:34.985Z</time>
      </trkpt>
      <trkpt lat="51.89564" lon="6.02839">
        <ele>57.005955</ele>
        <time>2026-05-07T11:56:37.986Z</time>
      </trkpt>
      <trkpt lat="51.89575" lon="6.02831">
        <ele>57.030233</ele>
        <time>2026-05-07T11:56:40.981Z</time>
      </trkpt>
      <trkpt lat="51.89586" lon="6.02823">
        <ele>57.054852</ele>
        <time>2026-05-07T11:56:43.983Z</time>
      </trkpt>
      <trkpt lat="51.89594" lon="6.02815">
        <ele>57.072667</ele>
        <time>2026-05-07T11:56:45.987Z</time>
      </trkpt>
      <trkpt lat="51.89602" lon="6.02808">
        <ele>57.090964</ele>
        <time>2026-05-07T11:56:47.991Z</time>
      </trkpt>
      <trkpt lat="51.89611" lon="6.02801">
        <ele>57.109403</ele>
        <time>2026-05-07T11:56:49.979Z</time>
      </trkpt>
      <trkpt lat="51.89619" lon="6.02795">
        <ele>56.986808</ele>
        <time>2026-05-07T11:56:51.995Z</time>
      </trkpt>
      <trkpt lat="51.89628" lon="6.0279">
        <ele>56.837017</ele>
        <time>2026-05-07T11:56:53.981Z</time>
      </trkpt>
      <trkpt lat="51.89637" lon="6.02784">
        <ele>56.689064</ele>
        <time>2026-05-07T11:56:55.980Z</time>
      </trkpt>
      <trkpt lat="51.89645" lon="6.02778">
        <ele>56.543964</ele>
        <time>2026-05-07T11:56:57.987Z</time>
      </trkpt>
      <trkpt lat="51.89653" lon="6.0277">
        <ele>56.387621</ele>
        <time>2026-05-07T11:56:59.988Z</time>
      </trkpt>
      <trkpt lat="51.89662" lon="6.02761">
        <ele>56.22773</ele>
        <time>2026-05-07T11:57:01.976Z</time>
      </trkpt>
      <trkpt lat="51.89669" lon="6.02753">
        <ele>56.081793</ele>
        <time>2026-05-07T11:57:03.987Z</time>
      </trkpt>
      <trkpt lat="51.89677" lon="6.02744">
        <ele>55.929586</ele>
        <time>2026-05-07T11:57:05.994Z</time>
      </trkpt>
      <trkpt lat="51.89685" lon="6.02734">
        <ele>55.773791</ele>
        <time>2026-05-07T11:57:07.978Z</time>
      </trkpt>
      <trkpt lat="51.89693" lon="6.02725">
        <ele>55.623021</ele>
        <time>2026-05-07T11:57:09.981Z</time>
      </trkpt>
      <trkpt lat="51.89704" lon="6.02713">
        <ele>55.404168</ele>
        <time>2026-05-07T11:57:12.978Z</time>
      </trkpt>
      <trkpt lat="51.89716" lon="6.02701">
        <ele>55.180841</ele>
        <time>2026-05-07T11:57:15.986Z</time>
      </trkpt>
      <trkpt lat="51.89724" lon="6.02692">
        <ele>55.0292</ele>
        <time>2026-05-07T11:57:17.988Z</time>
      </trkpt>
      <trkpt lat="51.89731" lon="6.02683">
        <ele>54.881864</ele>
        <time>2026-05-07T11:57:19.976Z</time>
      </trkpt>
      <trkpt lat="51.89739" lon="6.02674">
        <ele>54.733547</ele>
        <time>2026-05-07T11:57:21.982Z</time>
      </trkpt>
      <trkpt lat="51.89746" lon="6.02666">
        <ele>54.585809</ele>
        <time>2026-05-07T11:57:23.994Z</time>
      </trkpt>
      <trkpt lat="51.89757" lon="6.02654">
        <ele>54.376112</ele>
        <time>2026-05-07T11:57:26.988Z</time>
      </trkpt>
      <trkpt lat="51.89768" lon="6.02641">
        <ele>54.329267</ele>
        <time>2026-05-07T11:57:29.984Z</time>
      </trkpt>
      <trkpt lat="51.89775" lon="6.02632">
        <ele>54.490813</ele>
        <time>2026-05-07T11:57:31.977Z</time>
      </trkpt>
      <trkpt lat="51.89786" lon="6.0262">
        <ele>54.732796</ele>
        <time>2026-05-07T11:57:34.989Z</time>
      </trkpt>
      <trkpt lat="51.89797" lon="6.02609">
        <ele>54.96084</ele>
        <time>2026-05-07T11:57:37.990Z</time>
      </trkpt>
      <trkpt lat="51.89807" lon="6.02595">
        <ele>55.189146</ele>
        <time>2026-05-07T11:57:40.988Z</time>
      </trkpt>
      <trkpt lat="51.89816" lon="6.02583">
        <ele>55.404217</ele>
        <time>2026-05-07T11:57:44.012Z</time>
      </trkpt>
      <trkpt lat="51.89827" lon="6.02572">
        <ele>55.631064</ele>
        <time>2026-05-07T11:57:46.978Z</time>
      </trkpt>
      <trkpt lat="51.89838" lon="6.02561">
        <ele>55.861205</ele>
        <time>2026-05-07T11:57:49.990Z</time>
      </trkpt>
      <trkpt lat="51.89848" lon="6.0255">
        <ele>56.086872</ele>
        <time>2026-05-07T11:57:52.981Z</time>
      </trkpt>
      <trkpt lat="51.89859" lon="6.02538">
        <ele>56.318833</ele>
        <time>2026-05-07T11:57:55.984Z</time>
      </trkpt>
      <trkpt lat="51.8987" lon="6.02526">
        <ele>56.551071</ele>
        <time>2026-05-07T11:57:58.988Z</time>
      </trkpt>
      <trkpt lat="51.89881" lon="6.02515">
        <ele>56.780935</ele>
        <time>2026-05-07T11:58:01.985Z</time>
      </trkpt>
      <trkpt lat="51.89888" lon="6.02507">
        <ele>56.942479</ele>
        <time>2026-05-07T11:58:03.986Z</time>
      </trkpt>
      <trkpt lat="51.89896" lon="6.02498">
        <ele>57.104023</ele>
        <time>2026-05-07T11:58:05.984Z</time>
      </trkpt>
      <trkpt lat="51.89903" lon="6.0249">
        <ele>57.268906</ele>
        <time>2026-05-07T11:58:07.987Z</time>
      </trkpt>
      <trkpt lat="51.89911" lon="6.02481">
        <ele>57.43526</ele>
        <time>2026-05-07T11:58:09.985Z</time>
      </trkpt>
      <trkpt lat="51.89919" lon="6.02473">
        <ele>57.458207</ele>
        <time>2026-05-07T11:58:11.991Z</time>
      </trkpt>
      <trkpt lat="51.89926" lon="6.02465">
        <ele>57.462892</ele>
        <time>2026-05-07T11:58:13.986Z</time>
      </trkpt>
      <trkpt lat="51.89934" lon="6.02456">
        <ele>57.467484</ele>
        <time>2026-05-07T11:58:15.983Z</time>
      </trkpt>
      <trkpt lat="51.89945" lon="6.02444">
        <ele>57.474177</ele>
        <time>2026-05-07T11:58:18.987Z</time>
      </trkpt>
      <trkpt lat="51.89957" lon="6.02432">
        <ele>57.480878</ele>
        <time>2026-05-07T11:58:21.996Z</time>
      </trkpt>
      <trkpt lat="51.89964" lon="6.02423">
        <ele>57.48557</ele>
        <time>2026-05-07T11:58:23.982Z</time>
      </trkpt>
      <trkpt lat="51.89972" lon="6.02415">
        <ele>57.490104</ele>
        <time>2026-05-07T11:58:25.988Z</time>
      </trkpt>
      <trkpt lat="51.89983" lon="6.02403">
        <ele>57.496739</ele>
        <time>2026-05-07T11:58:28.986Z</time>
      </trkpt>
      <trkpt lat="51.89991" lon="6.02395">
        <ele>57.501206</ele>
        <time>2026-05-07T11:58:30.974Z</time>
      </trkpt>
      <trkpt lat="51.89998" lon="6.02386">
        <ele>57.505802</ele>
        <time>2026-05-07T11:58:32.978Z</time>
      </trkpt>
      <trkpt lat="51.90006" lon="6.02377">
        <ele>57.510437</ele>
        <time>2026-05-07T11:58:34.983Z</time>
      </trkpt>
      <trkpt lat="51.90013" lon="6.02368">
        <ele>57.515116</ele>
        <time>2026-05-07T11:58:36.979Z</time>
      </trkpt>
      <trkpt lat="51.90021" lon="6.02359">
        <ele>57.519679</ele>
        <time>2026-05-07T11:58:38.992Z</time>
      </trkpt>
      <trkpt lat="51.90029" lon="6.0235">
        <ele>57.524323</ele>
        <time>2026-05-07T11:58:40.978Z</time>
      </trkpt>
      <trkpt lat="51.90036" lon="6.02342">
        <ele>57.528851</ele>
        <time>2026-05-07T11:58:42.979Z</time>
      </trkpt>
      <trkpt lat="51.90044" lon="6.02334">
        <ele>57.533368</ele>
        <time>2026-05-07T11:58:44.987Z</time>
      </trkpt>
      <trkpt lat="51.90051" lon="6.02325">
        <ele>57.537909</ele>
        <time>2026-05-07T11:58:46.991Z</time>
      </trkpt>
      <trkpt lat="51.90059" lon="6.02316">
        <ele>57.542562</ele>
        <time>2026-05-07T11:58:48.971Z</time>
      </trkpt>
      <trkpt lat="51.90066" lon="6.02307">
        <ele>57.499</ele>
        <time>2026-05-07T11:58:50.992Z</time>
      </trkpt>
      <trkpt lat="51.90074" lon="6.02298">
        <ele>57.446543</ele>
        <time>2026-05-07T11:58:52.983Z</time>
      </trkpt>
      <trkpt lat="51.90081" lon="6.02289">
        <ele>57.394797</ele>
        <time>2026-05-07T11:58:54.987Z</time>
      </trkpt>
      <trkpt lat="51.90089" lon="6.0228">
        <ele>57.342193</ele>
        <time>2026-05-07T11:58:56.991Z</time>
      </trkpt>
      <trkpt lat="51.90097" lon="6.02271">
        <ele>57.289537</ele>
        <time>2026-05-07T11:58:58.979Z</time>
      </trkpt>
      <trkpt lat="51.90104" lon="6.02262">
        <ele>57.23697</ele>
        <time>2026-05-07T11:59:00.993Z</time>
      </trkpt>
      <trkpt lat="51.90115" lon="6.02249">
        <ele>57.162441</ele>
        <time>2026-05-07T11:59:03.991Z</time>
      </trkpt>
      <trkpt lat="51.90122" lon="6.0224">
        <ele>57.110492</ele>
        <time>2026-05-07T11:59:05.987Z</time>
      </trkpt>
      <trkpt lat="51.9013" lon="6.02231">
        <ele>57.058579</ele>
        <time>2026-05-07T11:59:07.991Z</time>
      </trkpt>
      <trkpt lat="51.90137" lon="6.02222">
        <ele>57.007992</ele>
        <time>2026-05-07T11:59:09.981Z</time>
      </trkpt>
      <trkpt lat="51.90144" lon="6.02213">
        <ele>56.955447</ele>
        <time>2026-05-07T11:59:11.985Z</time>
      </trkpt>
      <trkpt lat="51.90151" lon="6.02203">
        <ele>56.90356</ele>
        <time>2026-05-07T11:59:13.978Z</time>
      </trkpt>
      <trkpt lat="51.90159" lon="6.02195">
        <ele>56.851759</ele>
        <time>2026-05-07T11:59:15.979Z</time>
      </trkpt>
      <trkpt lat="51.90166" lon="6.02186">
        <ele>56.799399</ele>
        <time>2026-05-07T11:59:17.980Z</time>
      </trkpt>
      <trkpt lat="51.90174" lon="6.02176">
        <ele>56.74621</ele>
        <time>2026-05-07T11:59:19.978Z</time>
      </trkpt>
      <trkpt lat="51.90181" lon="6.02167">
        <ele>56.694971</ele>
        <time>2026-05-07T11:59:21.982Z</time>
      </trkpt>
      <trkpt lat="51.90189" lon="6.02158">
        <ele>56.643626</ele>
        <time>2026-05-07T11:59:23.985Z</time>
      </trkpt>
      <trkpt lat="51.90196" lon="6.0215">
        <ele>56.592737</ele>
        <time>2026-05-07T11:59:25.986Z</time>
      </trkpt>
      <trkpt lat="51.90203" lon="6.02141">
        <ele>56.540991</ele>
        <time>2026-05-07T11:59:27.985Z</time>
      </trkpt>
      <trkpt lat="51.90211" lon="6.02132">
        <ele>56.601358</ele>
        <time>2026-05-07T11:59:29.987Z</time>
      </trkpt>
      <trkpt lat="51.90219" lon="6.02122">
        <ele>56.669834</ele>
        <time>2026-05-07T11:59:31.977Z</time>
      </trkpt>
      <trkpt lat="51.90226" lon="6.02113">
        <ele>56.737117</ele>
        <time>2026-05-07T11:59:33.991Z</time>
      </trkpt>
      <trkpt lat="51.90234" lon="6.02104">
        <ele>56.804652</ele>
        <time>2026-05-07T11:59:35.974Z</time>
      </trkpt>
      <trkpt lat="51.90241" lon="6.02094">
        <ele>56.870251</ele>
        <time>2026-05-07T11:59:37.992Z</time>
      </trkpt>
      <trkpt lat="51.90248" lon="6.02084">
        <ele>56.93696</ele>
        <time>2026-05-07T11:59:39.980Z</time>
      </trkpt>
      <trkpt lat="51.90255" lon="6.02075">
        <ele>57.003668</ele>
        <time>2026-05-07T11:59:41.990Z</time>
      </trkpt>
      <trkpt lat="51.90262" lon="6.02065">
        <ele>57.069267</ele>
        <time>2026-05-07T11:59:43.986Z</time>
      </trkpt>
      <trkpt lat="51.90269" lon="6.02055">
        <ele>57.135218</ele>
        <time>2026-05-07T11:59:46.000Z</time>
      </trkpt>
      <trkpt lat="51.90276" lon="6.02046">
        <ele>57.200837</ele>
        <time>2026-05-07T11:59:47.983Z</time>
      </trkpt>
      <trkpt lat="51.90283" lon="6.02036">
        <ele>57.266156</ele>
        <time>2026-05-07T11:59:49.986Z</time>
      </trkpt>
      <trkpt lat="51.90294" lon="6.02022">
        <ele>57.364728</ele>
        <time>2026-05-07T11:59:52.980Z</time>
      </trkpt>
      <trkpt lat="51.90301" lon="6.02012">
        <ele>57.431718</ele>
        <time>2026-05-07T11:59:54.993Z</time>
      </trkpt>
      <trkpt lat="51.90308" lon="6.02002">
        <ele>57.499852</ele>
        <time>2026-05-07T11:59:56.977Z</time>
      </trkpt>
      <trkpt lat="51.90315" lon="6.01992">
        <ele>57.565569</ele>
        <time>2026-05-07T11:59:58.986Z</time>
      </trkpt>
      <trkpt lat="51.90322" lon="6.01982">
        <ele>57.631188</ele>
        <time>2026-05-07T12:00:00.992Z</time>
      </trkpt>
      <trkpt lat="51.90329" lon="6.01971">
        <ele>57.697592</ele>
        <time>2026-05-07T12:00:02.980Z</time>
      </trkpt>
      <trkpt lat="51.90335" lon="6.01961">
        <ele>57.762265</ele>
        <time>2026-05-07T12:00:04.983Z</time>
      </trkpt>
      <trkpt lat="51.90342" lon="6.01952">
        <ele>57.820996</ele>
        <time>2026-05-07T12:00:06.985Z</time>
      </trkpt>
      <trkpt lat="51.90349" lon="6.01942">
        <ele>57.832533</ele>
        <time>2026-05-07T12:00:08.987Z</time>
      </trkpt>
      <trkpt lat="51.90355" lon="6.01931">
        <ele>57.844236</ele>
        <time>2026-05-07T12:00:10.982Z</time>
      </trkpt>
      <trkpt lat="51.90362" lon="6.01921">
        <ele>57.855813</ele>
        <time>2026-05-07T12:00:12.993Z</time>
      </trkpt>
      <trkpt lat="51.90368" lon="6.0191">
        <ele>57.867446</ele>
        <time>2026-05-07T12:00:14.986Z</time>
      </trkpt>
      <trkpt lat="51.90374" lon="6.019">
        <ele>57.879226</ele>
        <time>2026-05-07T12:00:17.001Z</time>
      </trkpt>
      <trkpt lat="51.90381" lon="6.01889">
        <ele>57.890893</ele>
        <time>2026-05-07T12:00:18.981Z</time>
      </trkpt>
      <trkpt lat="51.90387" lon="6.01879">
        <ele>57.902641</ele>
        <time>2026-05-07T12:00:20.984Z</time>
      </trkpt>
      <trkpt lat="51.90393" lon="6.01868">
        <ele>57.914363</ele>
        <time>2026-05-07T12:00:22.983Z</time>
      </trkpt>
      <trkpt lat="51.90402" lon="6.01852">
        <ele>57.931677</ele>
        <time>2026-05-07T12:00:25.983Z</time>
      </trkpt>
      <trkpt lat="51.90408" lon="6.0184">
        <ele>57.943663</ele>
        <time>2026-05-07T12:00:27.975Z</time>
      </trkpt>
      <trkpt lat="51.90414" lon="6.01829">
        <ele>57.955665</ele>
        <time>2026-05-07T12:00:29.982Z</time>
      </trkpt>
      <trkpt lat="51.9042" lon="6.01817">
        <ele>57.967645</ele>
        <time>2026-05-07T12:00:31.985Z</time>
      </trkpt>
      <trkpt lat="51.90429" lon="6.01801">
        <ele>57.984849</ele>
        <time>2026-05-07T12:00:34.986Z</time>
      </trkpt>
      <trkpt lat="51.90438" lon="6.01785">
        <ele>58.001959</ele>
        <time>2026-05-07T12:00:37.985Z</time>
      </trkpt>
      <trkpt lat="51.90447" lon="6.01769">
        <ele>58.019154</ele>
        <time>2026-05-07T12:00:40.989Z</time>
      </trkpt>
      <trkpt lat="51.90453" lon="6.01757">
        <ele>58.031137</ele>
        <time>2026-05-07T12:00:42.992Z</time>
      </trkpt>
      <trkpt lat="51.90461" lon="6.0174">
        <ele>58.048456</ele>
        <time>2026-05-07T12:00:45.987Z</time>
      </trkpt>
      <trkpt lat="51.90469" lon="6.01723">
        <ele>58.015972</ele>
        <time>2026-05-07T12:00:48.981Z</time>
      </trkpt>
      <trkpt lat="51.90475" lon="6.01711">
        <ele>57.987718</ele>
        <time>2026-05-07T12:00:50.980Z</time>
      </trkpt>
      <trkpt lat="51.90483" lon="6.01694">
        <ele>57.945847</ele>
        <time>2026-05-07T12:00:53.981Z</time>
      </trkpt>
      <trkpt lat="51.90491" lon="6.01676">
        <ele>57.904387</ele>
        <time>2026-05-07T12:00:56.982Z</time>
      </trkpt>
      <trkpt lat="51.90498" lon="6.01659">
        <ele>57.863839</ele>
        <time>2026-05-07T12:00:59.989Z</time>
      </trkpt>
      <trkpt lat="51.90506" lon="6.01642">
        <ele>57.823519</ele>
        <time>2026-05-07T12:01:02.987Z</time>
      </trkpt>
      <trkpt lat="51.90513" lon="6.01624">
        <ele>57.78358</ele>
        <time>2026-05-07T12:01:05.985Z</time>
      </trkpt>
      <trkpt lat="51.9052" lon="6.01607">
        <ele>57.744199</ele>
        <time>2026-05-07T12:01:08.986Z</time>
      </trkpt>
      <trkpt lat="51.90525" lon="6.01592">
        <ele>57.710238</ele>
        <time>2026-05-07T12:01:11.986Z</time>
      </trkpt>
      <trkpt lat="51.90531" lon="6.01579">
        <ele>57.679328</ele>
        <time>2026-05-07T12:01:14.993Z</time>
      </trkpt>
      <trkpt lat="51.90537" lon="6.01563">
        <ele>57.64572</ele>
        <time>2026-05-07T12:01:17.980Z</time>
      </trkpt>
      <trkpt lat="51.90542" lon="6.0155">
        <ele>57.614546</ele>
        <time>2026-05-07T12:01:20.997Z</time>
      </trkpt>
      <trkpt lat="51.90547" lon="6.01537">
        <ele>57.585303</ele>
        <time>2026-05-07T12:01:23.977Z</time>
      </trkpt>
      <trkpt lat="51.90551" lon="6.01521">
        <ele>57.553579</ele>
        <time>2026-05-07T12:01:27.988Z</time>
      </trkpt>
      <trkpt lat="51.90556" lon="6.01504">
        <ele>57.516337</ele>
        <time>2026-05-07T12:01:31.981Z</time>
      </trkpt>
      <trkpt lat="51.9056" lon="6.0149">
        <ele>57.489698</ele>
        <time>2026-05-07T12:01:34.986Z</time>
      </trkpt>
      <trkpt lat="51.90565" lon="6.01474">
        <ele>57.469789</ele>
        <time>2026-05-07T12:01:38.977Z</time>
      </trkpt>
      <trkpt lat="51.9057" lon="6.01456">
        <ele>57.449613</ele>
        <time>2026-05-07T12:01:42.983Z</time>
      </trkpt>
      <trkpt lat="51.90574" lon="6.01441">
        <ele>57.431192</ele>
        <time>2026-05-07T12:01:46.973Z</time>
      </trkpt>
      <trkpt lat="51.9058" lon="6.01425">
        <ele>57.411224</ele>
        <time>2026-05-07T12:01:51.977Z</time>
      </trkpt>
      <trkpt lat="51.90586" lon="6.01408">
        <ele>57.390769</ele>
        <time>2026-05-07T12:01:55.986Z</time>
      </trkpt>
      <trkpt lat="51.9059" lon="6.01395">
        <ele>57.373769</ele>
        <time>2026-05-07T12:01:58.986Z</time>
      </trkpt>
      <trkpt lat="51.90595" lon="6.0138">
        <ele>57.355716</ele>
        <time>2026-05-07T12:02:01.976Z</time>
      </trkpt>
      <trkpt lat="51.906" lon="6.01364">
        <ele>57.336973</ele>
        <time>2026-05-07T12:02:04.993Z</time>
      </trkpt>
      <trkpt lat="51.90605" lon="6.01348">
        <ele>57.317128</ele>
        <time>2026-05-07T12:02:07.986Z</time>
      </trkpt>
      <trkpt lat="51.90611" lon="6.01331">
        <ele>57.296808</ele>
        <time>2026-05-07T12:02:10.982Z</time>
      </trkpt>
      <trkpt lat="51.90616" lon="6.01315">
        <ele>57.277014</ele>
        <time>2026-05-07T12:02:13.977Z</time>
      </trkpt>
      <trkpt lat="51.90621" lon="6.01298">
        <ele>57.256215</ele>
        <time>2026-05-07T12:02:16.980Z</time>
      </trkpt>
      <trkpt lat="51.90627" lon="6.0128">
        <ele>57.234615</ele>
        <time>2026-05-07T12:02:19.987Z</time>
      </trkpt>
      <trkpt lat="51.90633" lon="6.01263">
        <ele>57.213205</ele>
        <time>2026-05-07T12:02:22.980Z</time>
      </trkpt>
      <trkpt lat="51.90639" lon="6.01244">
        <ele>57.190584</ele>
        <time>2026-05-07T12:02:25.977Z</time>
      </trkpt>
      <trkpt lat="51.90645" lon="6.01226">
        <ele>57.186862</ele>
        <time>2026-05-07T12:02:28.970Z</time>
      </trkpt>
      <trkpt lat="51.9065" lon="6.01208">
        <ele>57.204947</ele>
        <time>2026-05-07T12:02:31.993Z</time>
      </trkpt>
      <trkpt lat="51.90656" lon="6.01191">
        <ele>57.221949</ele>
        <time>2026-05-07T12:02:34.982Z</time>
      </trkpt>
      <trkpt lat="51.90661" lon="6.01175">
        <ele>57.237515</ele>
        <time>2026-05-07T12:02:37.983Z</time>
      </trkpt>
      <trkpt lat="51.90666" lon="6.0116">
        <ele>57.252364</ele>
        <time>2026-05-07T12:02:40.991Z</time>
      </trkpt>
      <trkpt lat="51.9067" lon="6.01146">
        <ele>57.266718</ele>
        <time>2026-05-07T12:02:43.978Z</time>
      </trkpt>
      <trkpt lat="51.90674" lon="6.01132">
        <ele>57.280014</ele>
        <time>2026-05-07T12:02:46.981Z</time>
      </trkpt>
      <trkpt lat="51.90678" lon="6.01116">
        <ele>57.296137</ele>
        <time>2026-05-07T12:02:50.978Z</time>
      </trkpt>
      <trkpt lat="51.90685" lon="6.01102">
        <ele>57.311232</ele>
        <time>2026-05-07T12:02:54.977Z</time>
      </trkpt>
      <trkpt lat="51.90689" lon="6.01088">
        <ele>57.325249</ele>
        <time>2026-05-07T12:02:57.993Z</time>
      </trkpt>
      <trkpt lat="51.90694" lon="6.01073">
        <ele>57.340557</ele>
        <time>2026-05-07T12:03:00.975Z</time>
      </trkpt>
      <trkpt lat="51.90698" lon="6.0106">
        <ele>57.353892</ele>
        <time>2026-05-07T12:03:03.983Z</time>
      </trkpt>
      <trkpt lat="51.90703" lon="6.01045">
        <ele>57.368586</ele>
        <time>2026-05-07T12:03:06.989Z</time>
      </trkpt>
      <trkpt lat="51.90708" lon="6.0103">
        <ele>57.38356</ele>
        <time>2026-05-07T12:03:09.978Z</time>
      </trkpt>
      <trkpt lat="51.90713" lon="6.01014">
        <ele>57.39946</ele>
        <time>2026-05-07T12:03:12.985Z</time>
      </trkpt>
      <trkpt lat="51.90718" lon="6.00997">
        <ele>57.41603</ele>
        <time>2026-05-07T12:03:15.977Z</time>
      </trkpt>
      <trkpt lat="51.90723" lon="6.00981">
        <ele>57.432853</ele>
        <time>2026-05-07T12:03:19.019Z</time>
      </trkpt>
      <trkpt lat="51.90729" lon="6.00965">
        <ele>57.425074</ele>
        <time>2026-05-07T12:03:21.985Z</time>
      </trkpt>
      <trkpt lat="51.90734" lon="6.00949">
        <ele>57.406206</ele>
        <time>2026-05-07T12:03:24.990Z</time>
      </trkpt>
      <trkpt lat="51.9074" lon="6.00933">
        <ele>57.38732</ele>
        <time>2026-05-07T12:03:27.989Z</time>
      </trkpt>
      <trkpt lat="51.90745" lon="6.00916">
        <ele>57.368208</ele>
        <time>2026-05-07T12:03:30.985Z</time>
      </trkpt>
      <trkpt lat="51.9075" lon="6.00899">
        <ele>57.348747</ele>
        <time>2026-05-07T12:03:33.976Z</time>
      </trkpt>
      <trkpt lat="51.90756" lon="6.00882">
        <ele>57.328631</ele>
        <time>2026-05-07T12:03:36.984Z</time>
      </trkpt>
      <trkpt lat="51.90761" lon="6.00864">
        <ele>57.308578</ele>
        <time>2026-05-07T12:03:39.977Z</time>
      </trkpt>
      <trkpt lat="51.90767" lon="6.00846">
        <ele>57.288022</ele>
        <time>2026-05-07T12:03:43.014Z</time>
      </trkpt>
      <trkpt lat="51.90772" lon="6.00829">
        <ele>57.268211</ele>
        <time>2026-05-07T12:03:45.986Z</time>
      </trkpt>
      <trkpt lat="51.90778" lon="6.00811">
        <ele>57.247486</ele>
        <time>2026-05-07T12:03:48.987Z</time>
      </trkpt>
      <trkpt lat="51.90784" lon="6.00793">
        <ele>57.226369</ele>
        <time>2026-05-07T12:03:51.977Z</time>
      </trkpt>
      <trkpt lat="51.9079" lon="6.00775">
        <ele>57.205632</ele>
        <time>2026-05-07T12:03:54.990Z</time>
      </trkpt>
      <trkpt lat="51.90795" lon="6.00757">
        <ele>57.184454</ele>
        <time>2026-05-07T12:03:57.980Z</time>
      </trkpt>
      <trkpt lat="51.90801" lon="6.00738">
        <ele>57.162454</ele>
        <time>2026-05-07T12:04:00.987Z</time>
      </trkpt>
      <trkpt lat="51.90807" lon="6.00719">
        <ele>57.140987</ele>
        <time>2026-05-07T12:04:03.976Z</time>
      </trkpt>
      <trkpt lat="51.90813" lon="6.00701">
        <ele>57.137566</ele>
        <time>2026-05-07T12:04:06.997Z</time>
      </trkpt>
      <trkpt lat="51.90819" lon="6.00683">
        <ele>57.136167</ele>
        <time>2026-05-07T12:04:09.985Z</time>
      </trkpt>
      <trkpt lat="51.90825" lon="6.00664">
        <ele>57.134744</ele>
        <time>2026-05-07T12:04:12.987Z</time>
      </trkpt>
      <trkpt lat="51.90831" lon="6.00645">
        <ele>57.133307</ele>
        <time>2026-05-07T12:04:15.981Z</time>
      </trkpt>
      <trkpt lat="51.90837" lon="6.00626">
        <ele>57.131899</ele>
        <time>2026-05-07T12:04:18.984Z</time>
      </trkpt>
      <trkpt lat="51.90843" lon="6.00607">
        <ele>57.130504</ele>
        <time>2026-05-07T12:04:21.979Z</time>
      </trkpt>
      <trkpt lat="51.90849" lon="6.00589">
        <ele>57.129106</ele>
        <time>2026-05-07T12:04:24.972Z</time>
      </trkpt>
      <trkpt lat="51.90855" lon="6.00571">
        <ele>57.127753</ele>
        <time>2026-05-07T12:04:27.980Z</time>
      </trkpt>
      <trkpt lat="51.9086" lon="6.00552">
        <ele>57.12634</ele>
        <time>2026-05-07T12:04:30.987Z</time>
      </trkpt>
      <trkpt lat="51.90864" lon="6.00539">
        <ele>57.125355</ele>
        <time>2026-05-07T12:04:32.976Z</time>
      </trkpt>
      <trkpt lat="51.90871" lon="6.0052">
        <ele>57.123957</ele>
        <time>2026-05-07T12:04:35.983Z</time>
      </trkpt>
      <trkpt lat="51.90875" lon="6.00507">
        <ele>57.122978</ele>
        <time>2026-05-07T12:04:37.983Z</time>
      </trkpt>
      <trkpt lat="51.90881" lon="6.00489">
        <ele>57.121534</ele>
        <time>2026-05-07T12:04:40.988Z</time>
      </trkpt>
      <trkpt lat="51.90887" lon="6.0047">
        <ele>57.120105</ele>
        <time>2026-05-07T12:04:43.993Z</time>
      </trkpt>
      <trkpt lat="51.90893" lon="6.00452">
        <ele>57.130712</ele>
        <time>2026-05-07T12:04:46.986Z</time>
      </trkpt>
      <trkpt lat="51.90899" lon="6.00433">
        <ele>57.161245</ele>
        <time>2026-05-07T12:04:49.981Z</time>
      </trkpt>
      <trkpt lat="51.90905" lon="6.00414">
        <ele>57.191961</ele>
        <time>2026-05-07T12:04:52.986Z</time>
      </trkpt>
      <trkpt lat="51.90911" lon="6.00396">
        <ele>57.222907</ele>
        <time>2026-05-07T12:04:55.995Z</time>
      </trkpt>
      <trkpt lat="51.90917" lon="6.00377">
        <ele>57.253751</ele>
        <time>2026-05-07T12:04:58.986Z</time>
      </trkpt>
      <trkpt lat="51.90924" lon="6.0036">
        <ele>57.283676</ele>
        <time>2026-05-07T12:05:01.979Z</time>
      </trkpt>
      <trkpt lat="51.9093" lon="6.00342">
        <ele>57.313974</ele>
        <time>2026-05-07T12:05:04.975Z</time>
      </trkpt>
      <trkpt lat="51.90937" lon="6.00326">
        <ele>57.343056</ele>
        <time>2026-05-07T12:05:07.973Z</time>
      </trkpt>
      <trkpt lat="51.90944" lon="6.00309">
        <ele>57.371984</ele>
        <time>2026-05-07T12:05:10.974Z</time>
      </trkpt>
      <trkpt lat="51.90951" lon="6.00293">
        <ele>57.400087</ele>
        <time>2026-05-07T12:05:13.986Z</time>
      </trkpt>
      <trkpt lat="51.90957" lon="6.00277">
        <ele>57.428296</ele>
        <time>2026-05-07T12:05:16.983Z</time>
      </trkpt>
      <trkpt lat="51.90964" lon="6.00261">
        <ele>57.45688</ele>
        <time>2026-05-07T12:05:19.979Z</time>
      </trkpt>
      <trkpt lat="51.90971" lon="6.00246">
        <ele>57.485001</ele>
        <time>2026-05-07T12:05:22.987Z</time>
      </trkpt>
      <trkpt lat="51.90978" lon="6.00229">
        <ele>57.51451</ele>
        <time>2026-05-07T12:05:25.985Z</time>
      </trkpt>
      <trkpt lat="51.90985" lon="6.00214">
        <ele>57.543146</ele>
        <time>2026-05-07T12:05:28.988Z</time>
      </trkpt>
      <trkpt lat="51.90993" lon="6.00197">
        <ele>57.539926</ele>
        <time>2026-05-07T12:05:31.994Z</time>
      </trkpt>
      <trkpt lat="51.91001" lon="6.0018">
        <ele>57.532704</ele>
        <time>2026-05-07T12:05:34.984Z</time>
      </trkpt>
      <trkpt lat="51.91009" lon="6.00164">
        <ele>57.525742</ele>
        <time>2026-05-07T12:05:37.992Z</time>
      </trkpt>
      <trkpt lat="51.91018" lon="6.00149">
        <ele>57.518673</ele>
        <time>2026-05-07T12:05:40.990Z</time>
      </trkpt>
      <trkpt lat="51.91026" lon="6.00132">
        <ele>57.511509</ele>
        <time>2026-05-07T12:05:43.982Z</time>
      </trkpt>
      <trkpt lat="51.91035" lon="6.00117">
        <ele>57.504231</ele>
        <time>2026-05-07T12:05:46.982Z</time>
      </trkpt>
      <trkpt lat="51.91041" lon="6.00106">
        <ele>57.4992</ele>
        <time>2026-05-07T12:05:48.983Z</time>
      </trkpt>
      <trkpt lat="51.9105" lon="6.0009">
        <ele>57.491935</ele>
        <time>2026-05-07T12:05:51.990Z</time>
      </trkpt>
      <trkpt lat="51.91059" lon="6.00075">
        <ele>57.484518</ele>
        <time>2026-05-07T12:05:54.985Z</time>
      </trkpt>
      <trkpt lat="51.91066" lon="6.00064">
        <ele>57.479393</ele>
        <time>2026-05-07T12:05:56.973Z</time>
      </trkpt>
      <trkpt lat="51.91072" lon="6.00053">
        <ele>57.474172</ele>
        <time>2026-05-07T12:05:58.990Z</time>
      </trkpt>
      <trkpt lat="51.91079" lon="6.00043">
        <ele>57.469205</ele>
        <time>2026-05-07T12:06:00.978Z</time>
      </trkpt>
      <trkpt lat="51.91088" lon="6.00029">
        <ele>57.461927</ele>
        <time>2026-05-07T12:06:03.972Z</time>
      </trkpt>
      <trkpt lat="51.91098" lon="6.00015">
        <ele>57.454883</ele>
        <time>2026-05-07T12:06:06.975Z</time>
      </trkpt>
      <trkpt lat="51.91108" lon="6.00001">
        <ele>57.447583</ele>
        <time>2026-05-07T12:06:09.978Z</time>
      </trkpt>
      <trkpt lat="51.91118" lon="5.99988">
        <ele>57.411878</ele>
        <time>2026-05-07T12:06:12.980Z</time>
      </trkpt>
      <trkpt lat="51.91128" lon="5.99975">
        <ele>57.372109</ele>
        <time>2026-05-07T12:06:15.986Z</time>
      </trkpt>
      <trkpt lat="51.91135" lon="5.99965">
        <ele>57.344758</ele>
        <time>2026-05-07T12:06:17.991Z</time>
      </trkpt>
      <trkpt lat="51.91145" lon="5.99952">
        <ele>57.304739</ele>
        <time>2026-05-07T12:06:20.984Z</time>
      </trkpt>
      <trkpt lat="51.91155" lon="5.99938">
        <ele>57.264342</ele>
        <time>2026-05-07T12:06:23.989Z</time>
      </trkpt>
      <trkpt lat="51.91165" lon="5.99925">
        <ele>57.226474</ele>
        <time>2026-05-07T12:06:26.986Z</time>
      </trkpt>
      <trkpt lat="51.91175" lon="5.99914">
        <ele>57.188422</ele>
        <time>2026-05-07T12:06:29.986Z</time>
      </trkpt>
      <trkpt lat="51.91186" lon="5.99902">
        <ele>57.148156</ele>
        <time>2026-05-07T12:06:32.982Z</time>
      </trkpt>
      <trkpt lat="51.91197" lon="5.9989">
        <ele>57.107629</ele>
        <time>2026-05-07T12:06:35.976Z</time>
      </trkpt>
      <trkpt lat="51.91207" lon="5.99879">
        <ele>57.06901</ele>
        <time>2026-05-07T12:06:38.984Z</time>
      </trkpt>
      <trkpt lat="51.91218" lon="5.99868">
        <ele>57.029773</ele>
        <time>2026-05-07T12:06:41.987Z</time>
      </trkpt>
      <trkpt lat="51.91229" lon="5.99857">
        <ele>56.990895</ele>
        <time>2026-05-07T12:06:44.989Z</time>
      </trkpt>
      <trkpt lat="51.91239" lon="5.99846">
        <ele>56.952634</ele>
        <time>2026-05-07T12:06:47.988Z</time>
      </trkpt>
      <trkpt lat="51.91249" lon="5.99836">
        <ele>56.917477</ele>
        <time>2026-05-07T12:06:50.974Z</time>
      </trkpt>
      <trkpt lat="51.91258" lon="5.99827">
        <ele>56.938093</ele>
        <time>2026-05-07T12:06:53.985Z</time>
      </trkpt>
      <trkpt lat="51.91267" lon="5.99819">
        <ele>57.057187</ele>
        <time>2026-05-07T12:06:57.029Z</time>
      </trkpt>
      <trkpt lat="51.91277" lon="5.9981">
        <ele>57.176928</ele>
        <time>2026-05-07T12:06:59.983Z</time>
      </trkpt>
      <trkpt lat="51.91287" lon="5.99802">
        <ele>57.3003</ele>
        <time>2026-05-07T12:07:02.987Z</time>
      </trkpt>
      <trkpt lat="51.91297" lon="5.99794">
        <ele>57.426896</ele>
        <time>2026-05-07T12:07:05.988Z</time>
      </trkpt>
      <trkpt lat="51.91307" lon="5.99788">
        <ele>57.552604</ele>
        <time>2026-05-07T12:07:08.989Z</time>
      </trkpt>
      <trkpt lat="51.91317" lon="5.99781">
        <ele>57.675212</ele>
        <time>2026-05-07T12:07:11.996Z</time>
      </trkpt>
      <trkpt lat="51.91328" lon="5.99774">
        <ele>57.800403</ele>
        <time>2026-05-07T12:07:14.983Z</time>
      </trkpt>
      <trkpt lat="51.91338" lon="5.99768">
        <ele>57.925335</ele>
        <time>2026-05-07T12:07:17.986Z</time>
      </trkpt>
      <trkpt lat="51.91348" lon="5.99762">
        <ele>58.045432</ele>
        <time>2026-05-07T12:07:20.982Z</time>
      </trkpt>
      <trkpt lat="51.91359" lon="5.99758">
        <ele>58.163686</ele>
        <time>2026-05-07T12:07:23.986Z</time>
      </trkpt>
      <trkpt lat="51.91368" lon="5.99752">
        <ele>58.273141</ele>
        <time>2026-05-07T12:07:26.987Z</time>
      </trkpt>
      <trkpt lat="51.91377" lon="5.99749">
        <ele>58.379347</ele>
        <time>2026-05-07T12:07:29.984Z</time>
      </trkpt>
      <trkpt lat="51.91386" lon="5.99743">
        <ele>58.48799</ele>
        <time>2026-05-07T12:07:32.995Z</time>
      </trkpt>
      <trkpt lat="51.91397" lon="5.99739">
        <ele>58.615499</ele>
        <time>2026-05-07T12:07:36.986Z</time>
      </trkpt>
      <trkpt lat="51.91406" lon="5.99735">
        <ele>58.716177</ele>
        <time>2026-05-07T12:07:39.984Z</time>
      </trkpt>
      <trkpt lat="51.91416" lon="5.9973">
        <ele>58.828491</ele>
        <time>2026-05-07T12:07:42.980Z</time>
      </trkpt>
      <trkpt lat="51.91425" lon="5.99726">
        <ele>58.892006</ele>
        <time>2026-05-07T12:07:45.981Z</time>
      </trkpt>
      <trkpt lat="51.91435" lon="5.99722">
        <ele>58.827098</ele>
        <time>2026-05-07T12:07:48.968Z</time>
      </trkpt>
      <trkpt lat="51.91446" lon="5.99717">
        <ele>58.757684</ele>
        <time>2026-05-07T12:07:51.978Z</time>
      </trkpt>
      <trkpt lat="51.91457" lon="5.99713">
        <ele>58.688457</ele>
        <time>2026-05-07T12:07:54.986Z</time>
      </trkpt>
      <trkpt lat="51.91468" lon="5.99709">
        <ele>58.616896</ele>
        <time>2026-05-07T12:07:57.989Z</time>
      </trkpt>
      <trkpt lat="51.91479" lon="5.99706">
        <ele>58.546232</ele>
        <time>2026-05-07T12:08:00.978Z</time>
      </trkpt>
      <trkpt lat="51.9149" lon="5.99702">
        <ele>58.474922</ele>
        <time>2026-05-07T12:08:03.977Z</time>
      </trkpt>
      <trkpt lat="51.91502" lon="5.99699">
        <ele>58.40358</ele>
        <time>2026-05-07T12:08:06.986Z</time>
      </trkpt>
      <trkpt lat="51.91512" lon="5.99695">
        <ele>58.335467</ele>
        <time>2026-05-07T12:08:09.988Z</time>
      </trkpt>
      <trkpt lat="51.91522" lon="5.99692">
        <ele>58.272539</ele>
        <time>2026-05-07T12:08:12.986Z</time>
      </trkpt>
      <trkpt lat="51.91532" lon="5.99691">
        <ele>58.213252</ele>
        <time>2026-05-07T12:08:15.998Z</time>
      </trkpt>
      <trkpt lat="51.91544" lon="5.99687">
        <ele>58.139047</ele>
        <time>2026-05-07T12:08:19.972Z</time>
      </trkpt>
      <trkpt lat="51.91553" lon="5.99683">
        <ele>58.07925</ele>
        <time>2026-05-07T12:08:22.985Z</time>
      </trkpt>
      <trkpt lat="51.91563" lon="5.99682">
        <ele>58.016078</ele>
        <time>2026-05-07T12:08:25.994Z</time>
      </trkpt>
      <trkpt lat="51.91574" lon="5.9968">
        <ele>57.946089</ele>
        <time>2026-05-07T12:08:28.992Z</time>
      </trkpt>
      <trkpt lat="51.91585" lon="5.99678">
        <ele>57.878465</ele>
        <time>2026-05-07T12:08:31.972Z</time>
      </trkpt>
      <trkpt lat="51.91596" lon="5.99676">
        <ele>57.810554</ele>
        <time>2026-05-07T12:08:34.986Z</time>
      </trkpt>
      <trkpt lat="51.91606" lon="5.99674">
        <ele>57.826495</ele>
        <time>2026-05-07T12:08:37.983Z</time>
      </trkpt>
      <trkpt lat="51.91616" lon="5.99672">
        <ele>57.878721</ele>
        <time>2026-05-07T12:08:40.978Z</time>
      </trkpt>
      <trkpt lat="51.91626" lon="5.99671">
        <ele>57.933403</ele>
        <time>2026-05-07T12:08:43.976Z</time>
      </trkpt>
      <trkpt lat="51.91635" lon="5.99671">
        <ele>57.984258</ele>
        <time>2026-05-07T12:08:46.976Z</time>
      </trkpt>
      <trkpt lat="51.91646" lon="5.99671">
        <ele>58.04315</ele>
        <time>2026-05-07T12:08:50.991Z</time>
      </trkpt>
      <trkpt lat="51.91666" lon="5.99671">
        <ele>58.146476</ele>
        <time>2026-05-07T12:11:33.966Z</time>
      </trkpt>
      <trkpt lat="51.91677" lon="5.9967">
        <ele>58.208093</ele>
        <time>2026-05-07T12:11:37.956Z</time>
      </trkpt>
      <trkpt lat="51.91687" lon="5.99668">
        <ele>58.262918</ele>
        <time>2026-05-07T12:11:40.958Z</time>
      </trkpt>
      <trkpt lat="51.91698" lon="5.99669">
        <ele>58.31807</ele>
        <time>2026-05-07T12:11:43.959Z</time>
      </trkpt>
      <trkpt lat="51.91709" lon="5.99668">
        <ele>58.376968</ele>
        <time>2026-05-07T12:11:46.960Z</time>
      </trkpt>
      <trkpt lat="51.9172" lon="5.99669">
        <ele>58.439151</ele>
        <time>2026-05-07T12:11:49.957Z</time>
      </trkpt>
      <trkpt lat="51.91732" lon="5.99669">
        <ele>58.503395</ele>
        <time>2026-05-07T12:11:52.963Z</time>
      </trkpt>
      <trkpt lat="51.91744" lon="5.99669">
        <ele>58.56549</ele>
        <time>2026-05-07T12:11:55.971Z</time>
      </trkpt>
      <trkpt lat="51.91755" lon="5.99668">
        <ele>58.62607</ele>
        <time>2026-05-07T12:11:58.959Z</time>
      </trkpt>
      <trkpt lat="51.91765" lon="5.99669">
        <ele>58.680814</ele>
        <time>2026-05-07T12:12:01.946Z</time>
      </trkpt>
      <trkpt lat="51.91775" lon="5.9967">
        <ele>58.733311</ele>
        <time>2026-05-07T12:12:04.960Z</time>
      </trkpt>
      <trkpt lat="51.91783" lon="5.99663">
        <ele>58.71797</ele>
        <time>2026-05-07T12:12:07.980Z</time>
      </trkpt>
      <trkpt lat="51.91788" lon="5.99648">
        <ele>58.655147</ele>
        <time>2026-05-07T12:12:10.960Z</time>
      </trkpt>
      <trkpt lat="51.91792" lon="5.99633">
        <ele>58.594815</ele>
        <time>2026-05-07T12:12:13.951Z</time>
      </trkpt>
      <trkpt lat="51.91797" lon="5.99621">
        <ele>58.539384</ele>
        <time>2026-05-07T12:12:16.963Z</time>
      </trkpt>
      <trkpt lat="51.91802" lon="5.99607">
        <ele>58.477289</ele>
        <time>2026-05-07T12:12:19.962Z</time>
      </trkpt>
      <trkpt lat="51.91809" lon="5.99595">
        <ele>58.419028</ele>
        <time>2026-05-07T12:12:22.960Z</time>
      </trkpt>
      <trkpt lat="51.91817" lon="5.99584">
        <ele>58.355436</ele>
        <time>2026-05-07T12:12:26.979Z</time>
      </trkpt>
      <trkpt lat="51.91824" lon="5.99573">
        <ele>58.296495</ele>
        <time>2026-05-07T12:12:30.952Z</time>
      </trkpt>
      <trkpt lat="51.9183" lon="5.99562">
        <ele>58.238564</ele>
        <time>2026-05-07T12:12:33.954Z</time>
      </trkpt>
      <trkpt lat="51.91836" lon="5.9955">
        <ele>58.1824</ele>
        <time>2026-05-07T12:12:36.966Z</time>
      </trkpt>
      <trkpt lat="51.91842" lon="5.99539">
        <ele>58.126518</ele>
        <time>2026-05-07T12:12:39.957Z</time>
      </trkpt>
      <trkpt lat="51.9185" lon="5.99526">
        <ele>58.059943</ele>
        <time>2026-05-07T12:12:42.952Z</time>
      </trkpt>
      <trkpt lat="51.91858" lon="5.99514">
        <ele>57.99226</ele>
        <time>2026-05-07T12:12:45.962Z</time>
      </trkpt>
      <trkpt lat="51.91866" lon="5.99503">
        <ele>57.926539</ele>
        <time>2026-05-07T12:12:48.976Z</time>
      </trkpt>
      <trkpt lat="51.91875" lon="5.99489">
        <ele>57.853431</ele>
        <time>2026-05-07T12:12:51.943Z</time>
      </trkpt>
      <trkpt lat="51.91884" lon="5.99475">
        <ele>57.779366</ele>
        <time>2026-05-07T12:12:54.965Z</time>
      </trkpt>
      <trkpt lat="51.9189" lon="5.99465">
        <ele>57.724773</ele>
        <time>2026-05-07T12:12:56.975Z</time>
      </trkpt>
      <trkpt lat="51.919" lon="5.99449">
        <ele>57.651257</ele>
        <time>2026-05-07T12:12:59.956Z</time>
      </trkpt>
      <trkpt lat="51.91906" lon="5.99438">
        <ele>57.620654</ele>
        <time>2026-05-07T12:13:01.968Z</time>
      </trkpt>
      <trkpt lat="51.91915" lon="5.99422">
        <ele>57.577079</ele>
        <time>2026-05-07T12:13:04.980Z</time>
      </trkpt>
      <trkpt lat="51.91922" lon="5.99411">
        <ele>57.545736</ele>
        <time>2026-05-07T12:13:06.956Z</time>
      </trkpt>
      <trkpt lat="51.91928" lon="5.994">
        <ele>57.515353</ele>
        <time>2026-05-07T12:13:08.970Z</time>
      </trkpt>
      <trkpt lat="51.91935" lon="5.9939">
        <ele>57.485681</ele>
        <time>2026-05-07T12:13:10.974Z</time>
      </trkpt>
      <trkpt lat="51.91941" lon="5.99379">
        <ele>57.454926</ele>
        <time>2026-05-07T12:13:12.977Z</time>
      </trkpt>
      <trkpt lat="51.9195" lon="5.99363">
        <ele>57.410908</ele>
        <time>2026-05-07T12:13:15.957Z</time>
      </trkpt>
      <trkpt lat="51.91957" lon="5.99352">
        <ele>57.37984</ele>
        <time>2026-05-07T12:13:17.971Z</time>
      </trkpt>
      <trkpt lat="51.91963" lon="5.99341">
        <ele>57.349432</ele>
        <time>2026-05-07T12:13:19.960Z</time>
      </trkpt>
      <trkpt lat="51.9197" lon="5.99331">
        <ele>57.319348</ele>
        <time>2026-05-07T12:13:21.990Z</time>
      </trkpt>
      <trkpt lat="51.91977" lon="5.99322">
        <ele>57.289587</ele>
        <time>2026-05-07T12:13:23.964Z</time>
      </trkpt>
      <trkpt lat="51.91984" lon="5.99313">
        <ele>57.260169</ele>
        <time>2026-05-07T12:13:25.975Z</time>
      </trkpt>
      <trkpt lat="51.91992" lon="5.99306">
        <ele>57.2301</ele>
        <time>2026-05-07T12:13:27.970Z</time>
      </trkpt>
      <trkpt lat="51.92" lon="5.99298">
        <ele>57.20015</ele>
        <time>2026-05-07T12:13:29.972Z</time>
      </trkpt>
      <trkpt lat="51.92009" lon="5.9929">
        <ele>57.16844</ele>
        <time>2026-05-07T12:13:31.972Z</time>
      </trkpt>
      <trkpt lat="51.92017" lon="5.99283">
        <ele>57.137617</ele>
        <time>2026-05-07T12:13:33.982Z</time>
      </trkpt>
      <trkpt lat="51.92026" lon="5.99277">
        <ele>57.106472</ele>
        <time>2026-05-07T12:13:35.968Z</time>
      </trkpt>
      <trkpt lat="51.92034" lon="5.99271">
        <ele>57.076345</ele>
        <time>2026-05-07T12:13:37.962Z</time>
      </trkpt>
      <trkpt lat="51.92042" lon="5.99265">
        <ele>57.093309</ele>
        <time>2026-05-07T12:13:39.968Z</time>
      </trkpt>
      <trkpt lat="51.92051" lon="5.9926">
        <ele>57.116005</ele>
        <time>2026-05-07T12:13:41.972Z</time>
      </trkpt>
      <trkpt lat="51.9206" lon="5.99255">
        <ele>57.139749</ele>
        <time>2026-05-07T12:13:43.966Z</time>
      </trkpt>
      <trkpt lat="51.92069" lon="5.99253">
        <ele>57.162678</ele>
        <time>2026-05-07T12:13:45.965Z</time>
      </trkpt>
      <trkpt lat="51.92079" lon="5.99251">
        <ele>57.186497</ele>
        <time>2026-05-07T12:13:47.952Z</time>
      </trkpt>
      <trkpt lat="51.92088" lon="5.99249">
        <ele>57.209237</ele>
        <time>2026-05-07T12:13:49.976Z</time>
      </trkpt>
      <trkpt lat="51.92097" lon="5.99249">
        <ele>57.232348</ele>
        <time>2026-05-07T12:13:51.974Z</time>
      </trkpt>
      <trkpt lat="51.92107" lon="5.99248">
        <ele>57.255785</ele>
        <time>2026-05-07T12:13:53.967Z</time>
      </trkpt>
      <trkpt lat="51.9212" lon="5.99247">
        <ele>57.288827</ele>
        <time>2026-05-07T12:13:56.966Z</time>
      </trkpt>
      <trkpt lat="51.92133" lon="5.99248">
        <ele>57.322125</ele>
        <time>2026-05-07T12:13:59.969Z</time>
      </trkpt>
      <trkpt lat="51.92142" lon="5.99248">
        <ele>57.344489</ele>
        <time>2026-05-07T12:14:01.966Z</time>
      </trkpt>
      <trkpt lat="51.92156" lon="5.99247">
        <ele>57.377547</ele>
        <time>2026-05-07T12:14:04.984Z</time>
      </trkpt>
      <trkpt lat="51.92165" lon="5.99248">
        <ele>57.399939</ele>
        <time>2026-05-07T12:14:06.967Z</time>
      </trkpt>
      <trkpt lat="51.92178" lon="5.99248">
        <ele>57.432247</ele>
        <time>2026-05-07T12:14:09.972Z</time>
      </trkpt>
      <trkpt lat="51.92191" lon="5.99246">
        <ele>57.465212</ele>
        <time>2026-05-07T12:14:12.970Z</time>
      </trkpt>
      <trkpt lat="51.92204" lon="5.99242">
        <ele>57.497975</ele>
        <time>2026-05-07T12:14:15.962Z</time>
      </trkpt>
      <trkpt lat="51.92217" lon="5.99238">
        <ele>57.510657</ele>
        <time>2026-05-07T12:14:18.965Z</time>
      </trkpt>
      <trkpt lat="51.92226" lon="5.99236">
        <ele>57.492466</ele>
        <time>2026-05-07T12:14:20.982Z</time>
      </trkpt>
      <trkpt lat="51.92239" lon="5.99232">
        <ele>57.465887</ele>
        <time>2026-05-07T12:14:23.965Z</time>
      </trkpt>
      <trkpt lat="51.92248" lon="5.99228">
        <ele>57.447894</ele>
        <time>2026-05-07T12:14:25.965Z</time>
      </trkpt>
      <trkpt lat="51.92257" lon="5.99225">
        <ele>57.429873</ele>
        <time>2026-05-07T12:14:27.961Z</time>
      </trkpt>
      <trkpt lat="51.92266" lon="5.99223">
        <ele>57.411944</ele>
        <time>2026-05-07T12:14:29.969Z</time>
      </trkpt>
      <trkpt lat="51.92279" lon="5.9922">
        <ele>57.385624</ele>
        <time>2026-05-07T12:14:32.982Z</time>
      </trkpt>
      <trkpt lat="51.92292" lon="5.99216">
        <ele>57.358737</ele>
        <time>2026-05-07T12:14:35.969Z</time>
      </trkpt>
      <trkpt lat="51.92305" lon="5.99211">
        <ele>57.33225</ele>
        <time>2026-05-07T12:14:38.961Z</time>
      </trkpt>
      <trkpt lat="51.92314" lon="5.99207">
        <ele>57.313842</ele>
        <time>2026-05-07T12:14:40.966Z</time>
      </trkpt>
      <trkpt lat="51.92323" lon="5.99203">
        <ele>57.295241</ele>
        <time>2026-05-07T12:14:42.969Z</time>
      </trkpt>
      <trkpt lat="51.92332" lon="5.99199">
        <ele>57.277089</ele>
        <time>2026-05-07T12:14:44.965Z</time>
      </trkpt>
      <trkpt lat="51.92341" lon="5.99192">
        <ele>57.258352</ele>
        <time>2026-05-07T12:14:46.956Z</time>
      </trkpt>
      <trkpt lat="51.92349" lon="5.99185">
        <ele>57.240032</ele>
        <time>2026-05-07T12:14:48.966Z</time>
      </trkpt>
      <trkpt lat="51.92357" lon="5.99177">
        <ele>57.221711</ele>
        <time>2026-05-07T12:14:50.973Z</time>
      </trkpt>
      <trkpt lat="51.92364" lon="5.99169">
        <ele>57.203414</ele>
        <time>2026-05-07T12:14:52.970Z</time>
      </trkpt>
      <trkpt lat="51.92372" lon="5.99161">
        <ele>57.184752</ele>
        <time>2026-05-07T12:14:54.976Z</time>
      </trkpt>
      <trkpt lat="51.9238" lon="5.99153">
        <ele>57.166415</ele>
        <time>2026-05-07T12:14:56.970Z</time>
      </trkpt>
      <trkpt lat="51.92388" lon="5.99144">
        <ele>57.214458</ele>
        <time>2026-05-07T12:14:58.960Z</time>
      </trkpt>
      <trkpt lat="51.92396" lon="5.99136">
        <ele>57.276215</ele>
        <time>2026-05-07T12:15:00.961Z</time>
      </trkpt>
      <trkpt lat="51.92403" lon="5.99127">
        <ele>57.338288</ele>
        <time>2026-05-07T12:15:02.983Z</time>
      </trkpt>
      <trkpt lat="51.92411" lon="5.99119">
        <ele>57.400136</ele>
        <time>2026-05-07T12:15:04.961Z</time>
      </trkpt>
      <trkpt lat="51.92419" lon="5.99111">
        <ele>57.461441</ele>
        <time>2026-05-07T12:15:06.979Z</time>
      </trkpt>
      <trkpt lat="51.92426" lon="5.99102">
        <ele>57.521105</ele>
        <time>2026-05-07T12:15:08.965Z</time>
      </trkpt>
      <trkpt lat="51.92434" lon="5.99093">
        <ele>57.582428</ele>
        <time>2026-05-07T12:15:10.973Z</time>
      </trkpt>
      <trkpt lat="51.92443" lon="5.99078">
        <ele>57.670544</ele>
        <time>2026-05-07T12:15:13.971Z</time>
      </trkpt>
      <trkpt lat="51.9245" lon="5.99068">
        <ele>57.730767</ele>
        <time>2026-05-07T12:15:15.971Z</time>
      </trkpt>
      <trkpt lat="51.92457" lon="5.99058">
        <ele>57.791748</ele>
        <time>2026-05-07T12:15:17.971Z</time>
      </trkpt>
      <trkpt lat="51.92463" lon="5.99047">
        <ele>57.853105</ele>
        <time>2026-05-07T12:15:19.965Z</time>
      </trkpt>
      <trkpt lat="51.9247" lon="5.99037">
        <ele>57.914177</ele>
        <time>2026-05-07T12:15:21.972Z</time>
      </trkpt>
      <trkpt lat="51.92477" lon="5.99026">
        <ele>57.974964</ele>
        <time>2026-05-07T12:15:23.964Z</time>
      </trkpt>
      <trkpt lat="51.92483" lon="5.99016">
        <ele>58.034473</ele>
        <time>2026-05-07T12:15:25.965Z</time>
      </trkpt>
      <trkpt lat="51.92492" lon="5.99">
        <ele>58.12194</ele>
        <time>2026-05-07T12:15:28.961Z</time>
      </trkpt>
      <trkpt lat="51.92497" lon="5.98988">
        <ele>58.182038</ele>
        <time>2026-05-07T12:15:30.968Z</time>
      </trkpt>
      <trkpt lat="51.92503" lon="5.98977">
        <ele>58.241503</ele>
        <time>2026-05-07T12:15:32.971Z</time>
      </trkpt>
      <trkpt lat="51.92511" lon="5.9896">
        <ele>58.330143</ele>
        <time>2026-05-07T12:15:35.966Z</time>
      </trkpt>
      <trkpt lat="51.9252" lon="5.98943">
        <ele>58.334581</ele>
        <time>2026-05-07T12:15:38.964Z</time>
      </trkpt>
      <trkpt lat="51.92526" lon="5.98932">
        <ele>58.320029</ele>
        <time>2026-05-07T12:15:40.982Z</time>
      </trkpt>
      <trkpt lat="51.92532" lon="5.9892">
        <ele>58.305346</ele>
        <time>2026-05-07T12:15:42.955Z</time>
      </trkpt>
      <trkpt lat="51.92538" lon="5.98908">
        <ele>58.290314</ele>
        <time>2026-05-07T12:15:44.976Z</time>
      </trkpt>
      <trkpt lat="51.92543" lon="5.98895">
        <ele>58.275</ele>
        <time>2026-05-07T12:15:46.951Z</time>
      </trkpt>
      <trkpt lat="51.92549" lon="5.98884">
        <ele>58.260504</ele>
        <time>2026-05-07T12:15:48.956Z</time>
      </trkpt>
      <trkpt lat="51.92555" lon="5.98872">
        <ele>58.246007</ele>
        <time>2026-05-07T12:15:50.974Z</time>
      </trkpt>
      <trkpt lat="51.92564" lon="5.98856">
        <ele>58.224478</ele>
        <time>2026-05-07T12:15:53.960Z</time>
      </trkpt>
      <trkpt lat="51.92571" lon="5.98846">
        <ele>58.209574</ele>
        <time>2026-05-07T12:15:55.967Z</time>
      </trkpt>
      <trkpt lat="51.92578" lon="5.98836">
        <ele>58.194736</ele>
        <time>2026-05-07T12:15:57.952Z</time>
      </trkpt>
      <trkpt lat="51.92585" lon="5.98827">
        <ele>58.180341</ele>
        <time>2026-05-07T12:15:59.973Z</time>
      </trkpt>
      <trkpt lat="51.92596" lon="5.98815">
        <ele>58.15905</ele>
        <time>2026-05-07T12:16:02.964Z</time>
      </trkpt>
      <trkpt lat="51.92608" lon="5.98804">
        <ele>58.137912</ele>
        <time>2026-05-07T12:16:05.967Z</time>
      </trkpt>
      <trkpt lat="51.92619" lon="5.98794">
        <ele>58.116503</ele>
        <time>2026-05-07T12:16:08.965Z</time>
      </trkpt>
      <trkpt lat="51.92628" lon="5.98786">
        <ele>58.101811</ele>
        <time>2026-05-07T12:16:10.963Z</time>
      </trkpt>
      <trkpt lat="51.92636" lon="5.98779">
        <ele>58.087258</ele>
        <time>2026-05-07T12:16:12.965Z</time>
      </trkpt>
      <trkpt lat="51.92647" lon="5.98769">
        <ele>58.06594</ele>
        <time>2026-05-07T12:16:15.957Z</time>
      </trkpt>
      <trkpt lat="51.92659" lon="5.98758">
        <ele>58.110259</ele>
        <time>2026-05-07T12:16:18.964Z</time>
      </trkpt>
      <trkpt lat="51.92667" lon="5.98751">
        <ele>58.141907</ele>
        <time>2026-05-07T12:16:20.962Z</time>
      </trkpt>
      <trkpt lat="51.92675" lon="5.98744">
        <ele>58.174273</ele>
        <time>2026-05-07T12:16:22.960Z</time>
      </trkpt>
      <trkpt lat="51.92683" lon="5.98737">
        <ele>58.205829</ele>
        <time>2026-05-07T12:16:24.958Z</time>
      </trkpt>
      <trkpt lat="51.92691" lon="5.9873">
        <ele>58.23799</ele>
        <time>2026-05-07T12:16:26.966Z</time>
      </trkpt>
      <trkpt lat="51.92699" lon="5.98723">
        <ele>58.270561</ele>
        <time>2026-05-07T12:16:28.972Z</time>
      </trkpt>
      <trkpt lat="51.92708" lon="5.98716">
        <ele>58.303173</ele>
        <time>2026-05-07T12:16:30.970Z</time>
      </trkpt>
      <trkpt lat="51.92716" lon="5.98709">
        <ele>58.334923</ele>
        <time>2026-05-07T12:16:32.971Z</time>
      </trkpt>
      <trkpt lat="51.92724" lon="5.98702">
        <ele>58.366878</ele>
        <time>2026-05-07T12:16:34.970Z</time>
      </trkpt>
      <trkpt lat="51.92732" lon="5.98695">
        <ele>58.398837</ele>
        <time>2026-05-07T12:16:36.962Z</time>
      </trkpt>
      <trkpt lat="51.9274" lon="5.98688">
        <ele>58.431108</ele>
        <time>2026-05-07T12:16:38.966Z</time>
      </trkpt>
      <trkpt lat="51.92748" lon="5.98681">
        <ele>58.462756</ele>
        <time>2026-05-07T12:16:40.972Z</time>
      </trkpt>
      <trkpt lat="51.92759" lon="5.9867">
        <ele>58.50839</ele>
        <time>2026-05-07T12:16:43.973Z</time>
      </trkpt>
      <trkpt lat="51.9277" lon="5.98661">
        <ele>58.550722</ele>
        <time>2026-05-07T12:16:46.973Z</time>
      </trkpt>
      <trkpt lat="51.92781" lon="5.98651">
        <ele>58.594595</ele>
        <time>2026-05-07T12:16:49.965Z</time>
      </trkpt>
      <trkpt lat="51.92792" lon="5.98642">
        <ele>58.640115</ele>
        <time>2026-05-07T12:16:52.959Z</time>
      </trkpt>
      <trkpt lat="51.92804" lon="5.98632">
        <ele>58.686373</ele>
        <time>2026-05-07T12:16:55.948Z</time>
      </trkpt>
      <trkpt lat="51.92815" lon="5.9862">
        <ele>58.692774</ele>
        <time>2026-05-07T12:16:58.958Z</time>
      </trkpt>
      <trkpt lat="51.92825" lon="5.98606">
        <ele>58.689496</ele>
        <time>2026-05-07T12:17:01.956Z</time>
      </trkpt>
      <trkpt lat="51.92835" lon="5.98591">
        <ele>58.686251</ele>
        <time>2026-05-07T12:17:04.968Z</time>
      </trkpt>
      <trkpt lat="51.92844" lon="5.98575">
        <ele>58.683081</ele>
        <time>2026-05-07T12:17:07.962Z</time>
      </trkpt>
      <trkpt lat="51.9285" lon="5.98564">
        <ele>58.680877</ele>
        <time>2026-05-07T12:17:09.970Z</time>
      </trkpt>
      <trkpt lat="51.92855" lon="5.98551">
        <ele>58.678647</ele>
        <time>2026-05-07T12:17:11.958Z</time>
      </trkpt>
      <trkpt lat="51.9286" lon="5.98537">
        <ele>58.676267</ele>
        <time>2026-05-07T12:17:13.969Z</time>
      </trkpt>
      <trkpt lat="51.92864" lon="5.98524">
        <ele>58.674031</ele>
        <time>2026-05-07T12:17:15.966Z</time>
      </trkpt>
      <trkpt lat="51.92868" lon="5.9851">
        <ele>58.671806</ele>
        <time>2026-05-07T12:17:17.961Z</time>
      </trkpt>
      <trkpt lat="51.92871" lon="5.98495">
        <ele>58.669522</ele>
        <time>2026-05-07T12:17:19.949Z</time>
      </trkpt>
      <trkpt lat="51.92874" lon="5.98481">
        <ele>58.667346</ele>
        <time>2026-05-07T12:17:21.962Z</time>
      </trkpt>
      <trkpt lat="51.92877" lon="5.98466">
        <ele>58.665032</ele>
        <time>2026-05-07T12:17:23.959Z</time>
      </trkpt>
      <trkpt lat="51.92878" lon="5.98451">
        <ele>58.662741</ele>
        <time>2026-05-07T12:17:25.953Z</time>
      </trkpt>
      <trkpt lat="51.92879" lon="5.98436">
        <ele>58.660456</ele>
        <time>2026-05-07T12:17:27.967Z</time>
      </trkpt>
      <trkpt lat="51.92879" lon="5.98421">
        <ele>58.65825</ele>
        <time>2026-05-07T12:17:29.972Z</time>
      </trkpt>
      <trkpt lat="51.9288" lon="5.98406">
        <ele>58.656046</ele>
        <time>2026-05-07T12:17:31.957Z</time>
      </trkpt>
      <trkpt lat="51.9288" lon="5.98384">
        <ele>58.652867</ele>
        <time>2026-05-07T12:17:34.979Z</time>
      </trkpt>
      <trkpt lat="51.9288" lon="5.98369">
        <ele>58.61578</ele>
        <time>2026-05-07T12:17:36.971Z</time>
      </trkpt>
      <trkpt lat="51.92881" lon="5.98355">
        <ele>58.563597</ele>
        <time>2026-05-07T12:17:38.961Z</time>
      </trkpt>
      <trkpt lat="51.92881" lon="5.9834">
        <ele>58.511274</ele>
        <time>2026-05-07T12:17:40.974Z</time>
      </trkpt>
      <trkpt lat="51.92881" lon="5.98325">
        <ele>58.458398</ele>
        <time>2026-05-07T12:17:42.962Z</time>
      </trkpt>
      <trkpt lat="51.92882" lon="5.98309">
        <ele>58.404454</ele>
        <time>2026-05-07T12:17:44.962Z</time>
      </trkpt>
      <trkpt lat="51.92882" lon="5.98294">
        <ele>58.349768</ele>
        <time>2026-05-07T12:17:46.962Z</time>
      </trkpt>
      <trkpt lat="51.92882" lon="5.98279">
        <ele>58.296139</ele>
        <time>2026-05-07T12:17:48.986Z</time>
      </trkpt>
      <trkpt lat="51.92882" lon="5.98263">
        <ele>58.241145</ele>
        <time>2026-05-07T12:17:50.967Z</time>
      </trkpt>
      <trkpt lat="51.92883" lon="5.98248">
        <ele>58.187164</ele>
        <time>2026-05-07T12:17:52.963Z</time>
      </trkpt>
      <trkpt lat="51.92883" lon="5.98233">
        <ele>58.134592</ele>
        <time>2026-05-07T12:17:54.960Z</time>
      </trkpt>
      <trkpt lat="51.92884" lon="5.98218">
        <ele>58.080631</ele>
        <time>2026-05-07T12:17:56.962Z</time>
      </trkpt>
      <trkpt lat="51.92884" lon="5.98203">
        <ele>58.027679</ele>
        <time>2026-05-07T12:17:58.958Z</time>
      </trkpt>
      <trkpt lat="51.92884" lon="5.98188">
        <ele>57.975833</ele>
        <time>2026-05-07T12:18:00.974Z</time>
      </trkpt>
      <trkpt lat="51.92885" lon="5.98173">
        <ele>57.92152</ele>
        <time>2026-05-07T12:18:02.958Z</time>
      </trkpt>
      <trkpt lat="51.92885" lon="5.98157">
        <ele>57.867913</ele>
        <time>2026-05-07T12:18:04.976Z</time>
      </trkpt>
      <trkpt lat="51.92886" lon="5.98143">
        <ele>57.815981</ele>
        <time>2026-05-07T12:18:06.977Z</time>
      </trkpt>
      <trkpt lat="51.92886" lon="5.98128">
        <ele>57.763808</ele>
        <time>2026-05-07T12:18:08.971Z</time>
      </trkpt>
      <trkpt lat="51.92887" lon="5.98106">
        <ele>57.687846</ele>
        <time>2026-05-07T12:18:11.968Z</time>
      </trkpt>
      <trkpt lat="51.92887" lon="5.98092">
        <ele>57.635563</ele>
        <time>2026-05-07T12:18:13.965Z</time>
      </trkpt>
      <trkpt lat="51.92888" lon="5.98077">
        <ele>57.658733</ele>
        <time>2026-05-07T12:18:15.954Z</time>
      </trkpt>
      <trkpt lat="51.92888" lon="5.98056">
        <ele>57.720852</ele>
        <time>2026-05-07T12:18:18.966Z</time>
      </trkpt>
      <trkpt lat="51.9289" lon="5.98036">
        <ele>57.782055</ele>
        <time>2026-05-07T12:18:21.966Z</time>
      </trkpt>
      <trkpt lat="51.92893" lon="5.98017">
        <ele>57.841692</ele>
        <time>2026-05-07T12:18:24.963Z</time>
      </trkpt>
      <trkpt lat="51.92898" lon="5.97999">
        <ele>57.90161</ele>
        <time>2026-05-07T12:18:27.972Z</time>
      </trkpt>
      <trkpt lat="51.92904" lon="5.97982">
        <ele>57.961091</ele>
        <time>2026-05-07T12:18:30.969Z</time>
      </trkpt>
      <trkpt lat="51.92911" lon="5.97966">
        <ele>58.019424</ele>
        <time>2026-05-07T12:18:33.959Z</time>
      </trkpt>
      <trkpt lat="51.92918" lon="5.97949">
        <ele>58.080223</ele>
        <time>2026-05-07T12:18:36.969Z</time>
      </trkpt>
      <trkpt lat="51.92925" lon="5.97931">
        <ele>58.145134</ele>
        <time>2026-05-07T12:18:39.969Z</time>
      </trkpt>
      <trkpt lat="51.92933" lon="5.97915">
        <ele>58.208747</ele>
        <time>2026-05-07T12:18:42.973Z</time>
      </trkpt>
      <trkpt lat="51.92941" lon="5.979">
        <ele>58.267105</ele>
        <time>2026-05-07T12:18:45.960Z</time>
      </trkpt>
      <trkpt lat="51.92949" lon="5.97885">
        <ele>58.327884</ele>
        <time>2026-05-07T12:18:48.961Z</time>
      </trkpt>
      <trkpt lat="51.92957" lon="5.97868">
        <ele>58.389314</ele>
        <time>2026-05-07T12:18:51.967Z</time>
      </trkpt>
      <trkpt lat="51.92962" lon="5.97856">
        <ele>58.433512</ele>
        <time>2026-05-07T12:18:53.958Z</time>
      </trkpt>
      <trkpt lat="51.9297" lon="5.9784">
        <ele>58.496171</ele>
        <time>2026-05-07T12:18:56.969Z</time>
      </trkpt>
      <trkpt lat="51.92975" lon="5.97828">
        <ele>58.489496</ele>
        <time>2026-05-07T12:18:58.952Z</time>
      </trkpt>
      <trkpt lat="51.92983" lon="5.97811">
        <ele>58.468415</ele>
        <time>2026-05-07T12:19:01.970Z</time>
      </trkpt>
      <trkpt lat="51.92989" lon="5.97794">
        <ele>58.4485</ele>
        <time>2026-05-07T12:19:04.965Z</time>
      </trkpt>
      <trkpt lat="51.92996" lon="5.97777">
        <ele>58.42782</ele>
        <time>2026-05-07T12:19:07.967Z</time>
      </trkpt>
      <trkpt lat="51.93003" lon="5.97759">
        <ele>58.406881</ele>
        <time>2026-05-07T12:19:10.965Z</time>
      </trkpt>
      <trkpt lat="51.93009" lon="5.9774">
        <ele>58.385584</ele>
        <time>2026-05-07T12:19:13.971Z</time>
      </trkpt>
      <trkpt lat="51.93015" lon="5.97722">
        <ele>58.364796</ele>
        <time>2026-05-07T12:19:16.954Z</time>
      </trkpt>
      <trkpt lat="51.93022" lon="5.97704">
        <ele>58.343491</ele>
        <time>2026-05-07T12:19:19.959Z</time>
      </trkpt>
      <trkpt lat="51.93028" lon="5.97686">
        <ele>58.322948</ele>
        <time>2026-05-07T12:19:22.964Z</time>
      </trkpt>
      <trkpt lat="51.93033" lon="5.97668">
        <ele>58.303266</ele>
        <time>2026-05-07T12:19:25.962Z</time>
      </trkpt>
      <trkpt lat="51.9304" lon="5.9765">
        <ele>58.282116</ele>
        <time>2026-05-07T12:19:28.965Z</time>
      </trkpt>
      <trkpt lat="51.93045" lon="5.97632">
        <ele>58.261695</ele>
        <time>2026-05-07T12:19:31.972Z</time>
      </trkpt>
      <trkpt lat="51.93051" lon="5.97614">
        <ele>58.241571</ele>
        <time>2026-05-07T12:19:34.954Z</time>
      </trkpt>
      <trkpt lat="51.93055" lon="5.97599">
        <ele>58.224531</ele>
        <time>2026-05-07T12:19:37.973Z</time>
      </trkpt>
      <trkpt lat="51.9306" lon="5.97582">
        <ele>58.214597</ele>
        <time>2026-05-07T12:19:40.966Z</time>
      </trkpt>
      <trkpt lat="51.93065" lon="5.97566">
        <ele>58.243153</ele>
        <time>2026-05-07T12:19:43.957Z</time>
      </trkpt>
      <trkpt lat="51.93069" lon="5.97549">
        <ele>58.272533</ele>
        <time>2026-05-07T12:19:46.974Z</time>
      </trkpt>
      <trkpt lat="51.93073" lon="5.97532">
        <ele>58.30103</ele>
        <time>2026-05-07T12:19:49.972Z</time>
      </trkpt>
      <trkpt lat="51.93076" lon="5.97515">
        <ele>58.328998</ele>
        <time>2026-05-07T12:19:52.955Z</time>
      </trkpt>
      <trkpt lat="51.9308" lon="5.97498">
        <ele>58.35854</ele>
        <time>2026-05-07T12:19:55.978Z</time>
      </trkpt>
      <trkpt lat="51.93084" lon="5.97481">
        <ele>58.387823</ele>
        <time>2026-05-07T12:19:58.954Z</time>
      </trkpt>
      <trkpt lat="51.93088" lon="5.97463">
        <ele>58.418416</ele>
        <time>2026-05-07T12:20:01.968Z</time>
      </trkpt>
      <trkpt lat="51.93093" lon="5.97445">
        <ele>58.450028</ele>
        <time>2026-05-07T12:20:04.972Z</time>
      </trkpt>
      <trkpt lat="51.93098" lon="5.97426">
        <ele>58.482958</ele>
        <time>2026-05-07T12:20:07.966Z</time>
      </trkpt>
      <trkpt lat="51.93103" lon="5.97406">
        <ele>58.516478</ele>
        <time>2026-05-07T12:20:10.978Z</time>
      </trkpt>
      <trkpt lat="51.93106" lon="5.97392">
        <ele>58.540352</ele>
        <time>2026-05-07T12:20:12.971Z</time>
      </trkpt>
      <trkpt lat="51.9311" lon="5.97373">
        <ele>58.573828</ele>
        <time>2026-05-07T12:20:15.967Z</time>
      </trkpt>
      <trkpt lat="51.93115" lon="5.97353">
        <ele>58.607103</ele>
        <time>2026-05-07T12:20:18.970Z</time>
      </trkpt>
      <trkpt lat="51.9312" lon="5.97334">
        <ele>58.640971</ele>
        <time>2026-05-07T12:20:21.967Z</time>
      </trkpt>
      <trkpt lat="51.93126" lon="5.97315">
        <ele>58.67421</ele>
        <time>2026-05-07T12:20:24.970Z</time>
      </trkpt>
      <trkpt lat="51.93131" lon="5.97296">
        <ele>58.643679</ele>
        <time>2026-05-07T12:20:27.970Z</time>
      </trkpt>
      <trkpt lat="51.93137" lon="5.97278">
        <ele>58.610664</ele>
        <time>2026-05-07T12:20:30.967Z</time>
      </trkpt>
      <trkpt lat="51.93142" lon="5.97259">
        <ele>58.57539</ele>
        <time>2026-05-07T12:20:33.970Z</time>
      </trkpt>
      <trkpt lat="51.93146" lon="5.97245">
        <ele>58.551325</ele>
        <time>2026-05-07T12:20:35.961Z</time>
      </trkpt>
      <trkpt lat="51.93149" lon="5.97232">
        <ele>58.527341</ele>
        <time>2026-05-07T12:20:37.973Z</time>
      </trkpt>
      <trkpt lat="51.93155" lon="5.97213">
        <ele>58.492851</ele>
        <time>2026-05-07T12:20:40.962Z</time>
      </trkpt>
      <trkpt lat="51.93161" lon="5.97194">
        <ele>58.458573</ele>
        <time>2026-05-07T12:20:43.982Z</time>
      </trkpt>
      <trkpt lat="51.93166" lon="5.97175">
        <ele>58.424602</ele>
        <time>2026-05-07T12:20:46.957Z</time>
      </trkpt>
      <trkpt lat="51.93171" lon="5.97156">
        <ele>58.391188</ele>
        <time>2026-05-07T12:20:49.972Z</time>
      </trkpt>
      <trkpt lat="51.93176" lon="5.97138">
        <ele>58.358197</ele>
        <time>2026-05-07T12:20:52.980Z</time>
      </trkpt>
      <trkpt lat="51.93182" lon="5.9712">
        <ele>58.324475</ele>
        <time>2026-05-07T12:20:55.971Z</time>
      </trkpt>
      <trkpt lat="51.9319" lon="5.97104">
        <ele>58.291646</ele>
        <time>2026-05-07T12:20:58.969Z</time>
      </trkpt>
      <trkpt lat="51.93198" lon="5.97089">
        <ele>58.258548</ele>
        <time>2026-05-07T12:21:01.968Z</time>
      </trkpt>
      <trkpt lat="51.93207" lon="5.97074">
        <ele>58.224317</ele>
        <time>2026-05-07T12:21:04.972Z</time>
      </trkpt>
      <trkpt lat="51.93217" lon="5.97061">
        <ele>58.189755</ele>
        <time>2026-05-07T12:21:07.976Z</time>
      </trkpt>
      <trkpt lat="51.93227" lon="5.97049">
        <ele>58.150101</ele>
        <time>2026-05-07T12:21:10.968Z</time>
      </trkpt>
      <trkpt lat="51.93238" lon="5.97038">
        <ele>58.11053</ele>
        <time>2026-05-07T12:21:13.965Z</time>
      </trkpt>
      <trkpt lat="51.93249" lon="5.9703">
        <ele>58.072568</ele>
        <time>2026-05-07T12:21:16.959Z</time>
      </trkpt>
      <trkpt lat="51.9326" lon="5.97025">
        <ele>58.035579</ele>
        <time>2026-05-07T12:21:19.971Z</time>
      </trkpt>
      <trkpt lat="51.93271" lon="5.97023">
        <ele>57.99925</ele>
        <time>2026-05-07T12:21:22.977Z</time>
      </trkpt>
      <trkpt lat="51.93282" lon="5.97025">
        <ele>57.964504</ele>
        <time>2026-05-07T12:21:25.955Z</time>
      </trkpt>
      <trkpt lat="51.93294" lon="5.97027">
        <ele>57.92876</ele>
        <time>2026-05-07T12:21:28.976Z</time>
      </trkpt>
      <trkpt lat="51.93305" lon="5.9703">
        <ele>57.893183</ele>
        <time>2026-05-07T12:21:31.975Z</time>
      </trkpt>
      <trkpt lat="51.93316" lon="5.97032">
        <ele>57.857945</ele>
        <time>2026-05-07T12:21:34.974Z</time>
      </trkpt>
      <trkpt lat="51.93327" lon="5.97035">
        <ele>57.822622</ele>
        <time>2026-05-07T12:21:37.961Z</time>
      </trkpt>
      <trkpt lat="51.93338" lon="5.97037">
        <ele>57.789533</ele>
        <time>2026-05-07T12:21:40.970Z</time>
      </trkpt>
      <trkpt lat="51.93349" lon="5.97039">
        <ele>57.753535</ele>
        <time>2026-05-07T12:21:43.961Z</time>
      </trkpt>
      <trkpt lat="51.93361" lon="5.97039">
        <ele>57.717058</ele>
        <time>2026-05-07T12:21:46.971Z</time>
      </trkpt>
      <trkpt lat="51.93371" lon="5.97037">
        <ele>57.682469</ele>
        <time>2026-05-07T12:21:49.978Z</time>
      </trkpt>
      <trkpt lat="51.93382" lon="5.97032">
        <ele>57.64685</ele>
        <time>2026-05-07T12:21:52.969Z</time>
      </trkpt>
      <trkpt lat="51.93393" lon="5.97024">
        <ele>57.623435</ele>
        <time>2026-05-07T12:21:55.956Z</time>
      </trkpt>
      <trkpt lat="51.93402" lon="5.97013">
        <ele>57.608095</ele>
        <time>2026-05-07T12:21:58.960Z</time>
      </trkpt>
      <trkpt lat="51.93411" lon="5.97002">
        <ele>57.592782</ele>
        <time>2026-05-07T12:22:01.978Z</time>
      </trkpt>
      <trkpt lat="51.9342" lon="5.9699">
        <ele>57.576848</ele>
        <time>2026-05-07T12:22:04.962Z</time>
      </trkpt>
      <trkpt lat="51.93429" lon="5.9698">
        <ele>57.561793</ele>
        <time>2026-05-07T12:22:07.966Z</time>
      </trkpt>
      <trkpt lat="51.93438" lon="5.96968">
        <ele>57.546235</ele>
        <time>2026-05-07T12:22:10.957Z</time>
      </trkpt>
      <trkpt lat="51.93447" lon="5.96957">
        <ele>57.531306</ele>
        <time>2026-05-07T12:22:13.965Z</time>
      </trkpt>
      <trkpt lat="51.93455" lon="5.96945">
        <ele>57.515797</ele>
        <time>2026-05-07T12:22:16.959Z</time>
      </trkpt>
      <trkpt lat="51.93464" lon="5.96936">
        <ele>57.50135</ele>
        <time>2026-05-07T12:22:19.960Z</time>
      </trkpt>
      <trkpt lat="51.93473" lon="5.96926">
        <ele>57.486991</ele>
        <time>2026-05-07T12:22:22.958Z</time>
      </trkpt>
      <trkpt lat="51.93482" lon="5.96915">
        <ele>57.471947</ele>
        <time>2026-05-07T12:22:25.970Z</time>
      </trkpt>
      <trkpt lat="51.93491" lon="5.96904">
        <ele>57.456718</ele>
        <time>2026-05-07T12:22:28.963Z</time>
      </trkpt>
      <trkpt lat="51.935" lon="5.96895">
        <ele>57.44149</ele>
        <time>2026-05-07T12:22:31.961Z</time>
      </trkpt>
      <trkpt lat="51.9351" lon="5.96888">
        <ele>57.426699</ele>
        <time>2026-05-07T12:22:34.976Z</time>
      </trkpt>
      <trkpt lat="51.93521" lon="5.96881">
        <ele>57.411376</ele>
        <time>2026-05-07T12:22:37.967Z</time>
      </trkpt>
      <trkpt lat="51.93531" lon="5.96876">
        <ele>57.396492</ele>
        <time>2026-05-07T12:22:40.973Z</time>
      </trkpt>
      <trkpt lat="51.93542" lon="5.96871">
        <ele>57.322076</ele>
        <time>2026-05-07T12:22:43.972Z</time>
      </trkpt>
      <trkpt lat="51.93552" lon="5.96869">
        <ele>57.199518</ele>
        <time>2026-05-07T12:22:46.965Z</time>
      </trkpt>
      <trkpt lat="51.93562" lon="5.96865">
        <ele>57.066055</ele>
        <time>2026-05-07T12:22:49.970Z</time>
      </trkpt>
      <trkpt lat="51.93572" lon="5.9686">
        <ele>56.942433</ele>
        <time>2026-05-07T12:22:52.968Z</time>
      </trkpt>
      <trkpt lat="51.9358" lon="5.96856">
        <ele>56.830352</ele>
        <time>2026-05-07T12:22:55.968Z</time>
      </trkpt>
      <trkpt lat="51.9359" lon="5.96847">
        <ele>56.691574</ele>
        <time>2026-05-07T12:22:58.967Z</time>
      </trkpt>
      <trkpt lat="51.93602" lon="5.96836">
        <ele>56.520812</ele>
        <time>2026-05-07T12:23:01.963Z</time>
      </trkpt>
      <trkpt lat="51.93612" lon="5.96826">
        <ele>56.375169</ele>
        <time>2026-05-07T12:23:03.960Z</time>
      </trkpt>
      <trkpt lat="51.93623" lon="5.96814">
        <ele>56.215326</ele>
        <time>2026-05-07T12:23:05.967Z</time>
      </trkpt>
      <trkpt lat="51.93634" lon="5.96803">
        <ele>56.047741</ele>
        <time>2026-05-07T12:23:07.964Z</time>
      </trkpt>
      <trkpt lat="51.93644" lon="5.96791">
        <ele>55.892891</ele>
        <time>2026-05-07T12:23:09.970Z</time>
      </trkpt>
      <trkpt lat="51.93654" lon="5.96781">
        <ele>55.749556</ele>
        <time>2026-05-07T12:23:11.961Z</time>
      </trkpt>
      <trkpt lat="51.93663" lon="5.96772">
        <ele>55.61284</ele>
        <time>2026-05-07T12:23:13.963Z</time>
      </trkpt>
      <trkpt lat="51.93672" lon="5.96763">
        <ele>55.482639</ele>
        <time>2026-05-07T12:23:15.958Z</time>
      </trkpt>
      <trkpt lat="51.9368" lon="5.96755">
        <ele>55.36308</ele>
        <time>2026-05-07T12:23:17.971Z</time>
      </trkpt>
      <trkpt lat="51.93689" lon="5.96747">
        <ele>55.243521</ele>
        <time>2026-05-07T12:23:19.975Z</time>
      </trkpt>
      <trkpt lat="51.93696" lon="5.96738">
        <ele>55.136673</ele>
        <time>2026-05-07T12:23:21.977Z</time>
      </trkpt>
      <trkpt lat="51.93708" lon="5.96727">
        <ele>55.041953</ele>
        <time>2026-05-07T12:23:24.976Z</time>
      </trkpt>
      <trkpt lat="51.93718" lon="5.96714">
        <ele>54.950389</ele>
        <time>2026-05-07T12:23:27.967Z</time>
      </trkpt>
      <trkpt lat="51.93727" lon="5.96701">
        <ele>54.862378</ele>
        <time>2026-05-07T12:23:30.963Z</time>
      </trkpt>
      <trkpt lat="51.93735" lon="5.96688">
        <ele>54.784835</ele>
        <time>2026-05-07T12:23:33.963Z</time>
      </trkpt>
      <trkpt lat="51.93742" lon="5.96679">
        <ele>54.717371</ele>
        <time>2026-05-07T12:23:36.979Z</time>
      </trkpt>
      <trkpt lat="51.9375" lon="5.96651">
        <ele>54.584772</ele>
        <time>2026-05-07T12:23:55.970Z</time>
      </trkpt>
      <trkpt lat="51.93749" lon="5.96636">
        <ele>54.517828</ele>
        <time>2026-05-07T12:23:58.965Z</time>
      </trkpt>
      <trkpt lat="51.93748" lon="5.96619">
        <ele>54.44301</ele>
        <time>2026-05-07T12:24:01.962Z</time>
      </trkpt>
      <trkpt lat="51.93747" lon="5.96599">
        <ele>54.357142</ele>
        <time>2026-05-07T12:24:04.959Z</time>
      </trkpt>
      <trkpt lat="51.93746" lon="5.96579">
        <ele>54.265641</ele>
        <time>2026-05-07T12:24:07.970Z</time>
      </trkpt>
      <trkpt lat="51.93744" lon="5.96559">
        <ele>54.176945</ele>
        <time>2026-05-07T12:24:10.959Z</time>
      </trkpt>
      <trkpt lat="51.93742" lon="5.9654">
        <ele>54.092794</ele>
        <time>2026-05-07T12:24:13.961Z</time>
      </trkpt>
      <trkpt lat="51.9374" lon="5.96522">
        <ele>54.012092</ele>
        <time>2026-05-07T12:24:16.962Z</time>
      </trkpt>
      <trkpt lat="51.93734" lon="5.96508">
        <ele>53.939475</ele>
        <time>2026-05-07T12:24:19.962Z</time>
      </trkpt>
      <trkpt lat="51.93725" lon="5.965">
        <ele>53.868127</ele>
        <time>2026-05-07T12:24:22.959Z</time>
      </trkpt>
      <trkpt lat="51.93715" lon="5.96493">
        <ele>53.837131</ele>
        <time>2026-05-07T12:24:25.964Z</time>
      </trkpt>
      <trkpt lat="51.93707" lon="5.96486">
        <ele>53.809265</ele>
        <time>2026-05-07T12:24:28.974Z</time>
      </trkpt>
      <trkpt lat="51.93695" lon="5.9648">
        <ele>53.774964</ele>
        <time>2026-05-07T12:24:31.973Z</time>
      </trkpt>
      <trkpt lat="51.93685" lon="5.96471">
        <ele>53.739911</ele>
        <time>2026-05-07T12:24:34.972Z</time>
      </trkpt>
      <trkpt lat="51.93678" lon="5.96457">
        <ele>53.708771</ele>
        <time>2026-05-07T12:24:37.967Z</time>
      </trkpt>
      <trkpt lat="51.93675" lon="5.96442">
        <ele>53.680303</ele>
        <time>2026-05-07T12:24:40.961Z</time>
      </trkpt>
      <trkpt lat="51.93676" lon="5.96427">
        <ele>53.653772</ele>
        <time>2026-05-07T12:24:43.973Z</time>
      </trkpt>
      <trkpt lat="51.93677" lon="5.96409">
        <ele>53.621021</ele>
        <time>2026-05-07T12:24:47.977Z</time>
      </trkpt>
      <trkpt lat="51.9368" lon="5.96393">
        <ele>53.590851</ele>
        <time>2026-05-07T12:24:52.952Z</time>
      </trkpt>
      <trkpt lat="51.93686" lon="5.96376">
        <ele>53.555939</ele>
        <time>2026-05-07T12:27:10.953Z</time>
      </trkpt>
      <trkpt lat="51.93691" lon="5.96363">
        <ele>53.528988</ele>
        <time>2026-05-07T12:27:15.970Z</time>
      </trkpt>
      <trkpt lat="51.93697" lon="5.96351">
        <ele>53.502315</ele>
        <time>2026-05-07T12:27:19.971Z</time>
      </trkpt>
      <trkpt lat="51.93704" lon="5.96339">
        <ele>53.472105</ele>
        <time>2026-05-07T12:27:23.977Z</time>
      </trkpt>
      <trkpt lat="51.93711" lon="5.96329">
        <ele>53.445041</ele>
        <time>2026-05-07T12:27:26.965Z</time>
      </trkpt>
      <trkpt lat="51.93719" lon="5.96318">
        <ele>53.41359</ele>
        <time>2026-05-07T12:27:30.952Z</time>
      </trkpt>
      <trkpt lat="51.93732" lon="5.96289">
        <ele>53.350881</ele>
        <time>2026-05-07T12:32:15.997Z</time>
      </trkpt>
      <trkpt lat="51.93732" lon="5.96272">
        <ele>53.470659</ele>
        <time>2026-05-07T12:32:22.989Z</time>
      </trkpt>
      <trkpt lat="51.93733" lon="5.96258">
        <ele>53.59712</ele>
        <time>2026-05-07T12:32:26.986Z</time>
      </trkpt>
      <trkpt lat="51.93735" lon="5.96225">
        <ele>53.877619</ele>
        <time>2026-05-07T12:34:34.990Z</time>
      </trkpt>
      <trkpt lat="51.93735" lon="5.96209">
        <ele>54.01091</ele>
        <time>2026-05-07T12:34:43.978Z</time>
      </trkpt>
      <trkpt lat="51.93734" lon="5.96194">
        <ele>54.145746</ele>
        <time>2026-05-07T12:34:50.992Z</time>
      </trkpt>
      <trkpt lat="51.93733" lon="5.96178">
        <ele>54.283806</ele>
        <time>2026-05-07T12:34:56.990Z</time>
      </trkpt>
      <trkpt lat="51.9373" lon="5.96162">
        <ele>54.420105</ele>
        <time>2026-05-07T12:35:02.984Z</time>
      </trkpt>
      <trkpt lat="51.93727" lon="5.96147">
        <ele>54.557644</ele>
        <time>2026-05-07T12:35:08.985Z</time>
      </trkpt>
      <trkpt lat="51.93723" lon="5.96132">
        <ele>54.693328</ele>
        <time>2026-05-07T12:35:13.972Z</time>
      </trkpt>
      <trkpt lat="51.9372" lon="5.96117">
        <ele>54.828075</ele>
        <time>2026-05-07T12:35:19.987Z</time>
      </trkpt>
      <trkpt lat="51.93716" lon="5.96103">
        <ele>54.962759</ele>
        <time>2026-05-07T12:35:26.984Z</time>
      </trkpt>
      <trkpt lat="51.93709" lon="5.96081">
        <ele>55.173874</ele>
        <time>2026-05-07T12:36:12.966Z</time>
      </trkpt>
      <trkpt lat="51.93705" lon="5.96068">
        <ele>55.300614</ele>
        <time>2026-05-07T12:36:22.970Z</time>
      </trkpt>
      <trkpt lat="51.93697" lon="5.9605">
        <ele>55.486226</ele>
        <time>2026-05-07T12:36:35.965Z</time>
      </trkpt>
      <trkpt lat="51.93692" lon="5.96036">
        <ele>55.630184</ele>
        <time>2026-05-07T12:36:39.973Z</time>
      </trkpt>
      <trkpt lat="51.93688" lon="5.96022">
        <ele>55.756924</ele>
        <time>2026-05-07T12:36:43.970Z</time>
      </trkpt>
      <trkpt lat="51.93685" lon="5.96007">
        <ele>55.97584</ele>
        <time>2026-05-07T12:36:47.971Z</time>
      </trkpt>
      <trkpt lat="51.93685" lon="5.95989">
        <ele>56.371827</ele>
        <time>2026-05-07T12:36:52.978Z</time>
      </trkpt>
      <trkpt lat="51.93686" lon="5.95972">
        <ele>56.765489</ele>
        <time>2026-05-07T12:36:57.967Z</time>
      </trkpt>
      <trkpt lat="51.93685" lon="5.95956">
        <ele>57.119402</ele>
        <time>2026-05-07T12:37:01.964Z</time>
      </trkpt>
      <trkpt lat="51.93685" lon="5.95941">
        <ele>57.468851</ele>
        <time>2026-05-07T12:37:04.979Z</time>
      </trkpt>
      <trkpt lat="51.93684" lon="5.95925">
        <ele>57.819896</ele>
        <time>2026-05-07T12:37:07.963Z</time>
      </trkpt>
      <trkpt lat="51.93682" lon="5.95906">
        <ele>58.252145</ele>
        <time>2026-05-07T12:37:11.979Z</time>
      </trkpt>
      <trkpt lat="51.93681" lon="5.9589">
        <ele>58.610737</ele>
        <time>2026-05-07T12:37:14.961Z</time>
      </trkpt>
      <trkpt lat="51.9368" lon="5.95874">
        <ele>58.967112</ele>
        <time>2026-05-07T12:37:17.973Z</time>
      </trkpt>
      <trkpt lat="51.93679" lon="5.95857">
        <ele>59.34287</ele>
        <time>2026-05-07T12:37:20.968Z</time>
      </trkpt>
      <trkpt lat="51.9368" lon="5.95838">
        <ele>59.767795</ele>
        <time>2026-05-07T12:37:23.970Z</time>
      </trkpt>
      <trkpt lat="51.9368" lon="5.9582">
        <ele>60.17029</ele>
        <time>2026-05-07T12:37:26.968Z</time>
      </trkpt>
      <trkpt lat="51.93679" lon="5.958">
        <ele>60.621963</ele>
        <time>2026-05-07T12:37:29.968Z</time>
      </trkpt>
      <trkpt lat="51.93679" lon="5.95781">
        <ele>61.04937</ele>
        <time>2026-05-07T12:37:32.971Z</time>
      </trkpt>
      <trkpt lat="51.93679" lon="5.95762">
        <ele>61.474172</ele>
        <time>2026-05-07T12:37:35.958Z</time>
      </trkpt>
      <trkpt lat="51.9368" lon="5.95745">
        <ele>61.857098</ele>
        <time>2026-05-07T12:37:38.980Z</time>
      </trkpt>
      <trkpt lat="51.9368" lon="5.9573">
        <ele>62.199854</ele>
        <time>2026-05-07T12:37:41.966Z</time>
      </trkpt>
      <trkpt lat="51.93673" lon="5.95715">
        <ele>62.121999</ele>
        <time>2026-05-07T12:37:47.971Z</time>
      </trkpt>
      <trkpt lat="51.93671" lon="5.95696">
        <ele>61.71211</ele>
        <time>2026-05-07T12:37:51.971Z</time>
      </trkpt>
      <trkpt lat="51.9367" lon="5.9568">
        <ele>61.363318</ele>
        <time>2026-05-07T12:37:54.963Z</time>
      </trkpt>
      <trkpt lat="51.93669" lon="5.95662">
        <ele>60.981896</ele>
        <time>2026-05-07T12:37:57.964Z</time>
      </trkpt>
      <trkpt lat="51.93668" lon="5.95642">
        <ele>60.550653</ele>
        <time>2026-05-07T12:38:00.960Z</time>
      </trkpt>
      <trkpt lat="51.93667" lon="5.95624">
        <ele>60.144077</ele>
        <time>2026-05-07T12:38:03.973Z</time>
      </trkpt>
      <trkpt lat="51.93667" lon="5.95602">
        <ele>59.688401</ele>
        <time>2026-05-07T12:38:06.980Z</time>
      </trkpt>
      <trkpt lat="51.93667" lon="5.95587">
        <ele>59.346524</ele>
        <time>2026-05-07T12:38:08.970Z</time>
      </trkpt>
      <trkpt lat="51.93667" lon="5.95571">
        <ele>59.017536</ele>
        <time>2026-05-07T12:38:10.953Z</time>
      </trkpt>
      <trkpt lat="51.93666" lon="5.95556">
        <ele>58.688419</ele>
        <time>2026-05-07T12:38:12.960Z</time>
      </trkpt>
      <trkpt lat="51.93666" lon="5.95541">
        <ele>58.363222</ele>
        <time>2026-05-07T12:38:14.979Z</time>
      </trkpt>
      <trkpt lat="51.93665" lon="5.95525">
        <ele>58.023493</ele>
        <time>2026-05-07T12:38:16.974Z</time>
      </trkpt>
      <trkpt lat="51.93665" lon="5.95508">
        <ele>57.65493</ele>
        <time>2026-05-07T12:38:18.973Z</time>
      </trkpt>
      <trkpt lat="51.93664" lon="5.95491">
        <ele>57.280391</ele>
        <time>2026-05-07T12:38:20.974Z</time>
      </trkpt>
      <trkpt lat="51.93663" lon="5.95474">
        <ele>56.923205</ele>
        <time>2026-05-07T12:38:22.969Z</time>
      </trkpt>
      <trkpt lat="51.93663" lon="5.95459">
        <ele>56.593921</ele>
        <time>2026-05-07T12:38:24.968Z</time>
      </trkpt>
      <trkpt lat="51.93662" lon="5.95436">
        <ele>56.101454</ele>
        <time>2026-05-07T12:38:27.965Z</time>
      </trkpt>
      <trkpt lat="51.93662" lon="5.95419">
        <ele>56.041704</ele>
        <time>2026-05-07T12:38:29.969Z</time>
      </trkpt>
      <trkpt lat="51.93662" lon="5.95404">
        <ele>55.994167</ele>
        <time>2026-05-07T12:38:31.971Z</time>
      </trkpt>
      <trkpt lat="51.93662" lon="5.95388">
        <ele>55.946301</ele>
        <time>2026-05-07T12:38:33.963Z</time>
      </trkpt>
      <trkpt lat="51.93662" lon="5.95373">
        <ele>55.899064</ele>
        <time>2026-05-07T12:38:35.964Z</time>
      </trkpt>
      <trkpt lat="51.93662" lon="5.95357">
        <ele>55.849359</ele>
        <time>2026-05-07T12:38:37.962Z</time>
      </trkpt>
      <trkpt lat="51.93662" lon="5.95341">
        <ele>55.798984</ele>
        <time>2026-05-07T12:38:39.964Z</time>
      </trkpt>
      <trkpt lat="51.93662" lon="5.95325">
        <ele>55.749904</ele>
        <time>2026-05-07T12:38:41.954Z</time>
      </trkpt>
      <trkpt lat="51.93662" lon="5.95308">
        <ele>55.699283</ele>
        <time>2026-05-07T12:38:43.961Z</time>
      </trkpt>
      <trkpt lat="51.93662" lon="5.95293">
        <ele>55.651131</ele>
        <time>2026-05-07T12:38:45.949Z</time>
      </trkpt>
      <trkpt lat="51.93662" lon="5.95277">
        <ele>55.602969</ele>
        <time>2026-05-07T12:38:47.969Z</time>
      </trkpt>
      <trkpt lat="51.93662" lon="5.95261">
        <ele>55.552942</ele>
        <time>2026-05-07T12:38:49.951Z</time>
      </trkpt>
      <trkpt lat="51.93662" lon="5.95245">
        <ele>55.504132</ele>
        <time>2026-05-07T12:38:51.965Z</time>
      </trkpt>
      <trkpt lat="51.93662" lon="5.95229">
        <ele>55.454118</ele>
        <time>2026-05-07T12:38:53.968Z</time>
      </trkpt>
      <trkpt lat="51.93662" lon="5.95213">
        <ele>55.404104</ele>
        <time>2026-05-07T12:38:55.954Z</time>
      </trkpt>
      <trkpt lat="51.93662" lon="5.95197">
        <ele>55.355644</ele>
        <time>2026-05-07T12:38:57.959Z</time>
      </trkpt>
      <trkpt lat="51.93661" lon="5.95182">
        <ele>55.307469</ele>
        <time>2026-05-07T12:38:59.974Z</time>
      </trkpt>
      <trkpt lat="51.93662" lon="5.95165">
        <ele>55.256208</ele>
        <time>2026-05-07T12:39:01.984Z</time>
      </trkpt>
      <trkpt lat="51.93662" lon="5.95148">
        <ele>55.203957</ele>
        <time>2026-05-07T12:39:03.974Z</time>
      </trkpt>
      <trkpt lat="51.93661" lon="5.95132">
        <ele>55.091873</ele>
        <time>2026-05-07T12:39:05.978Z</time>
      </trkpt>
      <trkpt lat="51.9366" lon="5.95116">
        <ele>54.96448</ele>
        <time>2026-05-07T12:39:07.965Z</time>
      </trkpt>
      <trkpt lat="51.93659" lon="5.95099">
        <ele>54.825621</ele>
        <time>2026-05-07T12:39:09.965Z</time>
      </trkpt>
      <trkpt lat="51.93659" lon="5.95083">
        <ele>54.686514</ele>
        <time>2026-05-07T12:39:11.966Z</time>
      </trkpt>
      <trkpt lat="51.93658" lon="5.95067">
        <ele>54.555473</ele>
        <time>2026-05-07T12:39:13.963Z</time>
      </trkpt>
      <trkpt lat="51.93657" lon="5.9505">
        <ele>54.420457</ele>
        <time>2026-05-07T12:39:15.978Z</time>
      </trkpt>
      <trkpt lat="51.93656" lon="5.95035">
        <ele>54.291985</ele>
        <time>2026-05-07T12:39:17.974Z</time>
      </trkpt>
      <trkpt lat="51.93655" lon="5.95019">
        <ele>54.159999</ele>
        <time>2026-05-07T12:39:19.969Z</time>
      </trkpt>
      <trkpt lat="51.93653" lon="5.94997">
        <ele>53.981347</ele>
        <time>2026-05-07T12:39:22.952Z</time>
      </trkpt>
      <trkpt lat="51.93652" lon="5.94982">
        <ele>53.858656</ele>
        <time>2026-05-07T12:39:24.963Z</time>
      </trkpt>
      <trkpt lat="51.93651" lon="5.94967">
        <ele>53.728161</ele>
        <time>2026-05-07T12:39:26.976Z</time>
      </trkpt>
      <trkpt lat="51.9365" lon="5.9495">
        <ele>53.593033</ele>
        <time>2026-05-07T12:39:28.964Z</time>
      </trkpt>
      <trkpt lat="51.93648" lon="5.94935">
        <ele>53.464266</ele>
        <time>2026-05-07T12:39:30.970Z</time>
      </trkpt>
      <trkpt lat="51.93646" lon="5.9492">
        <ele>53.341266</ele>
        <time>2026-05-07T12:39:32.966Z</time>
      </trkpt>
      <trkpt lat="51.93645" lon="5.94905">
        <ele>53.21838</ele>
        <time>2026-05-07T12:39:34.967Z</time>
      </trkpt>
      <trkpt lat="51.93644" lon="5.94889">
        <ele>53.08721</ele>
        <time>2026-05-07T12:39:36.970Z</time>
      </trkpt>
      <trkpt lat="51.93643" lon="5.94874">
        <ele>52.962421</ele>
        <time>2026-05-07T12:39:38.963Z</time>
      </trkpt>
      <trkpt lat="51.9364" lon="5.94853">
        <ele>52.831297</ele>
        <time>2026-05-07T12:39:41.967Z</time>
      </trkpt>
      <trkpt lat="51.93639" lon="5.94838">
        <ele>53.185944</ele>
        <time>2026-05-07T12:39:43.980Z</time>
      </trkpt>
      <trkpt lat="51.93638" lon="5.94823">
        <ele>53.534797</ele>
        <time>2026-05-07T12:39:45.954Z</time>
      </trkpt>
      <trkpt lat="51.93636" lon="5.94801">
        <ele>54.05159</ele>
        <time>2026-05-07T12:39:48.970Z</time>
      </trkpt>
      <trkpt lat="51.93635" lon="5.94781">
        <ele>54.515072</ele>
        <time>2026-05-07T12:39:51.975Z</time>
      </trkpt>
      <trkpt lat="51.93635" lon="5.94767">
        <ele>54.861585</ele>
        <time>2026-05-07T12:39:53.968Z</time>
      </trkpt>
      <trkpt lat="51.93637" lon="5.94745">
        <ele>55.382366</ele>
        <time>2026-05-07T12:39:56.972Z</time>
      </trkpt>
      <trkpt lat="51.93641" lon="5.94724">
        <ele>55.892497</ele>
        <time>2026-05-07T12:39:59.976Z</time>
      </trkpt>
      <trkpt lat="51.93644" lon="5.94704">
        <ele>56.368112</ele>
        <time>2026-05-07T12:40:02.961Z</time>
      </trkpt>
      <trkpt lat="51.93647" lon="5.94686">
        <ele>56.805962</ele>
        <time>2026-05-07T12:40:05.952Z</time>
      </trkpt>
      <trkpt lat="51.93649" lon="5.94671">
        <ele>57.175244</ele>
        <time>2026-05-07T12:40:08.970Z</time>
      </trkpt>
      <trkpt lat="51.93651" lon="5.94652">
        <ele>57.607926</ele>
        <time>2026-05-07T12:40:12.972Z</time>
      </trkpt>
      <trkpt lat="51.93654" lon="5.94636">
        <ele>58.013466</ele>
        <time>2026-05-07T12:40:16.958Z</time>
      </trkpt>
      <trkpt lat="51.93656" lon="5.9462">
        <ele>58.377356</ele>
        <time>2026-05-07T12:40:20.967Z</time>
      </trkpt>
      <trkpt lat="51.93658" lon="5.94604">
        <ele>58.768</ele>
        <time>2026-05-07T12:40:33.969Z</time>
      </trkpt>
      <trkpt lat="51.93662" lon="5.9459">
        <ele>59.121703</ele>
        <time>2026-05-07T12:40:36.970Z</time>
      </trkpt>
      <trkpt lat="51.93665" lon="5.94576">
        <ele>59.472986</ele>
        <time>2026-05-07T12:40:39.963Z</time>
      </trkpt>
      <trkpt lat="51.93668" lon="5.94561">
        <ele>59.630049</ele>
        <time>2026-05-07T12:40:42.977Z</time>
      </trkpt>
      <trkpt lat="51.93671" lon="5.94546">
        <ele>59.636384</ele>
        <time>2026-05-07T12:40:45.972Z</time>
      </trkpt>
      <trkpt lat="51.93674" lon="5.94531">
        <ele>59.642353</ele>
        <time>2026-05-07T12:40:48.975Z</time>
      </trkpt>
      <trkpt lat="51.93676" lon="5.94517">
        <ele>59.648069</ele>
        <time>2026-05-07T12:40:51.954Z</time>
      </trkpt>
      <trkpt lat="51.93678" lon="5.94502">
        <ele>59.654351</ele>
        <time>2026-05-07T12:40:55.974Z</time>
      </trkpt>
      <trkpt lat="51.93689" lon="5.94491">
        <ele>59.662616</ele>
        <time>2026-05-07T12:41:29.977Z</time>
      </trkpt>
      <trkpt lat="51.93698" lon="5.94477">
        <ele>59.670152</ele>
        <time>2026-05-07T12:41:33.961Z</time>
      </trkpt>
      <trkpt lat="51.93707" lon="5.94466">
        <ele>59.677515</ele>
        <time>2026-05-07T12:41:37.959Z</time>
      </trkpt>
      <trkpt lat="51.93715" lon="5.9446">
        <ele>59.683338</ele>
        <time>2026-05-07T12:41:40.961Z</time>
      </trkpt>
      <trkpt lat="51.93724" lon="5.94456">
        <ele>59.689281</ele>
        <time>2026-05-07T12:41:43.957Z</time>
      </trkpt>
      <trkpt lat="51.93733" lon="5.94451">
        <ele>59.69552</ele>
        <time>2026-05-07T12:41:46.958Z</time>
      </trkpt>
      <trkpt lat="51.93743" lon="5.94446">
        <ele>59.70208</ele>
        <time>2026-05-07T12:41:49.972Z</time>
      </trkpt>
      <trkpt lat="51.93754" lon="5.94441">
        <ele>59.709134</ele>
        <time>2026-05-07T12:41:52.970Z</time>
      </trkpt>
      <trkpt lat="51.93765" lon="5.94436">
        <ele>59.716661</ele>
        <time>2026-05-07T12:41:55.972Z</time>
      </trkpt>
      <trkpt lat="51.93777" lon="5.94428">
        <ele>59.724629</ele>
        <time>2026-05-07T12:41:58.977Z</time>
      </trkpt>
      <trkpt lat="51.93788" lon="5.9442">
        <ele>59.732586</ele>
        <time>2026-05-07T12:42:01.966Z</time>
      </trkpt>
      <trkpt lat="51.93799" lon="5.94412">
        <ele>59.740394</ele>
        <time>2026-05-07T12:42:04.970Z</time>
      </trkpt>
      <trkpt lat="51.93811" lon="5.94404">
        <ele>59.651505</ele>
        <time>2026-05-07T12:42:07.976Z</time>
      </trkpt>
      <trkpt lat="51.93822" lon="5.94396">
        <ele>59.552037</ele>
        <time>2026-05-07T12:42:10.972Z</time>
      </trkpt>
      <trkpt lat="51.93834" lon="5.94388">
        <ele>59.44784</ele>
        <time>2026-05-07T12:42:13.978Z</time>
      </trkpt>
      <trkpt lat="51.93846" lon="5.94379">
        <ele>59.343235</ele>
        <time>2026-05-07T12:42:16.952Z</time>
      </trkpt>
      <trkpt lat="51.93857" lon="5.94369">
        <ele>59.236922</ele>
        <time>2026-05-07T12:42:19.966Z</time>
      </trkpt>
      <trkpt lat="51.93869" lon="5.94359">
        <ele>59.131146</ele>
        <time>2026-05-07T12:42:22.975Z</time>
      </trkpt>
      <trkpt lat="51.9388" lon="5.94348">
        <ele>59.027119</ele>
        <time>2026-05-07T12:42:25.956Z</time>
      </trkpt>
      <trkpt lat="51.93891" lon="5.94336">
        <ele>58.91939</ele>
        <time>2026-05-07T12:42:28.968Z</time>
      </trkpt>
      <trkpt lat="51.93902" lon="5.94325">
        <ele>58.815672</ele>
        <time>2026-05-07T12:42:31.966Z</time>
      </trkpt>
      <trkpt lat="51.93913" lon="5.94314">
        <ele>58.709656</ele>
        <time>2026-05-07T12:42:34.964Z</time>
      </trkpt>
      <trkpt lat="51.93925" lon="5.94305">
        <ele>58.604213</ele>
        <time>2026-05-07T12:42:37.976Z</time>
      </trkpt>
      <trkpt lat="51.93936" lon="5.94293">
        <ele>58.496673</ele>
        <time>2026-05-07T12:42:40.971Z</time>
      </trkpt>
      <trkpt lat="51.93943" lon="5.94284">
        <ele>58.422975</ele>
        <time>2026-05-07T12:42:42.977Z</time>
      </trkpt>
      <trkpt lat="51.93951" lon="5.94275">
        <ele>58.348631</ele>
        <time>2026-05-07T12:42:44.966Z</time>
      </trkpt>
      <trkpt lat="51.93961" lon="5.94262">
        <ele>58.255148</ele>
        <time>2026-05-07T12:42:47.980Z</time>
      </trkpt>
      <trkpt lat="51.93972" lon="5.9425">
        <ele>58.178501</ele>
        <time>2026-05-07T12:42:50.972Z</time>
      </trkpt>
      <trkpt lat="51.93982" lon="5.94239">
        <ele>58.106866</ele>
        <time>2026-05-07T12:42:53.967Z</time>
      </trkpt>
      <trkpt lat="51.93993" lon="5.94226">
        <ele>58.033106</ele>
        <time>2026-05-07T12:42:56.980Z</time>
      </trkpt>
      <trkpt lat="51.94003" lon="5.94216">
        <ele>57.960803</ele>
        <time>2026-05-07T12:42:59.976Z</time>
      </trkpt>
      <trkpt lat="51.94016" lon="5.94217">
        <ele>57.889222</ele>
        <time>2026-05-07T12:43:02.962Z</time>
      </trkpt>
      <trkpt lat="51.94028" lon="5.94214">
        <ele>57.816351</ele>
        <time>2026-05-07T12:43:05.971Z</time>
      </trkpt>
      <trkpt lat="51.94039" lon="5.94205">
        <ele>57.74803</ele>
        <time>2026-05-07T12:43:08.966Z</time>
      </trkpt>
      <trkpt lat="51.94049" lon="5.94195">
        <ele>57.67849</ele>
        <time>2026-05-07T12:43:11.958Z</time>
      </trkpt>
      <trkpt lat="51.9406" lon="5.94185">
        <ele>57.606098</ele>
        <time>2026-05-07T12:43:14.973Z</time>
      </trkpt>
      <trkpt lat="51.94071" lon="5.94175">
        <ele>57.535749</ele>
        <time>2026-05-07T12:43:17.962Z</time>
      </trkpt>
      <trkpt lat="51.94079" lon="5.9417">
        <ele>57.483485</ele>
        <time>2026-05-07T12:43:19.966Z</time>
      </trkpt>
      <trkpt lat="51.94089" lon="5.94166">
        <ele>57.42512</ele>
        <time>2026-05-07T12:43:21.968Z</time>
      </trkpt>
      <trkpt lat="51.941" lon="5.9416">
        <ele>57.35827</ele>
        <time>2026-05-07T12:43:23.970Z</time>
      </trkpt>
      <trkpt lat="51.94112" lon="5.94153">
        <ele>57.28286</ele>
        <time>2026-05-07T12:43:25.973Z</time>
      </trkpt>
      <trkpt lat="51.94125" lon="5.94145">
        <ele>57.06329</ele>
        <time>2026-05-07T12:43:27.972Z</time>
      </trkpt>
      <trkpt lat="51.94139" lon="5.94137">
        <ele>56.733354</ele>
        <time>2026-05-07T12:43:29.968Z</time>
      </trkpt>
      <trkpt lat="51.94153" lon="5.94134">
        <ele>56.416476</ele>
        <time>2026-05-07T12:43:31.982Z</time>
      </trkpt>
      <trkpt lat="51.94166" lon="5.94141">
        <ele>56.118142</ele>
        <time>2026-05-07T12:43:33.955Z</time>
      </trkpt>
      <trkpt lat="51.94178" lon="5.94149">
        <ele>55.822496</ele>
        <time>2026-05-07T12:43:35.966Z</time>
      </trkpt>
      <trkpt lat="51.9419" lon="5.94147">
        <ele>55.553669</ele>
        <time>2026-05-07T12:43:37.956Z</time>
      </trkpt>
      <trkpt lat="51.942" lon="5.94138">
        <ele>55.29392</ele>
        <time>2026-05-07T12:43:39.951Z</time>
      </trkpt>
      <trkpt lat="51.9421" lon="5.94128">
        <ele>55.034171</ele>
        <time>2026-05-07T12:43:41.956Z</time>
      </trkpt>
      <trkpt lat="51.9422" lon="5.9412">
        <ele>54.78889</ele>
        <time>2026-05-07T12:43:43.966Z</time>
      </trkpt>
      <trkpt lat="51.94229" lon="5.94111">
        <ele>54.546791</ele>
        <time>2026-05-07T12:43:45.964Z</time>
      </trkpt>
      <trkpt lat="51.94239" lon="5.94103">
        <ele>54.308054</ele>
        <time>2026-05-07T12:43:47.971Z</time>
      </trkpt>
      <trkpt lat="51.94248" lon="5.94094">
        <ele>54.066486</ele>
        <time>2026-05-07T12:43:49.969Z</time>
      </trkpt>
      <trkpt lat="51.94257" lon="5.94085">
        <ele>53.832073</ele>
        <time>2026-05-07T12:43:51.959Z</time>
      </trkpt>
      <trkpt lat="51.94266" lon="5.94077">
        <ele>53.607069</ele>
        <time>2026-05-07T12:43:53.964Z</time>
      </trkpt>
      <trkpt lat="51.94275" lon="5.94069">
        <ele>53.379425</ele>
        <time>2026-05-07T12:43:55.969Z</time>
      </trkpt>
      <trkpt lat="51.94284" lon="5.94061">
        <ele>53.215206</ele>
        <time>2026-05-07T12:43:57.965Z</time>
      </trkpt>
      <trkpt lat="51.94292" lon="5.94052">
        <ele>53.151816</ele>
        <time>2026-05-07T12:43:59.967Z</time>
      </trkpt>
      <trkpt lat="51.943" lon="5.94044">
        <ele>53.087834</ele>
        <time>2026-05-07T12:44:01.963Z</time>
      </trkpt>
      <trkpt lat="51.94309" lon="5.94036">
        <ele>53.02333</ele>
        <time>2026-05-07T12:44:03.960Z</time>
      </trkpt>
      <trkpt lat="51.94318" lon="5.94029">
        <ele>52.959402</ele>
        <time>2026-05-07T12:44:05.963Z</time>
      </trkpt>
      <trkpt lat="51.94327" lon="5.94021">
        <ele>52.894331</ele>
        <time>2026-05-07T12:44:07.965Z</time>
      </trkpt>
      <trkpt lat="51.94336" lon="5.94013">
        <ele>52.826598</ele>
        <time>2026-05-07T12:44:09.964Z</time>
      </trkpt>
      <trkpt lat="51.94345" lon="5.94006">
        <ele>52.761341</ele>
        <time>2026-05-07T12:44:11.977Z</time>
      </trkpt>
      <trkpt lat="51.94354" lon="5.93997">
        <ele>52.695881</ele>
        <time>2026-05-07T12:44:13.962Z</time>
      </trkpt>
      <trkpt lat="51.94362" lon="5.93989">
        <ele>52.630785</ele>
        <time>2026-05-07T12:44:15.957Z</time>
      </trkpt>
      <trkpt lat="51.94371" lon="5.93981">
        <ele>52.566475</ele>
        <time>2026-05-07T12:44:17.963Z</time>
      </trkpt>
      <trkpt lat="51.9438" lon="5.93974">
        <ele>52.503097</ele>
        <time>2026-05-07T12:44:19.960Z</time>
      </trkpt>
      <trkpt lat="51.94388" lon="5.93966">
        <ele>52.439916</ele>
        <time>2026-05-07T12:44:21.969Z</time>
      </trkpt>
      <trkpt lat="51.94397" lon="5.93957">
        <ele>52.37573</ele>
        <time>2026-05-07T12:44:23.969Z</time>
      </trkpt>
      <trkpt lat="51.94405" lon="5.9395">
        <ele>52.311986</ele>
        <time>2026-05-07T12:44:25.968Z</time>
      </trkpt>
      <trkpt lat="51.94413" lon="5.93942">
        <ele>52.249525</ele>
        <time>2026-05-07T12:44:27.977Z</time>
      </trkpt>
      <trkpt lat="51.94422" lon="5.93934">
        <ele>52.187863</ele>
        <time>2026-05-07T12:44:29.966Z</time>
      </trkpt>
      <trkpt lat="51.9443" lon="5.93926">
        <ele>52.125605</ele>
        <time>2026-05-07T12:44:31.971Z</time>
      </trkpt>
      <trkpt lat="51.94438" lon="5.93918">
        <ele>52.089075</ele>
        <time>2026-05-07T12:44:33.972Z</time>
      </trkpt>
      <trkpt lat="51.94447" lon="5.93911">
        <ele>52.15011</ele>
        <time>2026-05-07T12:44:35.965Z</time>
      </trkpt>
      <trkpt lat="51.94455" lon="5.93903">
        <ele>52.212082</ele>
        <time>2026-05-07T12:44:37.963Z</time>
      </trkpt>
      <trkpt lat="51.94464" lon="5.93895">
        <ele>52.272927</ele>
        <time>2026-05-07T12:44:39.972Z</time>
      </trkpt>
      <trkpt lat="51.94472" lon="5.93889">
        <ele>52.330984</ele>
        <time>2026-05-07T12:44:41.966Z</time>
      </trkpt>
      <trkpt lat="51.9448" lon="5.9388">
        <ele>52.39029</ele>
        <time>2026-05-07T12:44:43.969Z</time>
      </trkpt>
      <trkpt lat="51.94488" lon="5.93873">
        <ele>52.448775</ele>
        <time>2026-05-07T12:44:45.969Z</time>
      </trkpt>
      <trkpt lat="51.94499" lon="5.93862">
        <ele>52.532158</ele>
        <time>2026-05-07T12:44:48.964Z</time>
      </trkpt>
      <trkpt lat="51.9451" lon="5.93852">
        <ele>52.612911</ele>
        <time>2026-05-07T12:44:51.962Z</time>
      </trkpt>
      <trkpt lat="51.94521" lon="5.93842">
        <ele>52.694804</ele>
        <time>2026-05-07T12:44:54.967Z</time>
      </trkpt>
      <trkpt lat="51.94532" lon="5.93831">
        <ele>52.775995</ele>
        <time>2026-05-07T12:44:57.973Z</time>
      </trkpt>
      <trkpt lat="51.94544" lon="5.93821">
        <ele>52.86104</ele>
        <time>2026-05-07T12:45:00.969Z</time>
      </trkpt>
      <trkpt lat="51.94556" lon="5.93811">
        <ele>52.945335</ele>
        <time>2026-05-07T12:45:03.967Z</time>
      </trkpt>
      <trkpt lat="51.94567" lon="5.938">
        <ele>53.029855</ele>
        <time>2026-05-07T12:45:06.976Z</time>
      </trkpt>
      <trkpt lat="51.94579" lon="5.93791">
        <ele>53.110087</ele>
        <time>2026-05-07T12:45:09.962Z</time>
      </trkpt>
      <trkpt lat="51.9459" lon="5.9378">
        <ele>53.192629</ele>
        <time>2026-05-07T12:45:12.968Z</time>
      </trkpt>
      <trkpt lat="51.94601" lon="5.9377">
        <ele>53.230343</ele>
        <time>2026-05-07T12:45:15.965Z</time>
      </trkpt>
      <trkpt lat="51.94612" lon="5.9376">
        <ele>53.248894</ele>
        <time>2026-05-07T12:45:18.963Z</time>
      </trkpt>
      <trkpt lat="51.94623" lon="5.9375">
        <ele>53.267139</ele>
        <time>2026-05-07T12:45:21.960Z</time>
      </trkpt>
      <trkpt lat="51.94633" lon="5.9374">
        <ele>53.283759</ele>
        <time>2026-05-07T12:45:24.954Z</time>
      </trkpt>
      <trkpt lat="51.94642" lon="5.93733">
        <ele>53.298367</ele>
        <time>2026-05-07T12:45:27.978Z</time>
      </trkpt>
      <trkpt lat="51.9465" lon="5.93725">
        <ele>53.312104</ele>
        <time>2026-05-07T12:45:30.958Z</time>
      </trkpt>
      <trkpt lat="51.94659" lon="5.93716">
        <ele>53.326859</ele>
        <time>2026-05-07T12:45:34.983Z</time>
      </trkpt>
      <trkpt lat="51.94669" lon="5.93708">
        <ele>53.342908</ele>
        <time>2026-05-07T12:45:38.964Z</time>
      </trkpt>
      <trkpt lat="51.94677" lon="5.937">
        <ele>53.356498</ele>
        <time>2026-05-07T12:45:41.965Z</time>
      </trkpt>
      <trkpt lat="51.94686" lon="5.9369">
        <ele>53.372582</ele>
        <time>2026-05-07T12:45:45.970Z</time>
      </trkpt>
      <trkpt lat="51.94694" lon="5.93684">
        <ele>53.38559</ele>
        <time>2026-05-07T12:45:48.958Z</time>
      </trkpt>
      <trkpt lat="51.94703" lon="5.93675">
        <ele>53.400345</ele>
        <time>2026-05-07T12:45:51.971Z</time>
      </trkpt>
      <trkpt lat="51.94712" lon="5.93667">
        <ele>53.415674</ele>
        <time>2026-05-07T12:45:54.981Z</time>
      </trkpt>
      <trkpt lat="51.94722" lon="5.93658">
        <ele>53.431807</ele>
        <time>2026-05-07T12:45:57.970Z</time>
      </trkpt>
      <trkpt lat="51.94731" lon="5.93649">
        <ele>53.447344</ele>
        <time>2026-05-07T12:46:00.965Z</time>
      </trkpt>
      <trkpt lat="51.94739" lon="5.93641">
        <ele>53.461102</ele>
        <time>2026-05-07T12:46:03.967Z</time>
      </trkpt>
      <trkpt lat="51.94748" lon="5.93633">
        <ele>53.475283</ele>
        <time>2026-05-07T12:46:06.967Z</time>
      </trkpt>
      <trkpt lat="51.94757" lon="5.93623">
        <ele>53.511071</ele>
        <time>2026-05-07T12:46:10.962Z</time>
      </trkpt>
      <trkpt lat="51.94767" lon="5.93615">
        <ele>53.549019</ele>
        <time>2026-05-07T12:46:14.961Z</time>
      </trkpt>
      <trkpt lat="51.94776" lon="5.93606">
        <ele>53.584406</ele>
        <time>2026-05-07T12:46:18.972Z</time>
      </trkpt>
      <trkpt lat="51.94786" lon="5.93597">
        <ele>53.622156</ele>
        <time>2026-05-07T12:46:22.960Z</time>
      </trkpt>
      <trkpt lat="51.94794" lon="5.9359">
        <ele>53.65293</ele>
        <time>2026-05-07T12:46:25.969Z</time>
      </trkpt>
      <trkpt lat="51.94804" lon="5.93582">
        <ele>53.690859</ele>
        <time>2026-05-07T12:46:29.967Z</time>
      </trkpt>
      <trkpt lat="51.94814" lon="5.93572">
        <ele>53.731399</ele>
        <time>2026-05-07T12:46:33.966Z</time>
      </trkpt>
      <trkpt lat="51.94823" lon="5.93564">
        <ele>53.765267</ele>
        <time>2026-05-07T12:46:36.970Z</time>
      </trkpt>
      <trkpt lat="51.94832" lon="5.93557">
        <ele>53.799679</ele>
        <time>2026-05-07T12:46:40.970Z</time>
      </trkpt>
      <trkpt lat="51.94841" lon="5.93548">
        <ele>53.836821</ele>
        <time>2026-05-07T12:46:44.980Z</time>
      </trkpt>
      <trkpt lat="51.94852" lon="5.93539">
        <ele>53.877153</ele>
        <time>2026-05-07T12:46:48.969Z</time>
      </trkpt>
      <trkpt lat="51.94863" lon="5.9353">
        <ele>53.917278</ele>
        <time>2026-05-07T12:46:52.965Z</time>
      </trkpt>
      <trkpt lat="51.94871" lon="5.93524">
        <ele>53.948479</ele>
        <time>2026-05-07T12:46:55.959Z</time>
      </trkpt>
      <trkpt lat="51.94881" lon="5.93516">
        <ele>53.988227</ele>
        <time>2026-05-07T12:46:59.965Z</time>
      </trkpt>
      <trkpt lat="51.9489" lon="5.93509">
        <ele>54.019031</ele>
        <time>2026-05-07T12:47:02.968Z</time>
      </trkpt>
      <trkpt lat="51.949" lon="5.93501">
        <ele>54.057624</ele>
        <time>2026-05-07T12:47:06.973Z</time>
      </trkpt>
      <trkpt lat="51.9491" lon="5.93494">
        <ele>54.085183</ele>
        <time>2026-05-07T12:47:10.964Z</time>
      </trkpt>
      <trkpt lat="51.94921" lon="5.93487">
        <ele>54.071579</ele>
        <time>2026-05-07T12:47:14.966Z</time>
      </trkpt>
      <trkpt lat="51.94932" lon="5.9348">
        <ele>54.057866</ele>
        <time>2026-05-07T12:47:18.969Z</time>
      </trkpt>
      <trkpt lat="51.94942" lon="5.93473">
        <ele>54.04437</ele>
        <time>2026-05-07T12:47:22.960Z</time>
      </trkpt>
      <trkpt lat="51.94952" lon="5.93466">
        <ele>54.031612</ele>
        <time>2026-05-07T12:47:26.966Z</time>
      </trkpt>
      <trkpt lat="51.94963" lon="5.93461">
        <ele>54.018824</ele>
        <time>2026-05-07T12:47:30.967Z</time>
      </trkpt>
      <trkpt lat="51.94972" lon="5.93455">
        <ele>54.006994</ele>
        <time>2026-05-07T12:47:34.965Z</time>
      </trkpt>
      <trkpt lat="51.94981" lon="5.9345">
        <ele>53.996002</ele>
        <time>2026-05-07T12:47:38.963Z</time>
      </trkpt>
      <trkpt lat="51.94991" lon="5.93445">
        <ele>53.983504</ele>
        <time>2026-05-07T12:47:42.957Z</time>
      </trkpt>
      <trkpt lat="51.95" lon="5.93441">
        <ele>53.972593</ele>
        <time>2026-05-07T12:47:45.972Z</time>
      </trkpt>
      <trkpt lat="51.95009" lon="5.93435">
        <ele>53.961231</ele>
        <time>2026-05-07T12:47:48.978Z</time>
      </trkpt>
      <trkpt lat="51.9502" lon="5.9343">
        <ele>53.947582</ele>
        <time>2026-05-07T12:47:52.967Z</time>
      </trkpt>
      <trkpt lat="51.95031" lon="5.93427">
        <ele>53.934311</ele>
        <time>2026-05-07T12:47:56.966Z</time>
      </trkpt>
      <trkpt lat="51.9504" lon="5.93424">
        <ele>53.923377</ele>
        <time>2026-05-07T12:47:59.972Z</time>
      </trkpt>
      <trkpt lat="51.95049" lon="5.93421">
        <ele>53.91246</ele>
        <time>2026-05-07T12:48:02.971Z</time>
      </trkpt>
      <trkpt lat="51.95059" lon="5.93418">
        <ele>53.900688</ele>
        <time>2026-05-07T12:48:05.956Z</time>
      </trkpt>
      <trkpt lat="51.95069" lon="5.93415">
        <ele>53.888932</ele>
        <time>2026-05-07T12:48:08.971Z</time>
      </trkpt>
      <trkpt lat="51.95078" lon="5.9341">
        <ele>53.877827</ele>
        <time>2026-05-07T12:48:11.969Z</time>
      </trkpt>
      <trkpt lat="51.95089" lon="5.93406">
        <ele>53.876941</ele>
        <time>2026-05-07T12:48:15.955Z</time>
      </trkpt>
      <trkpt lat="51.951" lon="5.93403">
        <ele>53.87835</ele>
        <time>2026-05-07T12:48:19.983Z</time>
      </trkpt>
      <trkpt lat="51.95109" lon="5.93401">
        <ele>53.879509</ele>
        <time>2026-05-07T12:48:22.966Z</time>
      </trkpt>
      <trkpt lat="51.95118" lon="5.93398">
        <ele>53.880675</ele>
        <time>2026-05-07T12:48:25.966Z</time>
      </trkpt>
      <trkpt lat="51.95128" lon="5.93395">
        <ele>53.88191</ele>
        <time>2026-05-07T12:48:28.958Z</time>
      </trkpt>
      <trkpt lat="51.95137" lon="5.93392">
        <ele>53.883188</ele>
        <time>2026-05-07T12:48:31.963Z</time>
      </trkpt>
      <trkpt lat="51.95147" lon="5.93389">
        <ele>53.884436</ele>
        <time>2026-05-07T12:48:34.976Z</time>
      </trkpt>
      <trkpt lat="51.95157" lon="5.93386">
        <ele>53.885757</ele>
        <time>2026-05-07T12:48:37.964Z</time>
      </trkpt>
      <trkpt lat="51.95167" lon="5.93385">
        <ele>53.887031</ele>
        <time>2026-05-07T12:48:40.974Z</time>
      </trkpt>
      <trkpt lat="51.95177" lon="5.93382">
        <ele>53.888319</ele>
        <time>2026-05-07T12:48:43.972Z</time>
      </trkpt>
      <trkpt lat="51.95188" lon="5.9338">
        <ele>53.88965</ele>
        <time>2026-05-07T12:48:46.966Z</time>
      </trkpt>
      <trkpt lat="51.95199" lon="5.93377">
        <ele>53.89111</ele>
        <time>2026-05-07T12:48:49.974Z</time>
      </trkpt>
      <trkpt lat="51.95211" lon="5.93374">
        <ele>53.892613</ele>
        <time>2026-05-07T12:48:52.975Z</time>
      </trkpt>
      <trkpt lat="51.95222" lon="5.9337">
        <ele>53.894076</ele>
        <time>2026-05-07T12:48:55.975Z</time>
      </trkpt>
      <trkpt lat="51.95233" lon="5.93367">
        <ele>53.895537</ele>
        <time>2026-05-07T12:48:58.965Z</time>
      </trkpt>
      <trkpt lat="51.95244" lon="5.93363">
        <ele>53.896965</ele>
        <time>2026-05-07T12:49:01.970Z</time>
      </trkpt>
      <trkpt lat="51.95256" lon="5.93359">
        <ele>53.898445</ele>
        <time>2026-05-07T12:49:04.955Z</time>
      </trkpt>
      <trkpt lat="51.95267" lon="5.93354">
        <ele>54.019932</ele>
        <time>2026-05-07T12:49:07.982Z</time>
      </trkpt>
      <trkpt lat="51.95278" lon="5.9335">
        <ele>54.142653</ele>
        <time>2026-05-07T12:49:10.971Z</time>
      </trkpt>
      <trkpt lat="51.95289" lon="5.93346">
        <ele>54.261485</ele>
        <time>2026-05-07T12:49:13.956Z</time>
      </trkpt>
      <trkpt lat="51.953" lon="5.93342">
        <ele>54.379565</ele>
        <time>2026-05-07T12:49:16.974Z</time>
      </trkpt>
      <trkpt lat="51.95311" lon="5.93336">
        <ele>54.50441</ele>
        <time>2026-05-07T12:49:19.955Z</time>
      </trkpt>
      <trkpt lat="51.95322" lon="5.93332">
        <ele>54.627132</ele>
        <time>2026-05-07T12:49:22.968Z</time>
      </trkpt>
      <trkpt lat="51.95333" lon="5.93328">
        <ele>54.749397</ele>
        <time>2026-05-07T12:49:25.968Z</time>
      </trkpt>
      <trkpt lat="51.95345" lon="5.93326">
        <ele>54.873482</ele>
        <time>2026-05-07T12:49:28.962Z</time>
      </trkpt>
      <trkpt lat="51.95356" lon="5.93325">
        <ele>54.989664</ele>
        <time>2026-05-07T12:49:31.967Z</time>
      </trkpt>
      <trkpt lat="51.95366" lon="5.93324">
        <ele>55.10152</ele>
        <time>2026-05-07T12:49:34.972Z</time>
      </trkpt>
      <trkpt lat="51.95376" lon="5.93325">
        <ele>55.206849</ele>
        <time>2026-05-07T12:49:37.951Z</time>
      </trkpt>
      <trkpt lat="51.95385" lon="5.93326">
        <ele>55.307982</ele>
        <time>2026-05-07T12:49:40.969Z</time>
      </trkpt>
      <trkpt lat="51.95397" lon="5.93325">
        <ele>55.432574</ele>
        <time>2026-05-07T12:49:44.968Z</time>
      </trkpt>
      <trkpt lat="51.95408" lon="5.93326">
        <ele>55.55288</ele>
        <time>2026-05-07T12:49:48.966Z</time>
      </trkpt>
      <trkpt lat="51.95419" lon="5.93325">
        <ele>55.669026</ele>
        <time>2026-05-07T12:49:52.975Z</time>
      </trkpt>
      <trkpt lat="51.95429" lon="5.93325">
        <ele>55.77643</ele>
        <time>2026-05-07T12:49:56.947Z</time>
      </trkpt>
      <trkpt lat="51.95439" lon="5.93319">
        <ele>55.957098</ele>
        <time>2026-05-07T12:50:00.954Z</time>
      </trkpt>
      <trkpt lat="51.95445" lon="5.93308">
        <ele>56.150355</ele>
        <time>2026-05-07T12:50:03.962Z</time>
      </trkpt>
      <trkpt lat="51.95445" lon="5.93289">
        <ele>56.402686</ele>
        <time>2026-05-07T12:50:07.962Z</time>
      </trkpt>
      <trkpt lat="51.95444" lon="5.9327">
        <ele>56.659143</ele>
        <time>2026-05-07T12:50:11.965Z</time>
      </trkpt>
      <trkpt lat="51.95445" lon="5.93251">
        <ele>56.910812</ele>
        <time>2026-05-07T12:50:15.963Z</time>
      </trkpt>
      <trkpt lat="51.95446" lon="5.93233">
        <ele>57.140854</ele>
        <time>2026-05-07T12:50:19.969Z</time>
      </trkpt>
      <trkpt lat="51.95452" lon="5.93218">
        <ele>57.383957</ele>
        <time>2026-05-07T12:50:23.963Z</time>
      </trkpt>
      <trkpt lat="51.95463" lon="5.9321">
        <ele>57.634812</ele>
        <time>2026-05-07T12:50:27.974Z</time>
      </trkpt>
      <trkpt lat="51.95473" lon="5.93203">
        <ele>57.874422</ele>
        <time>2026-05-07T12:50:31.963Z</time>
      </trkpt>
      <trkpt lat="51.95484" lon="5.93197">
        <ele>58.123242</ele>
        <time>2026-05-07T12:50:35.973Z</time>
      </trkpt>
      <trkpt lat="51.95494" lon="5.9319">
        <ele>58.356412</ele>
        <time>2026-05-07T12:50:39.972Z</time>
      </trkpt>
      <trkpt lat="51.95502" lon="5.93183">
        <ele>58.558047</ele>
        <time>2026-05-07T12:50:43.967Z</time>
      </trkpt>
      <trkpt lat="51.9551" lon="5.93171">
        <ele>58.789119</ele>
        <time>2026-05-07T12:50:48.964Z</time>
      </trkpt>
      <trkpt lat="51.95518" lon="5.93163">
        <ele>59.007067</ele>
        <time>2026-05-07T12:50:51.971Z</time>
      </trkpt>
      <trkpt lat="51.95529" lon="5.93157">
        <ele>59.237388</ele>
        <time>2026-05-07T12:50:54.960Z</time>
      </trkpt>
      <trkpt lat="51.95538" lon="5.93153">
        <ele>59.443113</ele>
        <time>2026-05-07T12:50:57.966Z</time>
      </trkpt>
      <trkpt lat="51.95547" lon="5.93148">
        <ele>59.652174</ele>
        <time>2026-05-07T12:51:00.981Z</time>
      </trkpt>
      <trkpt lat="51.95557" lon="5.93143">
        <ele>59.584652</ele>
        <time>2026-05-07T12:51:03.978Z</time>
      </trkpt>
      <trkpt lat="51.95567" lon="5.93138">
        <ele>59.421134</ele>
        <time>2026-05-07T12:51:06.957Z</time>
      </trkpt>
      <trkpt lat="51.95577" lon="5.93133">
        <ele>59.25295</ele>
        <time>2026-05-07T12:51:09.977Z</time>
      </trkpt>
      <trkpt lat="51.95588" lon="5.93127">
        <ele>59.081034</ele>
        <time>2026-05-07T12:51:12.979Z</time>
      </trkpt>
      <trkpt lat="51.95598" lon="5.93121">
        <ele>58.905548</ele>
        <time>2026-05-07T12:51:15.970Z</time>
      </trkpt>
      <trkpt lat="51.95609" lon="5.93113">
        <ele>58.721137</ele>
        <time>2026-05-07T12:51:18.963Z</time>
      </trkpt>
      <trkpt lat="51.95621" lon="5.93106">
        <ele>58.524119</ele>
        <time>2026-05-07T12:51:21.945Z</time>
      </trkpt>
      <trkpt lat="51.95633" lon="5.93099">
        <ele>58.328549</ele>
        <time>2026-05-07T12:51:24.963Z</time>
      </trkpt>
      <trkpt lat="51.95645" lon="5.9309">
        <ele>58.121136</ele>
        <time>2026-05-07T12:51:27.967Z</time>
      </trkpt>
      <trkpt lat="51.95654" lon="5.93085">
        <ele>57.979007</ele>
        <time>2026-05-07T12:51:29.980Z</time>
      </trkpt>
      <trkpt lat="51.95662" lon="5.93079">
        <ele>57.836936</ele>
        <time>2026-05-07T12:51:31.957Z</time>
      </trkpt>
      <trkpt lat="51.95677" lon="5.93068">
        <ele>57.590617</ele>
        <time>2026-05-07T12:51:34.963Z</time>
      </trkpt>
      <trkpt lat="51.95689" lon="5.93065">
        <ele>57.390052</ele>
        <time>2026-05-07T12:51:37.967Z</time>
      </trkpt>
      <trkpt lat="51.95702" lon="5.93057">
        <ele>57.180518</ele>
        <time>2026-05-07T12:51:40.969Z</time>
      </trkpt>
      <trkpt lat="51.95715" lon="5.93051">
        <ele>56.972699</ele>
        <time>2026-05-07T12:51:43.978Z</time>
      </trkpt>
      <trkpt lat="51.95728" lon="5.93053">
        <ele>57.006285</ele>
        <time>2026-05-07T12:51:46.967Z</time>
      </trkpt>
      <trkpt lat="51.95739" lon="5.93063">
        <ele>57.119504</ele>
        <time>2026-05-07T12:51:49.958Z</time>
      </trkpt>
      <trkpt lat="51.95747" lon="5.93079">
        <ele>57.234663</ele>
        <time>2026-05-07T12:51:52.961Z</time>
      </trkpt>
      <trkpt lat="51.95753" lon="5.93094">
        <ele>57.334459</ele>
        <time>2026-05-07T12:51:55.974Z</time>
      </trkpt>
      <trkpt lat="51.95759" lon="5.93108">
        <ele>57.433211</ele>
        <time>2026-05-07T12:51:58.954Z</time>
      </trkpt>
      <trkpt lat="51.95767" lon="5.9312">
        <ele>57.531453</ele>
        <time>2026-05-07T12:52:01.947Z</time>
      </trkpt>
      <trkpt lat="51.95775" lon="5.93129">
        <ele>57.621247</ele>
        <time>2026-05-07T12:52:04.972Z</time>
      </trkpt>
      <trkpt lat="51.95786" lon="5.93137">
        <ele>57.727634</ele>
        <time>2026-05-07T12:52:08.958Z</time>
      </trkpt>
      <trkpt lat="51.95795" lon="5.93139">
        <ele>57.814743</ele>
        <time>2026-05-07T12:52:11.962Z</time>
      </trkpt>
      <trkpt lat="51.95804" lon="5.9314">
        <ele>57.897928</ele>
        <time>2026-05-07T12:52:14.974Z</time>
      </trkpt>
      <trkpt lat="51.95816" lon="5.93142">
        <ele>58.005053</ele>
        <time>2026-05-07T12:52:18.967Z</time>
      </trkpt>
      <trkpt lat="51.95826" lon="5.93142">
        <ele>58.094237</ele>
        <time>2026-05-07T12:52:21.959Z</time>
      </trkpt>
      <trkpt lat="51.95836" lon="5.93143">
        <ele>58.183508</ele>
        <time>2026-05-07T12:52:24.978Z</time>
      </trkpt>
      <trkpt lat="51.95846" lon="5.93143">
        <ele>58.280923</ele>
        <time>2026-05-07T12:52:27.969Z</time>
      </trkpt>
      <trkpt lat="51.95857" lon="5.93144">
        <ele>58.378324</ele>
        <time>2026-05-07T12:52:30.964Z</time>
      </trkpt>
      <trkpt lat="51.95867" lon="5.93145">
        <ele>58.471353</ele>
        <time>2026-05-07T12:52:33.969Z</time>
      </trkpt>
      <trkpt lat="51.95878" lon="5.93146">
        <ele>58.556338</ele>
        <time>2026-05-07T12:52:36.986Z</time>
      </trkpt>
      <trkpt lat="51.9589" lon="5.93147">
        <ele>58.556267</ele>
        <time>2026-05-07T12:52:39.966Z</time>
      </trkpt>
      <trkpt lat="51.95901" lon="5.93149">
        <ele>58.556194</ele>
        <time>2026-05-07T12:52:42.969Z</time>
      </trkpt>
      <trkpt lat="51.95913" lon="5.93151">
        <ele>58.556122</ele>
        <time>2026-05-07T12:52:45.967Z</time>
      </trkpt>
      <trkpt lat="51.95924" lon="5.93151">
        <ele>58.55605</ele>
        <time>2026-05-07T12:52:48.963Z</time>
      </trkpt>
      <trkpt lat="51.95936" lon="5.93152">
        <ele>58.555976</ele>
        <time>2026-05-07T12:52:51.951Z</time>
      </trkpt>
      <trkpt lat="51.95948" lon="5.93153">
        <ele>58.5559</ele>
        <time>2026-05-07T12:52:54.966Z</time>
      </trkpt>
      <trkpt lat="51.9596" lon="5.93154">
        <ele>58.555823</ele>
        <time>2026-05-07T12:52:57.967Z</time>
      </trkpt>
      <trkpt lat="51.95972" lon="5.93156">
        <ele>58.555751</ele>
        <time>2026-05-07T12:53:00.962Z</time>
      </trkpt>
      <trkpt lat="51.95983" lon="5.93156">
        <ele>58.555679</ele>
        <time>2026-05-07T12:53:03.965Z</time>
      </trkpt>
      <trkpt lat="51.95995" lon="5.93158">
        <ele>58.555604</ele>
        <time>2026-05-07T12:53:06.976Z</time>
      </trkpt>
      <trkpt lat="51.96008" lon="5.93159">
        <ele>58.555526</ele>
        <time>2026-05-07T12:53:09.960Z</time>
      </trkpt>
      <trkpt lat="51.96021" lon="5.93161">
        <ele>58.555443</ele>
        <time>2026-05-07T12:53:12.971Z</time>
      </trkpt>
      <trkpt lat="51.96034" lon="5.93162">
        <ele>58.555362</ele>
        <time>2026-05-07T12:53:15.969Z</time>
      </trkpt>
      <trkpt lat="51.96046" lon="5.93162">
        <ele>58.555282</ele>
        <time>2026-05-07T12:53:18.964Z</time>
      </trkpt>
      <trkpt lat="51.96059" lon="5.93161">
        <ele>58.552113</ele>
        <time>2026-05-07T12:53:21.974Z</time>
      </trkpt>
      <trkpt lat="51.96071" lon="5.93162">
        <ele>58.53809</ele>
        <time>2026-05-07T12:53:24.978Z</time>
      </trkpt>
      <trkpt lat="51.96083" lon="5.93161">
        <ele>58.524405</ele>
        <time>2026-05-07T12:53:27.947Z</time>
      </trkpt>
      <trkpt lat="51.96096" lon="5.9316">
        <ele>58.510585</ele>
        <time>2026-05-07T12:53:30.960Z</time>
      </trkpt>
      <trkpt lat="51.96107" lon="5.93158">
        <ele>58.497432</ele>
        <time>2026-05-07T12:53:33.976Z</time>
      </trkpt>
      <trkpt lat="51.96118" lon="5.93157">
        <ele>58.484617</ele>
        <time>2026-05-07T12:53:36.972Z</time>
      </trkpt>
      <trkpt lat="51.9613" lon="5.93154">
        <ele>58.471663</ele>
        <time>2026-05-07T12:53:39.975Z</time>
      </trkpt>
      <trkpt lat="51.96141" lon="5.93151">
        <ele>58.458566</ele>
        <time>2026-05-07T12:53:42.955Z</time>
      </trkpt>
      <trkpt lat="51.96153" lon="5.93148">
        <ele>58.444932</ele>
        <time>2026-05-07T12:53:45.966Z</time>
      </trkpt>
      <trkpt lat="51.96165" lon="5.93145">
        <ele>58.431497</ele>
        <time>2026-05-07T12:53:48.971Z</time>
      </trkpt>
      <trkpt lat="51.96177" lon="5.93141">
        <ele>58.417703</ele>
        <time>2026-05-07T12:53:51.955Z</time>
      </trkpt>
      <trkpt lat="51.96189" lon="5.93137">
        <ele>58.40402</ele>
        <time>2026-05-07T12:53:54.969Z</time>
      </trkpt>
      <trkpt lat="51.962" lon="5.93133">
        <ele>58.390397</ele>
        <time>2026-05-07T12:53:57.974Z</time>
      </trkpt>
      <trkpt lat="51.96212" lon="5.93126">
        <ele>58.37657</ele>
        <time>2026-05-07T12:54:00.964Z</time>
      </trkpt>
      <trkpt lat="51.96223" lon="5.93121">
        <ele>58.363549</ele>
        <time>2026-05-07T12:54:03.968Z</time>
      </trkpt>
      <trkpt lat="51.96235" lon="5.93116">
        <ele>58.353324</ele>
        <time>2026-05-07T12:54:06.979Z</time>
      </trkpt>
      <trkpt lat="51.96245" lon="5.93111">
        <ele>58.363382</ele>
        <time>2026-05-07T12:54:09.963Z</time>
      </trkpt>
      <trkpt lat="51.96256" lon="5.93105">
        <ele>58.373355</ele>
        <time>2026-05-07T12:54:12.970Z</time>
      </trkpt>
      <trkpt lat="51.96267" lon="5.93099">
        <ele>58.383684</ele>
        <time>2026-05-07T12:54:15.960Z</time>
      </trkpt>
      <trkpt lat="51.96278" lon="5.93092">
        <ele>58.394374</ele>
        <time>2026-05-07T12:54:18.963Z</time>
      </trkpt>
      <trkpt lat="51.9629" lon="5.93085">
        <ele>58.405205</ele>
        <time>2026-05-07T12:54:21.953Z</time>
      </trkpt>
      <trkpt lat="51.963" lon="5.93078">
        <ele>58.415458</ele>
        <time>2026-05-07T12:54:24.967Z</time>
      </trkpt>
      <trkpt lat="51.96311" lon="5.93071">
        <ele>58.42575</ele>
        <time>2026-05-07T12:54:27.968Z</time>
      </trkpt>
      <trkpt lat="51.96322" lon="5.93063">
        <ele>58.436537</ele>
        <time>2026-05-07T12:54:30.958Z</time>
      </trkpt>
      <trkpt lat="51.96333" lon="5.93055">
        <ele>58.447242</ele>
        <time>2026-05-07T12:54:33.976Z</time>
      </trkpt>
      <trkpt lat="51.96344" lon="5.93047">
        <ele>58.457964</ele>
        <time>2026-05-07T12:54:36.963Z</time>
      </trkpt>
      <trkpt lat="51.96355" lon="5.93038">
        <ele>58.468653</ele>
        <time>2026-05-07T12:54:39.961Z</time>
      </trkpt>
      <trkpt lat="51.96365" lon="5.93029">
        <ele>58.479127</ele>
        <time>2026-05-07T12:54:42.968Z</time>
      </trkpt>
      <trkpt lat="51.96374" lon="5.93019">
        <ele>58.488787</ele>
        <time>2026-05-07T12:54:45.967Z</time>
      </trkpt>
      <trkpt lat="51.96385" lon="5.9301">
        <ele>58.499416</ele>
        <time>2026-05-07T12:54:48.967Z</time>
      </trkpt>
      <trkpt lat="51.96395" lon="5.93001">
        <ele>58.509603</ele>
        <time>2026-05-07T12:54:51.979Z</time>
      </trkpt>
      <trkpt lat="51.96405" lon="5.92992">
        <ele>58.513677</ele>
        <time>2026-05-07T12:54:54.984Z</time>
      </trkpt>
      <trkpt lat="51.96416" lon="5.92982">
        <ele>58.516102</ele>
        <time>2026-05-07T12:54:57.951Z</time>
      </trkpt>
      <trkpt lat="51.96426" lon="5.92973">
        <ele>58.518551</ele>
        <time>2026-05-07T12:55:00.969Z</time>
      </trkpt>
      <trkpt lat="51.96436" lon="5.92965">
        <ele>58.52088</ele>
        <time>2026-05-07T12:55:03.956Z</time>
      </trkpt>
      <trkpt lat="51.96446" lon="5.92956">
        <ele>58.523203</ele>
        <time>2026-05-07T12:55:06.967Z</time>
      </trkpt>
      <trkpt lat="51.96457" lon="5.92945">
        <ele>58.525785</ele>
        <time>2026-05-07T12:55:09.966Z</time>
      </trkpt>
      <trkpt lat="51.96468" lon="5.92935">
        <ele>58.528295</ele>
        <time>2026-05-07T12:55:12.962Z</time>
      </trkpt>
      <trkpt lat="51.96479" lon="5.92927">
        <ele>58.530782</ele>
        <time>2026-05-07T12:55:15.959Z</time>
      </trkpt>
      <trkpt lat="51.96489" lon="5.92916">
        <ele>58.533329</ele>
        <time>2026-05-07T12:55:18.966Z</time>
      </trkpt>
      <trkpt lat="51.965" lon="5.92906">
        <ele>58.535832</ele>
        <time>2026-05-07T12:55:21.956Z</time>
      </trkpt>
      <trkpt lat="51.96511" lon="5.92896">
        <ele>58.53842</ele>
        <time>2026-05-07T12:55:24.965Z</time>
      </trkpt>
      <trkpt lat="51.96522" lon="5.92887">
        <ele>58.540977</ele>
        <time>2026-05-07T12:55:27.969Z</time>
      </trkpt>
      <trkpt lat="51.96533" lon="5.92877">
        <ele>58.543473</ele>
        <time>2026-05-07T12:55:30.969Z</time>
      </trkpt>
      <trkpt lat="51.96543" lon="5.92867">
        <ele>58.545918</ele>
        <time>2026-05-07T12:55:33.966Z</time>
      </trkpt>
      <trkpt lat="51.96554" lon="5.92857">
        <ele>58.548535</ele>
        <time>2026-05-07T12:55:36.970Z</time>
      </trkpt>
      <trkpt lat="51.96565" lon="5.92847">
        <ele>58.580122</ele>
        <time>2026-05-07T12:55:39.973Z</time>
      </trkpt>
      <trkpt lat="51.96575" lon="5.92837">
        <ele>58.611703</ele>
        <time>2026-05-07T12:55:42.968Z</time>
      </trkpt>
      <trkpt lat="51.96585" lon="5.92828">
        <ele>58.643268</ele>
        <time>2026-05-07T12:55:45.956Z</time>
      </trkpt>
      <trkpt lat="51.96596" lon="5.92819">
        <ele>58.673524</ele>
        <time>2026-05-07T12:55:48.954Z</time>
      </trkpt>
      <trkpt lat="51.96606" lon="5.92809">
        <ele>58.70441</ele>
        <time>2026-05-07T12:55:51.974Z</time>
      </trkpt>
      <trkpt lat="51.96616" lon="5.92798">
        <ele>58.736495</ele>
        <time>2026-05-07T12:55:54.963Z</time>
      </trkpt>
      <trkpt lat="51.96626" lon="5.92787">
        <ele>58.76809</ele>
        <time>2026-05-07T12:55:57.965Z</time>
      </trkpt>
      <trkpt lat="51.96636" lon="5.92777">
        <ele>58.799223</ele>
        <time>2026-05-07T12:56:00.966Z</time>
      </trkpt>
      <trkpt lat="51.96646" lon="5.92766">
        <ele>58.829955</ele>
        <time>2026-05-07T12:56:03.965Z</time>
      </trkpt>
      <trkpt lat="51.96655" lon="5.92755">
        <ele>58.860501</ele>
        <time>2026-05-07T12:56:06.968Z</time>
      </trkpt>
      <trkpt lat="51.96665" lon="5.92743">
        <ele>58.891255</ele>
        <time>2026-05-07T12:56:09.973Z</time>
      </trkpt>
      <trkpt lat="51.96674" lon="5.9273">
        <ele>58.923141</ele>
        <time>2026-05-07T12:56:12.980Z</time>
      </trkpt>
      <trkpt lat="51.96683" lon="5.92716">
        <ele>58.954887</ele>
        <time>2026-05-07T12:56:15.963Z</time>
      </trkpt>
      <trkpt lat="51.96692" lon="5.92703">
        <ele>58.986989</ele>
        <time>2026-05-07T12:56:18.962Z</time>
      </trkpt>
      <trkpt lat="51.967" lon="5.9269">
        <ele>59.018077</ele>
        <time>2026-05-07T12:56:21.967Z</time>
      </trkpt>
      <trkpt lat="51.96709" lon="5.92675">
        <ele>59.003295</ele>
        <time>2026-05-07T12:56:24.967Z</time>
      </trkpt>
      <trkpt lat="51.96718" lon="5.92661">
        <ele>58.988373</ele>
        <time>2026-05-07T12:56:27.968Z</time>
      </trkpt>
      <trkpt lat="51.96726" lon="5.92646">
        <ele>58.973905</ele>
        <time>2026-05-07T12:56:30.971Z</time>
      </trkpt>
      <trkpt lat="51.96733" lon="5.92632">
        <ele>58.959595</ele>
        <time>2026-05-07T12:56:33.983Z</time>
      </trkpt>
      <trkpt lat="51.9674" lon="5.92616">
        <ele>58.945135</ele>
        <time>2026-05-07T12:56:36.971Z</time>
      </trkpt>
      <trkpt lat="51.96748" lon="5.92601">
        <ele>58.930438</ele>
        <time>2026-05-07T12:56:39.959Z</time>
      </trkpt>
      <trkpt lat="51.96755" lon="5.92585">
        <ele>58.915665</ele>
        <time>2026-05-07T12:56:42.968Z</time>
      </trkpt>
      <trkpt lat="51.96762" lon="5.92569">
        <ele>58.901023</ele>
        <time>2026-05-07T12:56:45.977Z</time>
      </trkpt>
      <trkpt lat="51.96769" lon="5.92553">
        <ele>58.886393</ele>
        <time>2026-05-07T12:56:48.976Z</time>
      </trkpt>
      <trkpt lat="51.96775" lon="5.92536">
        <ele>58.871762</ele>
        <time>2026-05-07T12:56:51.957Z</time>
      </trkpt>
      <trkpt lat="51.9678" lon="5.92521">
        <ele>58.858816</ele>
        <time>2026-05-07T12:56:54.977Z</time>
      </trkpt>
      <trkpt lat="51.96785" lon="5.92506">
        <ele>58.846369</ele>
        <time>2026-05-07T12:56:57.968Z</time>
      </trkpt>
      <trkpt lat="51.9679" lon="5.92491">
        <ele>58.833757</ele>
        <time>2026-05-07T12:57:00.965Z</time>
      </trkpt>
      <trkpt lat="51.96795" lon="5.92476">
        <ele>58.820648</ele>
        <time>2026-05-07T12:57:03.968Z</time>
      </trkpt>
      <trkpt lat="51.96799" lon="5.92461">
        <ele>58.808022</ele>
        <time>2026-05-07T12:57:06.982Z</time>
      </trkpt>
      <trkpt lat="51.96803" lon="5.92447">
        <ele>58.79311</ele>
        <time>2026-05-07T12:57:09.966Z</time>
      </trkpt>
      <trkpt lat="51.96808" lon="5.9243">
        <ele>58.762836</ele>
        <time>2026-05-07T12:57:13.971Z</time>
      </trkpt>
      <trkpt lat="51.96811" lon="5.92415">
        <ele>58.736104</ele>
        <time>2026-05-07T12:57:17.966Z</time>
      </trkpt>
      <trkpt lat="51.96816" lon="5.92397">
        <ele>58.705094</ele>
        <time>2026-05-07T12:57:21.980Z</time>
      </trkpt>
      <trkpt lat="51.96819" lon="5.9238">
        <ele>58.676363</ele>
        <time>2026-05-07T12:57:25.982Z</time>
      </trkpt>
      <trkpt lat="51.96822" lon="5.92365">
        <ele>58.649886</ele>
        <time>2026-05-07T12:57:29.963Z</time>
      </trkpt>
      <trkpt lat="51.96826" lon="5.92348">
        <ele>58.621687</ele>
        <time>2026-05-07T12:57:34.984Z</time>
      </trkpt>
      <trkpt lat="51.96829" lon="5.92333">
        <ele>58.595835</ele>
        <time>2026-05-07T12:57:38.964Z</time>
      </trkpt>
      <trkpt lat="51.96831" lon="5.92316">
        <ele>58.567452</ele>
        <time>2026-05-07T12:57:43.972Z</time>
      </trkpt>
      <trkpt lat="51.96834" lon="5.923">
        <ele>58.539731</ele>
        <time>2026-05-07T12:57:48.976Z</time>
      </trkpt>
      <trkpt lat="51.96835" lon="5.92284">
        <ele>58.513597</ele>
        <time>2026-05-07T12:57:54.970Z</time>
      </trkpt>
      <trkpt lat="51.96838" lon="5.92269">
        <ele>58.48929</ele>
        <time>2026-05-07T12:57:58.952Z</time>
      </trkpt>
      <trkpt lat="51.96839" lon="5.92251">
        <ele>58.45949</ele>
        <time>2026-05-07T12:58:02.965Z</time>
      </trkpt>
      <trkpt lat="51.96841" lon="5.92237">
        <ele>58.435557</ele>
        <time>2026-05-07T12:58:05.944Z</time>
      </trkpt>
      <trkpt lat="51.96843" lon="5.92222">
        <ele>58.411365</ele>
        <time>2026-05-07T12:58:08.979Z</time>
      </trkpt>
      <trkpt lat="51.96843" lon="5.92204">
        <ele>58.381279</ele>
        <time>2026-05-07T12:58:12.963Z</time>
      </trkpt>
      <trkpt lat="51.96846" lon="5.92186">
        <ele>58.350997</ele>
        <time>2026-05-07T12:58:16.970Z</time>
      </trkpt>
      <trkpt lat="51.96848" lon="5.9217">
        <ele>58.325688</ele>
        <time>2026-05-07T12:58:19.979Z</time>
      </trkpt>
      <trkpt lat="51.9685" lon="5.92154">
        <ele>58.355946</ele>
        <time>2026-05-07T12:58:22.957Z</time>
      </trkpt>
      <trkpt lat="51.96852" lon="5.92137">
        <ele>58.387188</ele>
        <time>2026-05-07T12:58:25.968Z</time>
      </trkpt>
      <trkpt lat="51.96854" lon="5.92121">
        <ele>58.416583</ele>
        <time>2026-05-07T12:58:28.968Z</time>
      </trkpt>
      <trkpt lat="51.96856" lon="5.92105">
        <ele>58.447236</ele>
        <time>2026-05-07T12:58:31.964Z</time>
      </trkpt>
      <trkpt lat="51.96858" lon="5.92088">
        <ele>58.478198</ele>
        <time>2026-05-07T12:58:34.975Z</time>
      </trkpt>
      <trkpt lat="51.96859" lon="5.92071">
        <ele>58.509798</ele>
        <time>2026-05-07T12:58:37.967Z</time>
      </trkpt>
      <trkpt lat="51.96861" lon="5.92055">
        <ele>58.539641</ele>
        <time>2026-05-07T12:58:40.963Z</time>
      </trkpt>
      <trkpt lat="51.96863" lon="5.92039">
        <ele>58.56899</ele>
        <time>2026-05-07T12:58:43.944Z</time>
      </trkpt>
      <trkpt lat="51.96865" lon="5.92022">
        <ele>58.599933</ele>
        <time>2026-05-07T12:58:46.958Z</time>
      </trkpt>
      <trkpt lat="51.96869" lon="5.92005">
        <ele>58.632868</ele>
        <time>2026-05-07T12:58:49.957Z</time>
      </trkpt>
      <trkpt lat="51.96873" lon="5.91988">
        <ele>58.665962</ele>
        <time>2026-05-07T12:58:52.975Z</time>
      </trkpt>
      <trkpt lat="51.96876" lon="5.91971">
        <ele>58.697856</ele>
        <time>2026-05-07T12:58:55.978Z</time>
      </trkpt>
      <trkpt lat="51.96878" lon="5.91956">
        <ele>58.726819</ele>
        <time>2026-05-07T12:58:58.964Z</time>
      </trkpt>
      <trkpt lat="51.96881" lon="5.9194">
        <ele>58.755682</ele>
        <time>2026-05-07T12:59:01.963Z</time>
      </trkpt>
      <trkpt lat="51.96884" lon="5.91926">
        <ele>58.782668</ele>
        <time>2026-05-07T12:59:04.971Z</time>
      </trkpt>
      <trkpt lat="51.96887" lon="5.9191">
        <ele>58.81404</ele>
        <time>2026-05-07T12:59:07.963Z</time>
      </trkpt>
      <trkpt lat="51.9689" lon="5.91893">
        <ele>58.846628</ele>
        <time>2026-05-07T12:59:10.971Z</time>
      </trkpt>
      <trkpt lat="51.96894" lon="5.91876">
        <ele>58.854319</ele>
        <time>2026-05-07T12:59:13.958Z</time>
      </trkpt>
      <trkpt lat="51.96898" lon="5.91859">
        <ele>58.851184</ele>
        <time>2026-05-07T12:59:16.958Z</time>
      </trkpt>
      <trkpt lat="51.96902" lon="5.91842">
        <ele>58.847969</ele>
        <time>2026-05-07T12:59:19.958Z</time>
      </trkpt>
      <trkpt lat="51.96906" lon="5.91824">
        <ele>58.844702</ele>
        <time>2026-05-07T12:59:22.972Z</time>
      </trkpt>
      <trkpt lat="51.9691" lon="5.91807">
        <ele>58.841428</ele>
        <time>2026-05-07T12:59:25.954Z</time>
      </trkpt>
      <trkpt lat="51.96915" lon="5.91789">
        <ele>58.837934</ele>
        <time>2026-05-07T12:59:28.956Z</time>
      </trkpt>
      <trkpt lat="51.9692" lon="5.91771">
        <ele>58.834506</ele>
        <time>2026-05-07T12:59:31.959Z</time>
      </trkpt>
      <trkpt lat="51.96926" lon="5.91753">
        <ele>58.830942</ele>
        <time>2026-05-07T12:59:34.977Z</time>
      </trkpt>
      <trkpt lat="51.96931" lon="5.91734">
        <ele>58.827375</ele>
        <time>2026-05-07T12:59:37.973Z</time>
      </trkpt>
      <trkpt lat="51.96937" lon="5.91716">
        <ele>58.823862</ele>
        <time>2026-05-07T12:59:40.965Z</time>
      </trkpt>
      <trkpt lat="51.96941" lon="5.91701">
        <ele>58.820851</ele>
        <time>2026-05-07T12:59:43.967Z</time>
      </trkpt>
      <trkpt lat="51.96947" lon="5.91686">
        <ele>58.817784</ele>
        <time>2026-05-07T12:59:46.970Z</time>
      </trkpt>
      <trkpt lat="51.96952" lon="5.9167">
        <ele>58.814621</ele>
        <time>2026-05-07T12:59:49.959Z</time>
      </trkpt>
      <trkpt lat="51.96957" lon="5.91653">
        <ele>58.811372</ele>
        <time>2026-05-07T12:59:52.961Z</time>
      </trkpt>
      <trkpt lat="51.96963" lon="5.91637">
        <ele>58.808078</ele>
        <time>2026-05-07T12:59:55.968Z</time>
      </trkpt>
      <trkpt lat="51.96969" lon="5.9162">
        <ele>58.806488</ele>
        <time>2026-05-07T12:59:58.974Z</time>
      </trkpt>
      <trkpt lat="51.96975" lon="5.91603">
        <ele>58.810409</ele>
        <time>2026-05-07T13:00:01.976Z</time>
      </trkpt>
      <trkpt lat="51.96981" lon="5.91586">
        <ele>58.814213</ele>
        <time>2026-05-07T13:00:04.955Z</time>
      </trkpt>
      <trkpt lat="51.96988" lon="5.9157">
        <ele>58.818186</ele>
        <time>2026-05-07T13:00:07.975Z</time>
      </trkpt>
      <trkpt lat="51.96994" lon="5.91552">
        <ele>58.822348</ele>
        <time>2026-05-07T13:00:10.967Z</time>
      </trkpt>
      <trkpt lat="51.97001" lon="5.91536">
        <ele>58.826293</ele>
        <time>2026-05-07T13:00:13.968Z</time>
      </trkpt>
      <trkpt lat="51.97008" lon="5.91519">
        <ele>58.830477</ele>
        <time>2026-05-07T13:00:16.965Z</time>
      </trkpt>
      <trkpt lat="51.97015" lon="5.91501">
        <ele>58.834691</ele>
        <time>2026-05-07T13:00:19.969Z</time>
      </trkpt>
      <trkpt lat="51.97023" lon="5.91484">
        <ele>58.838923</ele>
        <time>2026-05-07T13:00:22.967Z</time>
      </trkpt>
      <trkpt lat="51.97029" lon="5.91467">
        <ele>58.842879</ele>
        <time>2026-05-07T13:00:25.957Z</time>
      </trkpt>
      <trkpt lat="51.97036" lon="5.9145">
        <ele>58.846904</ele>
        <time>2026-05-07T13:00:28.979Z</time>
      </trkpt>
      <trkpt lat="51.97043" lon="5.91433">
        <ele>58.850966</ele>
        <time>2026-05-07T13:00:31.974Z</time>
      </trkpt>
      <trkpt lat="51.97049" lon="5.91416">
        <ele>58.85506</ele>
        <time>2026-05-07T13:00:34.962Z</time>
      </trkpt>
      <trkpt lat="51.97056" lon="5.91399">
        <ele>58.859154</ele>
        <time>2026-05-07T13:00:37.970Z</time>
      </trkpt>
      <trkpt lat="51.97063" lon="5.91382">
        <ele>58.863285</ele>
        <time>2026-05-07T13:00:40.972Z</time>
      </trkpt>
      <trkpt lat="51.9707" lon="5.91364">
        <ele>58.803992</ele>
        <time>2026-05-07T13:00:43.966Z</time>
      </trkpt>
      <trkpt lat="51.97077" lon="5.91346">
        <ele>58.727555</ele>
        <time>2026-05-07T13:00:46.974Z</time>
      </trkpt>
      <trkpt lat="51.97084" lon="5.91329">
        <ele>58.652052</ele>
        <time>2026-05-07T13:00:49.981Z</time>
      </trkpt>
      <trkpt lat="51.9709" lon="5.91312">
        <ele>58.578724</ele>
        <time>2026-05-07T13:00:52.966Z</time>
      </trkpt>
      <trkpt lat="51.97097" lon="5.91295">
        <ele>58.506023</ele>
        <time>2026-05-07T13:00:55.966Z</time>
      </trkpt>
      <trkpt lat="51.97104" lon="5.91278">
        <ele>58.433014</ele>
        <time>2026-05-07T13:00:58.965Z</time>
      </trkpt>
      <trkpt lat="51.9711" lon="5.91261">
        <ele>58.358723</ele>
        <time>2026-05-07T13:01:01.972Z</time>
      </trkpt>
      <trkpt lat="51.97116" lon="5.91244">
        <ele>58.286962</ele>
        <time>2026-05-07T13:01:04.965Z</time>
      </trkpt>
      <trkpt lat="51.97121" lon="5.91227">
        <ele>58.216465</ele>
        <time>2026-05-07T13:01:07.968Z</time>
      </trkpt>
      <trkpt lat="51.97127" lon="5.91209">
        <ele>58.144002</ele>
        <time>2026-05-07T13:01:10.975Z</time>
      </trkpt>
      <trkpt lat="51.97132" lon="5.9119">
        <ele>58.071049</ele>
        <time>2026-05-07T13:01:13.954Z</time>
      </trkpt>
      <trkpt lat="51.97137" lon="5.91172">
        <ele>57.996432</ele>
        <time>2026-05-07T13:01:16.959Z</time>
      </trkpt>
      <trkpt lat="51.97143" lon="5.91153">
        <ele>57.921613</ele>
        <time>2026-05-07T13:01:19.969Z</time>
      </trkpt>
      <trkpt lat="51.97147" lon="5.91136">
        <ele>57.852527</ele>
        <time>2026-05-07T13:01:22.987Z</time>
      </trkpt>
      <trkpt lat="51.97152" lon="5.91119">
        <ele>57.781042</ele>
        <time>2026-05-07T13:01:25.961Z</time>
      </trkpt>
      <trkpt lat="51.97155" lon="5.91104">
        <ele>57.697873</ele>
        <time>2026-05-07T13:01:28.969Z</time>
      </trkpt>
      <trkpt lat="51.97159" lon="5.91091">
        <ele>57.621461</ele>
        <time>2026-05-07T13:01:31.979Z</time>
      </trkpt>
      <trkpt lat="51.97162" lon="5.91076">
        <ele>57.54598</ele>
        <time>2026-05-07T13:01:36.965Z</time>
      </trkpt>
      <trkpt lat="51.9716" lon="5.91062">
        <ele>57.470888</ele>
        <time>2026-05-07T13:11:26.996Z</time>
      </trkpt>
      <trkpt lat="51.97161" lon="5.91047">
        <ele>57.392467</ele>
        <time>2026-05-07T13:11:35.994Z</time>
      </trkpt>
      <trkpt lat="51.97158" lon="5.91031">
        <ele>57.307051</ele>
        <time>2026-05-07T13:11:43.980Z</time>
      </trkpt>
      <trkpt lat="51.97152" lon="5.91018">
        <ele>57.228851</ele>
        <time>2026-05-07T13:11:53.994Z</time>
      </trkpt>
      <trkpt lat="51.97156" lon="5.91036">
        <ele>57.131503</ele>
        <time>2026-05-07T13:13:20.989Z</time>
      </trkpt>
      <trkpt lat="51.9716" lon="5.91058">
        <ele>57.014755</ele>
        <time>2026-05-07T13:13:33.000Z</time>
      </trkpt>
      <trkpt lat="51.97166" lon="5.91046">
        <ele>56.93199</ele>
        <time>2026-05-07T13:17:32.989Z</time>
      </trkpt>
      <trkpt lat="51.9717" lon="5.91029">
        <ele>56.839735</ele>
        <time>2026-05-07T13:17:37.017Z</time>
      </trkpt>
      <trkpt lat="51.97172" lon="5.91015">
        <ele>56.764078</ele>
        <time>2026-05-07T13:17:39.985Z</time>
      </trkpt>
      <trkpt lat="51.97174" lon="5.91">
        <ele>56.687692</ele>
        <time>2026-05-07T13:17:42.984Z</time>
      </trkpt>
      <trkpt lat="51.97177" lon="5.90986">
        <ele>56.612911</ele>
        <time>2026-05-07T13:17:45.998Z</time>
      </trkpt>
      <trkpt lat="51.97179" lon="5.90969">
        <ele>56.525175</ele>
        <time>2026-05-07T13:17:49.978Z</time>
      </trkpt>
      <trkpt lat="51.97172" lon="5.90952">
        <ele>56.423412</ele>
        <time>2026-05-07T13:17:53.981Z</time>
      </trkpt>
      <trkpt lat="51.97164" lon="5.90937">
        <ele>56.324867</ele>
        <time>2026-05-07T13:17:57.001Z</time>
      </trkpt>
      <trkpt lat="51.97157" lon="5.90924">
        <ele>56.619771</ele>
        <time>2026-05-07T13:17:59.973Z</time>
      </trkpt>
      <trkpt lat="51.97151" lon="5.90911">
        <ele>56.968876</ele>
        <time>2026-05-07T13:18:02.996Z</time>
      </trkpt>
      <trkpt lat="51.97146" lon="5.90894">
        <ele>57.366385</ele>
        <time>2026-05-07T13:18:06.992Z</time>
      </trkpt>
      <trkpt lat="51.97152" lon="5.90878">
        <ele>57.7559</ele>
        <time>2026-05-07T13:18:10.990Z</time>
      </trkpt>
      <trkpt lat="51.97162" lon="5.90875">
        <ele>58.125816</ele>
        <time>2026-05-07T13:18:14.999Z</time>
      </trkpt>
      <trkpt lat="51.97173" lon="5.9088">
        <ele>58.499491</ele>
        <time>2026-05-07T13:18:18.987Z</time>
      </trkpt>
      <trkpt lat="51.97183" lon="5.90888">
        <ele>58.887611</ele>
        <time>2026-05-07T13:18:22.987Z</time>
      </trkpt>
      <trkpt lat="51.97192" lon="5.90897">
        <ele>59.269304</ele>
        <time>2026-05-07T13:18:26.990Z</time>
      </trkpt>
      <trkpt lat="51.97201" lon="5.90907">
        <ele>59.645774</ele>
        <time>2026-05-07T13:18:30.987Z</time>
      </trkpt>
      <trkpt lat="51.97211" lon="5.90915">
        <ele>60.026272</ele>
        <time>2026-05-07T13:18:34.986Z</time>
      </trkpt>
      <trkpt lat="51.97221" lon="5.90924">
        <ele>60.422121</ele>
        <time>2026-05-07T13:18:38.981Z</time>
      </trkpt>
      <trkpt lat="51.97231" lon="5.90934">
        <ele>60.81797</ele>
        <time>2026-05-07T13:18:42.993Z</time>
      </trkpt>
      <trkpt lat="51.9724" lon="5.90943">
        <ele>61.207418</ele>
        <time>2026-05-07T13:18:46.984Z</time>
      </trkpt>
      <trkpt lat="51.9725" lon="5.90953">
        <ele>61.599433</ele>
        <time>2026-05-07T13:18:50.994Z</time>
      </trkpt>
      <trkpt lat="51.97259" lon="5.90962">
        <ele>61.992548</ele>
        <time>2026-05-07T13:18:54.986Z</time>
      </trkpt>
      <trkpt lat="51.97269" lon="5.90971">
        <ele>62.375119</ele>
        <time>2026-05-07T13:18:58.985Z</time>
      </trkpt>
      <trkpt lat="51.97279" lon="5.90981">
        <ele>62.737334</ele>
        <time>2026-05-07T13:19:02.989Z</time>
      </trkpt>
      <trkpt lat="51.97288" lon="5.90991">
        <ele>63.065459</ele>
        <time>2026-05-07T13:19:06.986Z</time>
      </trkpt>
      <trkpt lat="51.97298" lon="5.91001">
        <ele>63.400928</ele>
        <time>2026-05-07T13:19:11.006Z</time>
      </trkpt>
      <trkpt lat="51.97308" lon="5.9101">
        <ele>63.739609</ele>
        <time>2026-05-07T13:19:14.992Z</time>
      </trkpt>
      <trkpt lat="51.97318" lon="5.91019">
        <ele>64.062224</ele>
        <time>2026-05-07T13:19:18.991Z</time>
      </trkpt>
      <trkpt lat="51.97328" lon="5.91029">
        <ele>64.38102</ele>
        <time>2026-05-07T13:19:22.993Z</time>
      </trkpt>
      <trkpt lat="51.97337" lon="5.91038">
        <ele>64.707223</ele>
        <time>2026-05-07T13:19:26.986Z</time>
      </trkpt>
      <trkpt lat="51.97346" lon="5.91047">
        <ele>65.010943</ele>
        <time>2026-05-07T13:19:30.984Z</time>
      </trkpt>
      <trkpt lat="51.97356" lon="5.91057">
        <ele>65.338984</ele>
        <time>2026-05-07T13:19:34.980Z</time>
      </trkpt>
      <trkpt lat="51.97366" lon="5.91066">
        <ele>65.667025</ele>
        <time>2026-05-07T13:19:38.987Z</time>
      </trkpt>
      <trkpt lat="51.97375" lon="5.91075">
        <ele>65.996417</ele>
        <time>2026-05-07T13:19:42.998Z</time>
      </trkpt>
      <trkpt lat="51.97385" lon="5.91084">
        <ele>66.31403</ele>
        <time>2026-05-07T13:19:46.993Z</time>
      </trkpt>
      <trkpt lat="51.97394" lon="5.91094">
        <ele>66.617748</ele>
        <time>2026-05-07T13:19:50.994Z</time>
      </trkpt>
      <trkpt lat="51.97403" lon="5.91103">
        <ele>66.935488</ele>
        <time>2026-05-07T13:19:54.994Z</time>
      </trkpt>
      <trkpt lat="51.97412" lon="5.91112">
        <ele>67.242258</ele>
        <time>2026-05-07T13:19:58.991Z</time>
      </trkpt>
      <trkpt lat="51.97421" lon="5.91121">
        <ele>67.553088</ele>
        <time>2026-05-07T13:20:02.980Z</time>
      </trkpt>
      <trkpt lat="51.9743" lon="5.91129">
        <ele>67.760179</ele>
        <time>2026-05-07T13:20:06.984Z</time>
      </trkpt>
      <trkpt lat="51.97439" lon="5.91138">
        <ele>67.807339</ele>
        <time>2026-05-07T13:20:10.990Z</time>
      </trkpt>
      <trkpt lat="51.97447" lon="5.91146">
        <ele>67.856371</ele>
        <time>2026-05-07T13:20:14.984Z</time>
      </trkpt>
      <trkpt lat="51.97457" lon="5.91155">
        <ele>67.9081</ele>
        <time>2026-05-07T13:20:18.982Z</time>
      </trkpt>
      <trkpt lat="51.97466" lon="5.91163">
        <ele>67.959265</ele>
        <time>2026-05-07T13:20:22.986Z</time>
      </trkpt>
      <trkpt lat="51.97475" lon="5.91173">
        <ele>68.010375</ele>
        <time>2026-05-07T13:20:26.990Z</time>
      </trkpt>
      <trkpt lat="51.97484" lon="5.91182">
        <ele>68.060607</ele>
        <time>2026-05-07T13:20:30.971Z</time>
      </trkpt>
      <trkpt lat="51.97493" lon="5.9119">
        <ele>68.111249</ele>
        <time>2026-05-07T13:20:35.985Z</time>
      </trkpt>
      <trkpt lat="51.97503" lon="5.91201">
        <ele>68.166787</ele>
        <time>2026-05-07T13:20:40.990Z</time>
      </trkpt>
      <trkpt lat="51.97512" lon="5.91211">
        <ele>68.219534</ele>
        <time>2026-05-07T13:20:44.984Z</time>
      </trkpt>
      <trkpt lat="51.97521" lon="5.91221">
        <ele>68.274188</ele>
        <time>2026-05-07T13:20:48.987Z</time>
      </trkpt>
      <trkpt lat="51.97529" lon="5.91228">
        <ele>68.317583</ele>
        <time>2026-05-07T13:20:51.996Z</time>
      </trkpt>
      <trkpt lat="51.97538" lon="5.91236">
        <ele>68.365465</ele>
        <time>2026-05-07T13:20:54.997Z</time>
      </trkpt>
      <trkpt lat="51.97547" lon="5.91245">
        <ele>68.419705</ele>
        <time>2026-05-07T13:20:57.992Z</time>
      </trkpt>
      <trkpt lat="51.97558" lon="5.91255">
        <ele>68.479898</ele>
        <time>2026-05-07T13:21:00.992Z</time>
      </trkpt>
      <trkpt lat="51.9757" lon="5.91267">
        <ele>68.544146</ele>
        <time>2026-05-07T13:21:03.991Z</time>
      </trkpt>
      <trkpt lat="51.97578" lon="5.91274">
        <ele>68.589087</ele>
        <time>2026-05-07T13:21:05.989Z</time>
      </trkpt>
      <trkpt lat="51.9759" lon="5.91285">
        <ele>68.151539</ele>
        <time>2026-05-07T13:21:08.985Z</time>
      </trkpt>
      <trkpt lat="51.97598" lon="5.91293">
        <ele>67.692406</ele>
        <time>2026-05-07T13:21:10.977Z</time>
      </trkpt>
      <trkpt lat="51.97607" lon="5.91302">
        <ele>67.219306</ele>
        <time>2026-05-07T13:21:12.994Z</time>
      </trkpt>
      <trkpt lat="51.97616" lon="5.9131">
        <ele>66.726191</ele>
        <time>2026-05-07T13:21:14.988Z</time>
      </trkpt>
      <trkpt lat="51.97626" lon="5.91319">
        <ele>66.21252</ele>
        <time>2026-05-07T13:21:16.992Z</time>
      </trkpt>
      <trkpt lat="51.97636" lon="5.91329">
        <ele>65.672253</ele>
        <time>2026-05-07T13:21:18.998Z</time>
      </trkpt>
      <trkpt lat="51.97645" lon="5.91339">
        <ele>65.151624</ele>
        <time>2026-05-07T13:21:20.986Z</time>
      </trkpt>
      <trkpt lat="51.97655" lon="5.91348">
        <ele>64.623007</ele>
        <time>2026-05-07T13:21:22.984Z</time>
      </trkpt>
      <trkpt lat="51.97665" lon="5.91358">
        <ele>64.078188</ele>
        <time>2026-05-07T13:21:24.986Z</time>
      </trkpt>
      <trkpt lat="51.97674" lon="5.91369">
        <ele>63.534884</ele>
        <time>2026-05-07T13:21:26.984Z</time>
      </trkpt>
      <trkpt lat="51.97684" lon="5.91381">
        <ele>62.977293</ele>
        <time>2026-05-07T13:21:28.981Z</time>
      </trkpt>
      <trkpt lat="51.97693" lon="5.91395">
        <ele>62.381135</ele>
        <time>2026-05-07T13:21:30.982Z</time>
      </trkpt>
      <trkpt lat="51.97703" lon="5.91409">
        <ele>61.790715</ele>
        <time>2026-05-07T13:21:32.980Z</time>
      </trkpt>
      <trkpt lat="51.97712" lon="5.91423">
        <ele>61.188754</ele>
        <time>2026-05-07T13:21:34.989Z</time>
      </trkpt>
      <trkpt lat="51.97722" lon="5.91438">
        <ele>60.573613</ele>
        <time>2026-05-07T13:21:36.986Z</time>
      </trkpt>
      <trkpt lat="51.9773" lon="5.91455">
        <ele>60.234836</ele>
        <time>2026-05-07T13:21:38.987Z</time>
      </trkpt>
      <trkpt lat="51.97737" lon="5.91471">
        <ele>60.203777</ele>
        <time>2026-05-07T13:21:40.991Z</time>
      </trkpt>
      <trkpt lat="51.97744" lon="5.91489">
        <ele>60.173074</ele>
        <time>2026-05-07T13:21:42.982Z</time>
      </trkpt>
      <trkpt lat="51.9775" lon="5.91504">
        <ele>60.14481</ele>
        <time>2026-05-07T13:21:44.989Z</time>
      </trkpt>
      <trkpt lat="51.97755" lon="5.91517">
        <ele>60.122703</ele>
        <time>2026-05-07T13:21:46.986Z</time>
      </trkpt>
      <trkpt lat="51.97762" lon="5.91533">
        <ele>60.092864</ele>
        <time>2026-05-07T13:21:49.992Z</time>
      </trkpt>
      <trkpt lat="51.9777" lon="5.91547">
        <ele>60.064661</ele>
        <time>2026-05-07T13:21:53.985Z</time>
      </trkpt>
      <trkpt lat="51.97785" lon="5.91561">
        <ele>60.022322</ele>
        <time>2026-05-07T13:22:11.985Z</time>
      </trkpt>
      <trkpt lat="51.97795" lon="5.91554">
        <ele>59.994744</ele>
        <time>2026-05-07T13:22:14.980Z</time>
      </trkpt>
      <trkpt lat="51.97805" lon="5.91543">
        <ele>59.966669</ele>
        <time>2026-05-07T13:22:17.970Z</time>
      </trkpt>
      <trkpt lat="51.97815" lon="5.91532">
        <ele>59.936338</ele>
        <time>2026-05-07T13:22:21.994Z</time>
      </trkpt>
      <trkpt lat="51.97823" lon="5.91523">
        <ele>59.9114</ele>
        <time>2026-05-07T13:22:23.996Z</time>
      </trkpt>
      <trkpt lat="51.97834" lon="5.91517">
        <ele>59.884034</ele>
        <time>2026-05-07T13:22:26.986Z</time>
      </trkpt>
      <trkpt lat="51.97843" lon="5.91514">
        <ele>59.861187</ele>
        <time>2026-05-07T13:22:29.987Z</time>
      </trkpt>
      <trkpt lat="51.97851" lon="5.91503">
        <ele>59.835892</ele>
        <time>2026-05-07T13:22:33.009Z</time>
      </trkpt>
      <trkpt lat="51.97854" lon="5.91488">
        <ele>59.811018</ele>
        <time>2026-05-07T13:22:35.992Z</time>
      </trkpt>
      <trkpt lat="51.97858" lon="5.91474">
        <ele>59.722781</ele>
        <time>2026-05-07T13:22:38.985Z</time>
      </trkpt>
      <trkpt lat="51.97865" lon="5.91463">
        <ele>59.626918</ele>
        <time>2026-05-07T13:22:41.990Z</time>
      </trkpt>
      <trkpt lat="51.97871" lon="5.91452">
        <ele>59.536278</ele>
        <time>2026-05-07T13:22:44.980Z</time>
      </trkpt>
      <trkpt lat="51.97878" lon="5.9144">
        <ele>59.436647</ele>
        <time>2026-05-07T13:22:50.979Z</time>
      </trkpt>
      <trkpt lat="51.97873" lon="5.91427">
        <ele>59.341234</ele>
        <time>2026-05-07T13:22:56.005Z</time>
      </trkpt>
      <trkpt lat="51.9787" lon="5.91412">
        <ele>59.24608</ele>
        <time>2026-05-07T13:22:58.984Z</time>
      </trkpt>
      <trkpt lat="51.97869" lon="5.91394">
        <ele>59.133886</ele>
        <time>2026-05-07T13:23:01.984Z</time>
      </trkpt>
      <trkpt lat="51.9787" lon="5.91375">
        <ele>59.020494</ele>
        <time>2026-05-07T13:23:04.984Z</time>
      </trkpt>
      <trkpt lat="51.9787" lon="5.91356">
        <ele>58.904132</ele>
        <time>2026-05-07T13:23:07.986Z</time>
      </trkpt>
      <trkpt lat="51.97871" lon="5.91338">
        <ele>58.791106</ele>
        <time>2026-05-07T13:23:10.996Z</time>
      </trkpt>
      <trkpt lat="51.97872" lon="5.9132">
        <ele>58.684095</ele>
        <time>2026-05-07T13:23:13.989Z</time>
      </trkpt>
      <trkpt lat="51.97873" lon="5.91304">
        <ele>58.583357</ele>
        <time>2026-05-07T13:23:16.980Z</time>
      </trkpt>
      <trkpt lat="51.97874" lon="5.91289">
        <ele>58.487815</ele>
        <time>2026-05-07T13:23:19.976Z</time>
      </trkpt>
      <trkpt lat="51.97882" lon="5.91279">
        <ele>58.388603</ele>
        <time>2026-05-07T13:23:23.986Z</time>
      </trkpt>
      <trkpt lat="51.97889" lon="5.9126">
        <ele>58.25513</ele>
        <time>2026-05-07T13:24:28.992Z</time>
      </trkpt>
      <trkpt lat="51.97885" lon="5.91245">
        <ele>58.155759</ele>
        <time>2026-05-07T13:24:32.988Z</time>
      </trkpt>
      <trkpt lat="51.97882" lon="5.91227">
        <ele>58.040758</ele>
        <time>2026-05-07T13:24:36.989Z</time>
      </trkpt>
      <trkpt lat="51.9788" lon="5.91213">
        <ele>58.021234</ele>
        <time>2026-05-07T13:24:39.998Z</time>
      </trkpt>
      <trkpt lat="51.97878" lon="5.91197">
        <ele>58.021234</ele>
        <time>2026-05-07T13:24:42.991Z</time>
      </trkpt>
      <trkpt lat="51.97877" lon="5.91181">
        <ele>58.021234</ele>
        <time>2026-05-07T13:24:45.996Z</time>
      </trkpt>
      <trkpt lat="51.97876" lon="5.91164">
        <ele>58.021234</ele>
        <time>2026-05-07T13:24:48.981Z</time>
      </trkpt>
      <trkpt lat="51.97876" lon="5.91148">
        <ele>58.021234</ele>
        <time>2026-05-07T13:24:51.981Z</time>
      </trkpt>
      <trkpt lat="51.97873" lon="5.9113">
        <ele>58.021234</ele>
        <time>2026-05-07T13:24:54.980Z</time>
      </trkpt>
      <trkpt lat="51.97871" lon="5.91116">
        <ele>58.021234</ele>
        <time>2026-05-07T13:24:57.985Z</time>
      </trkpt>
      <trkpt lat="51.97872" lon="5.911">
        <ele>58.021234</ele>
        <time>2026-05-07T13:25:03.001Z</time>
      </trkpt>
      <trkpt lat="51.97881" lon="5.91092">
        <ele>58.021234</ele>
        <time>2026-05-07T13:25:17.991Z</time>
      </trkpt>
      <trkpt lat="51.97892" lon="5.91092">
        <ele>58.021234</ele>
        <time>2026-05-07T13:25:21.999Z</time>
      </trkpt>
      <trkpt lat="51.97902" lon="5.91091">
        <ele>58.021234</ele>
        <time>2026-05-07T13:25:24.994Z</time>
      </trkpt>
      <trkpt lat="51.97913" lon="5.91089">
        <ele>58.021234</ele>
        <time>2026-05-07T13:25:29.005Z</time>
      </trkpt>
      <trkpt lat="51.97924" lon="5.91088">
        <ele>58.021234</ele>
        <time>2026-05-07T13:25:32.975Z</time>
      </trkpt>
      <trkpt lat="51.97934" lon="5.91088">
        <ele>58.021234</ele>
        <time>2026-05-07T13:25:36.990Z</time>
      </trkpt>
      <trkpt lat="51.97945" lon="5.91089">
        <ele>58.021234</ele>
        <time>2026-05-07T13:25:42.989Z</time>
      </trkpt>
    </trkseg>
  </trk>
</gpx>